<?xml version="1.0" encoding="UTF-8"?>
<gpx version="1.1" creator="RoadTrp.org" xmlns="http://www.topografix.com/GPX/1/1">
<trk><name>Candies Creek &amp; Back Nine — Cleveland Bradley Greenways — August 5, 2026</name><trkseg>
<trkpt lat="35.197275" lon="-84.896784"><ele>217.9</ele><time>2026-08-05T19:49:48Z</time></trkpt>
<trkpt lat="35.197295" lon="-84.896817"><ele>217.6</ele><time>2026-08-05T19:49:52Z</time></trkpt>
<trkpt lat="35.197286" lon="-84.896858"><ele>217.3</ele><time>2026-08-05T19:49:55Z</time></trkpt>
<trkpt lat="35.197276" lon="-84.89689"><ele>216.7</ele><time>2026-08-05T19:49:57Z</time></trkpt>
<trkpt lat="35.197251" lon="-84.89692"><ele>216.4</ele><time>2026-08-05T19:50:00Z</time></trkpt>
<trkpt lat="35.197225" lon="-84.896953"><ele>216.1</ele><time>2026-08-05T19:50:03Z</time></trkpt>
<trkpt lat="35.197201" lon="-84.896982"><ele>215.8</ele><time>2026-08-05T19:50:06Z</time></trkpt>
<trkpt lat="35.197182" lon="-84.897008"><ele>215.8</ele><time>2026-08-05T19:50:08Z</time></trkpt>
<trkpt lat="35.197164" lon="-84.897037"><ele>215.5</ele><time>2026-08-05T19:50:10Z</time></trkpt>
<trkpt lat="35.19714" lon="-84.897073"><ele>215.2</ele><time>2026-08-05T19:50:13Z</time></trkpt>
<trkpt lat="35.197115" lon="-84.897103"><ele>214.9</ele><time>2026-08-05T19:50:16Z</time></trkpt>
<trkpt lat="35.197089" lon="-84.897138"><ele>215.2</ele><time>2026-08-05T19:50:19Z</time></trkpt>
<trkpt lat="35.197065" lon="-84.897176"><ele>215.2</ele><time>2026-08-05T19:50:22Z</time></trkpt>
<trkpt lat="35.197046" lon="-84.897203"><ele>215.8</ele><time>2026-08-05T19:50:24Z</time></trkpt>
<trkpt lat="35.197024" lon="-84.897238"><ele>215.8</ele><time>2026-08-05T19:50:27Z</time></trkpt>
<trkpt lat="35.197034" lon="-84.897272"><ele>215.8</ele><time>2026-08-05T19:50:30Z</time></trkpt>
<trkpt lat="35.197054" lon="-84.897308"><ele>215.2</ele><time>2026-08-05T19:50:33Z</time></trkpt>
<trkpt lat="35.197079" lon="-84.897346"><ele>214.9</ele><time>2026-08-05T19:50:36Z</time></trkpt>
<trkpt lat="35.197097" lon="-84.897374"><ele>214.9</ele><time>2026-08-05T19:50:38Z</time></trkpt>
<trkpt lat="35.197118" lon="-84.8974"><ele>215.5</ele><time>2026-08-05T19:50:40Z</time></trkpt>
<trkpt lat="35.197146" lon="-84.897429"><ele>216.1</ele><time>2026-08-05T19:50:43Z</time></trkpt>
<trkpt lat="35.197168" lon="-84.897459"><ele>216.4</ele><time>2026-08-05T19:50:46Z</time></trkpt>
<trkpt lat="35.197197" lon="-84.89749"><ele>216.7</ele><time>2026-08-05T19:50:49Z</time></trkpt>
<trkpt lat="35.197225" lon="-84.897521"><ele>216.7</ele><time>2026-08-05T19:50:52Z</time></trkpt>
<trkpt lat="35.197245" lon="-84.897545"><ele>216.4</ele><time>2026-08-05T19:50:54Z</time></trkpt>
<trkpt lat="35.19728" lon="-84.897562"><ele>215.8</ele><time>2026-08-05T19:50:57Z</time></trkpt>
<trkpt lat="35.197303" lon="-84.897529"><ele>216.1</ele><time>2026-08-05T19:51:00Z</time></trkpt>
<trkpt lat="35.197334" lon="-84.897524"><ele>216.7</ele><time>2026-08-05T19:51:03Z</time></trkpt>
<trkpt lat="35.197313" lon="-84.897568"><ele>217.0</ele><time>2026-08-05T19:51:06Z</time></trkpt>
<trkpt lat="35.197294" lon="-84.897596"><ele>217.0</ele><time>2026-08-05T19:51:08Z</time></trkpt>
<trkpt lat="35.197277" lon="-84.897624"><ele>217.3</ele><time>2026-08-05T19:51:10Z</time></trkpt>
<trkpt lat="35.197252" lon="-84.897662"><ele>217.9</ele><time>2026-08-05T19:51:13Z</time></trkpt>
<trkpt lat="35.197228" lon="-84.897698"><ele>217.6</ele><time>2026-08-05T19:51:16Z</time></trkpt>
<trkpt lat="35.197209" lon="-84.897723"><ele>217.6</ele><time>2026-08-05T19:51:18Z</time></trkpt>
<trkpt lat="35.197191" lon="-84.89775"><ele>217.9</ele><time>2026-08-05T19:51:20Z</time></trkpt>
<trkpt lat="35.197172" lon="-84.897777"><ele>217.9</ele><time>2026-08-05T19:51:22Z</time></trkpt>
<trkpt lat="35.19715" lon="-84.897801"><ele>217.6</ele><time>2026-08-05T19:51:24Z</time></trkpt>
<trkpt lat="35.197122" lon="-84.897833"><ele>217.3</ele><time>2026-08-05T19:51:27Z</time></trkpt>
<trkpt lat="35.197094" lon="-84.897863"><ele>217.0</ele><time>2026-08-05T19:51:30Z</time></trkpt>
<trkpt lat="35.197063" lon="-84.89789"><ele>217.3</ele><time>2026-08-05T19:51:33Z</time></trkpt>
<trkpt lat="35.197033" lon="-84.897926"><ele>217.0</ele><time>2026-08-05T19:51:36Z</time></trkpt>
<trkpt lat="35.197001" lon="-84.897955"><ele>216.7</ele><time>2026-08-05T19:51:39Z</time></trkpt>
<trkpt lat="35.19697" lon="-84.89798"><ele>216.4</ele><time>2026-08-05T19:51:42Z</time></trkpt>
<trkpt lat="35.196939" lon="-84.898009"><ele>216.1</ele><time>2026-08-05T19:51:45Z</time></trkpt>
<trkpt lat="35.196916" lon="-84.898028"><ele>216.7</ele><time>2026-08-05T19:51:47Z</time></trkpt>
<trkpt lat="35.196893" lon="-84.898049"><ele>217.3</ele><time>2026-08-05T19:51:49Z</time></trkpt>
<trkpt lat="35.196868" lon="-84.898069"><ele>217.3</ele><time>2026-08-05T19:51:51Z</time></trkpt>
<trkpt lat="35.196834" lon="-84.898096"><ele>217.3</ele><time>2026-08-05T19:51:54Z</time></trkpt>
<trkpt lat="35.196801" lon="-84.898115"><ele>217.3</ele><time>2026-08-05T19:51:57Z</time></trkpt>
<trkpt lat="35.196772" lon="-84.898138"><ele>217.6</ele><time>2026-08-05T19:52:00Z</time></trkpt>
<trkpt lat="35.196735" lon="-84.89815"><ele>216.7</ele><time>2026-08-05T19:52:03Z</time></trkpt>
<trkpt lat="35.196694" lon="-84.898157"><ele>217.0</ele><time>2026-08-05T19:52:06Z</time></trkpt>
<trkpt lat="35.196666" lon="-84.898155"><ele>217.0</ele><time>2026-08-05T19:52:08Z</time></trkpt>
<trkpt lat="35.196638" lon="-84.898153"><ele>217.0</ele><time>2026-08-05T19:52:10Z</time></trkpt>
<trkpt lat="35.19661" lon="-84.898141"><ele>216.7</ele><time>2026-08-05T19:52:12Z</time></trkpt>
<trkpt lat="35.196577" lon="-84.898119"><ele>217.0</ele><time>2026-08-05T19:52:15Z</time></trkpt>
<trkpt lat="35.196547" lon="-84.898095"><ele>216.7</ele><time>2026-08-05T19:52:18Z</time></trkpt>
<trkpt lat="35.196516" lon="-84.898066"><ele>216.4</ele><time>2026-08-05T19:52:21Z</time></trkpt>
<trkpt lat="35.196492" lon="-84.898046"><ele>216.1</ele><time>2026-08-05T19:52:23Z</time></trkpt>
<trkpt lat="35.19647" lon="-84.898025"><ele>215.8</ele><time>2026-08-05T19:52:25Z</time></trkpt>
<trkpt lat="35.196443" lon="-84.897999"><ele>215.5</ele><time>2026-08-05T19:52:28Z</time></trkpt>
<trkpt lat="35.196419" lon="-84.897974"><ele>215.2</ele><time>2026-08-05T19:52:31Z</time></trkpt>
<trkpt lat="35.196393" lon="-84.897937"><ele>215.2</ele><time>2026-08-05T19:52:34Z</time></trkpt>
<trkpt lat="35.196375" lon="-84.897907"><ele>215.5</ele><time>2026-08-05T19:52:36Z</time></trkpt>
<trkpt lat="35.196356" lon="-84.897879"><ele>215.5</ele><time>2026-08-05T19:52:38Z</time></trkpt>
<trkpt lat="35.196339" lon="-84.897842"><ele>215.5</ele><time>2026-08-05T19:52:41Z</time></trkpt>
<trkpt lat="35.196324" lon="-84.897803"><ele>215.5</ele><time>2026-08-05T19:52:44Z</time></trkpt>
<trkpt lat="35.196304" lon="-84.897759"><ele>215.8</ele><time>2026-08-05T19:52:47Z</time></trkpt>
<trkpt lat="35.196288" lon="-84.897727"><ele>215.8</ele><time>2026-08-05T19:52:49Z</time></trkpt>
<trkpt lat="35.196268" lon="-84.897689"><ele>216.1</ele><time>2026-08-05T19:52:52Z</time></trkpt>
<trkpt lat="35.196256" lon="-84.897653"><ele>215.8</ele><time>2026-08-05T19:52:55Z</time></trkpt>
<trkpt lat="35.19624" lon="-84.897614"><ele>215.8</ele><time>2026-08-05T19:52:58Z</time></trkpt>
<trkpt lat="35.196225" lon="-84.897585"><ele>215.8</ele><time>2026-08-05T19:53:00Z</time></trkpt>
<trkpt lat="35.196206" lon="-84.897545"><ele>215.5</ele><time>2026-08-05T19:53:03Z</time></trkpt>
<trkpt lat="35.196191" lon="-84.897515"><ele>215.8</ele><time>2026-08-05T19:53:06Z</time></trkpt>
<trkpt lat="35.196173" lon="-84.897475"><ele>215.5</ele><time>2026-08-05T19:53:09Z</time></trkpt>
<trkpt lat="35.196157" lon="-84.897446"><ele>215.5</ele><time>2026-08-05T19:53:11Z</time></trkpt>
<trkpt lat="35.196137" lon="-84.897412"><ele>215.5</ele><time>2026-08-05T19:53:14Z</time></trkpt>
<trkpt lat="35.196121" lon="-84.897382"><ele>214.9</ele><time>2026-08-05T19:53:17Z</time></trkpt>
<trkpt lat="35.196101" lon="-84.897338"><ele>215.2</ele><time>2026-08-05T19:53:20Z</time></trkpt>
<trkpt lat="35.196084" lon="-84.89731"><ele>215.5</ele><time>2026-08-05T19:53:22Z</time></trkpt>
<trkpt lat="35.196065" lon="-84.897281"><ele>215.2</ele><time>2026-08-05T19:53:25Z</time></trkpt>
<trkpt lat="35.196045" lon="-84.897247"><ele>215.2</ele><time>2026-08-05T19:53:28Z</time></trkpt>
<trkpt lat="35.196028" lon="-84.897217"><ele>214.9</ele><time>2026-08-05T19:53:30Z</time></trkpt>
<trkpt lat="35.196013" lon="-84.897188"><ele>215.2</ele><time>2026-08-05T19:53:32Z</time></trkpt>
<trkpt lat="35.195996" lon="-84.897156"><ele>214.9</ele><time>2026-08-05T19:53:35Z</time></trkpt>
<trkpt lat="35.19598" lon="-84.897117"><ele>214.9</ele><time>2026-08-05T19:53:38Z</time></trkpt>
<trkpt lat="35.195963" lon="-84.897087"><ele>214.6</ele><time>2026-08-05T19:53:40Z</time></trkpt>
<trkpt lat="35.195949" lon="-84.897058"><ele>214.0</ele><time>2026-08-05T19:53:42Z</time></trkpt>
<trkpt lat="35.195926" lon="-84.897029"><ele>214.3</ele><time>2026-08-05T19:53:45Z</time></trkpt>
<trkpt lat="35.195904" lon="-84.897001"><ele>214.3</ele><time>2026-08-05T19:53:48Z</time></trkpt>
<trkpt lat="35.195868" lon="-84.896977"><ele>214.0</ele><time>2026-08-05T19:53:51Z</time></trkpt>
<trkpt lat="35.195841" lon="-84.896963"><ele>214.3</ele><time>2026-08-05T19:53:53Z</time></trkpt>
<trkpt lat="35.195808" lon="-84.896953"><ele>214.6</ele><time>2026-08-05T19:53:56Z</time></trkpt>
<trkpt lat="35.195776" lon="-84.896941"><ele>214.3</ele><time>2026-08-05T19:53:59Z</time></trkpt>
<trkpt lat="35.19575" lon="-84.896928"><ele>214.3</ele><time>2026-08-05T19:54:01Z</time></trkpt>
<trkpt lat="35.195723" lon="-84.896917"><ele>214.0</ele><time>2026-08-05T19:54:03Z</time></trkpt>
<trkpt lat="35.195687" lon="-84.896905"><ele>214.3</ele><time>2026-08-05T19:54:06Z</time></trkpt>
<trkpt lat="35.195659" lon="-84.896893"><ele>214.3</ele><time>2026-08-05T19:54:09Z</time></trkpt>
<trkpt lat="35.19562" lon="-84.896871"><ele>214.3</ele><time>2026-08-05T19:54:12Z</time></trkpt>
<trkpt lat="35.195585" lon="-84.896856"><ele>214.3</ele><time>2026-08-05T19:54:15Z</time></trkpt>
<trkpt lat="35.195549" lon="-84.896839"><ele>213.7</ele><time>2026-08-05T19:54:19Z</time></trkpt>
<trkpt lat="35.195517" lon="-84.896817"><ele>213.1</ele><time>2026-08-05T19:54:22Z</time></trkpt>
<trkpt lat="35.195473" lon="-84.896801"><ele>213.7</ele><time>2026-08-05T19:54:25Z</time></trkpt>
<trkpt lat="35.195444" lon="-84.896792"><ele>214.0</ele><time>2026-08-05T19:54:27Z</time></trkpt>
<trkpt lat="35.195407" lon="-84.896784"><ele>214.0</ele><time>2026-08-05T19:54:30Z</time></trkpt>
<trkpt lat="35.195372" lon="-84.896783"><ele>214.0</ele><time>2026-08-05T19:54:33Z</time></trkpt>
<trkpt lat="35.195341" lon="-84.896782"><ele>214.3</ele><time>2026-08-05T19:54:35Z</time></trkpt>
<trkpt lat="35.195306" lon="-84.896798"><ele>214.0</ele><time>2026-08-05T19:54:38Z</time></trkpt>
<trkpt lat="35.195277" lon="-84.896815"><ele>214.0</ele><time>2026-08-05T19:54:40Z</time></trkpt>
<trkpt lat="35.19525" lon="-84.896827"><ele>213.4</ele><time>2026-08-05T19:54:42Z</time></trkpt>
<trkpt lat="35.19522" lon="-84.89684"><ele>213.7</ele><time>2026-08-05T19:54:44Z</time></trkpt>
<trkpt lat="35.195191" lon="-84.896853"><ele>215.8</ele><time>2026-08-05T19:54:46Z</time></trkpt>
<trkpt lat="35.195168" lon="-84.896872"><ele>216.7</ele><time>2026-08-05T19:54:48Z</time></trkpt>
<trkpt lat="35.195147" lon="-84.896901"><ele>216.1</ele><time>2026-08-05T19:54:51Z</time></trkpt>
<trkpt lat="35.195116" lon="-84.896927"><ele>216.4</ele><time>2026-08-05T19:54:54Z</time></trkpt>
<trkpt lat="35.195094" lon="-84.896949"><ele>216.7</ele><time>2026-08-05T19:54:56Z</time></trkpt>
<trkpt lat="35.195074" lon="-84.896974"><ele>217.0</ele><time>2026-08-05T19:54:58Z</time></trkpt>
<trkpt lat="35.195048" lon="-84.896997"><ele>216.1</ele><time>2026-08-05T19:55:01Z</time></trkpt>
<trkpt lat="35.195021" lon="-84.897021"><ele>215.8</ele><time>2026-08-05T19:55:04Z</time></trkpt>
<trkpt lat="35.19499" lon="-84.897049"><ele>215.8</ele><time>2026-08-05T19:55:07Z</time></trkpt>
<trkpt lat="35.194966" lon="-84.897073"><ele>216.1</ele><time>2026-08-05T19:55:09Z</time></trkpt>
<trkpt lat="35.194944" lon="-84.897097"><ele>216.1</ele><time>2026-08-05T19:55:11Z</time></trkpt>
<trkpt lat="35.194913" lon="-84.897121"><ele>216.1</ele><time>2026-08-05T19:55:14Z</time></trkpt>
<trkpt lat="35.194887" lon="-84.897141"><ele>216.4</ele><time>2026-08-05T19:55:17Z</time></trkpt>
<trkpt lat="35.194853" lon="-84.897166"><ele>216.7</ele><time>2026-08-05T19:55:20Z</time></trkpt>
<trkpt lat="35.194828" lon="-84.897185"><ele>216.4</ele><time>2026-08-05T19:55:22Z</time></trkpt>
<trkpt lat="35.194796" lon="-84.897213"><ele>216.4</ele><time>2026-08-05T19:55:25Z</time></trkpt>
<trkpt lat="35.194767" lon="-84.897236"><ele>216.4</ele><time>2026-08-05T19:55:28Z</time></trkpt>
<trkpt lat="35.194737" lon="-84.897258"><ele>216.4</ele><time>2026-08-05T19:55:31Z</time></trkpt>
<trkpt lat="35.194713" lon="-84.897279"><ele>217.0</ele><time>2026-08-05T19:55:33Z</time></trkpt>
<trkpt lat="35.194688" lon="-84.897297"><ele>217.0</ele><time>2026-08-05T19:55:35Z</time></trkpt>
<trkpt lat="35.194664" lon="-84.897316"><ele>217.0</ele><time>2026-08-05T19:55:37Z</time></trkpt>
<trkpt lat="35.194634" lon="-84.89734"><ele>217.0</ele><time>2026-08-05T19:55:40Z</time></trkpt>
<trkpt lat="35.194608" lon="-84.897361"><ele>217.3</ele><time>2026-08-05T19:55:43Z</time></trkpt>
<trkpt lat="35.194578" lon="-84.89739"><ele>217.6</ele><time>2026-08-05T19:55:46Z</time></trkpt>
<trkpt lat="35.194553" lon="-84.897409"><ele>217.9</ele><time>2026-08-05T19:55:48Z</time></trkpt>
<trkpt lat="35.194527" lon="-84.897426"><ele>217.6</ele><time>2026-08-05T19:55:50Z</time></trkpt>
<trkpt lat="35.194502" lon="-84.897446"><ele>217.6</ele><time>2026-08-05T19:55:52Z</time></trkpt>
<trkpt lat="35.194472" lon="-84.897464"><ele>217.6</ele><time>2026-08-05T19:55:55Z</time></trkpt>
<trkpt lat="35.19444" lon="-84.897484"><ele>217.9</ele><time>2026-08-05T19:55:58Z</time></trkpt>
<trkpt lat="35.194408" lon="-84.897506"><ele>217.6</ele><time>2026-08-05T19:56:01Z</time></trkpt>
<trkpt lat="35.194372" lon="-84.897528"><ele>217.9</ele><time>2026-08-05T19:56:04Z</time></trkpt>
<trkpt lat="35.194336" lon="-84.897548"><ele>217.6</ele><time>2026-08-05T19:56:07Z</time></trkpt>
<trkpt lat="35.194303" lon="-84.897569"><ele>217.9</ele><time>2026-08-05T19:56:10Z</time></trkpt>
<trkpt lat="35.194275" lon="-84.897602"><ele>217.9</ele><time>2026-08-05T19:56:13Z</time></trkpt>
<trkpt lat="35.19424" lon="-84.897616"><ele>217.6</ele><time>2026-08-05T19:56:16Z</time></trkpt>
<trkpt lat="35.194215" lon="-84.897635"><ele>217.6</ele><time>2026-08-05T19:56:18Z</time></trkpt>
<trkpt lat="35.194185" lon="-84.897657"><ele>217.3</ele><time>2026-08-05T19:56:21Z</time></trkpt>
<trkpt lat="35.194156" lon="-84.897676"><ele>216.4</ele><time>2026-08-05T19:56:24Z</time></trkpt>
<trkpt lat="35.19412" lon="-84.897695"><ele>216.7</ele><time>2026-08-05T19:56:27Z</time></trkpt>
<trkpt lat="35.194092" lon="-84.897709"><ele>217.0</ele><time>2026-08-05T19:56:29Z</time></trkpt>
<trkpt lat="35.194064" lon="-84.897724"><ele>217.0</ele><time>2026-08-05T19:56:31Z</time></trkpt>
<trkpt lat="35.194037" lon="-84.897736"><ele>217.3</ele><time>2026-08-05T19:56:33Z</time></trkpt>
<trkpt lat="35.194003" lon="-84.897748"><ele>217.0</ele><time>2026-08-05T19:56:36Z</time></trkpt>
<trkpt lat="35.193968" lon="-84.897756"><ele>216.4</ele><time>2026-08-05T19:56:39Z</time></trkpt>
<trkpt lat="35.193926" lon="-84.897756"><ele>216.7</ele><time>2026-08-05T19:56:42Z</time></trkpt>
<trkpt lat="35.193895" lon="-84.897761"><ele>217.0</ele><time>2026-08-05T19:56:44Z</time></trkpt>
<trkpt lat="35.193863" lon="-84.897767"><ele>217.3</ele><time>2026-08-05T19:56:46Z</time></trkpt>
<trkpt lat="35.193834" lon="-84.897777"><ele>217.6</ele><time>2026-08-05T19:56:48Z</time></trkpt>
<trkpt lat="35.193801" lon="-84.897791"><ele>217.3</ele><time>2026-08-05T19:56:51Z</time></trkpt>
<trkpt lat="35.193766" lon="-84.897807"><ele>217.0</ele><time>2026-08-05T19:56:54Z</time></trkpt>
<trkpt lat="35.193735" lon="-84.897838"><ele>217.0</ele><time>2026-08-05T19:56:57Z</time></trkpt>
<trkpt lat="35.193707" lon="-84.897876"><ele>216.4</ele><time>2026-08-05T19:57:00Z</time></trkpt>
<trkpt lat="35.193685" lon="-84.897897"><ele>216.4</ele><time>2026-08-05T19:57:02Z</time></trkpt>
<trkpt lat="35.193653" lon="-84.89792"><ele>217.0</ele><time>2026-08-05T19:57:05Z</time></trkpt>
<trkpt lat="35.19362" lon="-84.897937"><ele>217.0</ele><time>2026-08-05T19:57:08Z</time></trkpt>
<trkpt lat="35.193583" lon="-84.897957"><ele>217.3</ele><time>2026-08-05T19:57:11Z</time></trkpt>
<trkpt lat="35.193555" lon="-84.897973"><ele>217.3</ele><time>2026-08-05T19:57:13Z</time></trkpt>
<trkpt lat="35.193524" lon="-84.89799"><ele>217.6</ele><time>2026-08-05T19:57:15Z</time></trkpt>
<trkpt lat="35.193498" lon="-84.897999"><ele>217.6</ele><time>2026-08-05T19:57:17Z</time></trkpt>
<trkpt lat="35.193467" lon="-84.898012"><ele>217.6</ele><time>2026-08-05T19:57:20Z</time></trkpt>
<trkpt lat="35.193434" lon="-84.898022"><ele>217.6</ele><time>2026-08-05T19:57:23Z</time></trkpt>
<trkpt lat="35.193405" lon="-84.898033"><ele>217.9</ele><time>2026-08-05T19:57:25Z</time></trkpt>
<trkpt lat="35.193377" lon="-84.898045"><ele>217.9</ele><time>2026-08-05T19:57:27Z</time></trkpt>
<trkpt lat="35.193349" lon="-84.898059"><ele>218.2</ele><time>2026-08-05T19:57:29Z</time></trkpt>
<trkpt lat="35.193315" lon="-84.89807"><ele>217.6</ele><time>2026-08-05T19:57:32Z</time></trkpt>
<trkpt lat="35.193282" lon="-84.898078"><ele>217.6</ele><time>2026-08-05T19:57:35Z</time></trkpt>
<trkpt lat="35.193255" lon="-84.898087"><ele>217.9</ele><time>2026-08-05T19:57:37Z</time></trkpt>
<trkpt lat="35.193226" lon="-84.898098"><ele>217.9</ele><time>2026-08-05T19:57:39Z</time></trkpt>
<trkpt lat="35.193196" lon="-84.898112"><ele>218.2</ele><time>2026-08-05T19:57:41Z</time></trkpt>
<trkpt lat="35.193161" lon="-84.898129"><ele>218.2</ele><time>2026-08-05T19:57:44Z</time></trkpt>
<trkpt lat="35.19313" lon="-84.898138"><ele>217.9</ele><time>2026-08-05T19:57:47Z</time></trkpt>
<trkpt lat="35.193092" lon="-84.898149"><ele>217.9</ele><time>2026-08-05T19:57:50Z</time></trkpt>
<trkpt lat="35.193065" lon="-84.89816"><ele>218.2</ele><time>2026-08-05T19:57:52Z</time></trkpt>
<trkpt lat="35.193037" lon="-84.898173"><ele>218.2</ele><time>2026-08-05T19:57:54Z</time></trkpt>
<trkpt lat="35.193002" lon="-84.898189"><ele>218.5</ele><time>2026-08-05T19:57:57Z</time></trkpt>
<trkpt lat="35.192972" lon="-84.898199"><ele>218.5</ele><time>2026-08-05T19:58:00Z</time></trkpt>
<trkpt lat="35.192936" lon="-84.89821"><ele>218.5</ele><time>2026-08-05T19:58:03Z</time></trkpt>
<trkpt lat="35.192917" lon="-84.898247"><ele>219.8</ele><time>2026-08-05T19:58:05Z</time></trkpt>
<trkpt lat="35.192886" lon="-84.898249"><ele>220.1</ele><time>2026-08-05T19:58:07Z</time></trkpt>
<trkpt lat="35.192851" lon="-84.898255"><ele>219.5</ele><time>2026-08-05T19:58:10Z</time></trkpt>
<trkpt lat="35.19282" lon="-84.898267"><ele>219.2</ele><time>2026-08-05T19:58:13Z</time></trkpt>
<trkpt lat="35.192783" lon="-84.898282"><ele>219.5</ele><time>2026-08-05T19:58:16Z</time></trkpt>
<trkpt lat="35.192757" lon="-84.898302"><ele>219.5</ele><time>2026-08-05T19:58:18Z</time></trkpt>
<trkpt lat="35.192735" lon="-84.898323"><ele>219.2</ele><time>2026-08-05T19:58:20Z</time></trkpt>
<trkpt lat="35.19271" lon="-84.898354"><ele>218.8</ele><time>2026-08-05T19:58:23Z</time></trkpt>
<trkpt lat="35.19269" lon="-84.898381"><ele>218.2</ele><time>2026-08-05T19:58:26Z</time></trkpt>
<trkpt lat="35.19267" lon="-84.898415"><ele>217.9</ele><time>2026-08-05T19:58:29Z</time></trkpt>
<trkpt lat="35.192656" lon="-84.898451"><ele>217.9</ele><time>2026-08-05T19:58:31Z</time></trkpt>
<trkpt lat="35.192636" lon="-84.898478"><ele>217.9</ele><time>2026-08-05T19:58:33Z</time></trkpt>
<trkpt lat="35.192612" lon="-84.898506"><ele>217.3</ele><time>2026-08-05T19:58:36Z</time></trkpt>
<trkpt lat="35.192587" lon="-84.898534"><ele>217.3</ele><time>2026-08-05T19:58:39Z</time></trkpt>
<trkpt lat="35.192562" lon="-84.898552"><ele>217.0</ele><time>2026-08-05T19:58:41Z</time></trkpt>
<trkpt lat="35.192536" lon="-84.898569"><ele>217.3</ele><time>2026-08-05T19:58:43Z</time></trkpt>
<trkpt lat="35.19251" lon="-84.898585"><ele>217.3</ele><time>2026-08-05T19:58:45Z</time></trkpt>
<trkpt lat="35.192473" lon="-84.898597"><ele>217.0</ele><time>2026-08-05T19:58:48Z</time></trkpt>
<trkpt lat="35.192443" lon="-84.898608"><ele>216.7</ele><time>2026-08-05T19:58:51Z</time></trkpt>
<trkpt lat="35.192406" lon="-84.898621"><ele>216.7</ele><time>2026-08-05T19:58:54Z</time></trkpt>
<trkpt lat="35.192379" lon="-84.898635"><ele>216.7</ele><time>2026-08-05T19:58:56Z</time></trkpt>
<trkpt lat="35.192352" lon="-84.898653"><ele>216.4</ele><time>2026-08-05T19:58:58Z</time></trkpt>
<trkpt lat="35.192327" lon="-84.898684"><ele>216.4</ele><time>2026-08-05T19:59:01Z</time></trkpt>
<trkpt lat="35.192327" lon="-84.898719"><ele>216.4</ele><time>2026-08-05T19:59:03Z</time></trkpt>
<trkpt lat="35.192309" lon="-84.898757"><ele>216.4</ele><time>2026-08-05T19:59:06Z</time></trkpt>
<trkpt lat="35.192295" lon="-84.898788"><ele>216.1</ele><time>2026-08-05T19:59:08Z</time></trkpt>
<trkpt lat="35.192281" lon="-84.89882"><ele>216.1</ele><time>2026-08-05T19:59:10Z</time></trkpt>
<trkpt lat="35.192269" lon="-84.898852"><ele>216.1</ele><time>2026-08-05T19:59:12Z</time></trkpt>
<trkpt lat="35.192253" lon="-84.898891"><ele>216.1</ele><time>2026-08-05T19:59:15Z</time></trkpt>
<trkpt lat="35.192241" lon="-84.898927"><ele>215.8</ele><time>2026-08-05T19:59:18Z</time></trkpt>
<trkpt lat="35.192224" lon="-84.898968"><ele>216.1</ele><time>2026-08-05T19:59:21Z</time></trkpt>
<trkpt lat="35.192211" lon="-84.899016"><ele>216.1</ele><time>2026-08-05T19:59:24Z</time></trkpt>
<trkpt lat="35.192201" lon="-84.899048"><ele>215.8</ele><time>2026-08-05T19:59:26Z</time></trkpt>
<trkpt lat="35.192188" lon="-84.899091"><ele>216.1</ele><time>2026-08-05T19:59:29Z</time></trkpt>
<trkpt lat="35.192174" lon="-84.899135"><ele>216.1</ele><time>2026-08-05T19:59:32Z</time></trkpt>
<trkpt lat="35.192167" lon="-84.899177"><ele>215.8</ele><time>2026-08-05T19:59:35Z</time></trkpt>
<trkpt lat="35.192148" lon="-84.89922"><ele>215.5</ele><time>2026-08-05T19:59:38Z</time></trkpt>
<trkpt lat="35.192133" lon="-84.899251"><ele>215.2</ele><time>2026-08-05T19:59:40Z</time></trkpt>
<trkpt lat="35.192123" lon="-84.899285"><ele>215.2</ele><time>2026-08-05T19:59:42Z</time></trkpt>
<trkpt lat="35.192113" lon="-84.899316"><ele>215.2</ele><time>2026-08-05T19:59:44Z</time></trkpt>
<trkpt lat="35.192101" lon="-84.899358"><ele>215.2</ele><time>2026-08-05T19:59:47Z</time></trkpt>
<trkpt lat="35.192095" lon="-84.899401"><ele>215.2</ele><time>2026-08-05T19:59:50Z</time></trkpt>
<trkpt lat="35.192085" lon="-84.899434"><ele>215.2</ele><time>2026-08-05T19:59:52Z</time></trkpt>
<trkpt lat="35.192077" lon="-84.899468"><ele>215.5</ele><time>2026-08-05T19:59:54Z</time></trkpt>
<trkpt lat="35.19207" lon="-84.899506"><ele>215.8</ele><time>2026-08-05T19:59:56Z</time></trkpt>
<trkpt lat="35.192062" lon="-84.899545"><ele>216.4</ele><time>2026-08-05T19:59:58Z</time></trkpt>
<trkpt lat="35.192055" lon="-84.899581"><ele>216.4</ele><time>2026-08-05T20:00:00Z</time></trkpt>
<trkpt lat="35.192046" lon="-84.899627"><ele>216.4</ele><time>2026-08-05T20:00:03Z</time></trkpt>
<trkpt lat="35.192033" lon="-84.899671"><ele>216.4</ele><time>2026-08-05T20:00:06Z</time></trkpt>
<trkpt lat="35.192023" lon="-84.899709"><ele>216.1</ele><time>2026-08-05T20:00:09Z</time></trkpt>
<trkpt lat="35.192007" lon="-84.899754"><ele>216.4</ele><time>2026-08-05T20:00:12Z</time></trkpt>
<trkpt lat="35.191991" lon="-84.899787"><ele>216.7</ele><time>2026-08-05T20:00:14Z</time></trkpt>
<trkpt lat="35.191975" lon="-84.899819"><ele>216.7</ele><time>2026-08-05T20:00:16Z</time></trkpt>
<trkpt lat="35.191958" lon="-84.899845"><ele>216.7</ele><time>2026-08-05T20:00:18Z</time></trkpt>
<trkpt lat="35.191942" lon="-84.899879"><ele>216.7</ele><time>2026-08-05T20:00:21Z</time></trkpt>
<trkpt lat="35.191917" lon="-84.899911"><ele>216.4</ele><time>2026-08-05T20:00:24Z</time></trkpt>
<trkpt lat="35.191896" lon="-84.899954"><ele>216.7</ele><time>2026-08-05T20:00:27Z</time></trkpt>
<trkpt lat="35.191884" lon="-84.899989"><ele>217.0</ele><time>2026-08-05T20:00:29Z</time></trkpt>
<trkpt lat="35.191878" lon="-84.900029"><ele>217.3</ele><time>2026-08-05T20:00:32Z</time></trkpt>
<trkpt lat="35.191868" lon="-84.900068"><ele>217.3</ele><time>2026-08-05T20:00:35Z</time></trkpt>
<trkpt lat="35.191854" lon="-84.900116"><ele>217.0</ele><time>2026-08-05T20:00:38Z</time></trkpt>
<trkpt lat="35.191839" lon="-84.900145"><ele>217.0</ele><time>2026-08-05T20:00:40Z</time></trkpt>
<trkpt lat="35.191807" lon="-84.900155"><ele>217.3</ele><time>2026-08-05T20:00:42Z</time></trkpt>
<trkpt lat="35.19178" lon="-84.900142"><ele>217.0</ele><time>2026-08-05T20:00:44Z</time></trkpt>
<trkpt lat="35.191741" lon="-84.900125"><ele>216.7</ele><time>2026-08-05T20:00:47Z</time></trkpt>
<trkpt lat="35.191706" lon="-84.900108"><ele>215.8</ele><time>2026-08-05T20:00:50Z</time></trkpt>
<trkpt lat="35.191667" lon="-84.900092"><ele>215.5</ele><time>2026-08-05T20:00:53Z</time></trkpt>
<trkpt lat="35.191633" lon="-84.900072"><ele>216.1</ele><time>2026-08-05T20:00:56Z</time></trkpt>
<trkpt lat="35.191596" lon="-84.90006"><ele>216.4</ele><time>2026-08-05T20:00:59Z</time></trkpt>
<trkpt lat="35.191567" lon="-84.900045"><ele>215.2</ele><time>2026-08-05T20:01:02Z</time></trkpt>
<trkpt lat="35.191532" lon="-84.900021"><ele>215.2</ele><time>2026-08-05T20:01:05Z</time></trkpt>
<trkpt lat="35.191498" lon="-84.900003"><ele>216.1</ele><time>2026-08-05T20:01:08Z</time></trkpt>
<trkpt lat="35.191463" lon="-84.900003"><ele>216.7</ele><time>2026-08-05T20:01:11Z</time></trkpt>
<trkpt lat="35.191433" lon="-84.900015"><ele>216.7</ele><time>2026-08-05T20:01:14Z</time></trkpt>
<trkpt lat="35.191416" lon="-84.900056"><ele>216.4</ele><time>2026-08-05T20:01:17Z</time></trkpt>
<trkpt lat="35.191407" lon="-84.90009"><ele>216.4</ele><time>2026-08-05T20:01:19Z</time></trkpt>
<trkpt lat="35.1914" lon="-84.900125"><ele>217.0</ele><time>2026-08-05T20:01:21Z</time></trkpt>
<trkpt lat="35.191396" lon="-84.900159"><ele>217.0</ele><time>2026-08-05T20:01:23Z</time></trkpt>
<trkpt lat="35.19138" lon="-84.900202"><ele>217.3</ele><time>2026-08-05T20:01:26Z</time></trkpt>
<trkpt lat="35.191368" lon="-84.900233"><ele>217.3</ele><time>2026-08-05T20:01:28Z</time></trkpt>
<trkpt lat="35.191355" lon="-84.900263"><ele>217.6</ele><time>2026-08-05T20:01:30Z</time></trkpt>
<trkpt lat="35.19134" lon="-84.900294"><ele>217.3</ele><time>2026-08-05T20:01:32Z</time></trkpt>
<trkpt lat="35.191321" lon="-84.900338"><ele>217.0</ele><time>2026-08-05T20:01:35Z</time></trkpt>
<trkpt lat="35.191298" lon="-84.900379"><ele>217.3</ele><time>2026-08-05T20:01:38Z</time></trkpt>
<trkpt lat="35.19129" lon="-84.900414"><ele>217.0</ele><time>2026-08-05T20:01:40Z</time></trkpt>
<trkpt lat="35.191272" lon="-84.900446"><ele>217.6</ele><time>2026-08-05T20:01:42Z</time></trkpt>
<trkpt lat="35.191256" lon="-84.900478"><ele>217.3</ele><time>2026-08-05T20:01:44Z</time></trkpt>
<trkpt lat="35.191239" lon="-84.90051"><ele>217.6</ele><time>2026-08-05T20:01:46Z</time></trkpt>
<trkpt lat="35.191222" lon="-84.90054"><ele>217.9</ele><time>2026-08-05T20:01:48Z</time></trkpt>
<trkpt lat="35.191204" lon="-84.900569"><ele>218.5</ele><time>2026-08-05T20:01:50Z</time></trkpt>
<trkpt lat="35.191185" lon="-84.9006"><ele>219.2</ele><time>2026-08-05T20:01:52Z</time></trkpt>
<trkpt lat="35.191169" lon="-84.900631"><ele>218.2</ele><time>2026-08-05T20:01:54Z</time></trkpt>
<trkpt lat="35.191154" lon="-84.90066"><ele>216.7</ele><time>2026-08-05T20:01:56Z</time></trkpt>
<trkpt lat="35.19114" lon="-84.90069"><ele>217.0</ele><time>2026-08-05T20:01:58Z</time></trkpt>
<trkpt lat="35.191119" lon="-84.900713"><ele>216.7</ele><time>2026-08-05T20:02:00Z</time></trkpt>
<trkpt lat="35.191087" lon="-84.900712"><ele>216.1</ele><time>2026-08-05T20:02:04Z</time></trkpt>
<trkpt lat="35.191086" lon="-84.900712"><ele>216.1</ele><time>2026-08-05T20:02:05Z</time></trkpt>
<trkpt lat="35.191087" lon="-84.900716"><ele>217.0</ele><time>2026-08-05T20:02:48Z</time></trkpt>
<trkpt lat="35.19109" lon="-84.900717"><ele>217.9</ele><time>2026-08-05T20:02:49Z</time></trkpt>
<trkpt lat="35.191075" lon="-84.900764"><ele>216.4</ele><time>2026-08-05T20:02:53Z</time></trkpt>
<trkpt lat="35.191063" lon="-84.900796"><ele>215.5</ele><time>2026-08-05T20:02:55Z</time></trkpt>
<trkpt lat="35.19105" lon="-84.900826"><ele>215.5</ele><time>2026-08-05T20:02:57Z</time></trkpt>
<trkpt lat="35.19104" lon="-84.900858"><ele>215.5</ele><time>2026-08-05T20:02:59Z</time></trkpt>
<trkpt lat="35.19103" lon="-84.900892"><ele>215.2</ele><time>2026-08-05T20:03:01Z</time></trkpt>
<trkpt lat="35.19102" lon="-84.900924"><ele>215.8</ele><time>2026-08-05T20:03:03Z</time></trkpt>
<trkpt lat="35.191001" lon="-84.900966"><ele>215.5</ele><time>2026-08-05T20:03:06Z</time></trkpt>
<trkpt lat="35.19098" lon="-84.90101"><ele>216.1</ele><time>2026-08-05T20:03:09Z</time></trkpt>
<trkpt lat="35.190957" lon="-84.901047"><ele>217.3</ele><time>2026-08-05T20:03:12Z</time></trkpt>
<trkpt lat="35.190946" lon="-84.901079"><ele>217.0</ele><time>2026-08-05T20:03:14Z</time></trkpt>
<trkpt lat="35.19093" lon="-84.901126"><ele>218.2</ele><time>2026-08-05T20:03:17Z</time></trkpt>
<trkpt lat="35.190913" lon="-84.901153"><ele>217.9</ele><time>2026-08-05T20:03:19Z</time></trkpt>
<trkpt lat="35.190887" lon="-84.901192"><ele>219.2</ele><time>2026-08-05T20:03:22Z</time></trkpt>
<trkpt lat="35.190874" lon="-84.901221"><ele>219.2</ele><time>2026-08-05T20:03:24Z</time></trkpt>
<trkpt lat="35.190859" lon="-84.901251"><ele>219.5</ele><time>2026-08-05T20:03:26Z</time></trkpt>
<trkpt lat="35.190843" lon="-84.901278"><ele>219.5</ele><time>2026-08-05T20:03:28Z</time></trkpt>
<trkpt lat="35.19082" lon="-84.901305"><ele>219.8</ele><time>2026-08-05T20:03:30Z</time></trkpt>
<trkpt lat="35.190795" lon="-84.901324"><ele>217.9</ele><time>2026-08-05T20:03:32Z</time></trkpt>
<trkpt lat="35.190772" lon="-84.901366"><ele>217.3</ele><time>2026-08-05T20:03:35Z</time></trkpt>
<trkpt lat="35.190754" lon="-84.901408"><ele>216.7</ele><time>2026-08-05T20:03:38Z</time></trkpt>
<trkpt lat="35.190742" lon="-84.90144"><ele>218.2</ele><time>2026-08-05T20:03:40Z</time></trkpt>
<trkpt lat="35.19073" lon="-84.901471"><ele>218.5</ele><time>2026-08-05T20:03:42Z</time></trkpt>
<trkpt lat="35.190716" lon="-84.901503"><ele>217.9</ele><time>2026-08-05T20:03:44Z</time></trkpt>
<trkpt lat="35.190695" lon="-84.901542"><ele>218.5</ele><time>2026-08-05T20:03:47Z</time></trkpt>
<trkpt lat="35.190673" lon="-84.901582"><ele>218.8</ele><time>2026-08-05T20:03:50Z</time></trkpt>
<trkpt lat="35.190657" lon="-84.901613"><ele>218.2</ele><time>2026-08-05T20:03:52Z</time></trkpt>
<trkpt lat="35.190639" lon="-84.90164"><ele>218.2</ele><time>2026-08-05T20:03:54Z</time></trkpt>
<trkpt lat="35.190622" lon="-84.901685"><ele>217.9</ele><time>2026-08-05T20:03:57Z</time></trkpt>
<trkpt lat="35.190607" lon="-84.901731"><ele>219.2</ele><time>2026-08-05T20:04:00Z</time></trkpt>
<trkpt lat="35.190593" lon="-84.901762"><ele>219.2</ele><time>2026-08-05T20:04:02Z</time></trkpt>
<trkpt lat="35.190576" lon="-84.90179"><ele>218.5</ele><time>2026-08-05T20:04:04Z</time></trkpt>
<trkpt lat="35.190561" lon="-84.901819"><ele>218.5</ele><time>2026-08-05T20:04:06Z</time></trkpt>
<trkpt lat="35.19054" lon="-84.901858"><ele>218.8</ele><time>2026-08-05T20:04:09Z</time></trkpt>
<trkpt lat="35.190519" lon="-84.901903"><ele>218.8</ele><time>2026-08-05T20:04:12Z</time></trkpt>
<trkpt lat="35.190505" lon="-84.901933"><ele>218.8</ele><time>2026-08-05T20:04:14Z</time></trkpt>
<trkpt lat="35.190483" lon="-84.901972"><ele>219.2</ele><time>2026-08-05T20:04:17Z</time></trkpt>
<trkpt lat="35.190466" lon="-84.902"><ele>218.5</ele><time>2026-08-05T20:04:19Z</time></trkpt>
<trkpt lat="35.190445" lon="-84.902041"><ele>219.2</ele><time>2026-08-05T20:04:22Z</time></trkpt>
<trkpt lat="35.190433" lon="-84.902072"><ele>219.5</ele><time>2026-08-05T20:04:24Z</time></trkpt>
<trkpt lat="35.190417" lon="-84.902099"><ele>219.2</ele><time>2026-08-05T20:04:26Z</time></trkpt>
<trkpt lat="35.190402" lon="-84.90213"><ele>219.5</ele><time>2026-08-05T20:04:28Z</time></trkpt>
<trkpt lat="35.190389" lon="-84.902161"><ele>219.5</ele><time>2026-08-05T20:04:30Z</time></trkpt>
<trkpt lat="35.190373" lon="-84.902191"><ele>219.5</ele><time>2026-08-05T20:04:32Z</time></trkpt>
<trkpt lat="35.190359" lon="-84.90222"><ele>220.1</ele><time>2026-08-05T20:04:34Z</time></trkpt>
<trkpt lat="35.19034" lon="-84.902245"><ele>220.7</ele><time>2026-08-05T20:04:36Z</time></trkpt>
<trkpt lat="35.190319" lon="-84.902283"><ele>221.9</ele><time>2026-08-05T20:04:39Z</time></trkpt>
<trkpt lat="35.190298" lon="-84.902321"><ele>221.0</ele><time>2026-08-05T20:04:42Z</time></trkpt>
<trkpt lat="35.190275" lon="-84.902359"><ele>220.7</ele><time>2026-08-05T20:04:45Z</time></trkpt>
<trkpt lat="35.190258" lon="-84.902386"><ele>221.0</ele><time>2026-08-05T20:04:47Z</time></trkpt>
<trkpt lat="35.19024" lon="-84.902415"><ele>220.7</ele><time>2026-08-05T20:04:49Z</time></trkpt>
<trkpt lat="35.190224" lon="-84.902442"><ele>221.3</ele><time>2026-08-05T20:04:51Z</time></trkpt>
<trkpt lat="35.190202" lon="-84.902481"><ele>221.3</ele><time>2026-08-05T20:04:54Z</time></trkpt>
<trkpt lat="35.190174" lon="-84.902501"><ele>220.4</ele><time>2026-08-05T20:04:57Z</time></trkpt>
<trkpt lat="35.190138" lon="-84.902509"><ele>221.3</ele><time>2026-08-05T20:05:00Z</time></trkpt>
<trkpt lat="35.190104" lon="-84.902517"><ele>220.7</ele><time>2026-08-05T20:05:03Z</time></trkpt>
<trkpt lat="35.190071" lon="-84.902526"><ele>220.4</ele><time>2026-08-05T20:05:06Z</time></trkpt>
<trkpt lat="35.190037" lon="-84.902529"><ele>219.2</ele><time>2026-08-05T20:05:09Z</time></trkpt>
<trkpt lat="35.190001" lon="-84.902529"><ele>218.8</ele><time>2026-08-05T20:05:12Z</time></trkpt>
<trkpt lat="35.189964" lon="-84.902515"><ele>218.5</ele><time>2026-08-05T20:05:15Z</time></trkpt>
<trkpt lat="35.189931" lon="-84.902512"><ele>216.7</ele><time>2026-08-05T20:05:18Z</time></trkpt>
<trkpt lat="35.1899" lon="-84.9025"><ele>216.1</ele><time>2026-08-05T20:05:21Z</time></trkpt>
<trkpt lat="35.189865" lon="-84.902488"><ele>215.2</ele><time>2026-08-05T20:05:24Z</time></trkpt>
<trkpt lat="35.189836" lon="-84.902492"><ele>214.9</ele><time>2026-08-05T20:05:26Z</time></trkpt>
<trkpt lat="35.189807" lon="-84.902493"><ele>216.1</ele><time>2026-08-05T20:05:28Z</time></trkpt>
<trkpt lat="35.189779" lon="-84.902492"><ele>216.7</ele><time>2026-08-05T20:05:30Z</time></trkpt>
<trkpt lat="35.18975" lon="-84.9025"><ele>217.3</ele><time>2026-08-05T20:05:32Z</time></trkpt>
<trkpt lat="35.189711" lon="-84.902505"><ele>217.3</ele><time>2026-08-05T20:05:35Z</time></trkpt>
<trkpt lat="35.189676" lon="-84.902498"><ele>217.3</ele><time>2026-08-05T20:05:38Z</time></trkpt>
<trkpt lat="35.189651" lon="-84.902481"><ele>216.4</ele><time>2026-08-05T20:05:40Z</time></trkpt>
<trkpt lat="35.189619" lon="-84.902455"><ele>217.0</ele><time>2026-08-05T20:05:43Z</time></trkpt>
<trkpt lat="35.189595" lon="-84.902434"><ele>216.7</ele><time>2026-08-05T20:05:45Z</time></trkpt>
<trkpt lat="35.189572" lon="-84.902416"><ele>216.7</ele><time>2026-08-05T20:05:47Z</time></trkpt>
<trkpt lat="35.18955" lon="-84.902395"><ele>217.0</ele><time>2026-08-05T20:05:49Z</time></trkpt>
<trkpt lat="35.18952" lon="-84.902363"><ele>215.8</ele><time>2026-08-05T20:05:52Z</time></trkpt>
<trkpt lat="35.18949" lon="-84.90234"><ele>215.8</ele><time>2026-08-05T20:05:55Z</time></trkpt>
<trkpt lat="35.189454" lon="-84.902322"><ele>215.8</ele><time>2026-08-05T20:05:58Z</time></trkpt>
<trkpt lat="35.189428" lon="-84.902312"><ele>216.1</ele><time>2026-08-05T20:06:00Z</time></trkpt>
<trkpt lat="35.1894" lon="-84.902303"><ele>215.8</ele><time>2026-08-05T20:06:02Z</time></trkpt>
<trkpt lat="35.189359" lon="-84.902299"><ele>216.7</ele><time>2026-08-05T20:06:05Z</time></trkpt>
<trkpt lat="35.189329" lon="-84.902304"><ele>217.3</ele><time>2026-08-05T20:06:07Z</time></trkpt>
<trkpt lat="35.189297" lon="-84.902306"><ele>217.3</ele><time>2026-08-05T20:06:09Z</time></trkpt>
<trkpt lat="35.189258" lon="-84.902298"><ele>217.0</ele><time>2026-08-05T20:06:12Z</time></trkpt>
<trkpt lat="35.189219" lon="-84.902297"><ele>216.7</ele><time>2026-08-05T20:06:15Z</time></trkpt>
<trkpt lat="35.189183" lon="-84.902298"><ele>217.0</ele><time>2026-08-05T20:06:18Z</time></trkpt>
<trkpt lat="35.189145" lon="-84.9023"><ele>217.9</ele><time>2026-08-05T20:06:21Z</time></trkpt>
<trkpt lat="35.189116" lon="-84.902302"><ele>218.2</ele><time>2026-08-05T20:06:23Z</time></trkpt>
<trkpt lat="35.189088" lon="-84.902292"><ele>218.2</ele><time>2026-08-05T20:06:25Z</time></trkpt>
<trkpt lat="35.189059" lon="-84.902289"><ele>218.5</ele><time>2026-08-05T20:06:27Z</time></trkpt>
<trkpt lat="35.189031" lon="-84.902287"><ele>218.2</ele><time>2026-08-05T20:06:29Z</time></trkpt>
<trkpt lat="35.188993" lon="-84.902279"><ele>217.6</ele><time>2026-08-05T20:06:32Z</time></trkpt>
<trkpt lat="35.188961" lon="-84.902273"><ele>217.0</ele><time>2026-08-05T20:06:35Z</time></trkpt>
<trkpt lat="35.18892" lon="-84.90228"><ele>216.7</ele><time>2026-08-05T20:06:38Z</time></trkpt>
<trkpt lat="35.188878" lon="-84.902276"><ele>216.4</ele><time>2026-08-05T20:06:41Z</time></trkpt>
<trkpt lat="35.188848" lon="-84.902272"><ele>215.8</ele><time>2026-08-05T20:06:43Z</time></trkpt>
<trkpt lat="35.188821" lon="-84.902277"><ele>215.5</ele><time>2026-08-05T20:06:45Z</time></trkpt>
<trkpt lat="35.188793" lon="-84.902277"><ele>215.5</ele><time>2026-08-05T20:06:47Z</time></trkpt>
<trkpt lat="35.188753" lon="-84.902271"><ele>215.8</ele><time>2026-08-05T20:06:50Z</time></trkpt>
<trkpt lat="35.188714" lon="-84.902269"><ele>215.2</ele><time>2026-08-05T20:06:53Z</time></trkpt>
<trkpt lat="35.188687" lon="-84.902277"><ele>215.2</ele><time>2026-08-05T20:06:55Z</time></trkpt>
<trkpt lat="35.188645" lon="-84.902279"><ele>215.5</ele><time>2026-08-05T20:06:58Z</time></trkpt>
<trkpt lat="35.188616" lon="-84.902277"><ele>215.5</ele><time>2026-08-05T20:07:00Z</time></trkpt>
<trkpt lat="35.188588" lon="-84.902285"><ele>216.1</ele><time>2026-08-05T20:07:02Z</time></trkpt>
<trkpt lat="35.188553" lon="-84.902291"><ele>217.0</ele><time>2026-08-05T20:07:05Z</time></trkpt>
<trkpt lat="35.188526" lon="-84.902298"><ele>217.3</ele><time>2026-08-05T20:07:07Z</time></trkpt>
<trkpt lat="35.188487" lon="-84.902303"><ele>217.6</ele><time>2026-08-05T20:07:10Z</time></trkpt>
<trkpt lat="35.188448" lon="-84.902307"><ele>218.2</ele><time>2026-08-05T20:07:13Z</time></trkpt>
<trkpt lat="35.188411" lon="-84.902301"><ele>217.3</ele><time>2026-08-05T20:07:16Z</time></trkpt>
<trkpt lat="35.18837" lon="-84.902299"><ele>217.6</ele><time>2026-08-05T20:07:19Z</time></trkpt>
<trkpt lat="35.188331" lon="-84.902298"><ele>218.8</ele><time>2026-08-05T20:07:22Z</time></trkpt>
<trkpt lat="35.188302" lon="-84.902295"><ele>219.8</ele><time>2026-08-05T20:07:24Z</time></trkpt>
<trkpt lat="35.188274" lon="-84.902293"><ele>220.1</ele><time>2026-08-05T20:07:26Z</time></trkpt>
<trkpt lat="35.188236" lon="-84.902301"><ele>219.8</ele><time>2026-08-05T20:07:29Z</time></trkpt>
<trkpt lat="35.188208" lon="-84.902303"><ele>220.1</ele><time>2026-08-05T20:07:31Z</time></trkpt>
<trkpt lat="35.18818" lon="-84.902307"><ele>219.5</ele><time>2026-08-05T20:07:33Z</time></trkpt>
<trkpt lat="35.18815" lon="-84.902311"><ele>219.5</ele><time>2026-08-05T20:07:35Z</time></trkpt>
<trkpt lat="35.188123" lon="-84.902313"><ele>218.5</ele><time>2026-08-05T20:07:37Z</time></trkpt>
<trkpt lat="35.188082" lon="-84.902323"><ele>218.8</ele><time>2026-08-05T20:07:40Z</time></trkpt>
<trkpt lat="35.188043" lon="-84.90234"><ele>218.8</ele><time>2026-08-05T20:07:43Z</time></trkpt>
<trkpt lat="35.188007" lon="-84.902354"><ele>218.5</ele><time>2026-08-05T20:07:46Z</time></trkpt>
<trkpt lat="35.187969" lon="-84.902367"><ele>218.8</ele><time>2026-08-05T20:07:49Z</time></trkpt>
<trkpt lat="35.187941" lon="-84.902378"><ele>219.2</ele><time>2026-08-05T20:07:51Z</time></trkpt>
<trkpt lat="35.187902" lon="-84.902395"><ele>219.5</ele><time>2026-08-05T20:07:54Z</time></trkpt>
<trkpt lat="35.187873" lon="-84.902405"><ele>219.8</ele><time>2026-08-05T20:07:56Z</time></trkpt>
<trkpt lat="35.187841" lon="-84.902413"><ele>219.5</ele><time>2026-08-05T20:07:58Z</time></trkpt>
<trkpt lat="35.187808" lon="-84.902409"><ele>219.8</ele><time>2026-08-05T20:08:00Z</time></trkpt>
<trkpt lat="35.187769" lon="-84.902398"><ele>219.8</ele><time>2026-08-05T20:08:03Z</time></trkpt>
<trkpt lat="35.187736" lon="-84.902381"><ele>219.2</ele><time>2026-08-05T20:08:06Z</time></trkpt>
<trkpt lat="35.187702" lon="-84.902373"><ele>218.2</ele><time>2026-08-05T20:08:09Z</time></trkpt>
<trkpt lat="35.187673" lon="-84.902366"><ele>218.2</ele><time>2026-08-05T20:08:11Z</time></trkpt>
<trkpt lat="35.187642" lon="-84.902375"><ele>218.5</ele><time>2026-08-05T20:08:13Z</time></trkpt>
<trkpt lat="35.187615" lon="-84.902387"><ele>217.9</ele><time>2026-08-05T20:08:15Z</time></trkpt>
<trkpt lat="35.187584" lon="-84.902395"><ele>218.2</ele><time>2026-08-05T20:08:18Z</time></trkpt>
<trkpt lat="35.18762" lon="-84.902373"><ele>217.6</ele><time>2026-08-05T20:08:22Z</time></trkpt>
<trkpt lat="35.187647" lon="-84.90237"><ele>217.0</ele><time>2026-08-05T20:08:24Z</time></trkpt>
<trkpt lat="35.187677" lon="-84.902369"><ele>217.6</ele><time>2026-08-05T20:08:26Z</time></trkpt>
<trkpt lat="35.187704" lon="-84.902377"><ele>217.3</ele><time>2026-08-05T20:08:28Z</time></trkpt>
<trkpt lat="35.187739" lon="-84.902398"><ele>217.0</ele><time>2026-08-05T20:08:31Z</time></trkpt>
<trkpt lat="35.187775" lon="-84.90241"><ele>215.8</ele><time>2026-08-05T20:08:34Z</time></trkpt>
<trkpt lat="35.187814" lon="-84.902417"><ele>216.1</ele><time>2026-08-05T20:08:37Z</time></trkpt>
<trkpt lat="35.187843" lon="-84.90242"><ele>217.0</ele><time>2026-08-05T20:08:39Z</time></trkpt>
<trkpt lat="35.187871" lon="-84.902416"><ele>217.3</ele><time>2026-08-05T20:08:41Z</time></trkpt>
<trkpt lat="35.187911" lon="-84.902404"><ele>216.7</ele><time>2026-08-05T20:08:44Z</time></trkpt>
<trkpt lat="35.187938" lon="-84.902393"><ele>215.8</ele><time>2026-08-05T20:08:46Z</time></trkpt>
<trkpt lat="35.187975" lon="-84.902375"><ele>215.8</ele><time>2026-08-05T20:08:49Z</time></trkpt>
<trkpt lat="35.188001" lon="-84.902361"><ele>216.4</ele><time>2026-08-05T20:08:51Z</time></trkpt>
<trkpt lat="35.188027" lon="-84.902348"><ele>217.0</ele><time>2026-08-05T20:08:53Z</time></trkpt>
<trkpt lat="35.188065" lon="-84.902335"><ele>217.3</ele><time>2026-08-05T20:08:56Z</time></trkpt>
<trkpt lat="35.188101" lon="-84.902324"><ele>217.3</ele><time>2026-08-05T20:08:59Z</time></trkpt>
<trkpt lat="35.188141" lon="-84.90232"><ele>217.6</ele><time>2026-08-05T20:09:02Z</time></trkpt>
<trkpt lat="35.18818" lon="-84.902313"><ele>217.0</ele><time>2026-08-05T20:09:05Z</time></trkpt>
<trkpt lat="35.188219" lon="-84.902305"><ele>217.0</ele><time>2026-08-05T20:09:08Z</time></trkpt>
<trkpt lat="35.188256" lon="-84.9023"><ele>217.3</ele><time>2026-08-05T20:09:11Z</time></trkpt>
<trkpt lat="35.188291" lon="-84.902304"><ele>217.9</ele><time>2026-08-05T20:09:14Z</time></trkpt>
<trkpt lat="35.188332" lon="-84.9023"><ele>217.0</ele><time>2026-08-05T20:09:17Z</time></trkpt>
<trkpt lat="35.188361" lon="-84.902302"><ele>217.6</ele><time>2026-08-05T20:09:19Z</time></trkpt>
<trkpt lat="35.188401" lon="-84.902303"><ele>218.2</ele><time>2026-08-05T20:09:22Z</time></trkpt>
<trkpt lat="35.18844" lon="-84.9023"><ele>218.8</ele><time>2026-08-05T20:09:25Z</time></trkpt>
<trkpt lat="35.188481" lon="-84.902297"><ele>218.5</ele><time>2026-08-05T20:09:28Z</time></trkpt>
<trkpt lat="35.188521" lon="-84.902297"><ele>217.9</ele><time>2026-08-05T20:09:31Z</time></trkpt>
<trkpt lat="35.188549" lon="-84.902289"><ele>217.3</ele><time>2026-08-05T20:09:33Z</time></trkpt>
<trkpt lat="35.188578" lon="-84.902285"><ele>217.9</ele><time>2026-08-05T20:09:35Z</time></trkpt>
<trkpt lat="35.188606" lon="-84.902286"><ele>218.2</ele><time>2026-08-05T20:09:37Z</time></trkpt>
<trkpt lat="35.188634" lon="-84.902285"><ele>218.2</ele><time>2026-08-05T20:09:39Z</time></trkpt>
<trkpt lat="35.188672" lon="-84.902278"><ele>217.6</ele><time>2026-08-05T20:09:42Z</time></trkpt>
<trkpt lat="35.188714" lon="-84.902275"><ele>216.4</ele><time>2026-08-05T20:09:45Z</time></trkpt>
<trkpt lat="35.188753" lon="-84.902273"><ele>217.0</ele><time>2026-08-05T20:09:48Z</time></trkpt>
<trkpt lat="35.188791" lon="-84.902268"><ele>215.8</ele><time>2026-08-05T20:09:51Z</time></trkpt>
<trkpt lat="35.188829" lon="-84.90227"><ele>216.7</ele><time>2026-08-05T20:09:54Z</time></trkpt>
<trkpt lat="35.188864" lon="-84.902268"><ele>215.8</ele><time>2026-08-05T20:09:57Z</time></trkpt>
<trkpt lat="35.188906" lon="-84.902273"><ele>215.5</ele><time>2026-08-05T20:10:00Z</time></trkpt>
<trkpt lat="35.188946" lon="-84.902273"><ele>214.9</ele><time>2026-08-05T20:10:03Z</time></trkpt>
<trkpt lat="35.188987" lon="-84.902276"><ele>215.5</ele><time>2026-08-05T20:10:06Z</time></trkpt>
<trkpt lat="35.189025" lon="-84.902284"><ele>216.4</ele><time>2026-08-05T20:10:09Z</time></trkpt>
<trkpt lat="35.189064" lon="-84.902288"><ele>215.8</ele><time>2026-08-05T20:10:12Z</time></trkpt>
<trkpt lat="35.189099" lon="-84.902284"><ele>215.5</ele><time>2026-08-05T20:10:15Z</time></trkpt>
<trkpt lat="35.189129" lon="-84.90228"><ele>215.8</ele><time>2026-08-05T20:10:17Z</time></trkpt>
<trkpt lat="35.189162" lon="-84.902275"><ele>214.6</ele><time>2026-08-05T20:10:19Z</time></trkpt>
<trkpt lat="35.189203" lon="-84.902278"><ele>214.9</ele><time>2026-08-05T20:10:22Z</time></trkpt>
<trkpt lat="35.189231" lon="-84.902278"><ele>215.2</ele><time>2026-08-05T20:10:24Z</time></trkpt>
<trkpt lat="35.189269" lon="-84.902286"><ele>215.2</ele><time>2026-08-05T20:10:27Z</time></trkpt>
<trkpt lat="35.189309" lon="-84.902283"><ele>214.3</ele><time>2026-08-05T20:10:30Z</time></trkpt>
<trkpt lat="35.189349" lon="-84.902294"><ele>215.2</ele><time>2026-08-05T20:10:33Z</time></trkpt>
<trkpt lat="35.189376" lon="-84.902303"><ele>214.9</ele><time>2026-08-05T20:10:35Z</time></trkpt>
<trkpt lat="35.189404" lon="-84.902307"><ele>214.9</ele><time>2026-08-05T20:10:37Z</time></trkpt>
<trkpt lat="35.189431" lon="-84.902312"><ele>216.1</ele><time>2026-08-05T20:10:39Z</time></trkpt>
<trkpt lat="35.18947" lon="-84.90232"><ele>216.7</ele><time>2026-08-05T20:10:42Z</time></trkpt>
<trkpt lat="35.189508" lon="-84.90234"><ele>217.9</ele><time>2026-08-05T20:10:45Z</time></trkpt>
<trkpt lat="35.189541" lon="-84.902368"><ele>217.0</ele><time>2026-08-05T20:10:48Z</time></trkpt>
<trkpt lat="35.189566" lon="-84.902405"><ele>216.4</ele><time>2026-08-05T20:10:51Z</time></trkpt>
<trkpt lat="35.189588" lon="-84.902428"><ele>216.7</ele><time>2026-08-05T20:10:53Z</time></trkpt>
<trkpt lat="35.189621" lon="-84.902456"><ele>216.1</ele><time>2026-08-05T20:10:56Z</time></trkpt>
<trkpt lat="35.189653" lon="-84.902479"><ele>215.5</ele><time>2026-08-05T20:10:59Z</time></trkpt>
<trkpt lat="35.189688" lon="-84.902497"><ele>216.7</ele><time>2026-08-05T20:11:02Z</time></trkpt>
<trkpt lat="35.189718" lon="-84.902493"><ele>216.7</ele><time>2026-08-05T20:11:04Z</time></trkpt>
<trkpt lat="35.189745" lon="-84.902487"><ele>217.0</ele><time>2026-08-05T20:11:06Z</time></trkpt>
<trkpt lat="35.189773" lon="-84.902483"><ele>217.0</ele><time>2026-08-05T20:11:08Z</time></trkpt>
<trkpt lat="35.189801" lon="-84.902479"><ele>217.3</ele><time>2026-08-05T20:11:10Z</time></trkpt>
<trkpt lat="35.189828" lon="-84.902477"><ele>217.0</ele><time>2026-08-05T20:11:12Z</time></trkpt>
<trkpt lat="35.189856" lon="-84.902483"><ele>216.4</ele><time>2026-08-05T20:11:14Z</time></trkpt>
<trkpt lat="35.189895" lon="-84.902496"><ele>214.9</ele><time>2026-08-05T20:11:17Z</time></trkpt>
<trkpt lat="35.189921" lon="-84.902509"><ele>215.5</ele><time>2026-08-05T20:11:19Z</time></trkpt>
<trkpt lat="35.189946" lon="-84.902525"><ele>216.7</ele><time>2026-08-05T20:11:21Z</time></trkpt>
<trkpt lat="35.189987" lon="-84.902529"><ele>216.4</ele><time>2026-08-05T20:11:24Z</time></trkpt>
<trkpt lat="35.190026" lon="-84.902533"><ele>216.4</ele><time>2026-08-05T20:11:27Z</time></trkpt>
<trkpt lat="35.190066" lon="-84.90253"><ele>216.4</ele><time>2026-08-05T20:11:30Z</time></trkpt>
<trkpt lat="35.190094" lon="-84.902525"><ele>216.4</ele><time>2026-08-05T20:11:32Z</time></trkpt>
<trkpt lat="35.19013" lon="-84.902519"><ele>217.0</ele><time>2026-08-05T20:11:35Z</time></trkpt>
<trkpt lat="35.190166" lon="-84.902513"><ele>216.7</ele><time>2026-08-05T20:11:38Z</time></trkpt>
<trkpt lat="35.190203" lon="-84.902493"><ele>216.7</ele><time>2026-08-05T20:11:41Z</time></trkpt>
<trkpt lat="35.190227" lon="-84.90247"><ele>216.7</ele><time>2026-08-05T20:11:43Z</time></trkpt>
<trkpt lat="35.190247" lon="-84.902446"><ele>216.7</ele><time>2026-08-05T20:11:45Z</time></trkpt>
<trkpt lat="35.190267" lon="-84.902405"><ele>217.0</ele><time>2026-08-05T20:11:48Z</time></trkpt>
<trkpt lat="35.190285" lon="-84.902365"><ele>216.1</ele><time>2026-08-05T20:11:51Z</time></trkpt>
<trkpt lat="35.190303" lon="-84.902331"><ele>216.7</ele><time>2026-08-05T20:11:54Z</time></trkpt>
<trkpt lat="35.190318" lon="-84.902301"><ele>216.7</ele><time>2026-08-05T20:11:56Z</time></trkpt>
<trkpt lat="35.190334" lon="-84.90227"><ele>216.7</ele><time>2026-08-05T20:11:58Z</time></trkpt>
<trkpt lat="35.190354" lon="-84.902232"><ele>215.2</ele><time>2026-08-05T20:12:01Z</time></trkpt>
<trkpt lat="35.190375" lon="-84.902194"><ele>214.9</ele><time>2026-08-05T20:12:04Z</time></trkpt>
<trkpt lat="35.190398" lon="-84.902153"><ele>215.2</ele><time>2026-08-05T20:12:07Z</time></trkpt>
<trkpt lat="35.190415" lon="-84.902123"><ele>215.5</ele><time>2026-08-05T20:12:09Z</time></trkpt>
<trkpt lat="35.190426" lon="-84.902091"><ele>216.4</ele><time>2026-08-05T20:12:11Z</time></trkpt>
<trkpt lat="35.190444" lon="-84.90205"><ele>214.0</ele><time>2026-08-05T20:12:14Z</time></trkpt>
<trkpt lat="35.190464" lon="-84.902011"><ele>214.0</ele><time>2026-08-05T20:12:17Z</time></trkpt>
<trkpt lat="35.190481" lon="-84.901985"><ele>214.6</ele><time>2026-08-05T20:12:19Z</time></trkpt>
<trkpt lat="35.1905" lon="-84.901959"><ele>215.2</ele><time>2026-08-05T20:12:21Z</time></trkpt>
<trkpt lat="35.190517" lon="-84.901933"><ele>215.8</ele><time>2026-08-05T20:12:23Z</time></trkpt>
<trkpt lat="35.190538" lon="-84.901893"><ele>216.1</ele><time>2026-08-05T20:12:26Z</time></trkpt>
<trkpt lat="35.190553" lon="-84.901849"><ele>215.8</ele><time>2026-08-05T20:12:29Z</time></trkpt>
<trkpt lat="35.190579" lon="-84.901811"><ele>216.1</ele><time>2026-08-05T20:12:32Z</time></trkpt>
<trkpt lat="35.190601" lon="-84.90177"><ele>216.1</ele><time>2026-08-05T20:12:35Z</time></trkpt>
<trkpt lat="35.190623" lon="-84.901729"><ele>215.5</ele><time>2026-08-05T20:12:38Z</time></trkpt>
<trkpt lat="35.190643" lon="-84.901688"><ele>216.1</ele><time>2026-08-05T20:12:41Z</time></trkpt>
<trkpt lat="35.190656" lon="-84.901646"><ele>216.1</ele><time>2026-08-05T20:12:44Z</time></trkpt>
<trkpt lat="35.190669" lon="-84.901604"><ele>215.8</ele><time>2026-08-05T20:12:47Z</time></trkpt>
<trkpt lat="35.190684" lon="-84.901562"><ele>215.8</ele><time>2026-08-05T20:12:50Z</time></trkpt>
<trkpt lat="35.190705" lon="-84.901521"><ele>215.8</ele><time>2026-08-05T20:12:53Z</time></trkpt>
<trkpt lat="35.190728" lon="-84.901486"><ele>215.5</ele><time>2026-08-05T20:12:56Z</time></trkpt>
<trkpt lat="35.19075" lon="-84.901451"><ele>215.8</ele><time>2026-08-05T20:12:59Z</time></trkpt>
<trkpt lat="35.19077" lon="-84.901419"><ele>215.2</ele><time>2026-08-05T20:13:02Z</time></trkpt>
<trkpt lat="35.190793" lon="-84.901389"><ele>216.1</ele><time>2026-08-05T20:13:05Z</time></trkpt>
<trkpt lat="35.190815" lon="-84.901349"><ele>216.7</ele><time>2026-08-05T20:13:08Z</time></trkpt>
<trkpt lat="35.190833" lon="-84.901309"><ele>216.4</ele><time>2026-08-05T20:13:11Z</time></trkpt>
<trkpt lat="35.190853" lon="-84.90127"><ele>217.3</ele><time>2026-08-05T20:13:14Z</time></trkpt>
<trkpt lat="35.190875" lon="-84.901231"><ele>217.3</ele><time>2026-08-05T20:13:17Z</time></trkpt>
<trkpt lat="35.190895" lon="-84.901191"><ele>217.3</ele><time>2026-08-05T20:13:20Z</time></trkpt>
<trkpt lat="35.19092" lon="-84.901158"><ele>216.7</ele><time>2026-08-05T20:13:23Z</time></trkpt>
<trkpt lat="35.19094" lon="-84.901121"><ele>217.3</ele><time>2026-08-05T20:13:26Z</time></trkpt>
<trkpt lat="35.19096" lon="-84.901089"><ele>217.9</ele><time>2026-08-05T20:13:29Z</time></trkpt>
<trkpt lat="35.190983" lon="-84.901057"><ele>217.9</ele><time>2026-08-05T20:13:32Z</time></trkpt>
<trkpt lat="35.191006" lon="-84.90102"><ele>217.9</ele><time>2026-08-05T20:13:35Z</time></trkpt>
<trkpt lat="35.191023" lon="-84.900983"><ele>217.3</ele><time>2026-08-05T20:13:38Z</time></trkpt>
<trkpt lat="35.191043" lon="-84.900947"><ele>217.0</ele><time>2026-08-05T20:13:41Z</time></trkpt>
<trkpt lat="35.191057" lon="-84.900908"><ele>217.0</ele><time>2026-08-05T20:13:44Z</time></trkpt>
<trkpt lat="35.191068" lon="-84.900864"><ele>217.3</ele><time>2026-08-05T20:13:47Z</time></trkpt>
<trkpt lat="35.191079" lon="-84.900827"><ele>216.7</ele><time>2026-08-05T20:13:50Z</time></trkpt>
<trkpt lat="35.191095" lon="-84.900789"><ele>215.2</ele><time>2026-08-05T20:13:53Z</time></trkpt>
<trkpt lat="35.19112" lon="-84.900753"><ele>214.9</ele><time>2026-08-05T20:13:56Z</time></trkpt>
<trkpt lat="35.191142" lon="-84.900719"><ele>215.2</ele><time>2026-08-05T20:13:59Z</time></trkpt>
<trkpt lat="35.191164" lon="-84.900684"><ele>215.5</ele><time>2026-08-05T20:14:02Z</time></trkpt>
<trkpt lat="35.191182" lon="-84.900645"><ele>215.5</ele><time>2026-08-05T20:14:05Z</time></trkpt>
<trkpt lat="35.191198" lon="-84.90061"><ele>216.4</ele><time>2026-08-05T20:14:08Z</time></trkpt>
<trkpt lat="35.191218" lon="-84.900568"><ele>216.1</ele><time>2026-08-05T20:14:11Z</time></trkpt>
<trkpt lat="35.191239" lon="-84.900525"><ele>214.9</ele><time>2026-08-05T20:14:14Z</time></trkpt>
<trkpt lat="35.191254" lon="-84.900481"><ele>214.9</ele><time>2026-08-05T20:14:17Z</time></trkpt>
<trkpt lat="35.191278" lon="-84.900441"><ele>214.6</ele><time>2026-08-05T20:14:20Z</time></trkpt>
<trkpt lat="35.191293" lon="-84.900401"><ele>214.6</ele><time>2026-08-05T20:14:23Z</time></trkpt>
<trkpt lat="35.191309" lon="-84.90036"><ele>214.3</ele><time>2026-08-05T20:14:26Z</time></trkpt>
<trkpt lat="35.19132" lon="-84.900329"><ele>214.9</ele><time>2026-08-05T20:14:28Z</time></trkpt>
<trkpt lat="35.191341" lon="-84.900286"><ele>214.9</ele><time>2026-08-05T20:14:31Z</time></trkpt>
<trkpt lat="35.191358" lon="-84.900246"><ele>215.8</ele><time>2026-08-05T20:14:34Z</time></trkpt>
<trkpt lat="35.191374" lon="-84.900209"><ele>215.8</ele><time>2026-08-05T20:14:37Z</time></trkpt>
<trkpt lat="35.191395" lon="-84.900167"><ele>215.2</ele><time>2026-08-05T20:14:40Z</time></trkpt>
<trkpt lat="35.191414" lon="-84.900124"><ele>214.3</ele><time>2026-08-05T20:14:43Z</time></trkpt>
<trkpt lat="35.191427" lon="-84.900077"><ele>214.0</ele><time>2026-08-05T20:14:46Z</time></trkpt>
<trkpt lat="35.191438" lon="-84.900032"><ele>214.0</ele><time>2026-08-05T20:14:49Z</time></trkpt>
<trkpt lat="35.191456" lon="-84.899991"><ele>214.3</ele><time>2026-08-05T20:14:52Z</time></trkpt>
<trkpt lat="35.191486" lon="-84.899959"><ele>214.3</ele><time>2026-08-05T20:14:55Z</time></trkpt>
<trkpt lat="35.191499" lon="-84.899919"><ele>215.2</ele><time>2026-08-05T20:14:58Z</time></trkpt>
<trkpt lat="35.191475" lon="-84.89988"><ele>214.3</ele><time>2026-08-05T20:15:01Z</time></trkpt>
<trkpt lat="35.191456" lon="-84.899841"><ele>214.6</ele><time>2026-08-05T20:15:04Z</time></trkpt>
<trkpt lat="35.191438" lon="-84.899795"><ele>215.2</ele><time>2026-08-05T20:15:07Z</time></trkpt>
<trkpt lat="35.191421" lon="-84.899751"><ele>215.5</ele><time>2026-08-05T20:15:10Z</time></trkpt>
<trkpt lat="35.1914" lon="-84.899713"><ele>214.9</ele><time>2026-08-05T20:15:13Z</time></trkpt>
<trkpt lat="35.191384" lon="-84.899667"><ele>214.9</ele><time>2026-08-05T20:15:16Z</time></trkpt>
<trkpt lat="35.191369" lon="-84.899639"><ele>214.6</ele><time>2026-08-05T20:15:18Z</time></trkpt>
<trkpt lat="35.191353" lon="-84.899596"><ele>214.3</ele><time>2026-08-05T20:15:21Z</time></trkpt>
<trkpt lat="35.191335" lon="-84.899557"><ele>214.6</ele><time>2026-08-05T20:15:24Z</time></trkpt>
<trkpt lat="35.191312" lon="-84.899521"><ele>214.6</ele><time>2026-08-05T20:15:27Z</time></trkpt>
<trkpt lat="35.191296" lon="-84.899477"><ele>214.3</ele><time>2026-08-05T20:15:30Z</time></trkpt>
<trkpt lat="35.19128" lon="-84.899435"><ele>214.3</ele><time>2026-08-05T20:15:33Z</time></trkpt>
<trkpt lat="35.191259" lon="-84.899396"><ele>214.0</ele><time>2026-08-05T20:15:36Z</time></trkpt>
<trkpt lat="35.191239" lon="-84.899355"><ele>213.7</ele><time>2026-08-05T20:15:39Z</time></trkpt>
<trkpt lat="35.19122" lon="-84.899316"><ele>213.4</ele><time>2026-08-05T20:15:42Z</time></trkpt>
<trkpt lat="35.191202" lon="-84.899273"><ele>213.4</ele><time>2026-08-05T20:15:45Z</time></trkpt>
<trkpt lat="35.191184" lon="-84.899228"><ele>214.0</ele><time>2026-08-05T20:15:48Z</time></trkpt>
<trkpt lat="35.191169" lon="-84.899184"><ele>214.0</ele><time>2026-08-05T20:15:51Z</time></trkpt>
<trkpt lat="35.191155" lon="-84.899141"><ele>213.7</ele><time>2026-08-05T20:15:54Z</time></trkpt>
<trkpt lat="35.191138" lon="-84.899097"><ele>214.0</ele><time>2026-08-05T20:15:57Z</time></trkpt>
<trkpt lat="35.191122" lon="-84.899054"><ele>213.7</ele><time>2026-08-05T20:16:00Z</time></trkpt>
<trkpt lat="35.191106" lon="-84.899011"><ele>213.7</ele><time>2026-08-05T20:16:03Z</time></trkpt>
<trkpt lat="35.19109" lon="-84.898967"><ele>213.7</ele><time>2026-08-05T20:16:06Z</time></trkpt>
<trkpt lat="35.191075" lon="-84.898924"><ele>214.0</ele><time>2026-08-05T20:16:09Z</time></trkpt>
<trkpt lat="35.191057" lon="-84.898882"><ele>214.0</ele><time>2026-08-05T20:16:12Z</time></trkpt>
<trkpt lat="35.191044" lon="-84.89884"><ele>214.0</ele><time>2026-08-05T20:16:15Z</time></trkpt>
<trkpt lat="35.191028" lon="-84.898798"><ele>214.3</ele><time>2026-08-05T20:16:18Z</time></trkpt>
<trkpt lat="35.191011" lon="-84.898757"><ele>214.6</ele><time>2026-08-05T20:16:21Z</time></trkpt>
<trkpt lat="35.190997" lon="-84.898717"><ele>214.6</ele><time>2026-08-05T20:16:24Z</time></trkpt>
<trkpt lat="35.191029" lon="-84.89869"><ele>213.7</ele><time>2026-08-05T20:16:28Z</time></trkpt>
<trkpt lat="35.191038" lon="-84.898736"><ele>215.5</ele><time>2026-08-05T20:16:30Z</time></trkpt>
<trkpt lat="35.191017" lon="-84.898786"><ele>214.9</ele><time>2026-08-05T20:16:32Z</time></trkpt>
<trkpt lat="35.191031" lon="-84.898825"><ele>214.6</ele><time>2026-08-05T20:16:35Z</time></trkpt>
<trkpt lat="35.191046" lon="-84.898853"><ele>214.6</ele><time>2026-08-05T20:16:37Z</time></trkpt>
<trkpt lat="35.191059" lon="-84.898897"><ele>214.9</ele><time>2026-08-05T20:16:40Z</time></trkpt>
<trkpt lat="35.191075" lon="-84.898936"><ele>214.3</ele><time>2026-08-05T20:16:43Z</time></trkpt>
<trkpt lat="35.191087" lon="-84.89898"><ele>214.6</ele><time>2026-08-05T20:16:46Z</time></trkpt>
<trkpt lat="35.191101" lon="-84.899023"><ele>214.3</ele><time>2026-08-05T20:16:49Z</time></trkpt>
<trkpt lat="35.191112" lon="-84.899066"><ele>213.7</ele><time>2026-08-05T20:16:52Z</time></trkpt>
<trkpt lat="35.191129" lon="-84.899107"><ele>213.7</ele><time>2026-08-05T20:16:55Z</time></trkpt>
<trkpt lat="35.191144" lon="-84.899145"><ele>213.7</ele><time>2026-08-05T20:16:58Z</time></trkpt>
<trkpt lat="35.191162" lon="-84.899189"><ele>214.0</ele><time>2026-08-05T20:17:01Z</time></trkpt>
<trkpt lat="35.191171" lon="-84.899225"><ele>214.6</ele><time>2026-08-05T20:17:03Z</time></trkpt>
<trkpt lat="35.191183" lon="-84.899257"><ele>215.2</ele><time>2026-08-05T20:17:05Z</time></trkpt>
<trkpt lat="35.1912" lon="-84.8993"><ele>215.5</ele><time>2026-08-05T20:17:08Z</time></trkpt>
<trkpt lat="35.191218" lon="-84.899344"><ele>216.1</ele><time>2026-08-05T20:17:11Z</time></trkpt>
<trkpt lat="35.191238" lon="-84.899386"><ele>216.7</ele><time>2026-08-05T20:17:14Z</time></trkpt>
<trkpt lat="35.191252" lon="-84.899427"><ele>216.1</ele><time>2026-08-05T20:17:17Z</time></trkpt>
<trkpt lat="35.191268" lon="-84.899468"><ele>216.1</ele><time>2026-08-05T20:17:20Z</time></trkpt>
<trkpt lat="35.191285" lon="-84.899509"><ele>216.1</ele><time>2026-08-05T20:17:23Z</time></trkpt>
<trkpt lat="35.1913" lon="-84.899554"><ele>215.8</ele><time>2026-08-05T20:17:26Z</time></trkpt>
<trkpt lat="35.191323" lon="-84.89959"><ele>216.4</ele><time>2026-08-05T20:17:29Z</time></trkpt>
<trkpt lat="35.191345" lon="-84.899631"><ele>216.4</ele><time>2026-08-05T20:17:32Z</time></trkpt>
<trkpt lat="35.191355" lon="-84.899662"><ele>215.8</ele><time>2026-08-05T20:17:34Z</time></trkpt>
<trkpt lat="35.191367" lon="-84.899693"><ele>216.1</ele><time>2026-08-05T20:17:36Z</time></trkpt>
<trkpt lat="35.191375" lon="-84.899738"><ele>215.5</ele><time>2026-08-05T20:17:39Z</time></trkpt>
<trkpt lat="35.191389" lon="-84.899778"><ele>215.5</ele><time>2026-08-05T20:17:42Z</time></trkpt>
<trkpt lat="35.19141" lon="-84.899816"><ele>215.8</ele><time>2026-08-05T20:17:45Z</time></trkpt>
<trkpt lat="35.191431" lon="-84.899854"><ele>216.1</ele><time>2026-08-05T20:17:48Z</time></trkpt>
<trkpt lat="35.191446" lon="-84.899898"><ele>215.8</ele><time>2026-08-05T20:17:51Z</time></trkpt>
<trkpt lat="35.191465" lon="-84.899923"><ele>215.8</ele><time>2026-08-05T20:17:53Z</time></trkpt>
<trkpt lat="35.191482" lon="-84.899965"><ele>216.7</ele><time>2026-08-05T20:17:56Z</time></trkpt>
<trkpt lat="35.191512" lon="-84.899999"><ele>216.7</ele><time>2026-08-05T20:17:59Z</time></trkpt>
<trkpt lat="35.191535" lon="-84.900018"><ele>216.7</ele><time>2026-08-05T20:18:01Z</time></trkpt>
<trkpt lat="35.191572" lon="-84.900035"><ele>217.0</ele><time>2026-08-05T20:18:04Z</time></trkpt>
<trkpt lat="35.191611" lon="-84.900051"><ele>216.4</ele><time>2026-08-05T20:18:07Z</time></trkpt>
<trkpt lat="35.191637" lon="-84.900065"><ele>216.4</ele><time>2026-08-05T20:18:09Z</time></trkpt>
<trkpt lat="35.191673" lon="-84.900086"><ele>216.1</ele><time>2026-08-05T20:18:12Z</time></trkpt>
<trkpt lat="35.191697" lon="-84.900111"><ele>215.2</ele><time>2026-08-05T20:18:15Z</time></trkpt>
<trkpt lat="35.191733" lon="-84.900131"><ele>214.6</ele><time>2026-08-05T20:18:18Z</time></trkpt>
<trkpt lat="35.191771" lon="-84.900146"><ele>214.0</ele><time>2026-08-05T20:18:21Z</time></trkpt>
<trkpt lat="35.191798" lon="-84.900158"><ele>213.7</ele><time>2026-08-05T20:18:23Z</time></trkpt>
<trkpt lat="35.191839" lon="-84.900172"><ele>214.0</ele><time>2026-08-05T20:18:26Z</time></trkpt>
<trkpt lat="35.191871" lon="-84.900194"><ele>214.3</ele><time>2026-08-05T20:18:29Z</time></trkpt>
<trkpt lat="35.191899" lon="-84.900227"><ele>214.6</ele><time>2026-08-05T20:18:32Z</time></trkpt>
<trkpt lat="35.191915" lon="-84.900268"><ele>214.6</ele><time>2026-08-05T20:18:35Z</time></trkpt>
<trkpt lat="35.191922" lon="-84.900301"><ele>214.0</ele><time>2026-08-05T20:18:37Z</time></trkpt>
<trkpt lat="35.19193" lon="-84.900333"><ele>214.0</ele><time>2026-08-05T20:18:39Z</time></trkpt>
<trkpt lat="35.191936" lon="-84.900367"><ele>214.3</ele><time>2026-08-05T20:18:41Z</time></trkpt>
<trkpt lat="35.191935" lon="-84.900401"><ele>214.3</ele><time>2026-08-05T20:18:43Z</time></trkpt>
<trkpt lat="35.191944" lon="-84.90045"><ele>214.3</ele><time>2026-08-05T20:18:46Z</time></trkpt>
<trkpt lat="35.191953" lon="-84.900483"><ele>214.3</ele><time>2026-08-05T20:18:48Z</time></trkpt>
<trkpt lat="35.191971" lon="-84.900513"><ele>214.9</ele><time>2026-08-05T20:18:50Z</time></trkpt>
<trkpt lat="35.191993" lon="-84.900534"><ele>214.9</ele><time>2026-08-05T20:18:52Z</time></trkpt>
<trkpt lat="35.192022" lon="-84.900535"><ele>214.6</ele><time>2026-08-05T20:18:54Z</time></trkpt>
<trkpt lat="35.192053" lon="-84.900526"><ele>214.6</ele><time>2026-08-05T20:18:56Z</time></trkpt>
<trkpt lat="35.192082" lon="-84.90051"><ele>214.9</ele><time>2026-08-05T20:18:58Z</time></trkpt>
<trkpt lat="35.192109" lon="-84.900493"><ele>215.2</ele><time>2026-08-05T20:19:00Z</time></trkpt>
<trkpt lat="35.19214" lon="-84.900466"><ele>215.2</ele><time>2026-08-05T20:19:03Z</time></trkpt>
<trkpt lat="35.192167" lon="-84.900444"><ele>215.2</ele><time>2026-08-05T20:19:06Z</time></trkpt>
<trkpt lat="35.192199" lon="-84.900421"><ele>215.2</ele><time>2026-08-05T20:19:09Z</time></trkpt>
<trkpt lat="35.192223" lon="-84.900403"><ele>215.5</ele><time>2026-08-05T20:19:11Z</time></trkpt>
<trkpt lat="35.192247" lon="-84.900384"><ele>215.8</ele><time>2026-08-05T20:19:13Z</time></trkpt>
<trkpt lat="35.192271" lon="-84.900363"><ele>215.8</ele><time>2026-08-05T20:19:15Z</time></trkpt>
<trkpt lat="35.192295" lon="-84.900341"><ele>216.1</ele><time>2026-08-05T20:19:17Z</time></trkpt>
<trkpt lat="35.192317" lon="-84.900319"><ele>215.8</ele><time>2026-08-05T20:19:19Z</time></trkpt>
<trkpt lat="35.192346" lon="-84.900287"><ele>215.8</ele><time>2026-08-05T20:19:22Z</time></trkpt>
<trkpt lat="35.192373" lon="-84.900256"><ele>215.5</ele><time>2026-08-05T20:19:25Z</time></trkpt>
<trkpt lat="35.192403" lon="-84.900225"><ele>215.8</ele><time>2026-08-05T20:19:28Z</time></trkpt>
<trkpt lat="35.192433" lon="-84.90019"><ele>216.1</ele><time>2026-08-05T20:19:31Z</time></trkpt>
<trkpt lat="35.192456" lon="-84.900167"><ele>216.1</ele><time>2026-08-05T20:19:33Z</time></trkpt>
<trkpt lat="35.19248" lon="-84.900144"><ele>216.1</ele><time>2026-08-05T20:19:35Z</time></trkpt>
<trkpt lat="35.192512" lon="-84.900119"><ele>216.1</ele><time>2026-08-05T20:19:38Z</time></trkpt>
<trkpt lat="35.192548" lon="-84.9001"><ele>215.8</ele><time>2026-08-05T20:19:41Z</time></trkpt>
<trkpt lat="35.192585" lon="-84.900082"><ele>215.8</ele><time>2026-08-05T20:19:44Z</time></trkpt>
<trkpt lat="35.192609" lon="-84.900063"><ele>215.8</ele><time>2026-08-05T20:19:46Z</time></trkpt>
<trkpt lat="35.192644" lon="-84.90004"><ele>216.1</ele><time>2026-08-05T20:19:49Z</time></trkpt>
<trkpt lat="35.192678" lon="-84.900019"><ele>216.7</ele><time>2026-08-05T20:19:52Z</time></trkpt>
<trkpt lat="35.192703" lon="-84.900005"><ele>216.7</ele><time>2026-08-05T20:19:54Z</time></trkpt>
<trkpt lat="35.192736" lon="-84.899979"><ele>216.4</ele><time>2026-08-05T20:19:57Z</time></trkpt>
<trkpt lat="35.19276" lon="-84.899962"><ele>216.1</ele><time>2026-08-05T20:19:59Z</time></trkpt>
<trkpt lat="35.192787" lon="-84.899946"><ele>215.8</ele><time>2026-08-05T20:20:01Z</time></trkpt>
<trkpt lat="35.192814" lon="-84.899932"><ele>216.1</ele><time>2026-08-05T20:20:03Z</time></trkpt>
<trkpt lat="35.192841" lon="-84.899914"><ele>216.4</ele><time>2026-08-05T20:20:05Z</time></trkpt>
<trkpt lat="35.192872" lon="-84.89989"><ele>216.4</ele><time>2026-08-05T20:20:08Z</time></trkpt>
<trkpt lat="35.192907" lon="-84.899884"><ele>216.4</ele><time>2026-08-05T20:20:11Z</time></trkpt>
<trkpt lat="35.192945" lon="-84.899887"><ele>216.7</ele><time>2026-08-05T20:20:14Z</time></trkpt>
<trkpt lat="35.192985" lon="-84.899892"><ele>217.0</ele><time>2026-08-05T20:20:17Z</time></trkpt>
<trkpt lat="35.193015" lon="-84.899892"><ele>217.0</ele><time>2026-08-05T20:20:19Z</time></trkpt>
<trkpt lat="35.193044" lon="-84.899888"><ele>217.3</ele><time>2026-08-05T20:20:21Z</time></trkpt>
<trkpt lat="35.193071" lon="-84.899878"><ele>217.6</ele><time>2026-08-05T20:20:23Z</time></trkpt>
<trkpt lat="35.193106" lon="-84.899855"><ele>217.9</ele><time>2026-08-05T20:20:26Z</time></trkpt>
<trkpt lat="35.193138" lon="-84.899836"><ele>218.5</ele><time>2026-08-05T20:20:29Z</time></trkpt>
<trkpt lat="35.193176" lon="-84.899818"><ele>218.8</ele><time>2026-08-05T20:20:32Z</time></trkpt>
<trkpt lat="35.193213" lon="-84.899799"><ele>218.8</ele><time>2026-08-05T20:20:35Z</time></trkpt>
<trkpt lat="35.193237" lon="-84.899782"><ele>218.5</ele><time>2026-08-05T20:20:37Z</time></trkpt>
<trkpt lat="35.193263" lon="-84.899768"><ele>218.5</ele><time>2026-08-05T20:20:39Z</time></trkpt>
<trkpt lat="35.193288" lon="-84.899754"><ele>218.2</ele><time>2026-08-05T20:20:41Z</time></trkpt>
<trkpt lat="35.193321" lon="-84.899736"><ele>218.2</ele><time>2026-08-05T20:20:44Z</time></trkpt>
<trkpt lat="35.193354" lon="-84.899721"><ele>218.2</ele><time>2026-08-05T20:20:47Z</time></trkpt>
<trkpt lat="35.19338" lon="-84.899708"><ele>218.5</ele><time>2026-08-05T20:20:49Z</time></trkpt>
<trkpt lat="35.193407" lon="-84.899695"><ele>218.5</ele><time>2026-08-05T20:20:51Z</time></trkpt>
<trkpt lat="35.193436" lon="-84.899686"><ele>218.5</ele><time>2026-08-05T20:20:53Z</time></trkpt>
<trkpt lat="35.193465" lon="-84.899674"><ele>218.8</ele><time>2026-08-05T20:20:55Z</time></trkpt>
<trkpt lat="35.193495" lon="-84.899665"><ele>218.8</ele><time>2026-08-05T20:20:57Z</time></trkpt>
<trkpt lat="35.193524" lon="-84.899665"><ele>218.8</ele><time>2026-08-05T20:20:59Z</time></trkpt>
<trkpt lat="35.193561" lon="-84.899664"><ele>219.2</ele><time>2026-08-05T20:21:02Z</time></trkpt>
<trkpt lat="35.193597" lon="-84.89967"><ele>219.5</ele><time>2026-08-05T20:21:05Z</time></trkpt>
<trkpt lat="35.193625" lon="-84.899674"><ele>220.1</ele><time>2026-08-05T20:21:07Z</time></trkpt>
<trkpt lat="35.193656" lon="-84.899677"><ele>220.4</ele><time>2026-08-05T20:21:09Z</time></trkpt>
<trkpt lat="35.193687" lon="-84.899676"><ele>220.7</ele><time>2026-08-05T20:21:11Z</time></trkpt>
<trkpt lat="35.193717" lon="-84.89967"><ele>220.7</ele><time>2026-08-05T20:21:13Z</time></trkpt>
<trkpt lat="35.193757" lon="-84.899665"><ele>221.3</ele><time>2026-08-05T20:21:16Z</time></trkpt>
<trkpt lat="35.193792" lon="-84.899651"><ele>221.3</ele><time>2026-08-05T20:21:19Z</time></trkpt>
<trkpt lat="35.193829" lon="-84.899635"><ele>221.3</ele><time>2026-08-05T20:21:22Z</time></trkpt>
<trkpt lat="35.193869" lon="-84.899619"><ele>221.6</ele><time>2026-08-05T20:21:25Z</time></trkpt>
<trkpt lat="35.193896" lon="-84.899605"><ele>221.6</ele><time>2026-08-05T20:21:27Z</time></trkpt>
<trkpt lat="35.193925" lon="-84.899591"><ele>221.9</ele><time>2026-08-05T20:21:29Z</time></trkpt>
<trkpt lat="35.193956" lon="-84.899576"><ele>221.9</ele><time>2026-08-05T20:21:31Z</time></trkpt>
<trkpt lat="35.193984" lon="-84.899562"><ele>221.9</ele><time>2026-08-05T20:21:33Z</time></trkpt>
<trkpt lat="35.194012" lon="-84.899547"><ele>221.9</ele><time>2026-08-05T20:21:35Z</time></trkpt>
<trkpt lat="35.194038" lon="-84.899535"><ele>221.9</ele><time>2026-08-05T20:21:37Z</time></trkpt>
<trkpt lat="35.194065" lon="-84.89952"><ele>221.9</ele><time>2026-08-05T20:21:39Z</time></trkpt>
<trkpt lat="35.194093" lon="-84.899509"><ele>221.9</ele><time>2026-08-05T20:21:41Z</time></trkpt>
<trkpt lat="35.194123" lon="-84.899495"><ele>222.2</ele><time>2026-08-05T20:21:43Z</time></trkpt>
<trkpt lat="35.19415" lon="-84.899479"><ele>221.9</ele><time>2026-08-05T20:21:45Z</time></trkpt>
<trkpt lat="35.194177" lon="-84.899464"><ele>221.9</ele><time>2026-08-05T20:21:47Z</time></trkpt>
<trkpt lat="35.194212" lon="-84.899445"><ele>221.9</ele><time>2026-08-05T20:21:50Z</time></trkpt>
<trkpt lat="35.194248" lon="-84.899427"><ele>221.9</ele><time>2026-08-05T20:21:53Z</time></trkpt>
<trkpt lat="35.194286" lon="-84.899409"><ele>221.9</ele><time>2026-08-05T20:21:56Z</time></trkpt>
<trkpt lat="35.194311" lon="-84.899394"><ele>221.3</ele><time>2026-08-05T20:21:58Z</time></trkpt>
<trkpt lat="35.194337" lon="-84.899382"><ele>220.7</ele><time>2026-08-05T20:22:00Z</time></trkpt>
<trkpt lat="35.194364" lon="-84.899372"><ele>220.4</ele><time>2026-08-05T20:22:02Z</time></trkpt>
<trkpt lat="35.194402" lon="-84.899351"><ele>219.8</ele><time>2026-08-05T20:22:05Z</time></trkpt>
<trkpt lat="35.194442" lon="-84.899332"><ele>219.8</ele><time>2026-08-05T20:22:08Z</time></trkpt>
<trkpt lat="35.194482" lon="-84.899317"><ele>219.5</ele><time>2026-08-05T20:22:11Z</time></trkpt>
<trkpt lat="35.19451" lon="-84.899304"><ele>220.1</ele><time>2026-08-05T20:22:13Z</time></trkpt>
<trkpt lat="35.194536" lon="-84.899289"><ele>220.4</ele><time>2026-08-05T20:22:15Z</time></trkpt>
<trkpt lat="35.194565" lon="-84.899274"><ele>220.4</ele><time>2026-08-05T20:22:17Z</time></trkpt>
<trkpt lat="35.194591" lon="-84.899257"><ele>220.7</ele><time>2026-08-05T20:22:19Z</time></trkpt>
<trkpt lat="35.194619" lon="-84.89924"><ele>220.7</ele><time>2026-08-05T20:22:21Z</time></trkpt>
<trkpt lat="35.194646" lon="-84.899229"><ele>220.4</ele><time>2026-08-05T20:22:23Z</time></trkpt>
<trkpt lat="35.19468" lon="-84.899213"><ele>219.8</ele><time>2026-08-05T20:22:26Z</time></trkpt>
<trkpt lat="35.194714" lon="-84.8992"><ele>218.8</ele><time>2026-08-05T20:22:29Z</time></trkpt>
<trkpt lat="35.19475" lon="-84.899182"><ele>218.8</ele><time>2026-08-05T20:22:32Z</time></trkpt>
<trkpt lat="35.194787" lon="-84.899164"><ele>218.8</ele><time>2026-08-05T20:22:35Z</time></trkpt>
<trkpt lat="35.194812" lon="-84.89915"><ele>219.2</ele><time>2026-08-05T20:22:37Z</time></trkpt>
<trkpt lat="35.194838" lon="-84.899133"><ele>218.8</ele><time>2026-08-05T20:22:39Z</time></trkpt>
<trkpt lat="35.194864" lon="-84.899116"><ele>218.8</ele><time>2026-08-05T20:22:41Z</time></trkpt>
<trkpt lat="35.194897" lon="-84.899096"><ele>218.8</ele><time>2026-08-05T20:22:44Z</time></trkpt>
<trkpt lat="35.194928" lon="-84.899081"><ele>217.9</ele><time>2026-08-05T20:22:47Z</time></trkpt>
<trkpt lat="35.194961" lon="-84.899064"><ele>217.9</ele><time>2026-08-05T20:22:50Z</time></trkpt>
<trkpt lat="35.194999" lon="-84.899045"><ele>217.9</ele><time>2026-08-05T20:22:53Z</time></trkpt>
<trkpt lat="35.195027" lon="-84.899029"><ele>217.6</ele><time>2026-08-05T20:22:55Z</time></trkpt>
<trkpt lat="35.195053" lon="-84.899013"><ele>217.9</ele><time>2026-08-05T20:22:57Z</time></trkpt>
<trkpt lat="35.195089" lon="-84.898994"><ele>217.6</ele><time>2026-08-05T20:23:00Z</time></trkpt>
<trkpt lat="35.195123" lon="-84.898974"><ele>217.6</ele><time>2026-08-05T20:23:03Z</time></trkpt>
<trkpt lat="35.195154" lon="-84.898957"><ele>217.3</ele><time>2026-08-05T20:23:06Z</time></trkpt>
<trkpt lat="35.195188" lon="-84.898939"><ele>217.9</ele><time>2026-08-05T20:23:09Z</time></trkpt>
<trkpt lat="35.195215" lon="-84.89892"><ele>218.2</ele><time>2026-08-05T20:23:11Z</time></trkpt>
<trkpt lat="35.195242" lon="-84.898902"><ele>218.2</ele><time>2026-08-05T20:23:13Z</time></trkpt>
<trkpt lat="35.19527" lon="-84.898884"><ele>218.5</ele><time>2026-08-05T20:23:15Z</time></trkpt>
<trkpt lat="35.195295" lon="-84.898868"><ele>218.5</ele><time>2026-08-05T20:23:17Z</time></trkpt>
<trkpt lat="35.195326" lon="-84.898844"><ele>219.2</ele><time>2026-08-05T20:23:20Z</time></trkpt>
<trkpt lat="35.195358" lon="-84.898823"><ele>218.5</ele><time>2026-08-05T20:23:23Z</time></trkpt>
<trkpt lat="35.195385" lon="-84.898809"><ele>218.2</ele><time>2026-08-05T20:23:25Z</time></trkpt>
<trkpt lat="35.195408" lon="-84.898787"><ele>218.2</ele><time>2026-08-05T20:23:27Z</time></trkpt>
<trkpt lat="35.19543" lon="-84.898765"><ele>218.2</ele><time>2026-08-05T20:23:29Z</time></trkpt>
<trkpt lat="35.195451" lon="-84.898741"><ele>218.2</ele><time>2026-08-05T20:23:31Z</time></trkpt>
<trkpt lat="35.195479" lon="-84.898714"><ele>218.2</ele><time>2026-08-05T20:23:34Z</time></trkpt>
<trkpt lat="35.195509" lon="-84.898694"><ele>217.9</ele><time>2026-08-05T20:23:37Z</time></trkpt>
<trkpt lat="35.195541" lon="-84.898673"><ele>217.3</ele><time>2026-08-05T20:23:40Z</time></trkpt>
<trkpt lat="35.195579" lon="-84.898648"><ele>217.0</ele><time>2026-08-05T20:23:43Z</time></trkpt>
<trkpt lat="35.195604" lon="-84.898631"><ele>217.3</ele><time>2026-08-05T20:23:45Z</time></trkpt>
<trkpt lat="35.19563" lon="-84.898617"><ele>217.6</ele><time>2026-08-05T20:23:47Z</time></trkpt>
<trkpt lat="35.195664" lon="-84.8986"><ele>217.6</ele><time>2026-08-05T20:23:50Z</time></trkpt>
<trkpt lat="35.195701" lon="-84.898585"><ele>217.6</ele><time>2026-08-05T20:23:53Z</time></trkpt>
<trkpt lat="35.195739" lon="-84.898571"><ele>218.2</ele><time>2026-08-05T20:23:56Z</time></trkpt>
<trkpt lat="35.195766" lon="-84.898561"><ele>218.2</ele><time>2026-08-05T20:23:58Z</time></trkpt>
<trkpt lat="35.195792" lon="-84.898544"><ele>218.2</ele><time>2026-08-05T20:24:00Z</time></trkpt>
<trkpt lat="35.195821" lon="-84.898527"><ele>218.5</ele><time>2026-08-05T20:24:02Z</time></trkpt>
<trkpt lat="35.195846" lon="-84.898513"><ele>219.2</ele><time>2026-08-05T20:24:04Z</time></trkpt>
<trkpt lat="35.195881" lon="-84.898508"><ele>218.2</ele><time>2026-08-05T20:24:07Z</time></trkpt>
<trkpt lat="35.195918" lon="-84.898491"><ele>217.9</ele><time>2026-08-05T20:24:10Z</time></trkpt>
<trkpt lat="35.195956" lon="-84.898481"><ele>217.6</ele><time>2026-08-05T20:24:13Z</time></trkpt>
<trkpt lat="35.195987" lon="-84.898474"><ele>217.6</ele><time>2026-08-05T20:24:15Z</time></trkpt>
<trkpt lat="35.196015" lon="-84.89847"><ele>218.2</ele><time>2026-08-05T20:24:17Z</time></trkpt>
<trkpt lat="35.196046" lon="-84.898468"><ele>218.5</ele><time>2026-08-05T20:24:19Z</time></trkpt>
<trkpt lat="35.196077" lon="-84.898472"><ele>218.8</ele><time>2026-08-05T20:24:21Z</time></trkpt>
<trkpt lat="35.196118" lon="-84.898478"><ele>218.5</ele><time>2026-08-05T20:24:24Z</time></trkpt>
<trkpt lat="35.196154" lon="-84.898481"><ele>217.6</ele><time>2026-08-05T20:24:27Z</time></trkpt>
<trkpt lat="35.196192" lon="-84.898484"><ele>216.7</ele><time>2026-08-05T20:24:30Z</time></trkpt>
<trkpt lat="35.196221" lon="-84.898481"><ele>216.4</ele><time>2026-08-05T20:24:32Z</time></trkpt>
<trkpt lat="35.19626" lon="-84.898482"><ele>216.7</ele><time>2026-08-05T20:24:35Z</time></trkpt>
<trkpt lat="35.19629" lon="-84.898476"><ele>217.3</ele><time>2026-08-05T20:24:37Z</time></trkpt>
<trkpt lat="35.196318" lon="-84.89846"><ele>217.9</ele><time>2026-08-05T20:24:39Z</time></trkpt>
<trkpt lat="35.196344" lon="-84.898444"><ele>218.2</ele><time>2026-08-05T20:24:41Z</time></trkpt>
<trkpt lat="35.196374" lon="-84.898421"><ele>218.2</ele><time>2026-08-05T20:24:44Z</time></trkpt>
<trkpt lat="35.1964" lon="-84.898393"><ele>218.2</ele><time>2026-08-05T20:24:47Z</time></trkpt>
<trkpt lat="35.196426" lon="-84.898364"><ele>217.9</ele><time>2026-08-05T20:24:50Z</time></trkpt>
<trkpt lat="35.196447" lon="-84.898326"><ele>217.3</ele><time>2026-08-05T20:24:53Z</time></trkpt>
<trkpt lat="35.196457" lon="-84.898294"><ele>217.0</ele><time>2026-08-05T20:24:55Z</time></trkpt>
<trkpt lat="35.196462" lon="-84.898262"><ele>216.7</ele><time>2026-08-05T20:24:57Z</time></trkpt>
<trkpt lat="35.196467" lon="-84.898214"><ele>216.4</ele><time>2026-08-05T20:25:00Z</time></trkpt>
<trkpt lat="35.196467" lon="-84.898174"><ele>216.1</ele><time>2026-08-05T20:25:03Z</time></trkpt>
<trkpt lat="35.196454" lon="-84.898132"><ele>216.1</ele><time>2026-08-05T20:25:06Z</time></trkpt>
<trkpt lat="35.196423" lon="-84.898104"><ele>216.1</ele><time>2026-08-05T20:25:09Z</time></trkpt>
<trkpt lat="35.1964" lon="-84.898085"><ele>216.1</ele><time>2026-08-05T20:25:11Z</time></trkpt>
<trkpt lat="35.196375" lon="-84.898069"><ele>216.1</ele><time>2026-08-05T20:25:13Z</time></trkpt>
<trkpt lat="35.196349" lon="-84.898049"><ele>215.8</ele><time>2026-08-05T20:25:15Z</time></trkpt>
<trkpt lat="35.196323" lon="-84.898033"><ele>215.5</ele><time>2026-08-05T20:25:17Z</time></trkpt>
<trkpt lat="35.196299" lon="-84.898015"><ele>214.6</ele><time>2026-08-05T20:25:19Z</time></trkpt>
<trkpt lat="35.196275" lon="-84.897988"><ele>214.9</ele><time>2026-08-05T20:25:21Z</time></trkpt>
<trkpt lat="35.196253" lon="-84.897964"><ele>214.6</ele><time>2026-08-05T20:25:23Z</time></trkpt>
<trkpt lat="35.19623" lon="-84.897942"><ele>214.6</ele><time>2026-08-05T20:25:25Z</time></trkpt>
<trkpt lat="35.196209" lon="-84.89792"><ele>214.9</ele><time>2026-08-05T20:25:27Z</time></trkpt>
<trkpt lat="35.196187" lon="-84.897899"><ele>214.9</ele><time>2026-08-05T20:25:29Z</time></trkpt>
<trkpt lat="35.196152" lon="-84.89788"><ele>214.6</ele><time>2026-08-05T20:25:32Z</time></trkpt>
<trkpt lat="35.196115" lon="-84.897869"><ele>214.9</ele><time>2026-08-05T20:25:35Z</time></trkpt>
<trkpt lat="35.196088" lon="-84.897861"><ele>214.6</ele><time>2026-08-05T20:25:37Z</time></trkpt>
<trkpt lat="35.196059" lon="-84.897856"><ele>214.9</ele><time>2026-08-05T20:25:39Z</time></trkpt>
<trkpt lat="35.19603" lon="-84.897847"><ele>214.9</ele><time>2026-08-05T20:25:41Z</time></trkpt>
<trkpt lat="35.196001" lon="-84.897835"><ele>214.9</ele><time>2026-08-05T20:25:43Z</time></trkpt>
<trkpt lat="35.195974" lon="-84.897827"><ele>214.6</ele><time>2026-08-05T20:25:45Z</time></trkpt>
<trkpt lat="35.195944" lon="-84.897824"><ele>214.9</ele><time>2026-08-05T20:25:47Z</time></trkpt>
<trkpt lat="35.195905" lon="-84.897833"><ele>214.3</ele><time>2026-08-05T20:25:50Z</time></trkpt>
<trkpt lat="35.195871" lon="-84.897849"><ele>214.0</ele><time>2026-08-05T20:25:53Z</time></trkpt>
<trkpt lat="35.195836" lon="-84.897864"><ele>214.0</ele><time>2026-08-05T20:25:56Z</time></trkpt>
<trkpt lat="35.195798" lon="-84.897881"><ele>214.3</ele><time>2026-08-05T20:25:59Z</time></trkpt>
<trkpt lat="35.195771" lon="-84.897891"><ele>214.6</ele><time>2026-08-05T20:26:01Z</time></trkpt>
<trkpt lat="35.195745" lon="-84.897905"><ele>214.6</ele><time>2026-08-05T20:26:03Z</time></trkpt>
<trkpt lat="35.195719" lon="-84.89792"><ele>214.9</ele><time>2026-08-05T20:26:05Z</time></trkpt>
<trkpt lat="35.195693" lon="-84.897934"><ele>214.9</ele><time>2026-08-05T20:26:07Z</time></trkpt>
<trkpt lat="35.195666" lon="-84.897944"><ele>215.2</ele><time>2026-08-05T20:26:09Z</time></trkpt>
<trkpt lat="35.195633" lon="-84.897958"><ele>214.9</ele><time>2026-08-05T20:26:12Z</time></trkpt>
<trkpt lat="35.195602" lon="-84.897973"><ele>214.6</ele><time>2026-08-05T20:26:15Z</time></trkpt>
<trkpt lat="35.195563" lon="-84.89799"><ele>214.3</ele><time>2026-08-05T20:26:18Z</time></trkpt>
<trkpt lat="35.195528" lon="-84.898012"><ele>214.3</ele><time>2026-08-05T20:26:21Z</time></trkpt>
<trkpt lat="35.195502" lon="-84.89803"><ele>214.3</ele><time>2026-08-05T20:26:23Z</time></trkpt>
<trkpt lat="35.195475" lon="-84.898046"><ele>214.9</ele><time>2026-08-05T20:26:25Z</time></trkpt>
<trkpt lat="35.195448" lon="-84.898063"><ele>215.2</ele><time>2026-08-05T20:26:27Z</time></trkpt>
<trkpt lat="35.195422" lon="-84.898077"><ele>215.2</ele><time>2026-08-05T20:26:29Z</time></trkpt>
<trkpt lat="35.195388" lon="-84.898095"><ele>215.5</ele><time>2026-08-05T20:26:32Z</time></trkpt>
<trkpt lat="35.195357" lon="-84.898114"><ele>215.5</ele><time>2026-08-05T20:26:35Z</time></trkpt>
<trkpt lat="35.195325" lon="-84.898135"><ele>214.9</ele><time>2026-08-05T20:26:38Z</time></trkpt>
<trkpt lat="35.195296" lon="-84.898147"><ele>214.9</ele><time>2026-08-05T20:26:40Z</time></trkpt>
<trkpt lat="35.19526" lon="-84.898166"><ele>215.2</ele><time>2026-08-05T20:26:43Z</time></trkpt>
<trkpt lat="35.195232" lon="-84.898176"><ele>215.2</ele><time>2026-08-05T20:26:45Z</time></trkpt>
<trkpt lat="35.195205" lon="-84.898193"><ele>214.9</ele><time>2026-08-05T20:26:47Z</time></trkpt>
<trkpt lat="35.195179" lon="-84.89821"><ele>214.6</ele><time>2026-08-05T20:26:49Z</time></trkpt>
<trkpt lat="35.195142" lon="-84.898228"><ele>214.6</ele><time>2026-08-05T20:26:52Z</time></trkpt>
<trkpt lat="35.195117" lon="-84.898244"><ele>214.9</ele><time>2026-08-05T20:26:54Z</time></trkpt>
<trkpt lat="35.195082" lon="-84.89826"><ele>214.6</ele><time>2026-08-05T20:26:57Z</time></trkpt>
<trkpt lat="35.195048" lon="-84.898274"><ele>214.6</ele><time>2026-08-05T20:27:00Z</time></trkpt>
<trkpt lat="35.19501" lon="-84.898296"><ele>214.9</ele><time>2026-08-05T20:27:03Z</time></trkpt>
<trkpt lat="35.194973" lon="-84.898318"><ele>214.6</ele><time>2026-08-05T20:27:06Z</time></trkpt>
<trkpt lat="35.194946" lon="-84.898332"><ele>214.9</ele><time>2026-08-05T20:27:08Z</time></trkpt>
<trkpt lat="35.19492" lon="-84.898349"><ele>214.9</ele><time>2026-08-05T20:27:10Z</time></trkpt>
<trkpt lat="35.194884" lon="-84.898366"><ele>214.9</ele><time>2026-08-05T20:27:13Z</time></trkpt>
<trkpt lat="35.194849" lon="-84.898386"><ele>215.5</ele><time>2026-08-05T20:27:16Z</time></trkpt>
<trkpt lat="35.194815" lon="-84.8984"><ele>214.9</ele><time>2026-08-05T20:27:19Z</time></trkpt>
<trkpt lat="35.19479" lon="-84.898416"><ele>214.9</ele><time>2026-08-05T20:27:21Z</time></trkpt>
<trkpt lat="35.194764" lon="-84.898431"><ele>214.6</ele><time>2026-08-05T20:27:23Z</time></trkpt>
<trkpt lat="35.194728" lon="-84.898454"><ele>214.6</ele><time>2026-08-05T20:27:26Z</time></trkpt>
<trkpt lat="35.194701" lon="-84.898467"><ele>214.6</ele><time>2026-08-05T20:27:28Z</time></trkpt>
<trkpt lat="35.194676" lon="-84.898482"><ele>214.9</ele><time>2026-08-05T20:27:30Z</time></trkpt>
<trkpt lat="35.194641" lon="-84.898501"><ele>215.2</ele><time>2026-08-05T20:27:33Z</time></trkpt>
<trkpt lat="35.194608" lon="-84.898518"><ele>214.9</ele><time>2026-08-05T20:27:36Z</time></trkpt>
<trkpt lat="35.194574" lon="-84.898537"><ele>214.9</ele><time>2026-08-05T20:27:39Z</time></trkpt>
<trkpt lat="35.194547" lon="-84.898551"><ele>214.9</ele><time>2026-08-05T20:27:41Z</time></trkpt>
<trkpt lat="35.194518" lon="-84.898567"><ele>215.2</ele><time>2026-08-05T20:27:43Z</time></trkpt>
<trkpt lat="35.194491" lon="-84.898581"><ele>214.9</ele><time>2026-08-05T20:27:45Z</time></trkpt>
<trkpt lat="35.194464" lon="-84.898596"><ele>214.6</ele><time>2026-08-05T20:27:47Z</time></trkpt>
<trkpt lat="35.19444" lon="-84.898613"><ele>214.6</ele><time>2026-08-05T20:27:49Z</time></trkpt>
<trkpt lat="35.19441" lon="-84.898632"><ele>214.6</ele><time>2026-08-05T20:27:52Z</time></trkpt>
<trkpt lat="35.194377" lon="-84.898649"><ele>214.6</ele><time>2026-08-05T20:27:55Z</time></trkpt>
<trkpt lat="35.194342" lon="-84.898667"><ele>214.3</ele><time>2026-08-05T20:27:58Z</time></trkpt>
<trkpt lat="35.194317" lon="-84.898682"><ele>214.6</ele><time>2026-08-05T20:28:00Z</time></trkpt>
<trkpt lat="35.194288" lon="-84.898698"><ele>214.6</ele><time>2026-08-05T20:28:02Z</time></trkpt>
<trkpt lat="35.194259" lon="-84.898713"><ele>214.6</ele><time>2026-08-05T20:28:04Z</time></trkpt>
<trkpt lat="35.194232" lon="-84.898732"><ele>214.9</ele><time>2026-08-05T20:28:06Z</time></trkpt>
<trkpt lat="35.1942" lon="-84.89875"><ele>214.9</ele><time>2026-08-05T20:28:09Z</time></trkpt>
<trkpt lat="35.194169" lon="-84.898769"><ele>214.9</ele><time>2026-08-05T20:28:12Z</time></trkpt>
<trkpt lat="35.194144" lon="-84.898783"><ele>214.6</ele><time>2026-08-05T20:28:14Z</time></trkpt>
<trkpt lat="35.19411" lon="-84.898801"><ele>214.6</ele><time>2026-08-05T20:28:17Z</time></trkpt>
<trkpt lat="35.194083" lon="-84.898816"><ele>214.9</ele><time>2026-08-05T20:28:19Z</time></trkpt>
<trkpt lat="35.194053" lon="-84.898829"><ele>214.9</ele><time>2026-08-05T20:28:21Z</time></trkpt>
<trkpt lat="35.194027" lon="-84.898845"><ele>214.9</ele><time>2026-08-05T20:28:23Z</time></trkpt>
<trkpt lat="35.194001" lon="-84.89886"><ele>214.9</ele><time>2026-08-05T20:28:25Z</time></trkpt>
<trkpt lat="35.193976" lon="-84.898874"><ele>214.9</ele><time>2026-08-05T20:28:27Z</time></trkpt>
<trkpt lat="35.193943" lon="-84.898893"><ele>214.9</ele><time>2026-08-05T20:28:30Z</time></trkpt>
<trkpt lat="35.193913" lon="-84.898911"><ele>214.6</ele><time>2026-08-05T20:28:33Z</time></trkpt>
<trkpt lat="35.193877" lon="-84.898928"><ele>214.6</ele><time>2026-08-05T20:28:36Z</time></trkpt>
<trkpt lat="35.19384" lon="-84.898948"><ele>214.9</ele><time>2026-08-05T20:28:39Z</time></trkpt>
<trkpt lat="35.19381" lon="-84.898968"><ele>214.6</ele><time>2026-08-05T20:28:41Z</time></trkpt>
<trkpt lat="35.19378" lon="-84.898987"><ele>214.6</ele><time>2026-08-05T20:28:43Z</time></trkpt>
<trkpt lat="35.193751" lon="-84.899003"><ele>214.6</ele><time>2026-08-05T20:28:45Z</time></trkpt>
<trkpt lat="35.193724" lon="-84.899018"><ele>215.2</ele><time>2026-08-05T20:28:47Z</time></trkpt>
<trkpt lat="35.19369" lon="-84.899037"><ele>215.8</ele><time>2026-08-05T20:28:50Z</time></trkpt>
<trkpt lat="35.193657" lon="-84.899054"><ele>215.5</ele><time>2026-08-05T20:28:53Z</time></trkpt>
<trkpt lat="35.193622" lon="-84.899075"><ele>215.2</ele><time>2026-08-05T20:28:56Z</time></trkpt>
<trkpt lat="35.193597" lon="-84.899091"><ele>215.5</ele><time>2026-08-05T20:28:58Z</time></trkpt>
<trkpt lat="35.193571" lon="-84.899107"><ele>215.5</ele><time>2026-08-05T20:29:00Z</time></trkpt>
<trkpt lat="35.193546" lon="-84.899124"><ele>215.5</ele><time>2026-08-05T20:29:02Z</time></trkpt>
<trkpt lat="35.193519" lon="-84.89914"><ele>215.5</ele><time>2026-08-05T20:29:04Z</time></trkpt>
<trkpt lat="35.193495" lon="-84.899155"><ele>215.5</ele><time>2026-08-05T20:29:06Z</time></trkpt>
<trkpt lat="35.193462" lon="-84.899173"><ele>215.8</ele><time>2026-08-05T20:29:09Z</time></trkpt>
<trkpt lat="35.193428" lon="-84.899192"><ele>215.8</ele><time>2026-08-05T20:29:12Z</time></trkpt>
<trkpt lat="35.193392" lon="-84.899213"><ele>215.8</ele><time>2026-08-05T20:29:15Z</time></trkpt>
<trkpt lat="35.193366" lon="-84.899229"><ele>216.1</ele><time>2026-08-05T20:29:17Z</time></trkpt>
<trkpt lat="35.193339" lon="-84.899248"><ele>216.4</ele><time>2026-08-05T20:29:19Z</time></trkpt>
<trkpt lat="35.193311" lon="-84.899263"><ele>216.1</ele><time>2026-08-05T20:29:21Z</time></trkpt>
<trkpt lat="35.193286" lon="-84.899277"><ele>215.8</ele><time>2026-08-05T20:29:23Z</time></trkpt>
<trkpt lat="35.193249" lon="-84.899298"><ele>215.8</ele><time>2026-08-05T20:29:26Z</time></trkpt>
<trkpt lat="35.193213" lon="-84.899316"><ele>215.5</ele><time>2026-08-05T20:29:29Z</time></trkpt>
<trkpt lat="35.193179" lon="-84.899338"><ele>215.5</ele><time>2026-08-05T20:29:32Z</time></trkpt>
<trkpt lat="35.193153" lon="-84.89935"><ele>215.5</ele><time>2026-08-05T20:29:34Z</time></trkpt>
<trkpt lat="35.193116" lon="-84.899369"><ele>215.2</ele><time>2026-08-05T20:29:37Z</time></trkpt>
<trkpt lat="35.19309" lon="-84.899384"><ele>215.2</ele><time>2026-08-05T20:29:39Z</time></trkpt>
<trkpt lat="35.193062" lon="-84.899398"><ele>215.2</ele><time>2026-08-05T20:29:41Z</time></trkpt>
<trkpt lat="35.193033" lon="-84.899415"><ele>214.9</ele><time>2026-08-05T20:29:43Z</time></trkpt>
<trkpt lat="35.193006" lon="-84.899429"><ele>214.9</ele><time>2026-08-05T20:29:45Z</time></trkpt>
<trkpt lat="35.19297" lon="-84.899448"><ele>214.9</ele><time>2026-08-05T20:29:48Z</time></trkpt>
<trkpt lat="35.192938" lon="-84.899461"><ele>215.2</ele><time>2026-08-05T20:29:51Z</time></trkpt>
<trkpt lat="35.192902" lon="-84.89948"><ele>214.9</ele><time>2026-08-05T20:29:54Z</time></trkpt>
<trkpt lat="35.192863" lon="-84.899496"><ele>215.2</ele><time>2026-08-05T20:29:57Z</time></trkpt>
<trkpt lat="35.192834" lon="-84.899506"><ele>215.2</ele><time>2026-08-05T20:29:59Z</time></trkpt>
<trkpt lat="35.192796" lon="-84.89952"><ele>214.9</ele><time>2026-08-05T20:30:02Z</time></trkpt>
<trkpt lat="35.192768" lon="-84.89953"><ele>215.2</ele><time>2026-08-05T20:30:04Z</time></trkpt>
<trkpt lat="35.192741" lon="-84.899544"><ele>215.2</ele><time>2026-08-05T20:30:06Z</time></trkpt>
<trkpt lat="35.192705" lon="-84.899561"><ele>215.2</ele><time>2026-08-05T20:30:09Z</time></trkpt>
<trkpt lat="35.192671" lon="-84.899575"><ele>215.2</ele><time>2026-08-05T20:30:12Z</time></trkpt>
<trkpt lat="35.192637" lon="-84.899585"><ele>214.9</ele><time>2026-08-05T20:30:15Z</time></trkpt>
<trkpt lat="35.192609" lon="-84.899591"><ele>214.9</ele><time>2026-08-05T20:30:17Z</time></trkpt>
<trkpt lat="35.192579" lon="-84.899601"><ele>214.6</ele><time>2026-08-05T20:30:19Z</time></trkpt>
<trkpt lat="35.19255" lon="-84.899613"><ele>214.6</ele><time>2026-08-05T20:30:21Z</time></trkpt>
<trkpt lat="35.192521" lon="-84.899625"><ele>214.3</ele><time>2026-08-05T20:30:23Z</time></trkpt>
<trkpt lat="35.192494" lon="-84.899638"><ele>214.0</ele><time>2026-08-05T20:30:25Z</time></trkpt>
<trkpt lat="35.192456" lon="-84.899652"><ele>214.0</ele><time>2026-08-05T20:30:28Z</time></trkpt>
<trkpt lat="35.192421" lon="-84.899665"><ele>214.0</ele><time>2026-08-05T20:30:31Z</time></trkpt>
<trkpt lat="35.192382" lon="-84.899679"><ele>214.3</ele><time>2026-08-05T20:30:34Z</time></trkpt>
<trkpt lat="35.192341" lon="-84.899689"><ele>214.6</ele><time>2026-08-05T20:30:37Z</time></trkpt>
<trkpt lat="35.192313" lon="-84.899695"><ele>214.6</ele><time>2026-08-05T20:30:39Z</time></trkpt>
<trkpt lat="35.192284" lon="-84.899702"><ele>214.6</ele><time>2026-08-05T20:30:41Z</time></trkpt>
<trkpt lat="35.192253" lon="-84.8997"><ele>214.6</ele><time>2026-08-05T20:30:43Z</time></trkpt>
<trkpt lat="35.192222" lon="-84.899698"><ele>214.9</ele><time>2026-08-05T20:30:45Z</time></trkpt>
<trkpt lat="35.192192" lon="-84.899694"><ele>214.9</ele><time>2026-08-05T20:30:47Z</time></trkpt>
<trkpt lat="35.192157" lon="-84.899679"><ele>215.2</ele><time>2026-08-05T20:30:50Z</time></trkpt>
<trkpt lat="35.192123" lon="-84.899658"><ele>215.2</ele><time>2026-08-05T20:30:53Z</time></trkpt>
<trkpt lat="35.192091" lon="-84.899635"><ele>215.5</ele><time>2026-08-05T20:30:56Z</time></trkpt>
<trkpt lat="35.192077" lon="-84.899592"><ele>215.8</ele><time>2026-08-05T20:30:59Z</time></trkpt>
<trkpt lat="35.192083" lon="-84.899559"><ele>216.1</ele><time>2026-08-05T20:31:01Z</time></trkpt>
<trkpt lat="35.192074" lon="-84.899522"><ele>213.4</ele><time>2026-08-05T20:31:08Z</time></trkpt>
<trkpt lat="35.192101" lon="-84.899494"><ele>217.0</ele><time>2026-08-05T20:31:11Z</time></trkpt>
<trkpt lat="35.192141" lon="-84.899499"><ele>217.9</ele><time>2026-08-05T20:31:13Z</time></trkpt>
<trkpt lat="35.192183" lon="-84.899521"><ele>218.5</ele><time>2026-08-05T20:31:15Z</time></trkpt>
<trkpt lat="35.192233" lon="-84.899551"><ele>217.6</ele><time>2026-08-05T20:31:17Z</time></trkpt>
<trkpt lat="35.192264" lon="-84.899573"><ele>216.1</ele><time>2026-08-05T20:31:18Z</time></trkpt>
<trkpt lat="35.192291" lon="-84.89959"><ele>215.2</ele><time>2026-08-05T20:31:19Z</time></trkpt>
<trkpt lat="35.192338" lon="-84.899615"><ele>215.2</ele><time>2026-08-05T20:31:21Z</time></trkpt>
<trkpt lat="35.192379" lon="-84.899626"><ele>214.9</ele><time>2026-08-05T20:31:23Z</time></trkpt>
<trkpt lat="35.192415" lon="-84.899629"><ele>214.6</ele><time>2026-08-05T20:31:25Z</time></trkpt>
<trkpt lat="35.192447" lon="-84.899626"><ele>214.9</ele><time>2026-08-05T20:31:27Z</time></trkpt>
<trkpt lat="35.192477" lon="-84.899619"><ele>214.9</ele><time>2026-08-05T20:31:29Z</time></trkpt>
<trkpt lat="35.192506" lon="-84.899612"><ele>215.2</ele><time>2026-08-05T20:31:31Z</time></trkpt>
<trkpt lat="35.192534" lon="-84.899602"><ele>215.2</ele><time>2026-08-05T20:31:33Z</time></trkpt>
<trkpt lat="35.192573" lon="-84.899592"><ele>214.9</ele><time>2026-08-05T20:31:36Z</time></trkpt>
<trkpt lat="35.1926" lon="-84.899586"><ele>215.2</ele><time>2026-08-05T20:31:38Z</time></trkpt>
<trkpt lat="35.19264" lon="-84.899573"><ele>214.9</ele><time>2026-08-05T20:31:41Z</time></trkpt>
<trkpt lat="35.192668" lon="-84.899565"><ele>215.2</ele><time>2026-08-05T20:31:43Z</time></trkpt>
<trkpt lat="35.192708" lon="-84.899551"><ele>215.2</ele><time>2026-08-05T20:31:46Z</time></trkpt>
<trkpt lat="35.192736" lon="-84.899542"><ele>215.2</ele><time>2026-08-05T20:31:48Z</time></trkpt>
<trkpt lat="35.192763" lon="-84.899529"><ele>215.5</ele><time>2026-08-05T20:31:50Z</time></trkpt>
<trkpt lat="35.192791" lon="-84.899516"><ele>215.5</ele><time>2026-08-05T20:31:52Z</time></trkpt>
<trkpt lat="35.192821" lon="-84.899502"><ele>215.2</ele><time>2026-08-05T20:31:54Z</time></trkpt>
<trkpt lat="35.192846" lon="-84.899488"><ele>215.2</ele><time>2026-08-05T20:31:56Z</time></trkpt>
<trkpt lat="35.192877" lon="-84.899478"><ele>215.5</ele><time>2026-08-05T20:31:58Z</time></trkpt>
<trkpt lat="35.192907" lon="-84.899466"><ele>215.2</ele><time>2026-08-05T20:32:00Z</time></trkpt>
<trkpt lat="35.192933" lon="-84.899449"><ele>215.2</ele><time>2026-08-05T20:32:02Z</time></trkpt>
<trkpt lat="35.192969" lon="-84.899436"><ele>214.9</ele><time>2026-08-05T20:32:05Z</time></trkpt>
<trkpt lat="35.193003" lon="-84.899421"><ele>214.9</ele><time>2026-08-05T20:32:08Z</time></trkpt>
<trkpt lat="35.193039" lon="-84.899403"><ele>214.6</ele><time>2026-08-05T20:32:11Z</time></trkpt>
<trkpt lat="35.193078" lon="-84.899384"><ele>214.9</ele><time>2026-08-05T20:32:14Z</time></trkpt>
<trkpt lat="35.193106" lon="-84.899368"><ele>214.6</ele><time>2026-08-05T20:32:16Z</time></trkpt>
<trkpt lat="35.193132" lon="-84.899351"><ele>214.9</ele><time>2026-08-05T20:32:18Z</time></trkpt>
<trkpt lat="35.193158" lon="-84.899334"><ele>214.6</ele><time>2026-08-05T20:32:20Z</time></trkpt>
<trkpt lat="35.193195" lon="-84.899314"><ele>215.2</ele><time>2026-08-05T20:32:23Z</time></trkpt>
<trkpt lat="35.193228" lon="-84.899294"><ele>215.2</ele><time>2026-08-05T20:32:26Z</time></trkpt>
<trkpt lat="35.193261" lon="-84.899276"><ele>215.5</ele><time>2026-08-05T20:32:29Z</time></trkpt>
<trkpt lat="35.193297" lon="-84.89926"><ele>215.8</ele><time>2026-08-05T20:32:32Z</time></trkpt>
<trkpt lat="35.193324" lon="-84.899246"><ele>215.8</ele><time>2026-08-05T20:32:34Z</time></trkpt>
<trkpt lat="35.193353" lon="-84.899231"><ele>215.8</ele><time>2026-08-05T20:32:36Z</time></trkpt>
<trkpt lat="35.193379" lon="-84.899211"><ele>216.1</ele><time>2026-08-05T20:32:38Z</time></trkpt>
<trkpt lat="35.193404" lon="-84.899193"><ele>216.1</ele><time>2026-08-05T20:32:40Z</time></trkpt>
<trkpt lat="35.193438" lon="-84.899174"><ele>216.4</ele><time>2026-08-05T20:32:43Z</time></trkpt>
<trkpt lat="35.193468" lon="-84.899159"><ele>216.1</ele><time>2026-08-05T20:32:46Z</time></trkpt>
<trkpt lat="35.193503" lon="-84.89914"><ele>216.1</ele><time>2026-08-05T20:32:49Z</time></trkpt>
<trkpt lat="35.193528" lon="-84.899124"><ele>216.4</ele><time>2026-08-05T20:32:51Z</time></trkpt>
<trkpt lat="35.193554" lon="-84.899108"><ele>216.7</ele><time>2026-08-05T20:32:53Z</time></trkpt>
<trkpt lat="35.193579" lon="-84.89909"><ele>216.7</ele><time>2026-08-05T20:32:55Z</time></trkpt>
<trkpt lat="35.193605" lon="-84.899075"><ele>216.4</ele><time>2026-08-05T20:32:57Z</time></trkpt>
<trkpt lat="35.193638" lon="-84.899055"><ele>216.4</ele><time>2026-08-05T20:33:00Z</time></trkpt>
<trkpt lat="35.193672" lon="-84.899039"><ele>216.1</ele><time>2026-08-05T20:33:03Z</time></trkpt>
<trkpt lat="35.193708" lon="-84.899018"><ele>216.1</ele><time>2026-08-05T20:33:06Z</time></trkpt>
<trkpt lat="35.193745" lon="-84.89899"><ele>216.4</ele><time>2026-08-05T20:33:09Z</time></trkpt>
<trkpt lat="35.193771" lon="-84.898976"><ele>216.4</ele><time>2026-08-05T20:33:11Z</time></trkpt>
<trkpt lat="35.193808" lon="-84.898958"><ele>216.4</ele><time>2026-08-05T20:33:14Z</time></trkpt>
<trkpt lat="35.193841" lon="-84.89894"><ele>215.8</ele><time>2026-08-05T20:33:17Z</time></trkpt>
<trkpt lat="35.193872" lon="-84.898925"><ele>215.8</ele><time>2026-08-05T20:33:20Z</time></trkpt>
<trkpt lat="35.193907" lon="-84.898905"><ele>215.8</ele><time>2026-08-05T20:33:23Z</time></trkpt>
<trkpt lat="35.193935" lon="-84.898889"><ele>215.8</ele><time>2026-08-05T20:33:25Z</time></trkpt>
<trkpt lat="35.193962" lon="-84.898871"><ele>216.1</ele><time>2026-08-05T20:33:27Z</time></trkpt>
<trkpt lat="35.193989" lon="-84.898858"><ele>216.1</ele><time>2026-08-05T20:33:29Z</time></trkpt>
<trkpt lat="35.194021" lon="-84.898841"><ele>215.8</ele><time>2026-08-05T20:33:32Z</time></trkpt>
<trkpt lat="35.194053" lon="-84.898822"><ele>215.8</ele><time>2026-08-05T20:33:35Z</time></trkpt>
<trkpt lat="35.194087" lon="-84.898806"><ele>215.5</ele><time>2026-08-05T20:33:38Z</time></trkpt>
<trkpt lat="35.194113" lon="-84.898793"><ele>215.2</ele><time>2026-08-05T20:33:40Z</time></trkpt>
<trkpt lat="35.194139" lon="-84.898776"><ele>215.2</ele><time>2026-08-05T20:33:42Z</time></trkpt>
<trkpt lat="35.194166" lon="-84.898763"><ele>215.2</ele><time>2026-08-05T20:33:44Z</time></trkpt>
<trkpt lat="35.194202" lon="-84.898742"><ele>215.2</ele><time>2026-08-05T20:33:47Z</time></trkpt>
<trkpt lat="35.194231" lon="-84.898722"><ele>214.9</ele><time>2026-08-05T20:33:50Z</time></trkpt>
<trkpt lat="35.194266" lon="-84.898703"><ele>214.9</ele><time>2026-08-05T20:33:53Z</time></trkpt>
<trkpt lat="35.194293" lon="-84.89869"><ele>214.6</ele><time>2026-08-05T20:33:55Z</time></trkpt>
<trkpt lat="35.194318" lon="-84.898676"><ele>214.9</ele><time>2026-08-05T20:33:57Z</time></trkpt>
<trkpt lat="35.194343" lon="-84.898657"><ele>214.9</ele><time>2026-08-05T20:33:59Z</time></trkpt>
<trkpt lat="35.19438" lon="-84.898638"><ele>214.9</ele><time>2026-08-05T20:34:02Z</time></trkpt>
<trkpt lat="35.194413" lon="-84.898615"><ele>215.2</ele><time>2026-08-05T20:34:05Z</time></trkpt>
<trkpt lat="35.194445" lon="-84.898596"><ele>214.6</ele><time>2026-08-05T20:34:08Z</time></trkpt>
<trkpt lat="35.194481" lon="-84.898576"><ele>214.9</ele><time>2026-08-05T20:34:11Z</time></trkpt>
<trkpt lat="35.194507" lon="-84.898561"><ele>214.9</ele><time>2026-08-05T20:34:13Z</time></trkpt>
<trkpt lat="35.194534" lon="-84.898546"><ele>215.2</ele><time>2026-08-05T20:34:15Z</time></trkpt>
<trkpt lat="35.194559" lon="-84.898532"><ele>215.5</ele><time>2026-08-05T20:34:17Z</time></trkpt>
<trkpt lat="35.194584" lon="-84.898516"><ele>215.8</ele><time>2026-08-05T20:34:19Z</time></trkpt>
<trkpt lat="35.194616" lon="-84.898498"><ele>215.8</ele><time>2026-08-05T20:34:22Z</time></trkpt>
<trkpt lat="35.194649" lon="-84.898482"><ele>215.8</ele><time>2026-08-05T20:34:25Z</time></trkpt>
<trkpt lat="35.194687" lon="-84.898462"><ele>216.1</ele><time>2026-08-05T20:34:28Z</time></trkpt>
<trkpt lat="35.194714" lon="-84.898448"><ele>216.1</ele><time>2026-08-05T20:34:30Z</time></trkpt>
<trkpt lat="35.194743" lon="-84.898433"><ele>216.4</ele><time>2026-08-05T20:34:32Z</time></trkpt>
<trkpt lat="35.194772" lon="-84.898419"><ele>216.4</ele><time>2026-08-05T20:34:34Z</time></trkpt>
<trkpt lat="35.194797" lon="-84.898404"><ele>216.7</ele><time>2026-08-05T20:34:36Z</time></trkpt>
<trkpt lat="35.194822" lon="-84.898387"><ele>216.1</ele><time>2026-08-05T20:34:38Z</time></trkpt>
<trkpt lat="35.194856" lon="-84.898371"><ele>216.1</ele><time>2026-08-05T20:34:41Z</time></trkpt>
<trkpt lat="35.19489" lon="-84.898352"><ele>216.1</ele><time>2026-08-05T20:34:44Z</time></trkpt>
<trkpt lat="35.194929" lon="-84.898335"><ele>216.1</ele><time>2026-08-05T20:34:47Z</time></trkpt>
<trkpt lat="35.194955" lon="-84.898319"><ele>216.4</ele><time>2026-08-05T20:34:49Z</time></trkpt>
<trkpt lat="35.194983" lon="-84.898303"><ele>216.7</ele><time>2026-08-05T20:34:51Z</time></trkpt>
<trkpt lat="35.19501" lon="-84.898288"><ele>217.0</ele><time>2026-08-05T20:34:53Z</time></trkpt>
<trkpt lat="35.195036" lon="-84.898271"><ele>217.3</ele><time>2026-08-05T20:34:55Z</time></trkpt>
<trkpt lat="35.195072" lon="-84.89825"><ele>217.9</ele><time>2026-08-05T20:34:58Z</time></trkpt>
<trkpt lat="35.195106" lon="-84.898231"><ele>218.2</ele><time>2026-08-05T20:35:01Z</time></trkpt>
<trkpt lat="35.195144" lon="-84.898214"><ele>218.2</ele><time>2026-08-05T20:35:04Z</time></trkpt>
<trkpt lat="35.195182" lon="-84.898192"><ele>217.6</ele><time>2026-08-05T20:35:07Z</time></trkpt>
<trkpt lat="35.195208" lon="-84.898178"><ele>217.6</ele><time>2026-08-05T20:35:09Z</time></trkpt>
<trkpt lat="35.195247" lon="-84.898156"><ele>217.6</ele><time>2026-08-05T20:35:12Z</time></trkpt>
<trkpt lat="35.195274" lon="-84.898145"><ele>217.9</ele><time>2026-08-05T20:35:14Z</time></trkpt>
<trkpt lat="35.195301" lon="-84.898133"><ele>218.2</ele><time>2026-08-05T20:35:16Z</time></trkpt>
<trkpt lat="35.19533" lon="-84.898118"><ele>218.2</ele><time>2026-08-05T20:35:18Z</time></trkpt>
<trkpt lat="35.195356" lon="-84.898101"><ele>218.2</ele><time>2026-08-05T20:35:20Z</time></trkpt>
<trkpt lat="35.195383" lon="-84.898083"><ele>218.2</ele><time>2026-08-05T20:35:22Z</time></trkpt>
<trkpt lat="35.195406" lon="-84.898063"><ele>218.2</ele><time>2026-08-05T20:35:24Z</time></trkpt>
<trkpt lat="35.195443" lon="-84.898047"><ele>218.5</ele><time>2026-08-05T20:35:27Z</time></trkpt>
<trkpt lat="35.195474" lon="-84.898032"><ele>218.5</ele><time>2026-08-05T20:35:30Z</time></trkpt>
<trkpt lat="35.195505" lon="-84.898016"><ele>218.2</ele><time>2026-08-05T20:35:33Z</time></trkpt>
<trkpt lat="35.195542" lon="-84.897998"><ele>217.6</ele><time>2026-08-05T20:35:36Z</time></trkpt>
<trkpt lat="35.195577" lon="-84.897978"><ele>217.3</ele><time>2026-08-05T20:35:39Z</time></trkpt>
<trkpt lat="35.195613" lon="-84.897957"><ele>217.3</ele><time>2026-08-05T20:35:42Z</time></trkpt>
<trkpt lat="35.195644" lon="-84.897939"><ele>217.6</ele><time>2026-08-05T20:35:45Z</time></trkpt>
<trkpt lat="35.195679" lon="-84.897926"><ele>217.3</ele><time>2026-08-05T20:35:48Z</time></trkpt>
<trkpt lat="35.195713" lon="-84.897905"><ele>217.3</ele><time>2026-08-05T20:35:51Z</time></trkpt>
<trkpt lat="35.195739" lon="-84.897889"><ele>217.6</ele><time>2026-08-05T20:35:53Z</time></trkpt>
<trkpt lat="35.195769" lon="-84.897876"><ele>217.9</ele><time>2026-08-05T20:35:55Z</time></trkpt>
<trkpt lat="35.195808" lon="-84.897866"><ele>217.9</ele><time>2026-08-05T20:35:58Z</time></trkpt>
<trkpt lat="35.195835" lon="-84.897852"><ele>217.9</ele><time>2026-08-05T20:36:00Z</time></trkpt>
<trkpt lat="35.195861" lon="-84.897839"><ele>217.6</ele><time>2026-08-05T20:36:02Z</time></trkpt>
<trkpt lat="35.195895" lon="-84.897824"><ele>217.6</ele><time>2026-08-05T20:36:05Z</time></trkpt>
<trkpt lat="35.195929" lon="-84.897811"><ele>217.3</ele><time>2026-08-05T20:36:08Z</time></trkpt>
<trkpt lat="35.195956" lon="-84.897803"><ele>217.3</ele><time>2026-08-05T20:36:10Z</time></trkpt>
<trkpt lat="35.195986" lon="-84.897805"><ele>217.3</ele><time>2026-08-05T20:36:12Z</time></trkpt>
<trkpt lat="35.196026" lon="-84.897818"><ele>217.3</ele><time>2026-08-05T20:36:15Z</time></trkpt>
<trkpt lat="35.196054" lon="-84.897827"><ele>217.0</ele><time>2026-08-05T20:36:17Z</time></trkpt>
<trkpt lat="35.196085" lon="-84.897835"><ele>216.7</ele><time>2026-08-05T20:36:19Z</time></trkpt>
<trkpt lat="35.196112" lon="-84.897846"><ele>217.0</ele><time>2026-08-05T20:36:21Z</time></trkpt>
<trkpt lat="35.196141" lon="-84.897852"><ele>217.0</ele><time>2026-08-05T20:36:23Z</time></trkpt>
<trkpt lat="35.196168" lon="-84.897863"><ele>217.0</ele><time>2026-08-05T20:36:25Z</time></trkpt>
<trkpt lat="35.196201" lon="-84.897884"><ele>217.3</ele><time>2026-08-05T20:36:28Z</time></trkpt>
<trkpt lat="35.19623" lon="-84.897915"><ele>216.7</ele><time>2026-08-05T20:36:31Z</time></trkpt>
<trkpt lat="35.196258" lon="-84.897946"><ele>216.7</ele><time>2026-08-05T20:36:34Z</time></trkpt>
<trkpt lat="35.196287" lon="-84.897974"><ele>216.1</ele><time>2026-08-05T20:36:37Z</time></trkpt>
<trkpt lat="35.196308" lon="-84.897997"><ele>216.4</ele><time>2026-08-05T20:36:39Z</time></trkpt>
<trkpt lat="35.196332" lon="-84.89802"><ele>216.7</ele><time>2026-08-05T20:36:41Z</time></trkpt>
<trkpt lat="35.196358" lon="-84.898036"><ele>216.7</ele><time>2026-08-05T20:36:43Z</time></trkpt>
<trkpt lat="35.196381" lon="-84.898056"><ele>216.7</ele><time>2026-08-05T20:36:45Z</time></trkpt>
<trkpt lat="35.196413" lon="-84.89808"><ele>217.3</ele><time>2026-08-05T20:36:48Z</time></trkpt>
<trkpt lat="35.196441" lon="-84.898104"><ele>217.0</ele><time>2026-08-05T20:36:51Z</time></trkpt>
<trkpt lat="35.196465" lon="-84.898138"><ele>217.6</ele><time>2026-08-05T20:36:54Z</time></trkpt>
<trkpt lat="35.196469" lon="-84.898172"><ele>217.9</ele><time>2026-08-05T20:36:56Z</time></trkpt>
<trkpt lat="35.196468" lon="-84.898207"><ele>217.9</ele><time>2026-08-05T20:36:58Z</time></trkpt>
<trkpt lat="35.196466" lon="-84.898243"><ele>218.2</ele><time>2026-08-05T20:37:00Z</time></trkpt>
<trkpt lat="35.19646" lon="-84.898282"><ele>217.9</ele><time>2026-08-05T20:37:02Z</time></trkpt>
<trkpt lat="35.196455" lon="-84.898318"><ele>217.6</ele><time>2026-08-05T20:37:04Z</time></trkpt>
<trkpt lat="35.196446" lon="-84.898355"><ele>218.5</ele><time>2026-08-05T20:37:06Z</time></trkpt>
<trkpt lat="35.196422" lon="-84.898394"><ele>217.6</ele><time>2026-08-05T20:37:09Z</time></trkpt>
<trkpt lat="35.196395" lon="-84.898429"><ele>217.9</ele><time>2026-08-05T20:37:12Z</time></trkpt>
<trkpt lat="35.196373" lon="-84.898451"><ele>217.6</ele><time>2026-08-05T20:37:14Z</time></trkpt>
<trkpt lat="35.196335" lon="-84.898473"><ele>217.9</ele><time>2026-08-05T20:37:17Z</time></trkpt>
<trkpt lat="35.196296" lon="-84.898489"><ele>218.5</ele><time>2026-08-05T20:37:20Z</time></trkpt>
<trkpt lat="35.196259" lon="-84.898506"><ele>217.3</ele><time>2026-08-05T20:37:23Z</time></trkpt>
<trkpt lat="35.196228" lon="-84.898507"><ele>217.3</ele><time>2026-08-05T20:37:25Z</time></trkpt>
<trkpt lat="35.196197" lon="-84.898507"><ele>217.0</ele><time>2026-08-05T20:37:27Z</time></trkpt>
<trkpt lat="35.196166" lon="-84.898507"><ele>218.2</ele><time>2026-08-05T20:37:29Z</time></trkpt>
<trkpt lat="35.196128" lon="-84.898497"><ele>217.6</ele><time>2026-08-05T20:37:32Z</time></trkpt>
<trkpt lat="35.196088" lon="-84.898495"><ele>217.3</ele><time>2026-08-05T20:37:35Z</time></trkpt>
<trkpt lat="35.19606" lon="-84.898496"><ele>217.6</ele><time>2026-08-05T20:37:37Z</time></trkpt>
<trkpt lat="35.196032" lon="-84.898502"><ele>217.3</ele><time>2026-08-05T20:37:39Z</time></trkpt>
<trkpt lat="35.196002" lon="-84.898507"><ele>218.2</ele><time>2026-08-05T20:37:41Z</time></trkpt>
<trkpt lat="35.195961" lon="-84.898507"><ele>218.8</ele><time>2026-08-05T20:37:44Z</time></trkpt>
<trkpt lat="35.195934" lon="-84.89851"><ele>219.2</ele><time>2026-08-05T20:37:46Z</time></trkpt>
<trkpt lat="35.195898" lon="-84.898523"><ele>219.5</ele><time>2026-08-05T20:37:49Z</time></trkpt>
<trkpt lat="35.19586" lon="-84.898539"><ele>218.8</ele><time>2026-08-05T20:37:52Z</time></trkpt>
<trkpt lat="35.195826" lon="-84.898551"><ele>219.8</ele><time>2026-08-05T20:37:55Z</time></trkpt>
<trkpt lat="35.195792" lon="-84.898564"><ele>220.7</ele><time>2026-08-05T20:37:58Z</time></trkpt>
<trkpt lat="35.19576" lon="-84.898581"><ele>220.4</ele><time>2026-08-05T20:38:01Z</time></trkpt>
<trkpt lat="35.195734" lon="-84.898593"><ele>220.4</ele><time>2026-08-05T20:38:03Z</time></trkpt>
<trkpt lat="35.195706" lon="-84.898605"><ele>220.4</ele><time>2026-08-05T20:38:05Z</time></trkpt>
<trkpt lat="35.195679" lon="-84.89862"><ele>219.8</ele><time>2026-08-05T20:38:07Z</time></trkpt>
<trkpt lat="35.195653" lon="-84.898632"><ele>218.8</ele><time>2026-08-05T20:38:09Z</time></trkpt>
<trkpt lat="35.195625" lon="-84.898645"><ele>218.5</ele><time>2026-08-05T20:38:11Z</time></trkpt>
<trkpt lat="35.195588" lon="-84.898666"><ele>218.2</ele><time>2026-08-05T20:38:14Z</time></trkpt>
<trkpt lat="35.195551" lon="-84.898689"><ele>218.5</ele><time>2026-08-05T20:38:17Z</time></trkpt>
<trkpt lat="35.195526" lon="-84.898707"><ele>218.2</ele><time>2026-08-05T20:38:19Z</time></trkpt>
<trkpt lat="35.195501" lon="-84.898725"><ele>218.2</ele><time>2026-08-05T20:38:21Z</time></trkpt>
<trkpt lat="35.195469" lon="-84.898753"><ele>218.5</ele><time>2026-08-05T20:38:24Z</time></trkpt>
<trkpt lat="35.195444" lon="-84.898773"><ele>218.5</ele><time>2026-08-05T20:38:26Z</time></trkpt>
<trkpt lat="35.195413" lon="-84.8988"><ele>219.2</ele><time>2026-08-05T20:38:29Z</time></trkpt>
<trkpt lat="35.195382" lon="-84.898827"><ele>219.5</ele><time>2026-08-05T20:38:32Z</time></trkpt>
<trkpt lat="35.195347" lon="-84.898846"><ele>219.5</ele><time>2026-08-05T20:38:35Z</time></trkpt>
<trkpt lat="35.195321" lon="-84.898864"><ele>219.5</ele><time>2026-08-05T20:38:37Z</time></trkpt>
<trkpt lat="35.195294" lon="-84.898883"><ele>219.2</ele><time>2026-08-05T20:38:39Z</time></trkpt>
<trkpt lat="35.195267" lon="-84.898903"><ele>218.8</ele><time>2026-08-05T20:38:41Z</time></trkpt>
<trkpt lat="35.19524" lon="-84.898921"><ele>218.5</ele><time>2026-08-05T20:38:43Z</time></trkpt>
<trkpt lat="35.195206" lon="-84.898944"><ele>218.2</ele><time>2026-08-05T20:38:46Z</time></trkpt>
<trkpt lat="35.195174" lon="-84.898964"><ele>218.8</ele><time>2026-08-05T20:38:49Z</time></trkpt>
<trkpt lat="35.195136" lon="-84.898983"><ele>218.8</ele><time>2026-08-05T20:38:52Z</time></trkpt>
<trkpt lat="35.195099" lon="-84.899005"><ele>219.8</ele><time>2026-08-05T20:38:55Z</time></trkpt>
<trkpt lat="35.195074" lon="-84.899021"><ele>219.8</ele><time>2026-08-05T20:38:57Z</time></trkpt>
<trkpt lat="35.195046" lon="-84.899036"><ele>219.5</ele><time>2026-08-05T20:38:59Z</time></trkpt>
<trkpt lat="35.19502" lon="-84.899049"><ele>219.2</ele><time>2026-08-05T20:39:01Z</time></trkpt>
<trkpt lat="35.194994" lon="-84.899063"><ele>219.2</ele><time>2026-08-05T20:39:03Z</time></trkpt>
<trkpt lat="35.19496" lon="-84.899084"><ele>219.5</ele><time>2026-08-05T20:39:06Z</time></trkpt>
<trkpt lat="35.194928" lon="-84.899105"><ele>219.8</ele><time>2026-08-05T20:39:09Z</time></trkpt>
<trkpt lat="35.194893" lon="-84.899124"><ele>220.1</ele><time>2026-08-05T20:39:12Z</time></trkpt>
<trkpt lat="35.194867" lon="-84.899139"><ele>220.1</ele><time>2026-08-05T20:39:14Z</time></trkpt>
<trkpt lat="35.194839" lon="-84.899151"><ele>220.1</ele><time>2026-08-05T20:39:16Z</time></trkpt>
<trkpt lat="35.194811" lon="-84.899167"><ele>219.8</ele><time>2026-08-05T20:39:18Z</time></trkpt>
<trkpt lat="35.194774" lon="-84.899188"><ele>219.8</ele><time>2026-08-05T20:39:21Z</time></trkpt>
<trkpt lat="35.19474" lon="-84.899208"><ele>220.1</ele><time>2026-08-05T20:39:24Z</time></trkpt>
<trkpt lat="35.194707" lon="-84.899226"><ele>220.1</ele><time>2026-08-05T20:39:27Z</time></trkpt>
<trkpt lat="35.194668" lon="-84.899244"><ele>220.4</ele><time>2026-08-05T20:39:30Z</time></trkpt>
<trkpt lat="35.194638" lon="-84.899257"><ele>220.7</ele><time>2026-08-05T20:39:32Z</time></trkpt>
<trkpt lat="35.194611" lon="-84.899269"><ele>220.4</ele><time>2026-08-05T20:39:34Z</time></trkpt>
<trkpt lat="35.194583" lon="-84.899281"><ele>220.4</ele><time>2026-08-05T20:39:36Z</time></trkpt>
<trkpt lat="35.194549" lon="-84.899301"><ele>221.0</ele><time>2026-08-05T20:39:39Z</time></trkpt>
<trkpt lat="35.194514" lon="-84.899315"><ele>221.0</ele><time>2026-08-05T20:39:42Z</time></trkpt>
<trkpt lat="35.194479" lon="-84.899336"><ele>221.3</ele><time>2026-08-05T20:39:45Z</time></trkpt>
<trkpt lat="35.194438" lon="-84.899354"><ele>221.0</ele><time>2026-08-05T20:39:48Z</time></trkpt>
<trkpt lat="35.194411" lon="-84.899366"><ele>221.3</ele><time>2026-08-05T20:39:50Z</time></trkpt>
<trkpt lat="35.194385" lon="-84.899384"><ele>221.0</ele><time>2026-08-05T20:39:52Z</time></trkpt>
<trkpt lat="35.194349" lon="-84.899406"><ele>221.3</ele><time>2026-08-05T20:39:55Z</time></trkpt>
<trkpt lat="35.194316" lon="-84.899423"><ele>221.9</ele><time>2026-08-05T20:39:58Z</time></trkpt>
<trkpt lat="35.194277" lon="-84.89944"><ele>221.9</ele><time>2026-08-05T20:40:01Z</time></trkpt>
<trkpt lat="35.194248" lon="-84.899452"><ele>222.2</ele><time>2026-08-05T20:40:03Z</time></trkpt>
<trkpt lat="35.19422" lon="-84.899466"><ele>222.2</ele><time>2026-08-05T20:40:05Z</time></trkpt>
<trkpt lat="35.194194" lon="-84.899481"><ele>222.5</ele><time>2026-08-05T20:40:07Z</time></trkpt>
<trkpt lat="35.194162" lon="-84.899499"><ele>222.5</ele><time>2026-08-05T20:40:10Z</time></trkpt>
<trkpt lat="35.194132" lon="-84.899516"><ele>222.5</ele><time>2026-08-05T20:40:13Z</time></trkpt>
<trkpt lat="35.194096" lon="-84.899535"><ele>222.2</ele><time>2026-08-05T20:40:16Z</time></trkpt>
<trkpt lat="35.194067" lon="-84.899546"><ele>222.5</ele><time>2026-08-05T20:40:18Z</time></trkpt>
<trkpt lat="35.194037" lon="-84.899555"><ele>222.2</ele><time>2026-08-05T20:40:20Z</time></trkpt>
<trkpt lat="35.194008" lon="-84.899572"><ele>222.5</ele><time>2026-08-05T20:40:22Z</time></trkpt>
<trkpt lat="35.19398" lon="-84.899583"><ele>222.2</ele><time>2026-08-05T20:40:24Z</time></trkpt>
<trkpt lat="35.193954" lon="-84.899598"><ele>222.2</ele><time>2026-08-05T20:40:26Z</time></trkpt>
<trkpt lat="35.193925" lon="-84.89961"><ele>222.5</ele><time>2026-08-05T20:40:28Z</time></trkpt>
<trkpt lat="35.193899" lon="-84.899624"><ele>221.9</ele><time>2026-08-05T20:40:30Z</time></trkpt>
<trkpt lat="35.193863" lon="-84.899643"><ele>221.9</ele><time>2026-08-05T20:40:33Z</time></trkpt>
<trkpt lat="35.193835" lon="-84.899652"><ele>221.6</ele><time>2026-08-05T20:40:35Z</time></trkpt>
<trkpt lat="35.193799" lon="-84.899669"><ele>221.6</ele><time>2026-08-05T20:40:38Z</time></trkpt>
<trkpt lat="35.193771" lon="-84.899677"><ele>221.9</ele><time>2026-08-05T20:40:40Z</time></trkpt>
<trkpt lat="35.193741" lon="-84.899681"><ele>221.6</ele><time>2026-08-05T20:40:42Z</time></trkpt>
<trkpt lat="35.19371" lon="-84.899684"><ele>221.3</ele><time>2026-08-05T20:40:44Z</time></trkpt>
<trkpt lat="35.19368" lon="-84.899686"><ele>221.3</ele><time>2026-08-05T20:40:46Z</time></trkpt>
<trkpt lat="35.193641" lon="-84.899687"><ele>221.0</ele><time>2026-08-05T20:40:49Z</time></trkpt>
<trkpt lat="35.193601" lon="-84.899683"><ele>220.7</ele><time>2026-08-05T20:40:52Z</time></trkpt>
<trkpt lat="35.193563" lon="-84.899679"><ele>220.7</ele><time>2026-08-05T20:40:55Z</time></trkpt>
<trkpt lat="35.193533" lon="-84.899679"><ele>221.0</ele><time>2026-08-05T20:40:57Z</time></trkpt>
<trkpt lat="35.193503" lon="-84.899676"><ele>221.0</ele><time>2026-08-05T20:40:59Z</time></trkpt>
<trkpt lat="35.193475" lon="-84.899677"><ele>221.0</ele><time>2026-08-05T20:41:01Z</time></trkpt>
<trkpt lat="35.193446" lon="-84.899685"><ele>220.4</ele><time>2026-08-05T20:41:03Z</time></trkpt>
<trkpt lat="35.19342" lon="-84.899695"><ele>220.4</ele><time>2026-08-05T20:41:05Z</time></trkpt>
<trkpt lat="35.193394" lon="-84.899708"><ele>220.4</ele><time>2026-08-05T20:41:07Z</time></trkpt>
<trkpt lat="35.193355" lon="-84.899728"><ele>220.4</ele><time>2026-08-05T20:41:10Z</time></trkpt>
<trkpt lat="35.193318" lon="-84.89975"><ele>220.4</ele><time>2026-08-05T20:41:13Z</time></trkpt>
<trkpt lat="35.19329" lon="-84.899766"><ele>220.1</ele><time>2026-08-05T20:41:15Z</time></trkpt>
<trkpt lat="35.193263" lon="-84.899781"><ele>220.1</ele><time>2026-08-05T20:41:17Z</time></trkpt>
<trkpt lat="35.193237" lon="-84.899796"><ele>220.1</ele><time>2026-08-05T20:41:19Z</time></trkpt>
<trkpt lat="35.193212" lon="-84.89981"><ele>219.8</ele><time>2026-08-05T20:41:21Z</time></trkpt>
<trkpt lat="35.193183" lon="-84.899824"><ele>219.8</ele><time>2026-08-05T20:41:23Z</time></trkpt>
<trkpt lat="35.193153" lon="-84.899839"><ele>219.2</ele><time>2026-08-05T20:41:25Z</time></trkpt>
<trkpt lat="35.193124" lon="-84.899857"><ele>218.8</ele><time>2026-08-05T20:41:27Z</time></trkpt>
<trkpt lat="35.193097" lon="-84.899871"><ele>218.5</ele><time>2026-08-05T20:41:29Z</time></trkpt>
<trkpt lat="35.19307" lon="-84.899884"><ele>218.5</ele><time>2026-08-05T20:41:31Z</time></trkpt>
<trkpt lat="35.193043" lon="-84.899895"><ele>218.2</ele><time>2026-08-05T20:41:33Z</time></trkpt>
<trkpt lat="35.193013" lon="-84.899903"><ele>218.5</ele><time>2026-08-05T20:41:35Z</time></trkpt>
<trkpt lat="35.192979" lon="-84.899904"><ele>218.5</ele><time>2026-08-05T20:41:37Z</time></trkpt>
<trkpt lat="35.192946" lon="-84.899901"><ele>218.2</ele><time>2026-08-05T20:41:39Z</time></trkpt>
<trkpt lat="35.192914" lon="-84.899897"><ele>217.9</ele><time>2026-08-05T20:41:41Z</time></trkpt>
<trkpt lat="35.192886" lon="-84.899899"><ele>217.9</ele><time>2026-08-05T20:41:43Z</time></trkpt>
<trkpt lat="35.192847" lon="-84.899915"><ele>217.9</ele><time>2026-08-05T20:41:46Z</time></trkpt>
<trkpt lat="35.192823" lon="-84.899931"><ele>217.9</ele><time>2026-08-05T20:41:48Z</time></trkpt>
<trkpt lat="35.192791" lon="-84.899959"><ele>218.5</ele><time>2026-08-05T20:41:51Z</time></trkpt>
<trkpt lat="35.192765" lon="-84.899973"><ele>218.2</ele><time>2026-08-05T20:41:53Z</time></trkpt>
<trkpt lat="35.19274" lon="-84.899988"><ele>217.9</ele><time>2026-08-05T20:41:55Z</time></trkpt>
<trkpt lat="35.192714" lon="-84.900002"><ele>218.2</ele><time>2026-08-05T20:41:57Z</time></trkpt>
<trkpt lat="35.192687" lon="-84.900019"><ele>218.2</ele><time>2026-08-05T20:41:59Z</time></trkpt>
<trkpt lat="35.19266" lon="-84.900037"><ele>218.2</ele><time>2026-08-05T20:42:01Z</time></trkpt>
<trkpt lat="35.192632" lon="-84.900052"><ele>217.9</ele><time>2026-08-05T20:42:03Z</time></trkpt>
<trkpt lat="35.192605" lon="-84.900066"><ele>217.6</ele><time>2026-08-05T20:42:05Z</time></trkpt>
<trkpt lat="35.192577" lon="-84.900083"><ele>217.0</ele><time>2026-08-05T20:42:07Z</time></trkpt>
<trkpt lat="35.192548" lon="-84.900098"><ele>216.4</ele><time>2026-08-05T20:42:09Z</time></trkpt>
<trkpt lat="35.192518" lon="-84.900112"><ele>216.4</ele><time>2026-08-05T20:42:11Z</time></trkpt>
<trkpt lat="35.192492" lon="-84.900131"><ele>215.8</ele><time>2026-08-05T20:42:13Z</time></trkpt>
<trkpt lat="35.192467" lon="-84.900152"><ele>215.8</ele><time>2026-08-05T20:42:15Z</time></trkpt>
<trkpt lat="35.192434" lon="-84.900181"><ele>215.8</ele><time>2026-08-05T20:42:18Z</time></trkpt>
<trkpt lat="35.192413" lon="-84.900203"><ele>215.8</ele><time>2026-08-05T20:42:20Z</time></trkpt>
<trkpt lat="35.192392" lon="-84.900229"><ele>216.4</ele><time>2026-08-05T20:42:22Z</time></trkpt>
<trkpt lat="35.19237" lon="-84.900254"><ele>216.4</ele><time>2026-08-05T20:42:24Z</time></trkpt>
<trkpt lat="35.192348" lon="-84.900281"><ele>216.4</ele><time>2026-08-05T20:42:26Z</time></trkpt>
<trkpt lat="35.192326" lon="-84.900307"><ele>216.7</ele><time>2026-08-05T20:42:28Z</time></trkpt>
<trkpt lat="35.192305" lon="-84.900334"><ele>216.4</ele><time>2026-08-05T20:42:30Z</time></trkpt>
<trkpt lat="35.192285" lon="-84.900359"><ele>216.4</ele><time>2026-08-05T20:42:32Z</time></trkpt>
<trkpt lat="35.192252" lon="-84.900381"><ele>217.0</ele><time>2026-08-05T20:42:35Z</time></trkpt>
<trkpt lat="35.192219" lon="-84.900406"><ele>217.0</ele><time>2026-08-05T20:42:38Z</time></trkpt>
<trkpt lat="35.192184" lon="-84.900427"><ele>216.7</ele><time>2026-08-05T20:42:41Z</time></trkpt>
<trkpt lat="35.19216" lon="-84.900444"><ele>216.7</ele><time>2026-08-05T20:42:43Z</time></trkpt>
<trkpt lat="35.192138" lon="-84.900464"><ele>216.7</ele><time>2026-08-05T20:42:45Z</time></trkpt>
<trkpt lat="35.192112" lon="-84.900483"><ele>216.4</ele><time>2026-08-05T20:42:47Z</time></trkpt>
<trkpt lat="35.192086" lon="-84.900501"><ele>216.4</ele><time>2026-08-05T20:42:49Z</time></trkpt>
<trkpt lat="35.192058" lon="-84.900519"><ele>216.1</ele><time>2026-08-05T20:42:51Z</time></trkpt>
<trkpt lat="35.192026" lon="-84.90053"><ele>216.4</ele><time>2026-08-05T20:42:53Z</time></trkpt>
<trkpt lat="35.191995" lon="-84.900528"><ele>216.4</ele><time>2026-08-05T20:42:55Z</time></trkpt>
<trkpt lat="35.191965" lon="-84.900511"><ele>216.4</ele><time>2026-08-05T20:42:57Z</time></trkpt>
<trkpt lat="35.191942" lon="-84.900486"><ele>216.4</ele><time>2026-08-05T20:42:59Z</time></trkpt>
<trkpt lat="35.191933" lon="-84.900447"><ele>216.1</ele><time>2026-08-05T20:43:01Z</time></trkpt>
<trkpt lat="35.191932" lon="-84.900408"><ele>215.8</ele><time>2026-08-05T20:43:03Z</time></trkpt>
<trkpt lat="35.191935" lon="-84.900369"><ele>215.8</ele><time>2026-08-05T20:43:05Z</time></trkpt>
<trkpt lat="35.191933" lon="-84.900331"><ele>215.5</ele><time>2026-08-05T20:43:07Z</time></trkpt>
<trkpt lat="35.191925" lon="-84.900297"><ele>215.5</ele><time>2026-08-05T20:43:09Z</time></trkpt>
<trkpt lat="35.191914" lon="-84.900263"><ele>215.5</ele><time>2026-08-05T20:43:11Z</time></trkpt>
<trkpt lat="35.191902" lon="-84.900231"><ele>215.5</ele><time>2026-08-05T20:43:13Z</time></trkpt>
<trkpt lat="35.19188" lon="-84.900207"><ele>215.2</ele><time>2026-08-05T20:43:15Z</time></trkpt>
<trkpt lat="35.191856" lon="-84.900183"><ele>215.5</ele><time>2026-08-05T20:43:17Z</time></trkpt>
<trkpt lat="35.191848" lon="-84.900149"><ele>216.1</ele><time>2026-08-05T20:43:19Z</time></trkpt>
<trkpt lat="35.191849" lon="-84.900102"><ele>216.4</ele><time>2026-08-05T20:43:22Z</time></trkpt>
<trkpt lat="35.191849" lon="-84.900067"><ele>215.8</ele><time>2026-08-05T20:43:24Z</time></trkpt>
<trkpt lat="35.191854" lon="-84.900022"><ele>216.1</ele><time>2026-08-05T20:43:27Z</time></trkpt>
<trkpt lat="35.191864" lon="-84.89999"><ele>216.1</ele><time>2026-08-05T20:43:29Z</time></trkpt>
<trkpt lat="35.191881" lon="-84.899942"><ele>216.4</ele><time>2026-08-05T20:43:32Z</time></trkpt>
<trkpt lat="35.1919" lon="-84.899911"><ele>216.7</ele><time>2026-08-05T20:43:34Z</time></trkpt>
<trkpt lat="35.191919" lon="-84.899883"><ele>216.7</ele><time>2026-08-05T20:43:36Z</time></trkpt>
<trkpt lat="35.19194" lon="-84.899855"><ele>216.4</ele><time>2026-08-05T20:43:38Z</time></trkpt>
<trkpt lat="35.191957" lon="-84.899821"><ele>216.7</ele><time>2026-08-05T20:43:40Z</time></trkpt>
<trkpt lat="35.191976" lon="-84.899788"><ele>217.0</ele><time>2026-08-05T20:43:42Z</time></trkpt>
<trkpt lat="35.191987" lon="-84.899755"><ele>216.7</ele><time>2026-08-05T20:43:44Z</time></trkpt>
<trkpt lat="35.191998" lon="-84.899723"><ele>216.1</ele><time>2026-08-05T20:43:46Z</time></trkpt>
<trkpt lat="35.192011" lon="-84.899677"><ele>216.4</ele><time>2026-08-05T20:43:49Z</time></trkpt>
<trkpt lat="35.192023" lon="-84.89963"><ele>215.5</ele><time>2026-08-05T20:43:52Z</time></trkpt>
<trkpt lat="35.192035" lon="-84.899586"><ele>215.8</ele><time>2026-08-05T20:43:55Z</time></trkpt>
<trkpt lat="35.192045" lon="-84.899538"><ele>216.1</ele><time>2026-08-05T20:43:58Z</time></trkpt>
<trkpt lat="35.192053" lon="-84.899506"><ele>216.1</ele><time>2026-08-05T20:44:00Z</time></trkpt>
<trkpt lat="35.192064" lon="-84.899472"><ele>216.1</ele><time>2026-08-05T20:44:02Z</time></trkpt>
<trkpt lat="35.192072" lon="-84.899423"><ele>215.2</ele><time>2026-08-05T20:44:05Z</time></trkpt>
<trkpt lat="35.192078" lon="-84.899386"><ele>214.9</ele><time>2026-08-05T20:44:07Z</time></trkpt>
<trkpt lat="35.192088" lon="-84.899351"><ele>215.2</ele><time>2026-08-05T20:44:09Z</time></trkpt>
<trkpt lat="35.192102" lon="-84.899316"><ele>215.2</ele><time>2026-08-05T20:44:11Z</time></trkpt>
<trkpt lat="35.192115" lon="-84.89928"><ele>215.2</ele><time>2026-08-05T20:44:13Z</time></trkpt>
<trkpt lat="35.192126" lon="-84.899244"><ele>215.2</ele><time>2026-08-05T20:44:15Z</time></trkpt>
<trkpt lat="35.192134" lon="-84.899208"><ele>215.8</ele><time>2026-08-05T20:44:17Z</time></trkpt>
<trkpt lat="35.192147" lon="-84.899173"><ele>215.8</ele><time>2026-08-05T20:44:19Z</time></trkpt>
<trkpt lat="35.19216" lon="-84.899141"><ele>215.8</ele><time>2026-08-05T20:44:21Z</time></trkpt>
<trkpt lat="35.192168" lon="-84.899108"><ele>216.4</ele><time>2026-08-05T20:44:23Z</time></trkpt>
<trkpt lat="35.192184" lon="-84.899062"><ele>217.3</ele><time>2026-08-05T20:44:26Z</time></trkpt>
<trkpt lat="35.192196" lon="-84.899031"><ele>217.3</ele><time>2026-08-05T20:44:28Z</time></trkpt>
<trkpt lat="35.192211" lon="-84.898984"><ele>217.9</ele><time>2026-08-05T20:44:31Z</time></trkpt>
<trkpt lat="35.192228" lon="-84.898938"><ele>217.6</ele><time>2026-08-05T20:44:34Z</time></trkpt>
<trkpt lat="35.192239" lon="-84.898906"><ele>217.3</ele><time>2026-08-05T20:44:36Z</time></trkpt>
<trkpt lat="35.192254" lon="-84.898873"><ele>217.3</ele><time>2026-08-05T20:44:38Z</time></trkpt>
<trkpt lat="35.192268" lon="-84.898839"><ele>217.6</ele><time>2026-08-05T20:44:40Z</time></trkpt>
<trkpt lat="35.192278" lon="-84.898803"><ele>217.6</ele><time>2026-08-05T20:44:42Z</time></trkpt>
<trkpt lat="35.192287" lon="-84.898767"><ele>217.9</ele><time>2026-08-05T20:44:44Z</time></trkpt>
<trkpt lat="35.192298" lon="-84.898732"><ele>218.2</ele><time>2026-08-05T20:44:46Z</time></trkpt>
<trkpt lat="35.192309" lon="-84.898697"><ele>218.2</ele><time>2026-08-05T20:44:48Z</time></trkpt>
<trkpt lat="35.192327" lon="-84.898666"><ele>218.2</ele><time>2026-08-05T20:44:50Z</time></trkpt>
<trkpt lat="35.192346" lon="-84.898642"><ele>218.2</ele><time>2026-08-05T20:44:52Z</time></trkpt>
<trkpt lat="35.192376" lon="-84.898614"><ele>218.2</ele><time>2026-08-05T20:44:55Z</time></trkpt>
<trkpt lat="35.192412" lon="-84.898595"><ele>218.5</ele><time>2026-08-05T20:44:58Z</time></trkpt>
<trkpt lat="35.192439" lon="-84.898583"><ele>218.5</ele><time>2026-08-05T20:45:00Z</time></trkpt>
<trkpt lat="35.192466" lon="-84.898574"><ele>217.9</ele><time>2026-08-05T20:45:02Z</time></trkpt>
<trkpt lat="35.192494" lon="-84.898562"><ele>218.2</ele><time>2026-08-05T20:45:04Z</time></trkpt>
<trkpt lat="35.192523" lon="-84.898548"><ele>218.8</ele><time>2026-08-05T20:45:06Z</time></trkpt>
<trkpt lat="35.19255" lon="-84.898529"><ele>219.2</ele><time>2026-08-05T20:45:08Z</time></trkpt>
<trkpt lat="35.192573" lon="-84.898509"><ele>219.2</ele><time>2026-08-05T20:45:10Z</time></trkpt>
<trkpt lat="35.192595" lon="-84.898486"><ele>219.2</ele><time>2026-08-05T20:45:12Z</time></trkpt>
<trkpt lat="35.192614" lon="-84.898458"><ele>219.2</ele><time>2026-08-05T20:45:14Z</time></trkpt>
<trkpt lat="35.192634" lon="-84.898432"><ele>219.2</ele><time>2026-08-05T20:45:16Z</time></trkpt>
<trkpt lat="35.192654" lon="-84.898405"><ele>218.8</ele><time>2026-08-05T20:45:18Z</time></trkpt>
<trkpt lat="35.192672" lon="-84.898373"><ele>218.5</ele><time>2026-08-05T20:45:20Z</time></trkpt>
<trkpt lat="35.192692" lon="-84.898344"><ele>218.8</ele><time>2026-08-05T20:45:22Z</time></trkpt>
<trkpt lat="35.192717" lon="-84.898306"><ele>218.8</ele><time>2026-08-05T20:45:25Z</time></trkpt>
<trkpt lat="35.192741" lon="-84.898271"><ele>218.8</ele><time>2026-08-05T20:45:28Z</time></trkpt>
<trkpt lat="35.192766" lon="-84.898253"><ele>218.8</ele><time>2026-08-05T20:45:30Z</time></trkpt>
<trkpt lat="35.192798" lon="-84.898226"><ele>218.8</ele><time>2026-08-05T20:45:33Z</time></trkpt>
<trkpt lat="35.192825" lon="-84.898215"><ele>218.5</ele><time>2026-08-05T20:45:35Z</time></trkpt>
<trkpt lat="35.192859" lon="-84.898196"><ele>218.2</ele><time>2026-08-05T20:45:38Z</time></trkpt>
<trkpt lat="35.192898" lon="-84.898181"><ele>217.6</ele><time>2026-08-05T20:45:41Z</time></trkpt>
<trkpt lat="35.192927" lon="-84.898174"><ele>217.0</ele><time>2026-08-05T20:45:43Z</time></trkpt>
<trkpt lat="35.192955" lon="-84.898163"><ele>217.0</ele><time>2026-08-05T20:45:45Z</time></trkpt>
<trkpt lat="35.192983" lon="-84.898153"><ele>217.3</ele><time>2026-08-05T20:45:47Z</time></trkpt>
<trkpt lat="35.19301" lon="-84.898141"><ele>217.3</ele><time>2026-08-05T20:45:49Z</time></trkpt>
<trkpt lat="35.193037" lon="-84.898132"><ele>217.3</ele><time>2026-08-05T20:45:51Z</time></trkpt>
<trkpt lat="35.193065" lon="-84.898121"><ele>217.0</ele><time>2026-08-05T20:45:53Z</time></trkpt>
<trkpt lat="35.193097" lon="-84.898113"><ele>217.6</ele><time>2026-08-05T20:45:55Z</time></trkpt>
<trkpt lat="35.193129" lon="-84.898104"><ele>217.3</ele><time>2026-08-05T20:45:57Z</time></trkpt>
<trkpt lat="35.193159" lon="-84.898095"><ele>217.3</ele><time>2026-08-05T20:45:59Z</time></trkpt>
<trkpt lat="35.193186" lon="-84.898086"><ele>217.3</ele><time>2026-08-05T20:46:01Z</time></trkpt>
<trkpt lat="35.193213" lon="-84.898075"><ele>217.6</ele><time>2026-08-05T20:46:03Z</time></trkpt>
<trkpt lat="35.19325" lon="-84.898057"><ele>217.9</ele><time>2026-08-05T20:46:06Z</time></trkpt>
<trkpt lat="35.193287" lon="-84.898042"><ele>217.6</ele><time>2026-08-05T20:46:09Z</time></trkpt>
<trkpt lat="35.193327" lon="-84.898027"><ele>217.3</ele><time>2026-08-05T20:46:12Z</time></trkpt>
<trkpt lat="35.193363" lon="-84.898018"><ele>218.5</ele><time>2026-08-05T20:46:15Z</time></trkpt>
<trkpt lat="35.193401" lon="-84.898007"><ele>218.8</ele><time>2026-08-05T20:46:18Z</time></trkpt>
<trkpt lat="35.193431" lon="-84.897996"><ele>218.5</ele><time>2026-08-05T20:46:20Z</time></trkpt>
<trkpt lat="35.19346" lon="-84.897987"><ele>218.8</ele><time>2026-08-05T20:46:22Z</time></trkpt>
<trkpt lat="35.193488" lon="-84.897975"><ele>218.5</ele><time>2026-08-05T20:46:24Z</time></trkpt>
<trkpt lat="35.193515" lon="-84.897962"><ele>218.5</ele><time>2026-08-05T20:46:26Z</time></trkpt>
<trkpt lat="35.193543" lon="-84.897951"><ele>218.2</ele><time>2026-08-05T20:46:28Z</time></trkpt>
<trkpt lat="35.19357" lon="-84.897934"><ele>217.6</ele><time>2026-08-05T20:46:30Z</time></trkpt>
<trkpt lat="35.193596" lon="-84.89792"><ele>218.2</ele><time>2026-08-05T20:46:32Z</time></trkpt>
<trkpt lat="35.193632" lon="-84.8979"><ele>218.2</ele><time>2026-08-05T20:46:35Z</time></trkpt>
<trkpt lat="35.193664" lon="-84.897873"><ele>217.6</ele><time>2026-08-05T20:46:38Z</time></trkpt>
<trkpt lat="35.193694" lon="-84.897842"><ele>216.7</ele><time>2026-08-05T20:46:41Z</time></trkpt>
<trkpt lat="35.193727" lon="-84.897809"><ele>216.1</ele><time>2026-08-05T20:46:44Z</time></trkpt>
<trkpt lat="35.193747" lon="-84.897785"><ele>216.7</ele><time>2026-08-05T20:46:46Z</time></trkpt>
<trkpt lat="35.193772" lon="-84.897766"><ele>216.7</ele><time>2026-08-05T20:46:48Z</time></trkpt>
<trkpt lat="35.193798" lon="-84.897752"><ele>216.7</ele><time>2026-08-05T20:46:50Z</time></trkpt>
<trkpt lat="35.193838" lon="-84.897738"><ele>217.6</ele><time>2026-08-05T20:46:53Z</time></trkpt>
<trkpt lat="35.193869" lon="-84.897742"><ele>217.9</ele><time>2026-08-05T20:46:55Z</time></trkpt>
<trkpt lat="35.1939" lon="-84.897741"><ele>217.6</ele><time>2026-08-05T20:46:57Z</time></trkpt>
<trkpt lat="35.193928" lon="-84.897736"><ele>217.6</ele><time>2026-08-05T20:46:59Z</time></trkpt>
<trkpt lat="35.193963" lon="-84.897731"><ele>218.5</ele><time>2026-08-05T20:47:02Z</time></trkpt>
<trkpt lat="35.194001" lon="-84.897719"><ele>218.5</ele><time>2026-08-05T20:47:05Z</time></trkpt>
<trkpt lat="35.194031" lon="-84.897706"><ele>217.0</ele><time>2026-08-05T20:47:07Z</time></trkpt>
<trkpt lat="35.194057" lon="-84.897694"><ele>216.7</ele><time>2026-08-05T20:47:09Z</time></trkpt>
<trkpt lat="35.194083" lon="-84.897683"><ele>217.0</ele><time>2026-08-05T20:47:11Z</time></trkpt>
<trkpt lat="35.194111" lon="-84.897667"><ele>217.6</ele><time>2026-08-05T20:47:13Z</time></trkpt>
<trkpt lat="35.194136" lon="-84.897652"><ele>217.9</ele><time>2026-08-05T20:47:15Z</time></trkpt>
<trkpt lat="35.194163" lon="-84.897638"><ele>217.6</ele><time>2026-08-05T20:47:17Z</time></trkpt>
<trkpt lat="35.19419" lon="-84.897619"><ele>217.3</ele><time>2026-08-05T20:47:19Z</time></trkpt>
<trkpt lat="35.194215" lon="-84.897605"><ele>217.3</ele><time>2026-08-05T20:47:21Z</time></trkpt>
<trkpt lat="35.194252" lon="-84.897584"><ele>217.3</ele><time>2026-08-05T20:47:24Z</time></trkpt>
<trkpt lat="35.194285" lon="-84.897564"><ele>217.3</ele><time>2026-08-05T20:47:27Z</time></trkpt>
<trkpt lat="35.194319" lon="-84.897539"><ele>217.3</ele><time>2026-08-05T20:47:30Z</time></trkpt>
<trkpt lat="35.194344" lon="-84.897523"><ele>217.3</ele><time>2026-08-05T20:47:32Z</time></trkpt>
<trkpt lat="35.194373" lon="-84.897508"><ele>217.3</ele><time>2026-08-05T20:47:34Z</time></trkpt>
<trkpt lat="35.194397" lon="-84.897487"><ele>218.2</ele><time>2026-08-05T20:47:36Z</time></trkpt>
<trkpt lat="35.194423" lon="-84.897467"><ele>218.2</ele><time>2026-08-05T20:47:38Z</time></trkpt>
<trkpt lat="35.194451" lon="-84.897452"><ele>217.9</ele><time>2026-08-05T20:47:40Z</time></trkpt>
<trkpt lat="35.194486" lon="-84.897425"><ele>218.5</ele><time>2026-08-05T20:47:43Z</time></trkpt>
<trkpt lat="35.194514" lon="-84.897404"><ele>218.5</ele><time>2026-08-05T20:47:45Z</time></trkpt>
<trkpt lat="35.194546" lon="-84.89738"><ele>217.9</ele><time>2026-08-05T20:47:48Z</time></trkpt>
<trkpt lat="35.194577" lon="-84.897359"><ele>218.2</ele><time>2026-08-05T20:47:51Z</time></trkpt>
<trkpt lat="35.194611" lon="-84.897334"><ele>218.2</ele><time>2026-08-05T20:47:54Z</time></trkpt>
<trkpt lat="35.194636" lon="-84.897318"><ele>218.5</ele><time>2026-08-05T20:47:56Z</time></trkpt>
<trkpt lat="35.194662" lon="-84.8973"><ele>218.8</ele><time>2026-08-05T20:47:58Z</time></trkpt>
<trkpt lat="35.194686" lon="-84.897281"><ele>219.2</ele><time>2026-08-05T20:48:00Z</time></trkpt>
<trkpt lat="35.194711" lon="-84.89726"><ele>218.8</ele><time>2026-08-05T20:48:02Z</time></trkpt>
<trkpt lat="35.194733" lon="-84.897238"><ele>219.2</ele><time>2026-08-05T20:48:04Z</time></trkpt>
<trkpt lat="35.194757" lon="-84.897219"><ele>218.8</ele><time>2026-08-05T20:48:06Z</time></trkpt>
<trkpt lat="35.194779" lon="-84.897199"><ele>218.8</ele><time>2026-08-05T20:48:08Z</time></trkpt>
<trkpt lat="35.194815" lon="-84.897174"><ele>218.5</ele><time>2026-08-05T20:48:11Z</time></trkpt>
<trkpt lat="35.194848" lon="-84.897149"><ele>218.5</ele><time>2026-08-05T20:48:14Z</time></trkpt>
<trkpt lat="35.194871" lon="-84.897131"><ele>218.2</ele><time>2026-08-05T20:48:16Z</time></trkpt>
<trkpt lat="35.194903" lon="-84.897105"><ele>218.2</ele><time>2026-08-05T20:48:19Z</time></trkpt>
<trkpt lat="35.194937" lon="-84.897075"><ele>217.9</ele><time>2026-08-05T20:48:22Z</time></trkpt>
<trkpt lat="35.194962" lon="-84.897053"><ele>217.9</ele><time>2026-08-05T20:48:24Z</time></trkpt>
<trkpt lat="35.194987" lon="-84.897033"><ele>217.9</ele><time>2026-08-05T20:48:26Z</time></trkpt>
<trkpt lat="35.19501" lon="-84.89701"><ele>217.9</ele><time>2026-08-05T20:48:28Z</time></trkpt>
<trkpt lat="35.195035" lon="-84.896985"><ele>217.9</ele><time>2026-08-05T20:48:30Z</time></trkpt>
<trkpt lat="35.195057" lon="-84.896961"><ele>217.9</ele><time>2026-08-05T20:48:32Z</time></trkpt>
<trkpt lat="35.19508" lon="-84.896939"><ele>218.2</ele><time>2026-08-05T20:48:34Z</time></trkpt>
<trkpt lat="35.195107" lon="-84.896912"><ele>218.2</ele><time>2026-08-05T20:48:37Z</time></trkpt>
<trkpt lat="35.195113" lon="-84.896872"><ele>217.6</ele><time>2026-08-05T20:48:40Z</time></trkpt>
<trkpt lat="35.195098" lon="-84.896828"><ele>217.0</ele><time>2026-08-05T20:48:43Z</time></trkpt>
<trkpt lat="35.195086" lon="-84.896782"><ele>217.0</ele><time>2026-08-05T20:48:46Z</time></trkpt>
<trkpt lat="35.195074" lon="-84.89674"><ele>217.3</ele><time>2026-08-05T20:48:49Z</time></trkpt>
<trkpt lat="35.195103" lon="-84.896728"><ele>215.8</ele><time>2026-08-05T20:48:54Z</time></trkpt>
<trkpt lat="35.195113" lon="-84.89677"><ele>214.9</ele><time>2026-08-05T20:48:56Z</time></trkpt>
<trkpt lat="35.19512" lon="-84.896809"><ele>215.2</ele><time>2026-08-05T20:48:58Z</time></trkpt>
<trkpt lat="35.195126" lon="-84.896846"><ele>215.2</ele><time>2026-08-05T20:49:00Z</time></trkpt>
<trkpt lat="35.195139" lon="-84.896881"><ele>216.1</ele><time>2026-08-05T20:49:03Z</time></trkpt>
<trkpt lat="35.195177" lon="-84.896876"><ele>217.0</ele><time>2026-08-05T20:49:07Z</time></trkpt>
<trkpt lat="35.195199" lon="-84.896854"><ele>217.6</ele><time>2026-08-05T20:49:09Z</time></trkpt>
<trkpt lat="35.195233" lon="-84.896827"><ele>218.5</ele><time>2026-08-05T20:49:12Z</time></trkpt>
<trkpt lat="35.195265" lon="-84.896807"><ele>219.2</ele><time>2026-08-05T20:49:15Z</time></trkpt>
<trkpt lat="35.195298" lon="-84.896788"><ele>219.8</ele><time>2026-08-05T20:49:18Z</time></trkpt>
<trkpt lat="35.195333" lon="-84.896772"><ele>219.2</ele><time>2026-08-05T20:49:21Z</time></trkpt>
<trkpt lat="35.195369" lon="-84.89677"><ele>218.8</ele><time>2026-08-05T20:49:24Z</time></trkpt>
<trkpt lat="35.195397" lon="-84.896777"><ele>218.2</ele><time>2026-08-05T20:49:26Z</time></trkpt>
<trkpt lat="35.195426" lon="-84.896781"><ele>218.5</ele><time>2026-08-05T20:49:28Z</time></trkpt>
<trkpt lat="35.195458" lon="-84.896787"><ele>219.2</ele><time>2026-08-05T20:49:30Z</time></trkpt>
<trkpt lat="35.195488" lon="-84.896798"><ele>219.5</ele><time>2026-08-05T20:49:32Z</time></trkpt>
<trkpt lat="35.195517" lon="-84.896806"><ele>219.5</ele><time>2026-08-05T20:49:34Z</time></trkpt>
<trkpt lat="35.195547" lon="-84.896815"><ele>219.2</ele><time>2026-08-05T20:49:36Z</time></trkpt>
<trkpt lat="35.195573" lon="-84.896826"><ele>219.2</ele><time>2026-08-05T20:49:38Z</time></trkpt>
<trkpt lat="35.19561" lon="-84.89684"><ele>219.2</ele><time>2026-08-05T20:49:41Z</time></trkpt>
<trkpt lat="35.195637" lon="-84.896849"><ele>218.5</ele><time>2026-08-05T20:49:43Z</time></trkpt>
<trkpt lat="35.195665" lon="-84.896858"><ele>218.2</ele><time>2026-08-05T20:49:45Z</time></trkpt>
<trkpt lat="35.195703" lon="-84.896875"><ele>218.5</ele><time>2026-08-05T20:49:48Z</time></trkpt>
<trkpt lat="35.195732" lon="-84.896884"><ele>219.2</ele><time>2026-08-05T20:49:50Z</time></trkpt>
<trkpt lat="35.19576" lon="-84.896896"><ele>219.2</ele><time>2026-08-05T20:49:52Z</time></trkpt>
<trkpt lat="35.195788" lon="-84.896909"><ele>219.5</ele><time>2026-08-05T20:49:54Z</time></trkpt>
<trkpt lat="35.195816" lon="-84.896915"><ele>218.8</ele><time>2026-08-05T20:49:56Z</time></trkpt>
<trkpt lat="35.195843" lon="-84.896927"><ele>218.8</ele><time>2026-08-05T20:49:58Z</time></trkpt>
<trkpt lat="35.19587" lon="-84.896944"><ele>219.2</ele><time>2026-08-05T20:50:00Z</time></trkpt>
<trkpt lat="35.195893" lon="-84.896962"><ele>219.2</ele><time>2026-08-05T20:50:02Z</time></trkpt>
<trkpt lat="35.195929" lon="-84.896988"><ele>218.8</ele><time>2026-08-05T20:50:05Z</time></trkpt>
<trkpt lat="35.19596" lon="-84.897017"><ele>218.8</ele><time>2026-08-05T20:50:08Z</time></trkpt>
<trkpt lat="35.195985" lon="-84.897056"><ele>219.5</ele><time>2026-08-05T20:50:11Z</time></trkpt>
<trkpt lat="35.195999" lon="-84.897087"><ele>219.2</ele><time>2026-08-05T20:50:13Z</time></trkpt>
<trkpt lat="35.196014" lon="-84.897118"><ele>219.5</ele><time>2026-08-05T20:50:15Z</time></trkpt>
<trkpt lat="35.196027" lon="-84.897149"><ele>219.5</ele><time>2026-08-05T20:50:17Z</time></trkpt>
<trkpt lat="35.196045" lon="-84.897178"><ele>219.2</ele><time>2026-08-05T20:50:19Z</time></trkpt>
<trkpt lat="35.196062" lon="-84.897208"><ele>218.8</ele><time>2026-08-05T20:50:21Z</time></trkpt>
<trkpt lat="35.196084" lon="-84.897245"><ele>219.2</ele><time>2026-08-05T20:50:24Z</time></trkpt>
<trkpt lat="35.196105" lon="-84.897284"><ele>219.5</ele><time>2026-08-05T20:50:27Z</time></trkpt>
<trkpt lat="35.19612" lon="-84.897312"><ele>218.2</ele><time>2026-08-05T20:50:29Z</time></trkpt>
<trkpt lat="35.196143" lon="-84.897353"><ele>218.2</ele><time>2026-08-05T20:50:32Z</time></trkpt>
<trkpt lat="35.196159" lon="-84.897384"><ele>217.9</ele><time>2026-08-05T20:50:34Z</time></trkpt>
<trkpt lat="35.196175" lon="-84.897417"><ele>217.0</ele><time>2026-08-05T20:50:36Z</time></trkpt>
<trkpt lat="35.196192" lon="-84.897451"><ele>217.0</ele><time>2026-08-05T20:50:38Z</time></trkpt>
<trkpt lat="35.196209" lon="-84.897483"><ele>217.3</ele><time>2026-08-05T20:50:40Z</time></trkpt>
<trkpt lat="35.196225" lon="-84.897511"><ele>218.2</ele><time>2026-08-05T20:50:42Z</time></trkpt>
<trkpt lat="35.196244" lon="-84.897548"><ele>217.3</ele><time>2026-08-05T20:50:45Z</time></trkpt>
<trkpt lat="35.196266" lon="-84.897582"><ele>216.4</ele><time>2026-08-05T20:50:48Z</time></trkpt>
<trkpt lat="35.196283" lon="-84.897625"><ele>216.7</ele><time>2026-08-05T20:50:51Z</time></trkpt>
<trkpt lat="35.196294" lon="-84.897657"><ele>217.3</ele><time>2026-08-05T20:50:53Z</time></trkpt>
<trkpt lat="35.196308" lon="-84.897688"><ele>217.6</ele><time>2026-08-05T20:50:55Z</time></trkpt>
<trkpt lat="35.196322" lon="-84.897722"><ele>217.9</ele><time>2026-08-05T20:50:57Z</time></trkpt>
<trkpt lat="35.19634" lon="-84.897765"><ele>217.9</ele><time>2026-08-05T20:51:00Z</time></trkpt>
<trkpt lat="35.19636" lon="-84.897807"><ele>217.6</ele><time>2026-08-05T20:51:03Z</time></trkpt>
<trkpt lat="35.196381" lon="-84.897845"><ele>217.6</ele><time>2026-08-05T20:51:06Z</time></trkpt>
<trkpt lat="35.196403" lon="-84.897882"><ele>218.2</ele><time>2026-08-05T20:51:09Z</time></trkpt>
<trkpt lat="35.196428" lon="-84.89792"><ele>217.6</ele><time>2026-08-05T20:51:12Z</time></trkpt>
<trkpt lat="35.196448" lon="-84.897947"><ele>218.2</ele><time>2026-08-05T20:51:14Z</time></trkpt>
<trkpt lat="35.196469" lon="-84.897971"><ele>217.9</ele><time>2026-08-05T20:51:16Z</time></trkpt>
<trkpt lat="35.196489" lon="-84.897994"><ele>218.5</ele><time>2026-08-05T20:51:18Z</time></trkpt>
<trkpt lat="35.196511" lon="-84.898015"><ele>218.8</ele><time>2026-08-05T20:51:20Z</time></trkpt>
<trkpt lat="35.196542" lon="-84.898046"><ele>219.8</ele><time>2026-08-05T20:51:23Z</time></trkpt>
<trkpt lat="35.196576" lon="-84.898067"><ele>220.7</ele><time>2026-08-05T20:51:26Z</time></trkpt>
<trkpt lat="35.196598" lon="-84.898086"><ele>221.9</ele><time>2026-08-05T20:51:28Z</time></trkpt>
<trkpt lat="35.196624" lon="-84.898101"><ele>222.2</ele><time>2026-08-05T20:51:30Z</time></trkpt>
<trkpt lat="35.196653" lon="-84.898109"><ele>222.2</ele><time>2026-08-05T20:51:32Z</time></trkpt>
<trkpt lat="35.196682" lon="-84.898115"><ele>222.2</ele><time>2026-08-05T20:51:34Z</time></trkpt>
<trkpt lat="35.196713" lon="-84.898113"><ele>221.6</ele><time>2026-08-05T20:51:36Z</time></trkpt>
<trkpt lat="35.196751" lon="-84.898105"><ele>221.3</ele><time>2026-08-05T20:51:39Z</time></trkpt>
<trkpt lat="35.196787" lon="-84.898087"><ele>221.0</ele><time>2026-08-05T20:51:42Z</time></trkpt>
<trkpt lat="35.196812" lon="-84.898072"><ele>220.7</ele><time>2026-08-05T20:51:44Z</time></trkpt>
<trkpt lat="35.196846" lon="-84.898045"><ele>220.4</ele><time>2026-08-05T20:51:47Z</time></trkpt>
<trkpt lat="35.196873" lon="-84.89803"><ele>220.1</ele><time>2026-08-05T20:51:49Z</time></trkpt>
<trkpt lat="35.196897" lon="-84.898011"><ele>220.7</ele><time>2026-08-05T20:51:51Z</time></trkpt>
<trkpt lat="35.196921" lon="-84.89799"><ele>221.0</ele><time>2026-08-05T20:51:53Z</time></trkpt>
<trkpt lat="35.196948" lon="-84.897966"><ele>221.3</ele><time>2026-08-05T20:51:55Z</time></trkpt>
<trkpt lat="35.196975" lon="-84.897944"><ele>221.3</ele><time>2026-08-05T20:51:57Z</time></trkpt>
<trkpt lat="35.196998" lon="-84.897927"><ele>221.0</ele><time>2026-08-05T20:51:59Z</time></trkpt>
<trkpt lat="35.197021" lon="-84.897905"><ele>220.4</ele><time>2026-08-05T20:52:01Z</time></trkpt>
<trkpt lat="35.197051" lon="-84.897874"><ele>219.5</ele><time>2026-08-05T20:52:04Z</time></trkpt>
<trkpt lat="35.197079" lon="-84.897843"><ele>219.2</ele><time>2026-08-05T20:52:07Z</time></trkpt>
<trkpt lat="35.1971" lon="-84.89782"><ele>219.2</ele><time>2026-08-05T20:52:09Z</time></trkpt>
<trkpt lat="35.197123" lon="-84.897799"><ele>218.8</ele><time>2026-08-05T20:52:11Z</time></trkpt>
<trkpt lat="35.197144" lon="-84.897776"><ele>218.8</ele><time>2026-08-05T20:52:13Z</time></trkpt>
<trkpt lat="35.197163" lon="-84.897751"><ele>219.5</ele><time>2026-08-05T20:52:15Z</time></trkpt>
<trkpt lat="35.197185" lon="-84.897726"><ele>219.5</ele><time>2026-08-05T20:52:17Z</time></trkpt>
<trkpt lat="35.197204" lon="-84.8977"><ele>219.8</ele><time>2026-08-05T20:52:19Z</time></trkpt>
<trkpt lat="35.19722" lon="-84.897673"><ele>219.8</ele><time>2026-08-05T20:52:21Z</time></trkpt>
<trkpt lat="35.197238" lon="-84.897646"><ele>219.8</ele><time>2026-08-05T20:52:23Z</time></trkpt>
<trkpt lat="35.197258" lon="-84.897621"><ele>219.8</ele><time>2026-08-05T20:52:25Z</time></trkpt>
<trkpt lat="35.197285" lon="-84.897587"><ele>219.8</ele><time>2026-08-05T20:52:28Z</time></trkpt>
<trkpt lat="35.197309" lon="-84.897553"><ele>220.1</ele><time>2026-08-05T20:52:31Z</time></trkpt>
<trkpt lat="35.197321" lon="-84.89752"><ele>219.2</ele><time>2026-08-05T20:52:34Z</time></trkpt>
<trkpt lat="35.197283" lon="-84.897513"><ele>218.5</ele><time>2026-08-05T20:52:36Z</time></trkpt>
<trkpt lat="35.197259" lon="-84.897549"><ele>217.9</ele><time>2026-08-05T20:52:38Z</time></trkpt>
<trkpt lat="35.197223" lon="-84.897569"><ele>218.8</ele><time>2026-08-05T20:52:41Z</time></trkpt>
<trkpt lat="35.197196" lon="-84.897538"><ele>217.6</ele><time>2026-08-05T20:52:44Z</time></trkpt>
<trkpt lat="35.197166" lon="-84.897511"><ele>218.5</ele><time>2026-08-05T20:52:47Z</time></trkpt>
<trkpt lat="35.197134" lon="-84.897481"><ele>217.9</ele><time>2026-08-05T20:52:50Z</time></trkpt>
<trkpt lat="35.197113" lon="-84.897455"><ele>217.6</ele><time>2026-08-05T20:52:52Z</time></trkpt>
<trkpt lat="35.197094" lon="-84.897428"><ele>217.3</ele><time>2026-08-05T20:52:54Z</time></trkpt>
<trkpt lat="35.197074" lon="-84.897403"><ele>217.0</ele><time>2026-08-05T20:52:56Z</time></trkpt>
<trkpt lat="35.197056" lon="-84.897373"><ele>217.0</ele><time>2026-08-05T20:52:58Z</time></trkpt>
<trkpt lat="35.197032" lon="-84.897335"><ele>217.6</ele><time>2026-08-05T20:53:01Z</time></trkpt>
<trkpt lat="35.196998" lon="-84.897321"><ele>218.2</ele><time>2026-08-05T20:53:04Z</time></trkpt>
<trkpt lat="35.196961" lon="-84.89731"><ele>218.2</ele><time>2026-08-05T20:53:07Z</time></trkpt>
<trkpt lat="35.196922" lon="-84.897302"><ele>217.9</ele><time>2026-08-05T20:53:10Z</time></trkpt>
<trkpt lat="35.196881" lon="-84.897292"><ele>218.5</ele><time>2026-08-05T20:53:13Z</time></trkpt>
<trkpt lat="35.196851" lon="-84.897287"><ele>218.8</ele><time>2026-08-05T20:53:15Z</time></trkpt>
<trkpt lat="35.196823" lon="-84.897281"><ele>218.5</ele><time>2026-08-05T20:53:17Z</time></trkpt>
<trkpt lat="35.196793" lon="-84.897279"><ele>218.8</ele><time>2026-08-05T20:53:19Z</time></trkpt>
<trkpt lat="35.196754" lon="-84.897271"><ele>218.5</ele><time>2026-08-05T20:53:22Z</time></trkpt>
<trkpt lat="35.196715" lon="-84.897267"><ele>217.9</ele><time>2026-08-05T20:53:25Z</time></trkpt>
<trkpt lat="35.196688" lon="-84.897262"><ele>218.2</ele><time>2026-08-05T20:53:27Z</time></trkpt>
<trkpt lat="35.196653" lon="-84.897243"><ele>217.9</ele><time>2026-08-05T20:53:30Z</time></trkpt>
<trkpt lat="35.196633" lon="-84.897219"><ele>217.6</ele><time>2026-08-05T20:53:32Z</time></trkpt>
<trkpt lat="35.196614" lon="-84.897191"><ele>217.6</ele><time>2026-08-05T20:53:34Z</time></trkpt>
<trkpt lat="35.196596" lon="-84.897161"><ele>217.6</ele><time>2026-08-05T20:53:36Z</time></trkpt>
<trkpt lat="35.19658" lon="-84.897129"><ele>217.6</ele><time>2026-08-05T20:53:38Z</time></trkpt>
<trkpt lat="35.196566" lon="-84.897097"><ele>217.9</ele><time>2026-08-05T20:53:40Z</time></trkpt>
<trkpt lat="35.196544" lon="-84.897054"><ele>217.9</ele><time>2026-08-05T20:53:43Z</time></trkpt>
<trkpt lat="35.196524" lon="-84.897018"><ele>218.8</ele><time>2026-08-05T20:53:46Z</time></trkpt>
<trkpt lat="35.1965" lon="-84.896982"><ele>218.8</ele><time>2026-08-05T20:53:49Z</time></trkpt>
<trkpt lat="35.196478" lon="-84.896939"><ele>219.5</ele><time>2026-08-05T20:53:52Z</time></trkpt>
<trkpt lat="35.196462" lon="-84.896908"><ele>219.8</ele><time>2026-08-05T20:53:54Z</time></trkpt>
<trkpt lat="35.196446" lon="-84.896878"><ele>220.4</ele><time>2026-08-05T20:53:56Z</time></trkpt>
<trkpt lat="35.196424" lon="-84.896839"><ele>221.0</ele><time>2026-08-05T20:53:59Z</time></trkpt>
<trkpt lat="35.196403" lon="-84.896799"><ele>221.6</ele><time>2026-08-05T20:54:02Z</time></trkpt>
<trkpt lat="35.196382" lon="-84.896761"><ele>221.9</ele><time>2026-08-05T20:54:05Z</time></trkpt>
<trkpt lat="35.19636" lon="-84.896722"><ele>222.2</ele><time>2026-08-05T20:54:08Z</time></trkpt>
<trkpt lat="35.196339" lon="-84.896683"><ele>221.9</ele><time>2026-08-05T20:54:11Z</time></trkpt>
<trkpt lat="35.196319" lon="-84.896644"><ele>221.6</ele><time>2026-08-05T20:54:14Z</time></trkpt>
<trkpt lat="35.196302" lon="-84.896616"><ele>221.6</ele><time>2026-08-05T20:54:16Z</time></trkpt>
<trkpt lat="35.196283" lon="-84.896585"><ele>221.6</ele><time>2026-08-05T20:54:18Z</time></trkpt>
<trkpt lat="35.196266" lon="-84.896557"><ele>221.9</ele><time>2026-08-05T20:54:20Z</time></trkpt>
<trkpt lat="35.196248" lon="-84.896531"><ele>221.9</ele><time>2026-08-05T20:54:22Z</time></trkpt>
<trkpt lat="35.19622" lon="-84.896492"><ele>221.6</ele><time>2026-08-05T20:54:25Z</time></trkpt>
<trkpt lat="35.196195" lon="-84.896454"><ele>221.9</ele><time>2026-08-05T20:54:28Z</time></trkpt>
<trkpt lat="35.196173" lon="-84.896416"><ele>222.2</ele><time>2026-08-05T20:54:31Z</time></trkpt>
<trkpt lat="35.196149" lon="-84.89638"><ele>222.2</ele><time>2026-08-05T20:54:34Z</time></trkpt>
<trkpt lat="35.196124" lon="-84.896341"><ele>221.6</ele><time>2026-08-05T20:54:37Z</time></trkpt>
<trkpt lat="35.196109" lon="-84.896313"><ele>221.3</ele><time>2026-08-05T20:54:39Z</time></trkpt>
<trkpt lat="35.196083" lon="-84.896274"><ele>221.3</ele><time>2026-08-05T20:54:42Z</time></trkpt>
<trkpt lat="35.196067" lon="-84.896243"><ele>221.0</ele><time>2026-08-05T20:54:44Z</time></trkpt>
<trkpt lat="35.196052" lon="-84.896215"><ele>220.4</ele><time>2026-08-05T20:54:46Z</time></trkpt>
<trkpt lat="35.196031" lon="-84.896187"><ele>220.7</ele><time>2026-08-05T20:54:48Z</time></trkpt>
<trkpt lat="35.196013" lon="-84.896158"><ele>221.0</ele><time>2026-08-05T20:54:50Z</time></trkpt>
<trkpt lat="35.195999" lon="-84.896127"><ele>220.7</ele><time>2026-08-05T20:54:52Z</time></trkpt>
<trkpt lat="35.195988" lon="-84.896095"><ele>221.0</ele><time>2026-08-05T20:54:54Z</time></trkpt>
<trkpt lat="35.195977" lon="-84.89605"><ele>221.3</ele><time>2026-08-05T20:54:57Z</time></trkpt>
<trkpt lat="35.195968" lon="-84.896006"><ele>221.3</ele><time>2026-08-05T20:55:00Z</time></trkpt>
<trkpt lat="35.19596" lon="-84.895957"><ele>221.6</ele><time>2026-08-05T20:55:03Z</time></trkpt>
<trkpt lat="35.195947" lon="-84.895922"><ele>221.6</ele><time>2026-08-05T20:55:05Z</time></trkpt>
<trkpt lat="35.195937" lon="-84.895889"><ele>221.6</ele><time>2026-08-05T20:55:07Z</time></trkpt>
<trkpt lat="35.195924" lon="-84.895856"><ele>221.6</ele><time>2026-08-05T20:55:09Z</time></trkpt>
<trkpt lat="35.195914" lon="-84.895819"><ele>221.6</ele><time>2026-08-05T20:55:11Z</time></trkpt>
<trkpt lat="35.195904" lon="-84.895786"><ele>221.6</ele><time>2026-08-05T20:55:13Z</time></trkpt>
<trkpt lat="35.19589" lon="-84.895741"><ele>222.5</ele><time>2026-08-05T20:55:16Z</time></trkpt>
<trkpt lat="35.195875" lon="-84.895699"><ele>223.1</ele><time>2026-08-05T20:55:19Z</time></trkpt>
<trkpt lat="35.195861" lon="-84.895651"><ele>223.4</ele><time>2026-08-05T20:55:22Z</time></trkpt>
<trkpt lat="35.195845" lon="-84.895606"><ele>223.7</ele><time>2026-08-05T20:55:25Z</time></trkpt>
<trkpt lat="35.195832" lon="-84.895574"><ele>224.0</ele><time>2026-08-05T20:55:27Z</time></trkpt>
<trkpt lat="35.195819" lon="-84.895541"><ele>224.6</ele><time>2026-08-05T20:55:29Z</time></trkpt>
<trkpt lat="35.195817" lon="-84.895502"><ele>225.2</ele><time>2026-08-05T20:55:31Z</time></trkpt>
<trkpt lat="35.195845" lon="-84.895491"><ele>225.2</ele><time>2026-08-05T20:55:32Z</time></trkpt>
<trkpt lat="35.195872" lon="-84.895512"><ele>225.6</ele><time>2026-08-05T20:55:34Z</time></trkpt>
<trkpt lat="35.195898" lon="-84.895525"><ele>225.6</ele><time>2026-08-05T20:55:36Z</time></trkpt>
<trkpt lat="35.195936" lon="-84.895538"><ele>225.6</ele><time>2026-08-05T20:55:39Z</time></trkpt>
<trkpt lat="35.195974" lon="-84.89555"><ele>225.9</ele><time>2026-08-05T20:55:42Z</time></trkpt>
<trkpt lat="35.196004" lon="-84.895558"><ele>225.6</ele><time>2026-08-05T20:55:44Z</time></trkpt>
<trkpt lat="35.196035" lon="-84.895563"><ele>225.2</ele><time>2026-08-05T20:55:46Z</time></trkpt>
<trkpt lat="35.196067" lon="-84.895564"><ele>225.2</ele><time>2026-08-05T20:55:48Z</time></trkpt>
<trkpt lat="35.196099" lon="-84.895568"><ele>225.2</ele><time>2026-08-05T20:55:50Z</time></trkpt>
<trkpt lat="35.196128" lon="-84.895568"><ele>225.2</ele><time>2026-08-05T20:55:52Z</time></trkpt>
<trkpt lat="35.196158" lon="-84.895564"><ele>225.2</ele><time>2026-08-05T20:55:54Z</time></trkpt>
<trkpt lat="35.196197" lon="-84.895553"><ele>225.6</ele><time>2026-08-05T20:55:57Z</time></trkpt>
<trkpt lat="35.196234" lon="-84.895543"><ele>225.6</ele><time>2026-08-05T20:56:00Z</time></trkpt>
<trkpt lat="35.196267" lon="-84.895528"><ele>225.2</ele><time>2026-08-05T20:56:03Z</time></trkpt>
<trkpt lat="35.196296" lon="-84.895518"><ele>224.9</ele><time>2026-08-05T20:56:05Z</time></trkpt>
<trkpt lat="35.196324" lon="-84.895509"><ele>224.9</ele><time>2026-08-05T20:56:07Z</time></trkpt>
<trkpt lat="35.196352" lon="-84.895504"><ele>224.9</ele><time>2026-08-05T20:56:09Z</time></trkpt>
<trkpt lat="35.196373" lon="-84.895532"><ele>224.3</ele><time>2026-08-05T20:56:11Z</time></trkpt>
<trkpt lat="35.196384" lon="-84.895568"><ele>223.7</ele><time>2026-08-05T20:56:13Z</time></trkpt>
<trkpt lat="35.196396" lon="-84.895603"><ele>223.1</ele><time>2026-08-05T20:56:15Z</time></trkpt>
<trkpt lat="35.196408" lon="-84.895637"><ele>223.1</ele><time>2026-08-05T20:56:17Z</time></trkpt>
<trkpt lat="35.196419" lon="-84.895668"><ele>222.8</ele><time>2026-08-05T20:56:19Z</time></trkpt>
<trkpt lat="35.196435" lon="-84.89571"><ele>223.4</ele><time>2026-08-05T20:56:22Z</time></trkpt>
<trkpt lat="35.196444" lon="-84.895735"><ele>224.0</ele><time>2026-08-05T20:56:24Z</time></trkpt>
<trkpt lat="35.196442" lon="-84.895735"><ele>224.3</ele><time>2026-08-05T20:56:25Z</time></trkpt>
<trkpt lat="35.196441" lon="-84.895735"><ele>224.6</ele><time>2026-08-05T20:56:26Z</time></trkpt>
<trkpt lat="35.196448" lon="-84.895748"><ele>224.3</ele><time>2026-08-05T20:56:27Z</time></trkpt>
<trkpt lat="35.196456" lon="-84.895761"><ele>224.9</ele><time>2026-08-05T20:56:28Z</time></trkpt>
<trkpt lat="35.196456" lon="-84.89576"><ele>224.6</ele><time>2026-08-05T20:56:29Z</time></trkpt>
<trkpt lat="35.196459" lon="-84.895765"><ele>224.6</ele><time>2026-08-05T20:56:30Z</time></trkpt>
<trkpt lat="35.196478" lon="-84.895801"><ele>223.1</ele><time>2026-08-05T20:56:33Z</time></trkpt>
<trkpt lat="35.196478" lon="-84.895799"><ele>224.0</ele><time>2026-08-05T20:56:34Z</time></trkpt>
<trkpt lat="35.196473" lon="-84.895792"><ele>224.9</ele><time>2026-08-05T20:56:39Z</time></trkpt>
<trkpt lat="35.196474" lon="-84.895793"><ele>224.3</ele><time>2026-08-05T20:56:40Z</time></trkpt>
<trkpt lat="35.196484" lon="-84.895826"><ele>223.1</ele><time>2026-08-05T20:56:43Z</time></trkpt>
<trkpt lat="35.196495" lon="-84.895868"><ele>221.9</ele><time>2026-08-05T20:56:46Z</time></trkpt>
<trkpt lat="35.196507" lon="-84.895912"><ele>221.9</ele><time>2026-08-05T20:56:49Z</time></trkpt>
<trkpt lat="35.196525" lon="-84.895955"><ele>221.9</ele><time>2026-08-05T20:56:52Z</time></trkpt>
<trkpt lat="35.196535" lon="-84.895988"><ele>221.9</ele><time>2026-08-05T20:56:54Z</time></trkpt>
<trkpt lat="35.196559" lon="-84.896009"><ele>220.4</ele><time>2026-08-05T20:56:56Z</time></trkpt>
<trkpt lat="35.19657" lon="-84.896058"><ele>219.5</ele><time>2026-08-05T20:56:59Z</time></trkpt>
<trkpt lat="35.196582" lon="-84.896092"><ele>219.8</ele><time>2026-08-05T20:57:01Z</time></trkpt>
<trkpt lat="35.196594" lon="-84.896125"><ele>220.1</ele><time>2026-08-05T20:57:03Z</time></trkpt>
<trkpt lat="35.196609" lon="-84.896154"><ele>220.1</ele><time>2026-08-05T20:57:05Z</time></trkpt>
<trkpt lat="35.196626" lon="-84.896199"><ele>220.1</ele><time>2026-08-05T20:57:08Z</time></trkpt>
<trkpt lat="35.196645" lon="-84.896243"><ele>219.8</ele><time>2026-08-05T20:57:11Z</time></trkpt>
<trkpt lat="35.196659" lon="-84.896276"><ele>219.5</ele><time>2026-08-05T20:57:13Z</time></trkpt>
<trkpt lat="35.196673" lon="-84.896312"><ele>220.1</ele><time>2026-08-05T20:57:15Z</time></trkpt>
<trkpt lat="35.196685" lon="-84.896345"><ele>220.1</ele><time>2026-08-05T20:57:17Z</time></trkpt>
<trkpt lat="35.196699" lon="-84.896376"><ele>220.4</ele><time>2026-08-05T20:57:19Z</time></trkpt>
<trkpt lat="35.196712" lon="-84.896408"><ele>220.7</ele><time>2026-08-05T20:57:21Z</time></trkpt>
<trkpt lat="35.196725" lon="-84.896441"><ele>220.4</ele><time>2026-08-05T20:57:23Z</time></trkpt>
<trkpt lat="35.196742" lon="-84.896473"><ele>220.1</ele><time>2026-08-05T20:57:25Z</time></trkpt>
<trkpt lat="35.196757" lon="-84.896501"><ele>219.5</ele><time>2026-08-05T20:57:27Z</time></trkpt>
<trkpt lat="35.196779" lon="-84.896545"><ele>219.2</ele><time>2026-08-05T20:57:30Z</time></trkpt>
<trkpt lat="35.196793" lon="-84.896577"><ele>219.2</ele><time>2026-08-05T20:57:32Z</time></trkpt>
<trkpt lat="35.196805" lon="-84.896608"><ele>219.5</ele><time>2026-08-05T20:57:34Z</time></trkpt>
<trkpt lat="35.196824" lon="-84.89665"><ele>218.8</ele><time>2026-08-05T20:57:37Z</time></trkpt>
<trkpt lat="35.196839" lon="-84.896693"><ele>218.8</ele><time>2026-08-05T20:57:40Z</time></trkpt>
<trkpt lat="35.196852" lon="-84.896738"><ele>218.5</ele><time>2026-08-05T20:57:43Z</time></trkpt>
<trkpt lat="35.196859" lon="-84.896789"><ele>218.5</ele><time>2026-08-05T20:57:46Z</time></trkpt>
<trkpt lat="35.196866" lon="-84.896824"><ele>218.5</ele><time>2026-08-05T20:57:48Z</time></trkpt>
<trkpt lat="35.196878" lon="-84.896858"><ele>218.5</ele><time>2026-08-05T20:57:50Z</time></trkpt>
<trkpt lat="35.19689" lon="-84.896891"><ele>218.8</ele><time>2026-08-05T20:57:52Z</time></trkpt>
<trkpt lat="35.196903" lon="-84.896923"><ele>218.8</ele><time>2026-08-05T20:57:54Z</time></trkpt>
<trkpt lat="35.196919" lon="-84.896955"><ele>218.8</ele><time>2026-08-05T20:57:56Z</time></trkpt>
<trkpt lat="35.19693" lon="-84.89699"><ele>219.2</ele><time>2026-08-05T20:57:58Z</time></trkpt>
<trkpt lat="35.196944" lon="-84.897021"><ele>218.8</ele><time>2026-08-05T20:58:00Z</time></trkpt>
<trkpt lat="35.196957" lon="-84.897054"><ele>218.5</ele><time>2026-08-05T20:58:02Z</time></trkpt>
<trkpt lat="35.196967" lon="-84.897087"><ele>218.2</ele><time>2026-08-05T20:58:04Z</time></trkpt>
<trkpt lat="35.196977" lon="-84.897122"><ele>217.9</ele><time>2026-08-05T20:58:06Z</time></trkpt>
<trkpt lat="35.196988" lon="-84.897155"><ele>217.9</ele><time>2026-08-05T20:58:08Z</time></trkpt>
<trkpt lat="35.196998" lon="-84.897189"><ele>218.2</ele><time>2026-08-05T20:58:10Z</time></trkpt>
<trkpt lat="35.197008" lon="-84.897221"><ele>218.5</ele><time>2026-08-05T20:58:12Z</time></trkpt>
<trkpt lat="35.197025" lon="-84.897268"><ele>218.5</ele><time>2026-08-05T20:58:15Z</time></trkpt>
<trkpt lat="35.197037" lon="-84.897298"><ele>218.8</ele><time>2026-08-05T20:58:17Z</time></trkpt>
<trkpt lat="35.197059" lon="-84.897338"><ele>218.2</ele><time>2026-08-05T20:58:20Z</time></trkpt>
<trkpt lat="35.197088" lon="-84.897376"><ele>217.9</ele><time>2026-08-05T20:58:23Z</time></trkpt>
<trkpt lat="35.197108" lon="-84.897403"><ele>218.2</ele><time>2026-08-05T20:58:25Z</time></trkpt>
<trkpt lat="35.197128" lon="-84.897427"><ele>218.5</ele><time>2026-08-05T20:58:27Z</time></trkpt>
<trkpt lat="35.197149" lon="-84.897449"><ele>218.8</ele><time>2026-08-05T20:58:29Z</time></trkpt>
<trkpt lat="35.197179" lon="-84.897481"><ele>219.5</ele><time>2026-08-05T20:58:32Z</time></trkpt>
<trkpt lat="35.197209" lon="-84.897515"><ele>218.8</ele><time>2026-08-05T20:58:35Z</time></trkpt>
<trkpt lat="35.197238" lon="-84.897551"><ele>217.9</ele><time>2026-08-05T20:58:38Z</time></trkpt>
<trkpt lat="35.197278" lon="-84.897564"><ele>217.9</ele><time>2026-08-05T20:58:41Z</time></trkpt>
<trkpt lat="35.197305" lon="-84.897547"><ele>217.6</ele><time>2026-08-05T20:58:43Z</time></trkpt>
<trkpt lat="35.197323" lon="-84.897518"><ele>218.2</ele><time>2026-08-05T20:58:45Z</time></trkpt>
<trkpt lat="35.197358" lon="-84.897533"><ele>218.2</ele><time>2026-08-05T20:58:48Z</time></trkpt>
<trkpt lat="35.19738" lon="-84.897561"><ele>218.8</ele><time>2026-08-05T20:58:50Z</time></trkpt>
<trkpt lat="35.197401" lon="-84.897586"><ele>219.5</ele><time>2026-08-05T20:58:52Z</time></trkpt>
<trkpt lat="35.197428" lon="-84.8976"><ele>219.8</ele><time>2026-08-05T20:58:54Z</time></trkpt>
<trkpt lat="35.197458" lon="-84.897598"><ele>219.8</ele><time>2026-08-05T20:58:56Z</time></trkpt>
<trkpt lat="35.197487" lon="-84.897592"><ele>220.1</ele><time>2026-08-05T20:58:58Z</time></trkpt>
<trkpt lat="35.197512" lon="-84.897577"><ele>220.1</ele><time>2026-08-05T20:59:00Z</time></trkpt>
<trkpt lat="35.197546" lon="-84.897556"><ele>220.4</ele><time>2026-08-05T20:59:03Z</time></trkpt>
<trkpt lat="35.197579" lon="-84.897536"><ele>220.7</ele><time>2026-08-05T20:59:06Z</time></trkpt>
<trkpt lat="35.197611" lon="-84.897516"><ele>221.0</ele><time>2026-08-05T20:59:09Z</time></trkpt>
<trkpt lat="35.197645" lon="-84.897493"><ele>221.0</ele><time>2026-08-05T20:59:12Z</time></trkpt>
<trkpt lat="35.197681" lon="-84.897472"><ele>221.3</ele><time>2026-08-05T20:59:15Z</time></trkpt>
<trkpt lat="35.197708" lon="-84.897457"><ele>221.6</ele><time>2026-08-05T20:59:17Z</time></trkpt>
<trkpt lat="35.197735" lon="-84.897443"><ele>221.6</ele><time>2026-08-05T20:59:19Z</time></trkpt>
<trkpt lat="35.197765" lon="-84.897432"><ele>221.6</ele><time>2026-08-05T20:59:21Z</time></trkpt>
<trkpt lat="35.197792" lon="-84.897416"><ele>221.6</ele><time>2026-08-05T20:59:23Z</time></trkpt>
<trkpt lat="35.19782" lon="-84.897401"><ele>221.3</ele><time>2026-08-05T20:59:25Z</time></trkpt>
<trkpt lat="35.197852" lon="-84.897398"><ele>221.3</ele><time>2026-08-05T20:59:27Z</time></trkpt>
<trkpt lat="35.197876" lon="-84.897424"><ele>221.0</ele><time>2026-08-05T20:59:29Z</time></trkpt>
<trkpt lat="35.197888" lon="-84.897461"><ele>221.3</ele><time>2026-08-05T20:59:31Z</time></trkpt>
<trkpt lat="35.197896" lon="-84.897493"><ele>221.0</ele><time>2026-08-05T20:59:33Z</time></trkpt>
<trkpt lat="35.197915" lon="-84.897536"><ele>221.3</ele><time>2026-08-05T20:59:36Z</time></trkpt>
<trkpt lat="35.197929" lon="-84.897565"><ele>221.6</ele><time>2026-08-05T20:59:38Z</time></trkpt>
<trkpt lat="35.197944" lon="-84.897605"><ele>221.9</ele><time>2026-08-05T20:59:41Z</time></trkpt>
<trkpt lat="35.197953" lon="-84.897637"><ele>221.9</ele><time>2026-08-05T20:59:43Z</time></trkpt>
<trkpt lat="35.197964" lon="-84.897669"><ele>222.2</ele><time>2026-08-05T20:59:45Z</time></trkpt>
<trkpt lat="35.197982" lon="-84.897714"><ele>222.5</ele><time>2026-08-05T20:59:48Z</time></trkpt>
<trkpt lat="35.197998" lon="-84.897747"><ele>223.1</ele><time>2026-08-05T20:59:50Z</time></trkpt>
<trkpt lat="35.198013" lon="-84.897775"><ele>223.4</ele><time>2026-08-05T20:59:52Z</time></trkpt>
<trkpt lat="35.198026" lon="-84.897809"><ele>223.4</ele><time>2026-08-05T20:59:54Z</time></trkpt>
<trkpt lat="35.198043" lon="-84.897854"><ele>223.7</ele><time>2026-08-05T20:59:57Z</time></trkpt>
<trkpt lat="35.198056" lon="-84.897893"><ele>223.7</ele><time>2026-08-05T21:00:01Z</time></trkpt>
<trkpt lat="35.19807" lon="-84.897936"><ele>223.7</ele><time>2026-08-05T21:00:04Z</time></trkpt>
<trkpt lat="35.198083" lon="-84.897971"><ele>223.7</ele><time>2026-08-05T21:00:06Z</time></trkpt>
<trkpt lat="35.198098" lon="-84.898005"><ele>223.4</ele><time>2026-08-05T21:00:08Z</time></trkpt>
<trkpt lat="35.198108" lon="-84.898038"><ele>223.4</ele><time>2026-08-05T21:00:10Z</time></trkpt>
<trkpt lat="35.198123" lon="-84.898084"><ele>223.4</ele><time>2026-08-05T21:00:13Z</time></trkpt>
<trkpt lat="35.198137" lon="-84.898118"><ele>223.4</ele><time>2026-08-05T21:00:15Z</time></trkpt>
<trkpt lat="35.198148" lon="-84.898153"><ele>223.4</ele><time>2026-08-05T21:00:17Z</time></trkpt>
<trkpt lat="35.198161" lon="-84.898184"><ele>223.4</ele><time>2026-08-05T21:00:19Z</time></trkpt>
<trkpt lat="35.198177" lon="-84.898213"><ele>223.7</ele><time>2026-08-05T21:00:21Z</time></trkpt>
<trkpt lat="35.198194" lon="-84.898258"><ele>224.0</ele><time>2026-08-05T21:00:24Z</time></trkpt>
<trkpt lat="35.19821" lon="-84.898302"><ele>223.7</ele><time>2026-08-05T21:00:27Z</time></trkpt>
<trkpt lat="35.198223" lon="-84.898332"><ele>223.4</ele><time>2026-08-05T21:00:29Z</time></trkpt>
<trkpt lat="35.19824" lon="-84.898375"><ele>223.1</ele><time>2026-08-05T21:00:32Z</time></trkpt>
<trkpt lat="35.198256" lon="-84.898419"><ele>222.2</ele><time>2026-08-05T21:00:35Z</time></trkpt>
<trkpt lat="35.19827" lon="-84.898464"><ele>221.9</ele><time>2026-08-05T21:00:38Z</time></trkpt>
<trkpt lat="35.198282" lon="-84.898494"><ele>221.0</ele><time>2026-08-05T21:00:40Z</time></trkpt>
<trkpt lat="35.198294" lon="-84.898528"><ele>220.7</ele><time>2026-08-05T21:00:42Z</time></trkpt>
<trkpt lat="35.198302" lon="-84.898561"><ele>220.7</ele><time>2026-08-05T21:00:44Z</time></trkpt>
<trkpt lat="35.198318" lon="-84.898606"><ele>220.1</ele><time>2026-08-05T21:00:47Z</time></trkpt>
<trkpt lat="35.198334" lon="-84.898651"><ele>219.8</ele><time>2026-08-05T21:00:50Z</time></trkpt>
<trkpt lat="35.198347" lon="-84.898684"><ele>219.8</ele><time>2026-08-05T21:00:52Z</time></trkpt>
<trkpt lat="35.198357" lon="-84.898716"><ele>219.5</ele><time>2026-08-05T21:00:54Z</time></trkpt>
<trkpt lat="35.198368" lon="-84.898749"><ele>219.5</ele><time>2026-08-05T21:00:56Z</time></trkpt>
<trkpt lat="35.198379" lon="-84.898785"><ele>219.5</ele><time>2026-08-05T21:00:58Z</time></trkpt>
<trkpt lat="35.198392" lon="-84.898817"><ele>219.2</ele><time>2026-08-05T21:01:00Z</time></trkpt>
<trkpt lat="35.198404" lon="-84.898849"><ele>219.2</ele><time>2026-08-05T21:01:02Z</time></trkpt>
<trkpt lat="35.198415" lon="-84.898881"><ele>218.8</ele><time>2026-08-05T21:01:04Z</time></trkpt>
<trkpt lat="35.198427" lon="-84.898915"><ele>218.5</ele><time>2026-08-05T21:01:06Z</time></trkpt>
<trkpt lat="35.198441" lon="-84.898946"><ele>218.5</ele><time>2026-08-05T21:01:08Z</time></trkpt>
<trkpt lat="35.198455" lon="-84.898977"><ele>218.5</ele><time>2026-08-05T21:01:10Z</time></trkpt>
<trkpt lat="35.198469" lon="-84.899009"><ele>218.8</ele><time>2026-08-05T21:01:12Z</time></trkpt>
<trkpt lat="35.198481" lon="-84.89904"><ele>218.8</ele><time>2026-08-05T21:01:14Z</time></trkpt>
<trkpt lat="35.198493" lon="-84.89907"><ele>218.5</ele><time>2026-08-05T21:01:16Z</time></trkpt>
<trkpt lat="35.198508" lon="-84.899116"><ele>218.5</ele><time>2026-08-05T21:01:19Z</time></trkpt>
<trkpt lat="35.198524" lon="-84.899161"><ele>218.5</ele><time>2026-08-05T21:01:22Z</time></trkpt>
<trkpt lat="35.198536" lon="-84.899191"><ele>218.8</ele><time>2026-08-05T21:01:24Z</time></trkpt>
<trkpt lat="35.198553" lon="-84.899236"><ele>218.2</ele><time>2026-08-05T21:01:27Z</time></trkpt>
<trkpt lat="35.198569" lon="-84.899282"><ele>217.9</ele><time>2026-08-05T21:01:30Z</time></trkpt>
<trkpt lat="35.198581" lon="-84.899314"><ele>217.9</ele><time>2026-08-05T21:01:32Z</time></trkpt>
<trkpt lat="35.198591" lon="-84.899348"><ele>218.2</ele><time>2026-08-05T21:01:34Z</time></trkpt>
<trkpt lat="35.1986" lon="-84.899383"><ele>218.2</ele><time>2026-08-05T21:01:36Z</time></trkpt>
<trkpt lat="35.198613" lon="-84.899418"><ele>218.5</ele><time>2026-08-05T21:01:38Z</time></trkpt>
<trkpt lat="35.198624" lon="-84.899451"><ele>218.8</ele><time>2026-08-05T21:01:40Z</time></trkpt>
<trkpt lat="35.198635" lon="-84.899485"><ele>218.8</ele><time>2026-08-05T21:01:42Z</time></trkpt>
<trkpt lat="35.198648" lon="-84.899519"><ele>219.2</ele><time>2026-08-05T21:01:44Z</time></trkpt>
<trkpt lat="35.198662" lon="-84.899552"><ele>218.8</ele><time>2026-08-05T21:01:46Z</time></trkpt>
<trkpt lat="35.198679" lon="-84.899599"><ele>219.2</ele><time>2026-08-05T21:01:49Z</time></trkpt>
<trkpt lat="35.198691" lon="-84.89963"><ele>219.2</ele><time>2026-08-05T21:01:51Z</time></trkpt>
<trkpt lat="35.198711" lon="-84.899675"><ele>219.5</ele><time>2026-08-05T21:01:54Z</time></trkpt>
<trkpt lat="35.198727" lon="-84.899719"><ele>219.8</ele><time>2026-08-05T21:01:57Z</time></trkpt>
<trkpt lat="35.198744" lon="-84.899765"><ele>219.8</ele><time>2026-08-05T21:02:00Z</time></trkpt>
<trkpt lat="35.198762" lon="-84.899811"><ele>219.8</ele><time>2026-08-05T21:02:03Z</time></trkpt>
<trkpt lat="35.198774" lon="-84.899843"><ele>219.8</ele><time>2026-08-05T21:02:05Z</time></trkpt>
<trkpt lat="35.198785" lon="-84.899875"><ele>220.1</ele><time>2026-08-05T21:02:07Z</time></trkpt>
<trkpt lat="35.1988" lon="-84.899908"><ele>220.1</ele><time>2026-08-05T21:02:09Z</time></trkpt>
<trkpt lat="35.198808" lon="-84.899943"><ele>220.1</ele><time>2026-08-05T21:02:11Z</time></trkpt>
<trkpt lat="35.198785" lon="-84.899971"><ele>219.8</ele><time>2026-08-05T21:02:13Z</time></trkpt>
<trkpt lat="35.198754" lon="-84.899986"><ele>219.5</ele><time>2026-08-05T21:02:15Z</time></trkpt>
<trkpt lat="35.198723" lon="-84.899996"><ele>219.2</ele><time>2026-08-05T21:02:17Z</time></trkpt>
<trkpt lat="35.198695" lon="-84.900005"><ele>219.5</ele><time>2026-08-05T21:02:19Z</time></trkpt>
<trkpt lat="35.198655" lon="-84.900016"><ele>218.8</ele><time>2026-08-05T21:02:22Z</time></trkpt>
<trkpt lat="35.198628" lon="-84.900022"><ele>219.8</ele><time>2026-08-05T21:02:24Z</time></trkpt>
<trkpt lat="35.198588" lon="-84.900029"><ele>219.5</ele><time>2026-08-05T21:02:27Z</time></trkpt>
<trkpt lat="35.198559" lon="-84.900035"><ele>219.8</ele><time>2026-08-05T21:02:29Z</time></trkpt>
<trkpt lat="35.198532" lon="-84.900045"><ele>219.5</ele><time>2026-08-05T21:02:31Z</time></trkpt>
<trkpt lat="35.198504" lon="-84.900057"><ele>219.5</ele><time>2026-08-05T21:02:33Z</time></trkpt>
<trkpt lat="35.198476" lon="-84.900075"><ele>219.2</ele><time>2026-08-05T21:02:35Z</time></trkpt>
<trkpt lat="35.198439" lon="-84.900094"><ele>218.8</ele><time>2026-08-05T21:02:38Z</time></trkpt>
<trkpt lat="35.1984" lon="-84.900103"><ele>218.5</ele><time>2026-08-05T21:02:41Z</time></trkpt>
<trkpt lat="35.198361" lon="-84.9001"><ele>218.5</ele><time>2026-08-05T21:02:44Z</time></trkpt>
<trkpt lat="35.198334" lon="-84.90009"><ele>218.8</ele><time>2026-08-05T21:02:46Z</time></trkpt>
<trkpt lat="35.198305" lon="-84.900054"><ele>220.1</ele><time>2026-08-05T21:02:49Z</time></trkpt>
<trkpt lat="35.19829" lon="-84.900025"><ele>219.5</ele><time>2026-08-05T21:02:51Z</time></trkpt>
<trkpt lat="35.198273" lon="-84.899994"><ele>219.5</ele><time>2026-08-05T21:02:53Z</time></trkpt>
<trkpt lat="35.198255" lon="-84.899966"><ele>220.1</ele><time>2026-08-05T21:02:55Z</time></trkpt>
<trkpt lat="35.19824" lon="-84.899937"><ele>220.7</ele><time>2026-08-05T21:02:57Z</time></trkpt>
<trkpt lat="35.198227" lon="-84.899906"><ele>220.7</ele><time>2026-08-05T21:02:59Z</time></trkpt>
<trkpt lat="35.198216" lon="-84.899873"><ele>221.0</ele><time>2026-08-05T21:03:01Z</time></trkpt>
<trkpt lat="35.198205" lon="-84.89984"><ele>221.3</ele><time>2026-08-05T21:03:03Z</time></trkpt>
<trkpt lat="35.198193" lon="-84.899809"><ele>221.3</ele><time>2026-08-05T21:03:05Z</time></trkpt>
<trkpt lat="35.198175" lon="-84.899762"><ele>220.1</ele><time>2026-08-05T21:03:08Z</time></trkpt>
<trkpt lat="35.198164" lon="-84.899729"><ele>219.5</ele><time>2026-08-05T21:03:10Z</time></trkpt>
<trkpt lat="35.198151" lon="-84.899695"><ele>219.5</ele><time>2026-08-05T21:03:12Z</time></trkpt>
<trkpt lat="35.198139" lon="-84.899662"><ele>218.8</ele><time>2026-08-05T21:03:14Z</time></trkpt>
<trkpt lat="35.198124" lon="-84.899629"><ele>218.8</ele><time>2026-08-05T21:03:16Z</time></trkpt>
<trkpt lat="35.198111" lon="-84.8996"><ele>218.5</ele><time>2026-08-05T21:03:18Z</time></trkpt>
<trkpt lat="35.198093" lon="-84.899556"><ele>218.2</ele><time>2026-08-05T21:03:21Z</time></trkpt>
<trkpt lat="35.19807" lon="-84.899514"><ele>217.9</ele><time>2026-08-05T21:03:24Z</time></trkpt>
<trkpt lat="35.198035" lon="-84.899497"><ele>217.0</ele><time>2026-08-05T21:03:27Z</time></trkpt>
<trkpt lat="35.198014" lon="-84.899521"><ele>216.7</ele><time>2026-08-05T21:03:29Z</time></trkpt>
<trkpt lat="35.197997" lon="-84.899549"><ele>217.3</ele><time>2026-08-05T21:03:31Z</time></trkpt>
<trkpt lat="35.19798" lon="-84.899576"><ele>217.3</ele><time>2026-08-05T21:03:33Z</time></trkpt>
<trkpt lat="35.197948" lon="-84.899606"><ele>217.0</ele><time>2026-08-05T21:03:36Z</time></trkpt>
<trkpt lat="35.197922" lon="-84.899626"><ele>217.3</ele><time>2026-08-05T21:03:38Z</time></trkpt>
<trkpt lat="35.197897" lon="-84.899644"><ele>217.6</ele><time>2026-08-05T21:03:40Z</time></trkpt>
<trkpt lat="35.197871" lon="-84.899666"><ele>217.6</ele><time>2026-08-05T21:03:42Z</time></trkpt>
<trkpt lat="35.197838" lon="-84.899697"><ele>217.6</ele><time>2026-08-05T21:03:45Z</time></trkpt>
<trkpt lat="35.197813" lon="-84.899718"><ele>217.3</ele><time>2026-08-05T21:03:47Z</time></trkpt>
<trkpt lat="35.19779" lon="-84.899737"><ele>217.0</ele><time>2026-08-05T21:03:49Z</time></trkpt>
<trkpt lat="35.197756" lon="-84.899765"><ele>216.7</ele><time>2026-08-05T21:03:52Z</time></trkpt>
<trkpt lat="35.197724" lon="-84.899795"><ele>217.0</ele><time>2026-08-05T21:03:55Z</time></trkpt>
<trkpt lat="35.197692" lon="-84.899827"><ele>217.3</ele><time>2026-08-05T21:03:58Z</time></trkpt>
<trkpt lat="35.197658" lon="-84.899852"><ele>217.6</ele><time>2026-08-05T21:04:01Z</time></trkpt>
<trkpt lat="35.197623" lon="-84.899878"><ele>217.3</ele><time>2026-08-05T21:04:04Z</time></trkpt>
<trkpt lat="35.197598" lon="-84.899897"><ele>216.7</ele><time>2026-08-05T21:04:06Z</time></trkpt>
<trkpt lat="35.197575" lon="-84.899917"><ele>217.0</ele><time>2026-08-05T21:04:08Z</time></trkpt>
<trkpt lat="35.197549" lon="-84.899939"><ele>217.0</ele><time>2026-08-05T21:04:10Z</time></trkpt>
<trkpt lat="35.197527" lon="-84.89996"><ele>217.3</ele><time>2026-08-05T21:04:12Z</time></trkpt>
<trkpt lat="35.197504" lon="-84.899983"><ele>217.6</ele><time>2026-08-05T21:04:14Z</time></trkpt>
<trkpt lat="35.197484" lon="-84.90001"><ele>217.6</ele><time>2026-08-05T21:04:16Z</time></trkpt>
<trkpt lat="35.197466" lon="-84.900035"><ele>217.3</ele><time>2026-08-05T21:04:18Z</time></trkpt>
<trkpt lat="35.197446" lon="-84.900059"><ele>217.0</ele><time>2026-08-05T21:04:20Z</time></trkpt>
<trkpt lat="35.197417" lon="-84.900091"><ele>217.0</ele><time>2026-08-05T21:04:23Z</time></trkpt>
<trkpt lat="35.19739" lon="-84.900124"><ele>217.3</ele><time>2026-08-05T21:04:26Z</time></trkpt>
<trkpt lat="35.197361" lon="-84.900154"><ele>218.5</ele><time>2026-08-05T21:04:29Z</time></trkpt>
<trkpt lat="35.197332" lon="-84.900187"><ele>218.5</ele><time>2026-08-05T21:04:32Z</time></trkpt>
<trkpt lat="35.197309" lon="-84.900208"><ele>218.5</ele><time>2026-08-05T21:04:34Z</time></trkpt>
<trkpt lat="35.197288" lon="-84.900232"><ele>218.5</ele><time>2026-08-05T21:04:36Z</time></trkpt>
<trkpt lat="35.197263" lon="-84.90025"><ele>219.5</ele><time>2026-08-05T21:04:38Z</time></trkpt>
<trkpt lat="35.197235" lon="-84.900263"><ele>219.2</ele><time>2026-08-05T21:04:40Z</time></trkpt>
<trkpt lat="35.197209" lon="-84.900279"><ele>219.2</ele><time>2026-08-05T21:04:42Z</time></trkpt>
<trkpt lat="35.197182" lon="-84.900295"><ele>219.2</ele><time>2026-08-05T21:04:44Z</time></trkpt>
<trkpt lat="35.197154" lon="-84.900311"><ele>219.5</ele><time>2026-08-05T21:04:46Z</time></trkpt>
<trkpt lat="35.197127" lon="-84.900329"><ele>220.1</ele><time>2026-08-05T21:04:48Z</time></trkpt>
<trkpt lat="35.197101" lon="-84.900346"><ele>220.1</ele><time>2026-08-05T21:04:50Z</time></trkpt>
<trkpt lat="35.197077" lon="-84.900366"><ele>220.1</ele><time>2026-08-05T21:04:52Z</time></trkpt>
<trkpt lat="35.197057" lon="-84.900392"><ele>219.5</ele><time>2026-08-05T21:04:54Z</time></trkpt>
<trkpt lat="35.197037" lon="-84.900418"><ele>219.5</ele><time>2026-08-05T21:04:56Z</time></trkpt>
<trkpt lat="35.197014" lon="-84.900457"><ele>218.8</ele><time>2026-08-05T21:04:59Z</time></trkpt>
<trkpt lat="35.196992" lon="-84.900497"><ele>218.8</ele><time>2026-08-05T21:05:02Z</time></trkpt>
<trkpt lat="35.196968" lon="-84.900532"><ele>218.8</ele><time>2026-08-05T21:05:05Z</time></trkpt>
<trkpt lat="35.196946" lon="-84.900554"><ele>218.5</ele><time>2026-08-05T21:05:07Z</time></trkpt>
<trkpt lat="35.196922" lon="-84.900573"><ele>218.2</ele><time>2026-08-05T21:05:09Z</time></trkpt>
<trkpt lat="35.1969" lon="-84.900596"><ele>218.2</ele><time>2026-08-05T21:05:11Z</time></trkpt>
<trkpt lat="35.196877" lon="-84.900619"><ele>218.5</ele><time>2026-08-05T21:05:13Z</time></trkpt>
<trkpt lat="35.196853" lon="-84.900641"><ele>218.5</ele><time>2026-08-05T21:05:15Z</time></trkpt>
<trkpt lat="35.196832" lon="-84.900665"><ele>218.8</ele><time>2026-08-05T21:05:17Z</time></trkpt>
<trkpt lat="35.196811" lon="-84.900688"><ele>218.8</ele><time>2026-08-05T21:05:19Z</time></trkpt>
<trkpt lat="35.196787" lon="-84.90071"><ele>218.8</ele><time>2026-08-05T21:05:21Z</time></trkpt>
<trkpt lat="35.196763" lon="-84.90073"><ele>218.5</ele><time>2026-08-05T21:05:23Z</time></trkpt>
<trkpt lat="35.196741" lon="-84.900751"><ele>218.2</ele><time>2026-08-05T21:05:25Z</time></trkpt>
<trkpt lat="35.196708" lon="-84.900778"><ele>218.5</ele><time>2026-08-05T21:05:28Z</time></trkpt>
<trkpt lat="35.196684" lon="-84.900795"><ele>218.8</ele><time>2026-08-05T21:05:30Z</time></trkpt>
<trkpt lat="35.196649" lon="-84.900818"><ele>219.2</ele><time>2026-08-05T21:05:33Z</time></trkpt>
<trkpt lat="35.196615" lon="-84.900846"><ele>218.5</ele><time>2026-08-05T21:05:36Z</time></trkpt>
<trkpt lat="35.19659" lon="-84.900862"><ele>217.9</ele><time>2026-08-05T21:05:38Z</time></trkpt>
<trkpt lat="35.196568" lon="-84.900884"><ele>217.9</ele><time>2026-08-05T21:05:40Z</time></trkpt>
<trkpt lat="35.196541" lon="-84.900907"><ele>218.2</ele><time>2026-08-05T21:05:42Z</time></trkpt>
<trkpt lat="35.196519" lon="-84.900931"><ele>217.9</ele><time>2026-08-05T21:05:44Z</time></trkpt>
<trkpt lat="35.196501" lon="-84.900958"><ele>217.9</ele><time>2026-08-05T21:05:46Z</time></trkpt>
<trkpt lat="35.196486" lon="-84.900987"><ele>217.9</ele><time>2026-08-05T21:05:48Z</time></trkpt>
<trkpt lat="35.19647" lon="-84.901018"><ele>217.9</ele><time>2026-08-05T21:05:50Z</time></trkpt>
<trkpt lat="35.196455" lon="-84.901046"><ele>217.6</ele><time>2026-08-05T21:05:52Z</time></trkpt>
<trkpt lat="35.196435" lon="-84.901085"><ele>217.3</ele><time>2026-08-05T21:05:55Z</time></trkpt>
<trkpt lat="35.196411" lon="-84.901121"><ele>217.3</ele><time>2026-08-05T21:05:58Z</time></trkpt>
<trkpt lat="35.196388" lon="-84.901156"><ele>216.7</ele><time>2026-08-05T21:06:01Z</time></trkpt>
<trkpt lat="35.19637" lon="-84.901198"><ele>217.0</ele><time>2026-08-05T21:06:04Z</time></trkpt>
<trkpt lat="35.196352" lon="-84.901242"><ele>217.3</ele><time>2026-08-05T21:06:07Z</time></trkpt>
<trkpt lat="35.196337" lon="-84.901271"><ele>217.9</ele><time>2026-08-05T21:06:09Z</time></trkpt>
<trkpt lat="35.196322" lon="-84.901304"><ele>218.2</ele><time>2026-08-05T21:06:11Z</time></trkpt>
<trkpt lat="35.196309" lon="-84.901338"><ele>218.5</ele><time>2026-08-05T21:06:13Z</time></trkpt>
<trkpt lat="35.196296" lon="-84.901368"><ele>218.5</ele><time>2026-08-05T21:06:15Z</time></trkpt>
<trkpt lat="35.196279" lon="-84.901411"><ele>218.8</ele><time>2026-08-05T21:06:18Z</time></trkpt>
<trkpt lat="35.196266" lon="-84.901452"><ele>218.5</ele><time>2026-08-05T21:06:21Z</time></trkpt>
<trkpt lat="35.196252" lon="-84.901481"><ele>218.2</ele><time>2026-08-05T21:06:23Z</time></trkpt>
<trkpt lat="35.196236" lon="-84.901525"><ele>217.9</ele><time>2026-08-05T21:06:26Z</time></trkpt>
<trkpt lat="35.196222" lon="-84.901557"><ele>217.3</ele><time>2026-08-05T21:06:28Z</time></trkpt>
<trkpt lat="35.196215" lon="-84.901591"><ele>217.3</ele><time>2026-08-05T21:06:30Z</time></trkpt>
<trkpt lat="35.196203" lon="-84.901639"><ele>218.2</ele><time>2026-08-05T21:06:33Z</time></trkpt>
<trkpt lat="35.196202" lon="-84.901672"><ele>218.2</ele><time>2026-08-05T21:06:35Z</time></trkpt>
<trkpt lat="35.196194" lon="-84.90172"><ele>218.8</ele><time>2026-08-05T21:06:38Z</time></trkpt>
<trkpt lat="35.196182" lon="-84.90175"><ele>219.2</ele><time>2026-08-05T21:06:40Z</time></trkpt>
<trkpt lat="35.196168" lon="-84.901797"><ele>219.5</ele><time>2026-08-05T21:06:43Z</time></trkpt>
<trkpt lat="35.196162" lon="-84.901831"><ele>219.2</ele><time>2026-08-05T21:06:45Z</time></trkpt>
<trkpt lat="35.196155" lon="-84.901878"><ele>219.2</ele><time>2026-08-05T21:06:48Z</time></trkpt>
<trkpt lat="35.196144" lon="-84.901911"><ele>219.2</ele><time>2026-08-05T21:06:50Z</time></trkpt>
<trkpt lat="35.196141" lon="-84.901946"><ele>218.8</ele><time>2026-08-05T21:06:52Z</time></trkpt>
<trkpt lat="35.196133" lon="-84.901995"><ele>218.8</ele><time>2026-08-05T21:06:55Z</time></trkpt>
<trkpt lat="35.196127" lon="-84.90203"><ele>218.5</ele><time>2026-08-05T21:06:57Z</time></trkpt>
<trkpt lat="35.196115" lon="-84.902062"><ele>218.8</ele><time>2026-08-05T21:06:59Z</time></trkpt>
<trkpt lat="35.196105" lon="-84.902094"><ele>219.2</ele><time>2026-08-05T21:07:01Z</time></trkpt>
<trkpt lat="35.196097" lon="-84.902131"><ele>219.5</ele><time>2026-08-05T21:07:03Z</time></trkpt>
<trkpt lat="35.19609" lon="-84.902164"><ele>219.8</ele><time>2026-08-05T21:07:05Z</time></trkpt>
<trkpt lat="35.196077" lon="-84.902211"><ele>220.1</ele><time>2026-08-05T21:07:08Z</time></trkpt>
<trkpt lat="35.196069" lon="-84.902259"><ele>220.1</ele><time>2026-08-05T21:07:11Z</time></trkpt>
<trkpt lat="35.196066" lon="-84.902293"><ele>219.8</ele><time>2026-08-05T21:07:13Z</time></trkpt>
<trkpt lat="35.196055" lon="-84.902325"><ele>220.1</ele><time>2026-08-05T21:07:15Z</time></trkpt>
<trkpt lat="35.196043" lon="-84.902356"><ele>220.4</ele><time>2026-08-05T21:07:17Z</time></trkpt>
<trkpt lat="35.196032" lon="-84.902405"><ele>219.5</ele><time>2026-08-05T21:07:20Z</time></trkpt>
<trkpt lat="35.196027" lon="-84.902456"><ele>218.8</ele><time>2026-08-05T21:07:23Z</time></trkpt>
<trkpt lat="35.196027" lon="-84.902492"><ele>218.8</ele><time>2026-08-05T21:07:25Z</time></trkpt>
<trkpt lat="35.196024" lon="-84.902528"><ele>219.2</ele><time>2026-08-05T21:07:27Z</time></trkpt>
<trkpt lat="35.196016" lon="-84.902563"><ele>218.8</ele><time>2026-08-05T21:07:29Z</time></trkpt>
<trkpt lat="35.196009" lon="-84.902599"><ele>219.5</ele><time>2026-08-05T21:07:31Z</time></trkpt>
<trkpt lat="35.196004" lon="-84.902635"><ele>219.2</ele><time>2026-08-05T21:07:33Z</time></trkpt>
<trkpt lat="35.195999" lon="-84.902672"><ele>219.5</ele><time>2026-08-05T21:07:35Z</time></trkpt>
<trkpt lat="35.195996" lon="-84.902709"><ele>218.8</ele><time>2026-08-05T21:07:37Z</time></trkpt>
<trkpt lat="35.195995" lon="-84.902745"><ele>218.5</ele><time>2026-08-05T21:07:39Z</time></trkpt>
<trkpt lat="35.195989" lon="-84.90278"><ele>218.8</ele><time>2026-08-05T21:07:41Z</time></trkpt>
<trkpt lat="35.195981" lon="-84.902828"><ele>218.8</ele><time>2026-08-05T21:07:44Z</time></trkpt>
<trkpt lat="35.195971" lon="-84.902875"><ele>218.5</ele><time>2026-08-05T21:07:47Z</time></trkpt>
<trkpt lat="35.195961" lon="-84.902921"><ele>218.8</ele><time>2026-08-05T21:07:50Z</time></trkpt>
<trkpt lat="35.195955" lon="-84.90297"><ele>218.5</ele><time>2026-08-05T21:07:53Z</time></trkpt>
<trkpt lat="35.195949" lon="-84.903019"><ele>218.2</ele><time>2026-08-05T21:07:56Z</time></trkpt>
<trkpt lat="35.19594" lon="-84.903053"><ele>217.9</ele><time>2026-08-05T21:07:58Z</time></trkpt>
<trkpt lat="35.195933" lon="-84.903086"><ele>217.9</ele><time>2026-08-05T21:08:00Z</time></trkpt>
<trkpt lat="35.195925" lon="-84.903123"><ele>217.6</ele><time>2026-08-05T21:08:02Z</time></trkpt>
<trkpt lat="35.195918" lon="-84.903159"><ele>217.6</ele><time>2026-08-05T21:08:04Z</time></trkpt>
<trkpt lat="35.195914" lon="-84.903194"><ele>217.9</ele><time>2026-08-05T21:08:06Z</time></trkpt>
<trkpt lat="35.195908" lon="-84.903228"><ele>217.9</ele><time>2026-08-05T21:08:08Z</time></trkpt>
<trkpt lat="35.195904" lon="-84.903263"><ele>218.2</ele><time>2026-08-05T21:08:10Z</time></trkpt>
<trkpt lat="35.195898" lon="-84.903297"><ele>217.9</ele><time>2026-08-05T21:08:12Z</time></trkpt>
<trkpt lat="35.195893" lon="-84.903333"><ele>218.5</ele><time>2026-08-05T21:08:14Z</time></trkpt>
<trkpt lat="35.195889" lon="-84.90337"><ele>218.8</ele><time>2026-08-05T21:08:16Z</time></trkpt>
<trkpt lat="35.195882" lon="-84.903403"><ele>218.8</ele><time>2026-08-05T21:08:18Z</time></trkpt>
<trkpt lat="35.195878" lon="-84.903438"><ele>218.2</ele><time>2026-08-05T21:08:20Z</time></trkpt>
<trkpt lat="35.195877" lon="-84.903473"><ele>217.9</ele><time>2026-08-05T21:08:22Z</time></trkpt>
<trkpt lat="35.195869" lon="-84.903507"><ele>217.6</ele><time>2026-08-05T21:08:24Z</time></trkpt>
<trkpt lat="35.195862" lon="-84.903555"><ele>217.9</ele><time>2026-08-05T21:08:27Z</time></trkpt>
<trkpt lat="35.195871" lon="-84.903589"><ele>217.9</ele><time>2026-08-05T21:08:29Z</time></trkpt>
<trkpt lat="35.195868" lon="-84.903637"><ele>217.9</ele><time>2026-08-05T21:08:32Z</time></trkpt>
<trkpt lat="35.195868" lon="-84.903684"><ele>217.9</ele><time>2026-08-05T21:08:35Z</time></trkpt>
<trkpt lat="35.195867" lon="-84.903721"><ele>217.6</ele><time>2026-08-05T21:08:37Z</time></trkpt>
<trkpt lat="35.195858" lon="-84.903755"><ele>218.2</ele><time>2026-08-05T21:08:39Z</time></trkpt>
<trkpt lat="35.195855" lon="-84.903791"><ele>218.5</ele><time>2026-08-05T21:08:41Z</time></trkpt>
<trkpt lat="35.195847" lon="-84.903825"><ele>218.5</ele><time>2026-08-05T21:08:43Z</time></trkpt>
<trkpt lat="35.195844" lon="-84.903859"><ele>219.5</ele><time>2026-08-05T21:08:45Z</time></trkpt>
<trkpt lat="35.195845" lon="-84.903895"><ele>219.2</ele><time>2026-08-05T21:08:47Z</time></trkpt>
<trkpt lat="35.195841" lon="-84.903931"><ele>218.5</ele><time>2026-08-05T21:08:49Z</time></trkpt>
<trkpt lat="35.195844" lon="-84.903969"><ele>218.5</ele><time>2026-08-05T21:08:51Z</time></trkpt>
<trkpt lat="35.195845" lon="-84.904004"><ele>218.8</ele><time>2026-08-05T21:08:53Z</time></trkpt>
<trkpt lat="35.19584" lon="-84.904052"><ele>219.5</ele><time>2026-08-05T21:08:56Z</time></trkpt>
<trkpt lat="35.19584" lon="-84.904101"><ele>219.5</ele><time>2026-08-05T21:08:59Z</time></trkpt>
<trkpt lat="35.195841" lon="-84.904135"><ele>219.5</ele><time>2026-08-05T21:09:01Z</time></trkpt>
<trkpt lat="35.195836" lon="-84.904184"><ele>220.4</ele><time>2026-08-05T21:09:04Z</time></trkpt>
<trkpt lat="35.195831" lon="-84.904232"><ele>221.6</ele><time>2026-08-05T21:09:07Z</time></trkpt>
<trkpt lat="35.195828" lon="-84.904283"><ele>221.3</ele><time>2026-08-05T21:09:10Z</time></trkpt>
<trkpt lat="35.195824" lon="-84.904318"><ele>221.3</ele><time>2026-08-05T21:09:12Z</time></trkpt>
<trkpt lat="35.195818" lon="-84.904351"><ele>221.3</ele><time>2026-08-05T21:09:14Z</time></trkpt>
<trkpt lat="35.195818" lon="-84.904387"><ele>221.0</ele><time>2026-08-05T21:09:16Z</time></trkpt>
<trkpt lat="35.195818" lon="-84.904422"><ele>219.8</ele><time>2026-08-05T21:09:18Z</time></trkpt>
<trkpt lat="35.195823" lon="-84.904458"><ele>218.8</ele><time>2026-08-05T21:09:20Z</time></trkpt>
<trkpt lat="35.195824" lon="-84.904495"><ele>218.5</ele><time>2026-08-05T21:09:22Z</time></trkpt>
<trkpt lat="35.195818" lon="-84.904544"><ele>219.5</ele><time>2026-08-05T21:09:25Z</time></trkpt>
<trkpt lat="35.195824" lon="-84.904579"><ele>219.8</ele><time>2026-08-05T21:09:27Z</time></trkpt>
<trkpt lat="35.195829" lon="-84.904613"><ele>219.8</ele><time>2026-08-05T21:09:29Z</time></trkpt>
<trkpt lat="35.195837" lon="-84.904645"><ele>220.1</ele><time>2026-08-05T21:09:31Z</time></trkpt>
<trkpt lat="35.195845" lon="-84.904678"><ele>220.4</ele><time>2026-08-05T21:09:33Z</time></trkpt>
<trkpt lat="35.195848" lon="-84.904714"><ele>220.1</ele><time>2026-08-05T21:09:35Z</time></trkpt>
<trkpt lat="35.195853" lon="-84.904749"><ele>219.8</ele><time>2026-08-05T21:09:37Z</time></trkpt>
<trkpt lat="35.195854" lon="-84.904785"><ele>219.5</ele><time>2026-08-05T21:09:39Z</time></trkpt>
<trkpt lat="35.195859" lon="-84.904821"><ele>219.2</ele><time>2026-08-05T21:09:41Z</time></trkpt>
<trkpt lat="35.195862" lon="-84.904869"><ele>218.2</ele><time>2026-08-05T21:09:44Z</time></trkpt>
<trkpt lat="35.195866" lon="-84.904903"><ele>218.2</ele><time>2026-08-05T21:09:46Z</time></trkpt>
<trkpt lat="35.19587" lon="-84.904938"><ele>218.2</ele><time>2026-08-05T21:09:48Z</time></trkpt>
<trkpt lat="35.195874" lon="-84.904971"><ele>218.2</ele><time>2026-08-05T21:09:50Z</time></trkpt>
<trkpt lat="35.195877" lon="-84.905013"><ele>217.9</ele><time>2026-08-05T21:09:53Z</time></trkpt>
<trkpt lat="35.195897" lon="-84.905058"><ele>218.5</ele><time>2026-08-05T21:09:56Z</time></trkpt>
<trkpt lat="35.195906" lon="-84.90509"><ele>218.8</ele><time>2026-08-05T21:09:58Z</time></trkpt>
<trkpt lat="35.195918" lon="-84.905123"><ele>219.2</ele><time>2026-08-05T21:10:00Z</time></trkpt>
<trkpt lat="35.19592" lon="-84.905158"><ele>218.2</ele><time>2026-08-05T21:10:02Z</time></trkpt>
<trkpt lat="35.195923" lon="-84.905196"><ele>218.5</ele><time>2026-08-05T21:10:04Z</time></trkpt>
<trkpt lat="35.195922" lon="-84.905236"><ele>219.2</ele><time>2026-08-05T21:10:06Z</time></trkpt>
<trkpt lat="35.195924" lon="-84.905274"><ele>218.8</ele><time>2026-08-05T21:10:08Z</time></trkpt>
<trkpt lat="35.19593" lon="-84.905308"><ele>217.9</ele><time>2026-08-05T21:10:10Z</time></trkpt>
<trkpt lat="35.19594" lon="-84.905343"><ele>218.2</ele><time>2026-08-05T21:10:12Z</time></trkpt>
<trkpt lat="35.195942" lon="-84.905378"><ele>218.5</ele><time>2026-08-05T21:10:14Z</time></trkpt>
<trkpt lat="35.195946" lon="-84.905412"><ele>218.2</ele><time>2026-08-05T21:10:16Z</time></trkpt>
<trkpt lat="35.195954" lon="-84.90546"><ele>218.2</ele><time>2026-08-05T21:10:19Z</time></trkpt>
<trkpt lat="35.19596" lon="-84.90551"><ele>218.5</ele><time>2026-08-05T21:10:22Z</time></trkpt>
<trkpt lat="35.195966" lon="-84.905559"><ele>218.5</ele><time>2026-08-05T21:10:25Z</time></trkpt>
<trkpt lat="35.195973" lon="-84.905609"><ele>218.5</ele><time>2026-08-05T21:10:28Z</time></trkpt>
<trkpt lat="35.19598" lon="-84.905654"><ele>218.5</ele><time>2026-08-05T21:10:31Z</time></trkpt>
<trkpt lat="35.195989" lon="-84.905687"><ele>217.9</ele><time>2026-08-05T21:10:33Z</time></trkpt>
<trkpt lat="35.195997" lon="-84.905735"><ele>217.3</ele><time>2026-08-05T21:10:36Z</time></trkpt>
<trkpt lat="35.195993" lon="-84.905772"><ele>216.7</ele><time>2026-08-05T21:10:38Z</time></trkpt>
<trkpt lat="35.195992" lon="-84.905808"><ele>217.0</ele><time>2026-08-05T21:10:40Z</time></trkpt>
<trkpt lat="35.195995" lon="-84.905845"><ele>216.7</ele><time>2026-08-05T21:10:42Z</time></trkpt>
<trkpt lat="35.195993" lon="-84.905882"><ele>216.4</ele><time>2026-08-05T21:10:44Z</time></trkpt>
<trkpt lat="35.195991" lon="-84.905918"><ele>216.1</ele><time>2026-08-05T21:10:46Z</time></trkpt>
<trkpt lat="35.195991" lon="-84.905955"><ele>216.1</ele><time>2026-08-05T21:10:48Z</time></trkpt>
<trkpt lat="35.195996" lon="-84.905991"><ele>215.5</ele><time>2026-08-05T21:10:50Z</time></trkpt>
<trkpt lat="35.195992" lon="-84.90603"><ele>215.5</ele><time>2026-08-05T21:10:52Z</time></trkpt>
<trkpt lat="35.195994" lon="-84.906069"><ele>215.8</ele><time>2026-08-05T21:10:54Z</time></trkpt>
<trkpt lat="35.195997" lon="-84.906108"><ele>216.1</ele><time>2026-08-05T21:10:56Z</time></trkpt>
<trkpt lat="35.196" lon="-84.906144"><ele>216.4</ele><time>2026-08-05T21:10:58Z</time></trkpt>
<trkpt lat="35.196001" lon="-84.906192"><ele>216.4</ele><time>2026-08-05T21:11:01Z</time></trkpt>
<trkpt lat="35.196004" lon="-84.906238"><ele>217.0</ele><time>2026-08-05T21:11:04Z</time></trkpt>
<trkpt lat="35.196011" lon="-84.906284"><ele>216.7</ele><time>2026-08-05T21:11:07Z</time></trkpt>
<trkpt lat="35.196022" lon="-84.906332"><ele>217.0</ele><time>2026-08-05T21:11:10Z</time></trkpt>
<trkpt lat="35.196026" lon="-84.906383"><ele>217.0</ele><time>2026-08-05T21:11:13Z</time></trkpt>
<trkpt lat="35.196035" lon="-84.906417"><ele>217.0</ele><time>2026-08-05T21:11:15Z</time></trkpt>
<trkpt lat="35.196037" lon="-84.906455"><ele>217.3</ele><time>2026-08-05T21:11:17Z</time></trkpt>
<trkpt lat="35.196039" lon="-84.906494"><ele>217.3</ele><time>2026-08-05T21:11:19Z</time></trkpt>
<trkpt lat="35.196042" lon="-84.906535"><ele>217.6</ele><time>2026-08-05T21:11:21Z</time></trkpt>
<trkpt lat="35.196043" lon="-84.906569"><ele>218.2</ele><time>2026-08-05T21:11:23Z</time></trkpt>
<trkpt lat="35.196042" lon="-84.906608"><ele>218.2</ele><time>2026-08-05T21:11:25Z</time></trkpt>
<trkpt lat="35.196041" lon="-84.906643"><ele>218.5</ele><time>2026-08-05T21:11:27Z</time></trkpt>
<trkpt lat="35.196039" lon="-84.906682"><ele>218.5</ele><time>2026-08-05T21:11:29Z</time></trkpt>
<trkpt lat="35.19604" lon="-84.906717"><ele>218.8</ele><time>2026-08-05T21:11:31Z</time></trkpt>
<trkpt lat="35.196042" lon="-84.906755"><ele>219.2</ele><time>2026-08-05T21:11:33Z</time></trkpt>
<trkpt lat="35.196048" lon="-84.906792"><ele>219.5</ele><time>2026-08-05T21:11:35Z</time></trkpt>
<trkpt lat="35.196048" lon="-84.906829"><ele>219.8</ele><time>2026-08-05T21:11:37Z</time></trkpt>
<trkpt lat="35.196048" lon="-84.906864"><ele>219.2</ele><time>2026-08-05T21:11:39Z</time></trkpt>
<trkpt lat="35.196053" lon="-84.9069"><ele>218.8</ele><time>2026-08-05T21:11:41Z</time></trkpt>
<trkpt lat="35.196053" lon="-84.906934"><ele>218.8</ele><time>2026-08-05T21:11:43Z</time></trkpt>
<trkpt lat="35.196058" lon="-84.906967"><ele>219.5</ele><time>2026-08-05T21:11:45Z</time></trkpt>
<trkpt lat="35.196059" lon="-84.907014"><ele>218.5</ele><time>2026-08-05T21:11:48Z</time></trkpt>
<trkpt lat="35.196048" lon="-84.907056"><ele>218.8</ele><time>2026-08-05T21:11:51Z</time></trkpt>
<trkpt lat="35.196038" lon="-84.907088"><ele>219.2</ele><time>2026-08-05T21:11:53Z</time></trkpt>
<trkpt lat="35.196036" lon="-84.907124"><ele>219.2</ele><time>2026-08-05T21:11:55Z</time></trkpt>
<trkpt lat="35.196035" lon="-84.907162"><ele>219.2</ele><time>2026-08-05T21:11:57Z</time></trkpt>
<trkpt lat="35.196027" lon="-84.9072"><ele>219.2</ele><time>2026-08-05T21:11:59Z</time></trkpt>
<trkpt lat="35.196027" lon="-84.907237"><ele>218.8</ele><time>2026-08-05T21:12:01Z</time></trkpt>
<trkpt lat="35.196024" lon="-84.907273"><ele>219.2</ele><time>2026-08-05T21:12:03Z</time></trkpt>
<trkpt lat="35.196019" lon="-84.907309"><ele>218.8</ele><time>2026-08-05T21:12:05Z</time></trkpt>
<trkpt lat="35.196015" lon="-84.907345"><ele>219.2</ele><time>2026-08-05T21:12:07Z</time></trkpt>
<trkpt lat="35.196005" lon="-84.907393"><ele>218.8</ele><time>2026-08-05T21:12:10Z</time></trkpt>
<trkpt lat="35.195995" lon="-84.907439"><ele>218.5</ele><time>2026-08-05T21:12:13Z</time></trkpt>
<trkpt lat="35.195983" lon="-84.907483"><ele>218.8</ele><time>2026-08-05T21:12:16Z</time></trkpt>
<trkpt lat="35.195969" lon="-84.90753"><ele>218.2</ele><time>2026-08-05T21:12:19Z</time></trkpt>
<trkpt lat="35.195959" lon="-84.907561"><ele>218.2</ele><time>2026-08-05T21:12:21Z</time></trkpt>
<trkpt lat="35.195951" lon="-84.907595"><ele>218.2</ele><time>2026-08-05T21:12:23Z</time></trkpt>
<trkpt lat="35.195942" lon="-84.907627"><ele>218.5</ele><time>2026-08-05T21:12:25Z</time></trkpt>
<trkpt lat="35.195933" lon="-84.907661"><ele>218.5</ele><time>2026-08-05T21:12:27Z</time></trkpt>
<trkpt lat="35.195927" lon="-84.907696"><ele>218.5</ele><time>2026-08-05T21:12:29Z</time></trkpt>
<trkpt lat="35.195921" lon="-84.907731"><ele>218.5</ele><time>2026-08-05T21:12:31Z</time></trkpt>
<trkpt lat="35.195921" lon="-84.907768"><ele>218.5</ele><time>2026-08-05T21:12:33Z</time></trkpt>
<trkpt lat="35.195916" lon="-84.907805"><ele>218.5</ele><time>2026-08-05T21:12:35Z</time></trkpt>
<trkpt lat="35.195909" lon="-84.907838"><ele>218.8</ele><time>2026-08-05T21:12:37Z</time></trkpt>
<trkpt lat="35.195904" lon="-84.907873"><ele>218.8</ele><time>2026-08-05T21:12:39Z</time></trkpt>
<trkpt lat="35.1959" lon="-84.907921"><ele>218.8</ele><time>2026-08-05T21:12:42Z</time></trkpt>
<trkpt lat="35.195889" lon="-84.907966"><ele>218.8</ele><time>2026-08-05T21:12:45Z</time></trkpt>
<trkpt lat="35.19588" lon="-84.908014"><ele>218.8</ele><time>2026-08-05T21:12:48Z</time></trkpt>
<trkpt lat="35.195868" lon="-84.908061"><ele>218.5</ele><time>2026-08-05T21:12:51Z</time></trkpt>
<trkpt lat="35.195857" lon="-84.908094"><ele>218.2</ele><time>2026-08-05T21:12:53Z</time></trkpt>
<trkpt lat="35.195849" lon="-84.908129"><ele>218.2</ele><time>2026-08-05T21:12:55Z</time></trkpt>
<trkpt lat="35.195838" lon="-84.908165"><ele>218.8</ele><time>2026-08-05T21:12:57Z</time></trkpt>
<trkpt lat="35.195828" lon="-84.908199"><ele>218.8</ele><time>2026-08-05T21:12:59Z</time></trkpt>
<trkpt lat="35.195819" lon="-84.908235"><ele>218.8</ele><time>2026-08-05T21:13:01Z</time></trkpt>
<trkpt lat="35.195812" lon="-84.908272"><ele>219.2</ele><time>2026-08-05T21:13:03Z</time></trkpt>
<trkpt lat="35.195808" lon="-84.908307"><ele>219.2</ele><time>2026-08-05T21:13:05Z</time></trkpt>
<trkpt lat="35.195808" lon="-84.908344"><ele>219.5</ele><time>2026-08-05T21:13:07Z</time></trkpt>
<trkpt lat="35.195808" lon="-84.908382"><ele>219.8</ele><time>2026-08-05T21:13:09Z</time></trkpt>
<trkpt lat="35.195808" lon="-84.908421"><ele>220.1</ele><time>2026-08-05T21:13:11Z</time></trkpt>
<trkpt lat="35.195811" lon="-84.908459"><ele>220.1</ele><time>2026-08-05T21:13:13Z</time></trkpt>
<trkpt lat="35.19581" lon="-84.908496"><ele>220.1</ele><time>2026-08-05T21:13:15Z</time></trkpt>
<trkpt lat="35.195809" lon="-84.908532"><ele>220.4</ele><time>2026-08-05T21:13:17Z</time></trkpt>
<trkpt lat="35.195806" lon="-84.908568"><ele>220.7</ele><time>2026-08-05T21:13:19Z</time></trkpt>
<trkpt lat="35.195805" lon="-84.908605"><ele>220.4</ele><time>2026-08-05T21:13:21Z</time></trkpt>
<trkpt lat="35.195801" lon="-84.908638"><ele>220.7</ele><time>2026-08-05T21:13:23Z</time></trkpt>
<trkpt lat="35.195802" lon="-84.908674"><ele>221.0</ele><time>2026-08-05T21:13:25Z</time></trkpt>
<trkpt lat="35.195799" lon="-84.90871"><ele>221.0</ele><time>2026-08-05T21:13:27Z</time></trkpt>
<trkpt lat="35.195797" lon="-84.908747"><ele>221.0</ele><time>2026-08-05T21:13:29Z</time></trkpt>
<trkpt lat="35.195796" lon="-84.908784"><ele>221.0</ele><time>2026-08-05T21:13:31Z</time></trkpt>
<trkpt lat="35.195793" lon="-84.908821"><ele>220.7</ele><time>2026-08-05T21:13:33Z</time></trkpt>
<trkpt lat="35.195794" lon="-84.908857"><ele>220.7</ele><time>2026-08-05T21:13:35Z</time></trkpt>
<trkpt lat="35.195804" lon="-84.908905"><ele>221.3</ele><time>2026-08-05T21:13:38Z</time></trkpt>
<trkpt lat="35.195826" lon="-84.908945"><ele>221.6</ele><time>2026-08-05T21:13:41Z</time></trkpt>
<trkpt lat="35.195858" lon="-84.90897"><ele>221.9</ele><time>2026-08-05T21:13:44Z</time></trkpt>
<trkpt lat="35.195894" lon="-84.908985"><ele>221.9</ele><time>2026-08-05T21:13:47Z</time></trkpt>
<trkpt lat="35.195932" lon="-84.908992"><ele>221.9</ele><time>2026-08-05T21:13:50Z</time></trkpt>
<trkpt lat="35.195972" lon="-84.908994"><ele>222.2</ele><time>2026-08-05T21:13:53Z</time></trkpt>
<trkpt lat="35.196012" lon="-84.908995"><ele>222.2</ele><time>2026-08-05T21:13:56Z</time></trkpt>
<trkpt lat="35.196041" lon="-84.908993"><ele>222.2</ele><time>2026-08-05T21:13:58Z</time></trkpt>
<trkpt lat="35.196071" lon="-84.908988"><ele>222.2</ele><time>2026-08-05T21:14:00Z</time></trkpt>
<trkpt lat="35.196101" lon="-84.908986"><ele>222.5</ele><time>2026-08-05T21:14:02Z</time></trkpt>
<trkpt lat="35.19613" lon="-84.90898"><ele>222.5</ele><time>2026-08-05T21:14:04Z</time></trkpt>
<trkpt lat="35.19616" lon="-84.908974"><ele>222.5</ele><time>2026-08-05T21:14:06Z</time></trkpt>
<trkpt lat="35.196189" lon="-84.908965"><ele>222.2</ele><time>2026-08-05T21:14:08Z</time></trkpt>
<trkpt lat="35.196216" lon="-84.908954"><ele>222.8</ele><time>2026-08-05T21:14:10Z</time></trkpt>
<trkpt lat="35.196247" lon="-84.908946"><ele>222.5</ele><time>2026-08-05T21:14:12Z</time></trkpt>
<trkpt lat="35.196277" lon="-84.908938"><ele>221.9</ele><time>2026-08-05T21:14:14Z</time></trkpt>
<trkpt lat="35.196308" lon="-84.908929"><ele>221.9</ele><time>2026-08-05T21:14:16Z</time></trkpt>
<trkpt lat="35.196338" lon="-84.908918"><ele>221.6</ele><time>2026-08-05T21:14:18Z</time></trkpt>
<trkpt lat="35.196367" lon="-84.908907"><ele>221.6</ele><time>2026-08-05T21:14:20Z</time></trkpt>
<trkpt lat="35.196397" lon="-84.908894"><ele>221.6</ele><time>2026-08-05T21:14:22Z</time></trkpt>
<trkpt lat="35.196427" lon="-84.908884"><ele>221.6</ele><time>2026-08-05T21:14:24Z</time></trkpt>
<trkpt lat="35.196456" lon="-84.908876"><ele>221.9</ele><time>2026-08-05T21:14:26Z</time></trkpt>
<trkpt lat="35.196486" lon="-84.908864"><ele>221.9</ele><time>2026-08-05T21:14:28Z</time></trkpt>
<trkpt lat="35.196514" lon="-84.908853"><ele>221.9</ele><time>2026-08-05T21:14:30Z</time></trkpt>
<trkpt lat="35.196541" lon="-84.90884"><ele>221.9</ele><time>2026-08-05T21:14:32Z</time></trkpt>
<trkpt lat="35.19657" lon="-84.908825"><ele>221.9</ele><time>2026-08-05T21:14:34Z</time></trkpt>
<trkpt lat="35.196598" lon="-84.908813"><ele>221.6</ele><time>2026-08-05T21:14:36Z</time></trkpt>
<trkpt lat="35.196626" lon="-84.908801"><ele>221.3</ele><time>2026-08-05T21:14:38Z</time></trkpt>
<trkpt lat="35.196652" lon="-84.908788"><ele>221.3</ele><time>2026-08-05T21:14:40Z</time></trkpt>
<trkpt lat="35.196677" lon="-84.908771"><ele>221.0</ele><time>2026-08-05T21:14:42Z</time></trkpt>
<trkpt lat="35.196701" lon="-84.908754"><ele>221.0</ele><time>2026-08-05T21:14:44Z</time></trkpt>
<trkpt lat="35.196727" lon="-84.908737"><ele>221.0</ele><time>2026-08-05T21:14:46Z</time></trkpt>
<trkpt lat="35.196756" lon="-84.908722"><ele>221.0</ele><time>2026-08-05T21:14:48Z</time></trkpt>
<trkpt lat="35.196783" lon="-84.908705"><ele>220.7</ele><time>2026-08-05T21:14:50Z</time></trkpt>
<trkpt lat="35.196808" lon="-84.90869"><ele>220.7</ele><time>2026-08-05T21:14:52Z</time></trkpt>
<trkpt lat="35.196836" lon="-84.908677"><ele>220.4</ele><time>2026-08-05T21:14:54Z</time></trkpt>
<trkpt lat="35.196862" lon="-84.908661"><ele>220.7</ele><time>2026-08-05T21:14:56Z</time></trkpt>
<trkpt lat="35.196889" lon="-84.908648"><ele>220.7</ele><time>2026-08-05T21:14:58Z</time></trkpt>
<trkpt lat="35.196916" lon="-84.908634"><ele>220.7</ele><time>2026-08-05T21:15:00Z</time></trkpt>
<trkpt lat="35.196953" lon="-84.908612"><ele>221.0</ele><time>2026-08-05T21:15:03Z</time></trkpt>
<trkpt lat="35.196989" lon="-84.908588"><ele>220.7</ele><time>2026-08-05T21:15:06Z</time></trkpt>
<trkpt lat="35.197012" lon="-84.908568"><ele>220.7</ele><time>2026-08-05T21:15:08Z</time></trkpt>
<trkpt lat="35.197042" lon="-84.90854"><ele>220.7</ele><time>2026-08-05T21:15:11Z</time></trkpt>
<trkpt lat="35.197065" lon="-84.9085"><ele>220.7</ele><time>2026-08-05T21:15:14Z</time></trkpt>
<trkpt lat="35.197071" lon="-84.908453"><ele>220.4</ele><time>2026-08-05T21:15:17Z</time></trkpt>
<trkpt lat="35.197064" lon="-84.908406"><ele>220.4</ele><time>2026-08-05T21:15:20Z</time></trkpt>
<trkpt lat="35.197043" lon="-84.908363"><ele>221.3</ele><time>2026-08-05T21:15:23Z</time></trkpt>
<trkpt lat="35.19703" lon="-84.908331"><ele>221.3</ele><time>2026-08-05T21:15:25Z</time></trkpt>
<trkpt lat="35.197018" lon="-84.908297"><ele>221.6</ele><time>2026-08-05T21:15:27Z</time></trkpt>
<trkpt lat="35.197011" lon="-84.908261"><ele>221.9</ele><time>2026-08-05T21:15:29Z</time></trkpt>
<trkpt lat="35.197009" lon="-84.90821"><ele>221.9</ele><time>2026-08-05T21:15:32Z</time></trkpt>
<trkpt lat="35.19701" lon="-84.908173"><ele>221.3</ele><time>2026-08-05T21:15:34Z</time></trkpt>
<trkpt lat="35.197012" lon="-84.908134"><ele>221.3</ele><time>2026-08-05T21:15:36Z</time></trkpt>
<trkpt lat="35.197013" lon="-84.908097"><ele>221.0</ele><time>2026-08-05T21:15:38Z</time></trkpt>
<trkpt lat="35.197014" lon="-84.908061"><ele>220.7</ele><time>2026-08-05T21:15:40Z</time></trkpt>
<trkpt lat="35.197014" lon="-84.908014"><ele>220.4</ele><time>2026-08-05T21:15:43Z</time></trkpt>
<trkpt lat="35.197014" lon="-84.907964"><ele>220.4</ele><time>2026-08-05T21:15:46Z</time></trkpt>
<trkpt lat="35.197014" lon="-84.907931"><ele>220.7</ele><time>2026-08-05T21:15:48Z</time></trkpt>
<trkpt lat="35.197015" lon="-84.907885"><ele>221.3</ele><time>2026-08-05T21:15:51Z</time></trkpt>
<trkpt lat="35.197019" lon="-84.907838"><ele>221.3</ele><time>2026-08-05T21:15:54Z</time></trkpt>
<trkpt lat="35.197018" lon="-84.907794"><ele>221.3</ele><time>2026-08-05T21:15:57Z</time></trkpt>
<trkpt lat="35.197017" lon="-84.907743"><ele>221.9</ele><time>2026-08-05T21:16:00Z</time></trkpt>
<trkpt lat="35.197011" lon="-84.907708"><ele>222.2</ele><time>2026-08-05T21:16:02Z</time></trkpt>
<trkpt lat="35.197006" lon="-84.90767"><ele>222.2</ele><time>2026-08-05T21:16:04Z</time></trkpt>
<trkpt lat="35.197" lon="-84.907634"><ele>222.5</ele><time>2026-08-05T21:16:06Z</time></trkpt>
<trkpt lat="35.196992" lon="-84.9076"><ele>222.8</ele><time>2026-08-05T21:16:08Z</time></trkpt>
<trkpt lat="35.196986" lon="-84.907565"><ele>222.8</ele><time>2026-08-05T21:16:10Z</time></trkpt>
<trkpt lat="35.196988" lon="-84.907525"><ele>221.9</ele><time>2026-08-05T21:16:12Z</time></trkpt>
<trkpt lat="35.196993" lon="-84.907483"><ele>221.6</ele><time>2026-08-05T21:16:14Z</time></trkpt>
<trkpt lat="35.196993" lon="-84.907438"><ele>221.3</ele><time>2026-08-05T21:16:16Z</time></trkpt>
<trkpt lat="35.196987" lon="-84.907395"><ele>221.3</ele><time>2026-08-05T21:16:18Z</time></trkpt>
<trkpt lat="35.196979" lon="-84.907357"><ele>221.9</ele><time>2026-08-05T21:16:20Z</time></trkpt>
<trkpt lat="35.196972" lon="-84.907317"><ele>222.2</ele><time>2026-08-05T21:16:22Z</time></trkpt>
<trkpt lat="35.196969" lon="-84.907276"><ele>221.6</ele><time>2026-08-05T21:16:24Z</time></trkpt>
<trkpt lat="35.196968" lon="-84.90724"><ele>222.2</ele><time>2026-08-05T21:16:26Z</time></trkpt>
<trkpt lat="35.196963" lon="-84.907202"><ele>221.9</ele><time>2026-08-05T21:16:28Z</time></trkpt>
<trkpt lat="35.196956" lon="-84.907165"><ele>221.3</ele><time>2026-08-05T21:16:30Z</time></trkpt>
<trkpt lat="35.196953" lon="-84.907125"><ele>221.0</ele><time>2026-08-05T21:16:32Z</time></trkpt>
<trkpt lat="35.196944" lon="-84.907089"><ele>220.7</ele><time>2026-08-05T21:16:34Z</time></trkpt>
<trkpt lat="35.196936" lon="-84.907055"><ele>220.4</ele><time>2026-08-05T21:16:36Z</time></trkpt>
<trkpt lat="35.196929" lon="-84.90702"><ele>220.4</ele><time>2026-08-05T21:16:38Z</time></trkpt>
<trkpt lat="35.196921" lon="-84.906987"><ele>220.7</ele><time>2026-08-05T21:16:40Z</time></trkpt>
<trkpt lat="35.196913" lon="-84.906949"><ele>221.0</ele><time>2026-08-05T21:16:42Z</time></trkpt>
<trkpt lat="35.196906" lon="-84.906915"><ele>221.3</ele><time>2026-08-05T21:16:44Z</time></trkpt>
<trkpt lat="35.196901" lon="-84.906879"><ele>221.3</ele><time>2026-08-05T21:16:46Z</time></trkpt>
<trkpt lat="35.196895" lon="-84.906844"><ele>221.3</ele><time>2026-08-05T21:16:48Z</time></trkpt>
<trkpt lat="35.196888" lon="-84.906806"><ele>221.6</ele><time>2026-08-05T21:16:50Z</time></trkpt>
<trkpt lat="35.196887" lon="-84.906768"><ele>221.6</ele><time>2026-08-05T21:16:52Z</time></trkpt>
<trkpt lat="35.196888" lon="-84.906729"><ele>221.9</ele><time>2026-08-05T21:16:54Z</time></trkpt>
<trkpt lat="35.196891" lon="-84.906691"><ele>221.6</ele><time>2026-08-05T21:16:56Z</time></trkpt>
<trkpt lat="35.196892" lon="-84.906653"><ele>221.9</ele><time>2026-08-05T21:16:58Z</time></trkpt>
<trkpt lat="35.196894" lon="-84.906616"><ele>221.9</ele><time>2026-08-05T21:17:00Z</time></trkpt>
<trkpt lat="35.196893" lon="-84.906579"><ele>221.9</ele><time>2026-08-05T21:17:02Z</time></trkpt>
<trkpt lat="35.19689" lon="-84.90654"><ele>221.6</ele><time>2026-08-05T21:17:04Z</time></trkpt>
<trkpt lat="35.196884" lon="-84.906502"><ele>221.6</ele><time>2026-08-05T21:17:06Z</time></trkpt>
<trkpt lat="35.196883" lon="-84.906466"><ele>221.6</ele><time>2026-08-05T21:17:08Z</time></trkpt>
<trkpt lat="35.196882" lon="-84.906428"><ele>221.6</ele><time>2026-08-05T21:17:10Z</time></trkpt>
<trkpt lat="35.196883" lon="-84.906387"><ele>222.2</ele><time>2026-08-05T21:17:12Z</time></trkpt>
<trkpt lat="35.196883" lon="-84.906347"><ele>222.5</ele><time>2026-08-05T21:17:14Z</time></trkpt>
<trkpt lat="35.196879" lon="-84.90631"><ele>222.2</ele><time>2026-08-05T21:17:16Z</time></trkpt>
<trkpt lat="35.196879" lon="-84.906273"><ele>221.3</ele><time>2026-08-05T21:17:18Z</time></trkpt>
<trkpt lat="35.196882" lon="-84.906234"><ele>221.0</ele><time>2026-08-05T21:17:20Z</time></trkpt>
<trkpt lat="35.196876" lon="-84.906194"><ele>220.4</ele><time>2026-08-05T21:17:22Z</time></trkpt>
<trkpt lat="35.196878" lon="-84.906153"><ele>220.7</ele><time>2026-08-05T21:17:24Z</time></trkpt>
<trkpt lat="35.196875" lon="-84.906112"><ele>221.9</ele><time>2026-08-05T21:17:26Z</time></trkpt>
<trkpt lat="35.196874" lon="-84.906076"><ele>221.9</ele><time>2026-08-05T21:17:28Z</time></trkpt>
<trkpt lat="35.196867" lon="-84.906039"><ele>221.3</ele><time>2026-08-05T21:17:30Z</time></trkpt>
<trkpt lat="35.196864" lon="-84.905997"><ele>221.3</ele><time>2026-08-05T21:17:32Z</time></trkpt>
<trkpt lat="35.196857" lon="-84.90596"><ele>222.2</ele><time>2026-08-05T21:17:34Z</time></trkpt>
<trkpt lat="35.196855" lon="-84.905922"><ele>223.1</ele><time>2026-08-05T21:17:36Z</time></trkpt>
<trkpt lat="35.19685" lon="-84.905883"><ele>224.0</ele><time>2026-08-05T21:17:38Z</time></trkpt>
<trkpt lat="35.196847" lon="-84.905847"><ele>224.3</ele><time>2026-08-05T21:17:40Z</time></trkpt>
<trkpt lat="35.196844" lon="-84.905811"><ele>224.6</ele><time>2026-08-05T21:17:42Z</time></trkpt>
<trkpt lat="35.19684" lon="-84.905774"><ele>225.2</ele><time>2026-08-05T21:17:44Z</time></trkpt>
<trkpt lat="35.196836" lon="-84.905738"><ele>224.6</ele><time>2026-08-05T21:17:46Z</time></trkpt>
<trkpt lat="35.196833" lon="-84.905693"><ele>222.2</ele><time>2026-08-05T21:17:49Z</time></trkpt>
<trkpt lat="35.196822" lon="-84.905662"><ele>219.8</ele><time>2026-08-05T21:17:51Z</time></trkpt>
<trkpt lat="35.196819" lon="-84.905615"><ele>219.8</ele><time>2026-08-05T21:17:54Z</time></trkpt>
<trkpt lat="35.196821" lon="-84.905581"><ele>219.2</ele><time>2026-08-05T21:17:56Z</time></trkpt>
<trkpt lat="35.196815" lon="-84.905547"><ele>219.5</ele><time>2026-08-05T21:17:58Z</time></trkpt>
<trkpt lat="35.196806" lon="-84.905514"><ele>219.5</ele><time>2026-08-05T21:18:00Z</time></trkpt>
<trkpt lat="35.196801" lon="-84.90548"><ele>219.2</ele><time>2026-08-05T21:18:02Z</time></trkpt>
<trkpt lat="35.196801" lon="-84.905441"><ele>219.8</ele><time>2026-08-05T21:18:04Z</time></trkpt>
<trkpt lat="35.196806" lon="-84.905403"><ele>219.5</ele><time>2026-08-05T21:18:06Z</time></trkpt>
<trkpt lat="35.196805" lon="-84.905364"><ele>219.5</ele><time>2026-08-05T21:18:08Z</time></trkpt>
<trkpt lat="35.196802" lon="-84.905326"><ele>219.5</ele><time>2026-08-05T21:18:10Z</time></trkpt>
<trkpt lat="35.196801" lon="-84.90529"><ele>219.2</ele><time>2026-08-05T21:18:12Z</time></trkpt>
<trkpt lat="35.196801" lon="-84.905252"><ele>219.2</ele><time>2026-08-05T21:18:14Z</time></trkpt>
<trkpt lat="35.196797" lon="-84.905216"><ele>220.1</ele><time>2026-08-05T21:18:16Z</time></trkpt>
<trkpt lat="35.196797" lon="-84.905176"><ele>219.5</ele><time>2026-08-05T21:18:18Z</time></trkpt>
<trkpt lat="35.196794" lon="-84.905136"><ele>220.1</ele><time>2026-08-05T21:18:20Z</time></trkpt>
<trkpt lat="35.19679" lon="-84.905099"><ele>219.8</ele><time>2026-08-05T21:18:22Z</time></trkpt>
<trkpt lat="35.196788" lon="-84.905062"><ele>219.5</ele><time>2026-08-05T21:18:24Z</time></trkpt>
<trkpt lat="35.196784" lon="-84.905026"><ele>219.5</ele><time>2026-08-05T21:18:26Z</time></trkpt>
<trkpt lat="35.196779" lon="-84.904991"><ele>220.4</ele><time>2026-08-05T21:18:28Z</time></trkpt>
<trkpt lat="35.196776" lon="-84.904955"><ele>220.1</ele><time>2026-08-05T21:18:30Z</time></trkpt>
<trkpt lat="35.196771" lon="-84.904921"><ele>220.4</ele><time>2026-08-05T21:18:32Z</time></trkpt>
<trkpt lat="35.196764" lon="-84.904888"><ele>220.4</ele><time>2026-08-05T21:18:34Z</time></trkpt>
<trkpt lat="35.196758" lon="-84.904851"><ele>220.4</ele><time>2026-08-05T21:18:36Z</time></trkpt>
<trkpt lat="35.19675" lon="-84.904819"><ele>220.4</ele><time>2026-08-05T21:18:38Z</time></trkpt>
<trkpt lat="35.196738" lon="-84.90477"><ele>221.3</ele><time>2026-08-05T21:18:41Z</time></trkpt>
<trkpt lat="35.196734" lon="-84.904736"><ele>221.6</ele><time>2026-08-05T21:18:43Z</time></trkpt>
<trkpt lat="35.196735" lon="-84.9047"><ele>221.0</ele><time>2026-08-05T21:18:45Z</time></trkpt>
<trkpt lat="35.196739" lon="-84.904664"><ele>220.4</ele><time>2026-08-05T21:18:47Z</time></trkpt>
<trkpt lat="35.196737" lon="-84.904626"><ele>220.4</ele><time>2026-08-05T21:18:49Z</time></trkpt>
<trkpt lat="35.196733" lon="-84.90459"><ele>219.5</ele><time>2026-08-05T21:18:51Z</time></trkpt>
<trkpt lat="35.196731" lon="-84.904553"><ele>219.5</ele><time>2026-08-05T21:18:53Z</time></trkpt>
<trkpt lat="35.196728" lon="-84.904518"><ele>219.5</ele><time>2026-08-05T21:18:55Z</time></trkpt>
<trkpt lat="35.196727" lon="-84.904482"><ele>219.2</ele><time>2026-08-05T21:18:57Z</time></trkpt>
<trkpt lat="35.196729" lon="-84.904443"><ele>218.8</ele><time>2026-08-05T21:18:59Z</time></trkpt>
<trkpt lat="35.196725" lon="-84.904405"><ele>219.8</ele><time>2026-08-05T21:19:01Z</time></trkpt>
<trkpt lat="35.196721" lon="-84.904367"><ele>220.4</ele><time>2026-08-05T21:19:03Z</time></trkpt>
<trkpt lat="35.196721" lon="-84.904329"><ele>221.0</ele><time>2026-08-05T21:19:05Z</time></trkpt>
<trkpt lat="35.19672" lon="-84.904293"><ele>221.0</ele><time>2026-08-05T21:19:07Z</time></trkpt>
<trkpt lat="35.196718" lon="-84.904255"><ele>221.0</ele><time>2026-08-05T21:19:09Z</time></trkpt>
<trkpt lat="35.196722" lon="-84.904219"><ele>220.4</ele><time>2026-08-05T21:19:11Z</time></trkpt>
<trkpt lat="35.196729" lon="-84.90418"><ele>220.1</ele><time>2026-08-05T21:19:13Z</time></trkpt>
<trkpt lat="35.196733" lon="-84.904142"><ele>220.1</ele><time>2026-08-05T21:19:15Z</time></trkpt>
<trkpt lat="35.196737" lon="-84.904104"><ele>220.1</ele><time>2026-08-05T21:19:17Z</time></trkpt>
<trkpt lat="35.19674" lon="-84.904065"><ele>220.1</ele><time>2026-08-05T21:19:19Z</time></trkpt>
<trkpt lat="35.19674" lon="-84.904027"><ele>220.4</ele><time>2026-08-05T21:19:21Z</time></trkpt>
<trkpt lat="35.196741" lon="-84.903993"><ele>220.4</ele><time>2026-08-05T21:19:23Z</time></trkpt>
<trkpt lat="35.196742" lon="-84.903956"><ele>220.7</ele><time>2026-08-05T21:19:25Z</time></trkpt>
<trkpt lat="35.196744" lon="-84.903922"><ele>220.4</ele><time>2026-08-05T21:19:27Z</time></trkpt>
<trkpt lat="35.196747" lon="-84.903886"><ele>220.4</ele><time>2026-08-05T21:19:29Z</time></trkpt>
<trkpt lat="35.19675" lon="-84.903852"><ele>220.4</ele><time>2026-08-05T21:19:31Z</time></trkpt>
<trkpt lat="35.196754" lon="-84.903813"><ele>220.1</ele><time>2026-08-05T21:19:33Z</time></trkpt>
<trkpt lat="35.196758" lon="-84.903775"><ele>220.1</ele><time>2026-08-05T21:19:35Z</time></trkpt>
<trkpt lat="35.196754" lon="-84.903735"><ele>219.8</ele><time>2026-08-05T21:19:37Z</time></trkpt>
<trkpt lat="35.19676" lon="-84.903686"><ele>219.5</ele><time>2026-08-05T21:19:40Z</time></trkpt>
<trkpt lat="35.196764" lon="-84.903651"><ele>219.2</ele><time>2026-08-05T21:19:42Z</time></trkpt>
<trkpt lat="35.196767" lon="-84.903617"><ele>218.8</ele><time>2026-08-05T21:19:44Z</time></trkpt>
<trkpt lat="35.196768" lon="-84.903581"><ele>218.5</ele><time>2026-08-05T21:19:46Z</time></trkpt>
<trkpt lat="35.196774" lon="-84.903546"><ele>218.5</ele><time>2026-08-05T21:19:48Z</time></trkpt>
<trkpt lat="35.19677" lon="-84.903496"><ele>219.2</ele><time>2026-08-05T21:19:51Z</time></trkpt>
<trkpt lat="35.19677" lon="-84.90346"><ele>219.8</ele><time>2026-08-05T21:19:53Z</time></trkpt>
<trkpt lat="35.196773" lon="-84.903422"><ele>220.4</ele><time>2026-08-05T21:19:55Z</time></trkpt>
<trkpt lat="35.196778" lon="-84.903387"><ele>220.1</ele><time>2026-08-05T21:19:57Z</time></trkpt>
<trkpt lat="35.196781" lon="-84.903337"><ele>219.2</ele><time>2026-08-05T21:20:00Z</time></trkpt>
<trkpt lat="35.196785" lon="-84.903301"><ele>219.2</ele><time>2026-08-05T21:20:02Z</time></trkpt>
<trkpt lat="35.196788" lon="-84.903265"><ele>219.5</ele><time>2026-08-05T21:20:04Z</time></trkpt>
<trkpt lat="35.196792" lon="-84.903228"><ele>219.5</ele><time>2026-08-05T21:20:06Z</time></trkpt>
<trkpt lat="35.19679" lon="-84.903191"><ele>219.8</ele><time>2026-08-05T21:20:08Z</time></trkpt>
<trkpt lat="35.19679" lon="-84.903157"><ele>219.8</ele><time>2026-08-05T21:20:10Z</time></trkpt>
<trkpt lat="35.196799" lon="-84.903125"><ele>221.6</ele><time>2026-08-05T21:20:12Z</time></trkpt>
<trkpt lat="35.1968" lon="-84.903075"><ele>221.3</ele><time>2026-08-05T21:20:15Z</time></trkpt>
<trkpt lat="35.196799" lon="-84.90304"><ele>221.3</ele><time>2026-08-05T21:20:17Z</time></trkpt>
<trkpt lat="35.196799" lon="-84.903001"><ele>221.0</ele><time>2026-08-05T21:20:19Z</time></trkpt>
<trkpt lat="35.196796" lon="-84.902964"><ele>221.3</ele><time>2026-08-05T21:20:21Z</time></trkpt>
<trkpt lat="35.196802" lon="-84.902927"><ele>220.1</ele><time>2026-08-05T21:20:23Z</time></trkpt>
<trkpt lat="35.196801" lon="-84.902886"><ele>220.4</ele><time>2026-08-05T21:20:25Z</time></trkpt>
<trkpt lat="35.196806" lon="-84.902845"><ele>219.5</ele><time>2026-08-05T21:20:27Z</time></trkpt>
<trkpt lat="35.196808" lon="-84.902807"><ele>219.8</ele><time>2026-08-05T21:20:29Z</time></trkpt>
<trkpt lat="35.196811" lon="-84.90277"><ele>219.8</ele><time>2026-08-05T21:20:31Z</time></trkpt>
<trkpt lat="35.196814" lon="-84.902731"><ele>219.8</ele><time>2026-08-05T21:20:33Z</time></trkpt>
<trkpt lat="35.196815" lon="-84.902694"><ele>220.1</ele><time>2026-08-05T21:20:35Z</time></trkpt>
<trkpt lat="35.196813" lon="-84.902656"><ele>220.4</ele><time>2026-08-05T21:20:37Z</time></trkpt>
<trkpt lat="35.196817" lon="-84.902619"><ele>220.4</ele><time>2026-08-05T21:20:39Z</time></trkpt>
<trkpt lat="35.196821" lon="-84.902584"><ele>220.4</ele><time>2026-08-05T21:20:41Z</time></trkpt>
<trkpt lat="35.196824" lon="-84.90255"><ele>220.4</ele><time>2026-08-05T21:20:43Z</time></trkpt>
<trkpt lat="35.196834" lon="-84.902514"><ele>220.1</ele><time>2026-08-05T21:20:45Z</time></trkpt>
<trkpt lat="35.196847" lon="-84.902477"><ele>220.1</ele><time>2026-08-05T21:20:47Z</time></trkpt>
<trkpt lat="35.196859" lon="-84.902443"><ele>218.8</ele><time>2026-08-05T21:20:49Z</time></trkpt>
<trkpt lat="35.19687" lon="-84.902411"><ele>218.8</ele><time>2026-08-05T21:20:51Z</time></trkpt>
<trkpt lat="35.196881" lon="-84.902378"><ele>218.8</ele><time>2026-08-05T21:20:53Z</time></trkpt>
<trkpt lat="35.196893" lon="-84.902344"><ele>219.2</ele><time>2026-08-05T21:20:55Z</time></trkpt>
<trkpt lat="35.196906" lon="-84.902308"><ele>218.8</ele><time>2026-08-05T21:20:57Z</time></trkpt>
<trkpt lat="35.196917" lon="-84.902273"><ele>219.2</ele><time>2026-08-05T21:20:59Z</time></trkpt>
<trkpt lat="35.196933" lon="-84.902241"><ele>219.8</ele><time>2026-08-05T21:21:01Z</time></trkpt>
<trkpt lat="35.196949" lon="-84.902213"><ele>219.8</ele><time>2026-08-05T21:21:03Z</time></trkpt>
<trkpt lat="35.196963" lon="-84.902183"><ele>220.4</ele><time>2026-08-05T21:21:05Z</time></trkpt>
<trkpt lat="35.196978" lon="-84.902153"><ele>219.8</ele><time>2026-08-05T21:21:07Z</time></trkpt>
<trkpt lat="35.196991" lon="-84.902122"><ele>219.5</ele><time>2026-08-05T21:21:09Z</time></trkpt>
<trkpt lat="35.197007" lon="-84.902093"><ele>218.8</ele><time>2026-08-05T21:21:11Z</time></trkpt>
<trkpt lat="35.197028" lon="-84.902052"><ele>219.5</ele><time>2026-08-05T21:21:14Z</time></trkpt>
<trkpt lat="35.197046" lon="-84.902027"><ele>219.5</ele><time>2026-08-05T21:21:16Z</time></trkpt>
<trkpt lat="35.197072" lon="-84.90199"><ele>219.2</ele><time>2026-08-05T21:21:19Z</time></trkpt>
<trkpt lat="35.197089" lon="-84.901963"><ele>219.5</ele><time>2026-08-05T21:21:21Z</time></trkpt>
<trkpt lat="35.197114" lon="-84.901922"><ele>219.2</ele><time>2026-08-05T21:21:24Z</time></trkpt>
<trkpt lat="35.197128" lon="-84.901888"><ele>219.2</ele><time>2026-08-05T21:21:26Z</time></trkpt>
<trkpt lat="35.197148" lon="-84.901859"><ele>219.2</ele><time>2026-08-05T21:21:28Z</time></trkpt>
<trkpt lat="35.197166" lon="-84.901828"><ele>219.2</ele><time>2026-08-05T21:21:30Z</time></trkpt>
<trkpt lat="35.197184" lon="-84.901798"><ele>219.2</ele><time>2026-08-05T21:21:32Z</time></trkpt>
<trkpt lat="35.197201" lon="-84.901768"><ele>219.5</ele><time>2026-08-05T21:21:34Z</time></trkpt>
<trkpt lat="35.197211" lon="-84.901734"><ele>218.8</ele><time>2026-08-05T21:21:36Z</time></trkpt>
<trkpt lat="35.19723" lon="-84.901705"><ele>218.5</ele><time>2026-08-05T21:21:38Z</time></trkpt>
<trkpt lat="35.197249" lon="-84.901678"><ele>218.8</ele><time>2026-08-05T21:21:40Z</time></trkpt>
<trkpt lat="35.197268" lon="-84.901651"><ele>218.5</ele><time>2026-08-05T21:21:42Z</time></trkpt>
<trkpt lat="35.197287" lon="-84.901623"><ele>218.2</ele><time>2026-08-05T21:21:44Z</time></trkpt>
<trkpt lat="35.197309" lon="-84.901582"><ele>217.9</ele><time>2026-08-05T21:21:47Z</time></trkpt>
<trkpt lat="35.197316" lon="-84.90154"><ele>217.9</ele><time>2026-08-05T21:21:49Z</time></trkpt>
<trkpt lat="35.197347" lon="-84.901524"><ele>217.9</ele><time>2026-08-05T21:21:51Z</time></trkpt>
<trkpt lat="35.197369" lon="-84.9015"><ele>218.5</ele><time>2026-08-05T21:21:53Z</time></trkpt>
<trkpt lat="35.19739" lon="-84.901475"><ele>218.5</ele><time>2026-08-05T21:21:55Z</time></trkpt>
<trkpt lat="35.197412" lon="-84.901453"><ele>217.9</ele><time>2026-08-05T21:21:57Z</time></trkpt>
<trkpt lat="35.197433" lon="-84.901425"><ele>217.9</ele><time>2026-08-05T21:21:59Z</time></trkpt>
<trkpt lat="35.197456" lon="-84.901397"><ele>218.5</ele><time>2026-08-05T21:22:01Z</time></trkpt>
<trkpt lat="35.19748" lon="-84.901372"><ele>217.3</ele><time>2026-08-05T21:22:03Z</time></trkpt>
<trkpt lat="35.197499" lon="-84.901346"><ele>217.3</ele><time>2026-08-05T21:22:05Z</time></trkpt>
<trkpt lat="35.197517" lon="-84.901319"><ele>217.9</ele><time>2026-08-05T21:22:07Z</time></trkpt>
<trkpt lat="35.197532" lon="-84.901291"><ele>217.6</ele><time>2026-08-05T21:22:09Z</time></trkpt>
<trkpt lat="35.197557" lon="-84.901253"><ele>217.3</ele><time>2026-08-05T21:22:12Z</time></trkpt>
<trkpt lat="35.197575" lon="-84.901227"><ele>217.0</ele><time>2026-08-05T21:22:14Z</time></trkpt>
<trkpt lat="35.197592" lon="-84.901199"><ele>217.0</ele><time>2026-08-05T21:22:16Z</time></trkpt>
<trkpt lat="35.197611" lon="-84.901171"><ele>216.7</ele><time>2026-08-05T21:22:18Z</time></trkpt>
<trkpt lat="35.197635" lon="-84.901144"><ele>217.0</ele><time>2026-08-05T21:22:20Z</time></trkpt>
<trkpt lat="35.197654" lon="-84.901115"><ele>217.9</ele><time>2026-08-05T21:22:22Z</time></trkpt>
<trkpt lat="35.197681" lon="-84.901092"><ele>217.6</ele><time>2026-08-05T21:22:24Z</time></trkpt>
<trkpt lat="35.197701" lon="-84.901064"><ele>218.2</ele><time>2026-08-05T21:22:26Z</time></trkpt>
<trkpt lat="35.197717" lon="-84.901031"><ele>218.2</ele><time>2026-08-05T21:22:28Z</time></trkpt>
<trkpt lat="35.197737" lon="-84.901001"><ele>218.5</ele><time>2026-08-05T21:22:30Z</time></trkpt>
<trkpt lat="35.197758" lon="-84.900971"><ele>218.2</ele><time>2026-08-05T21:22:32Z</time></trkpt>
<trkpt lat="35.197771" lon="-84.900938"><ele>218.5</ele><time>2026-08-05T21:22:34Z</time></trkpt>
<trkpt lat="35.19778" lon="-84.900905"><ele>218.2</ele><time>2026-08-05T21:22:36Z</time></trkpt>
<trkpt lat="35.197793" lon="-84.900874"><ele>218.8</ele><time>2026-08-05T21:22:38Z</time></trkpt>
<trkpt lat="35.197803" lon="-84.900842"><ele>219.2</ele><time>2026-08-05T21:22:40Z</time></trkpt>
<trkpt lat="35.197807" lon="-84.900794"><ele>219.2</ele><time>2026-08-05T21:22:43Z</time></trkpt>
<trkpt lat="35.197813" lon="-84.900745"><ele>219.5</ele><time>2026-08-05T21:22:46Z</time></trkpt>
<trkpt lat="35.197817" lon="-84.900712"><ele>219.2</ele><time>2026-08-05T21:22:48Z</time></trkpt>
<trkpt lat="35.197826" lon="-84.900677"><ele>219.2</ele><time>2026-08-05T21:22:50Z</time></trkpt>
<trkpt lat="35.197834" lon="-84.900644"><ele>219.5</ele><time>2026-08-05T21:22:52Z</time></trkpt>
<trkpt lat="35.197848" lon="-84.900611"><ele>219.5</ele><time>2026-08-05T21:22:54Z</time></trkpt>
<trkpt lat="35.197862" lon="-84.900579"><ele>220.1</ele><time>2026-08-05T21:22:56Z</time></trkpt>
<trkpt lat="35.19788" lon="-84.900549"><ele>220.7</ele><time>2026-08-05T21:22:58Z</time></trkpt>
<trkpt lat="35.197897" lon="-84.900514"><ele>221.6</ele><time>2026-08-05T21:23:00Z</time></trkpt>
<trkpt lat="35.197917" lon="-84.900485"><ele>222.2</ele><time>2026-08-05T21:23:02Z</time></trkpt>
<trkpt lat="35.197935" lon="-84.900454"><ele>221.9</ele><time>2026-08-05T21:23:04Z</time></trkpt>
<trkpt lat="35.197961" lon="-84.900431"><ele>222.2</ele><time>2026-08-05T21:23:06Z</time></trkpt>
<trkpt lat="35.197984" lon="-84.900408"><ele>221.6</ele><time>2026-08-05T21:23:08Z</time></trkpt>
<trkpt lat="35.198007" lon="-84.900385"><ele>221.0</ele><time>2026-08-05T21:23:10Z</time></trkpt>
<trkpt lat="35.198032" lon="-84.900363"><ele>220.4</ele><time>2026-08-05T21:23:12Z</time></trkpt>
<trkpt lat="35.198054" lon="-84.900342"><ele>219.8</ele><time>2026-08-05T21:23:14Z</time></trkpt>
<trkpt lat="35.198076" lon="-84.900319"><ele>219.8</ele><time>2026-08-05T21:23:16Z</time></trkpt>
<trkpt lat="35.198097" lon="-84.900292"><ele>219.8</ele><time>2026-08-05T21:23:18Z</time></trkpt>
<trkpt lat="35.198121" lon="-84.90027"><ele>219.8</ele><time>2026-08-05T21:23:20Z</time></trkpt>
<trkpt lat="35.198148" lon="-84.900252"><ele>219.5</ele><time>2026-08-05T21:23:22Z</time></trkpt>
<trkpt lat="35.198175" lon="-84.900233"><ele>219.2</ele><time>2026-08-05T21:23:24Z</time></trkpt>
<trkpt lat="35.198202" lon="-84.900217"><ele>218.8</ele><time>2026-08-05T21:23:26Z</time></trkpt>
<trkpt lat="35.198228" lon="-84.9002"><ele>218.8</ele><time>2026-08-05T21:23:28Z</time></trkpt>
<trkpt lat="35.198252" lon="-84.90018"><ele>218.8</ele><time>2026-08-05T21:23:30Z</time></trkpt>
<trkpt lat="35.198276" lon="-84.900157"><ele>218.5</ele><time>2026-08-05T21:23:32Z</time></trkpt>
<trkpt lat="35.198293" lon="-84.900127"><ele>218.2</ele><time>2026-08-05T21:23:34Z</time></trkpt>
<trkpt lat="35.198304" lon="-84.900093"><ele>218.5</ele><time>2026-08-05T21:23:36Z</time></trkpt>
<trkpt lat="35.198296" lon="-84.900045"><ele>218.5</ele><time>2026-08-05T21:23:39Z</time></trkpt>
<trkpt lat="35.198277" lon="-84.900014"><ele>218.2</ele><time>2026-08-05T21:23:41Z</time></trkpt>
<trkpt lat="35.198258" lon="-84.899985"><ele>217.9</ele><time>2026-08-05T21:23:43Z</time></trkpt>
<trkpt lat="35.198242" lon="-84.899955"><ele>217.9</ele><time>2026-08-05T21:23:45Z</time></trkpt>
<trkpt lat="35.198226" lon="-84.899919"><ele>217.9</ele><time>2026-08-05T21:23:47Z</time></trkpt>
<trkpt lat="35.198212" lon="-84.899886"><ele>217.9</ele><time>2026-08-05T21:23:49Z</time></trkpt>
<trkpt lat="35.1982" lon="-84.899851"><ele>217.9</ele><time>2026-08-05T21:23:51Z</time></trkpt>
<trkpt lat="35.198186" lon="-84.899818"><ele>217.9</ele><time>2026-08-05T21:23:53Z</time></trkpt>
<trkpt lat="35.198172" lon="-84.899785"><ele>217.6</ele><time>2026-08-05T21:23:55Z</time></trkpt>
<trkpt lat="35.198161" lon="-84.899751"><ele>217.9</ele><time>2026-08-05T21:23:57Z</time></trkpt>
<trkpt lat="35.19815" lon="-84.899718"><ele>217.6</ele><time>2026-08-05T21:23:59Z</time></trkpt>
<trkpt lat="35.198136" lon="-84.899684"><ele>217.6</ele><time>2026-08-05T21:24:01Z</time></trkpt>
<trkpt lat="35.198124" lon="-84.899649"><ele>217.9</ele><time>2026-08-05T21:24:03Z</time></trkpt>
<trkpt lat="35.198111" lon="-84.899616"><ele>217.9</ele><time>2026-08-05T21:24:05Z</time></trkpt>
<trkpt lat="35.198099" lon="-84.899584"><ele>217.9</ele><time>2026-08-05T21:24:07Z</time></trkpt>
<trkpt lat="35.198087" lon="-84.899553"><ele>217.6</ele><time>2026-08-05T21:24:09Z</time></trkpt>
<trkpt lat="35.198071" lon="-84.899525"><ele>218.5</ele><time>2026-08-05T21:24:11Z</time></trkpt>
<trkpt lat="35.198057" lon="-84.899493"><ele>217.3</ele><time>2026-08-05T21:24:13Z</time></trkpt>
<trkpt lat="35.198022" lon="-84.899514"><ele>217.3</ele><time>2026-08-05T21:24:16Z</time></trkpt>
<trkpt lat="35.198003" lon="-84.899549"><ele>217.3</ele><time>2026-08-05T21:24:18Z</time></trkpt>
<trkpt lat="35.197981" lon="-84.899579"><ele>217.3</ele><time>2026-08-05T21:24:20Z</time></trkpt>
<trkpt lat="35.197956" lon="-84.899602"><ele>217.3</ele><time>2026-08-05T21:24:22Z</time></trkpt>
<trkpt lat="35.197933" lon="-84.899623"><ele>217.3</ele><time>2026-08-05T21:24:24Z</time></trkpt>
<trkpt lat="35.197908" lon="-84.899644"><ele>217.0</ele><time>2026-08-05T21:24:26Z</time></trkpt>
<trkpt lat="35.197881" lon="-84.89966"><ele>216.7</ele><time>2026-08-05T21:24:28Z</time></trkpt>
<trkpt lat="35.197856" lon="-84.899678"><ele>217.0</ele><time>2026-08-05T21:24:30Z</time></trkpt>
<trkpt lat="35.19783" lon="-84.899698"><ele>216.7</ele><time>2026-08-05T21:24:32Z</time></trkpt>
<trkpt lat="35.197804" lon="-84.899716"><ele>217.0</ele><time>2026-08-05T21:24:34Z</time></trkpt>
<trkpt lat="35.197778" lon="-84.899734"><ele>217.0</ele><time>2026-08-05T21:24:36Z</time></trkpt>
<trkpt lat="35.197753" lon="-84.899753"><ele>217.3</ele><time>2026-08-05T21:24:38Z</time></trkpt>
<trkpt lat="35.19773" lon="-84.899772"><ele>217.9</ele><time>2026-08-05T21:24:40Z</time></trkpt>
<trkpt lat="35.197706" lon="-84.899795"><ele>218.2</ele><time>2026-08-05T21:24:42Z</time></trkpt>
<trkpt lat="35.19768" lon="-84.89982"><ele>218.2</ele><time>2026-08-05T21:24:44Z</time></trkpt>
<trkpt lat="35.197654" lon="-84.899839"><ele>218.2</ele><time>2026-08-05T21:24:46Z</time></trkpt>
<trkpt lat="35.197628" lon="-84.899861"><ele>217.9</ele><time>2026-08-05T21:24:48Z</time></trkpt>
<trkpt lat="35.197602" lon="-84.899883"><ele>217.6</ele><time>2026-08-05T21:24:50Z</time></trkpt>
<trkpt lat="35.197578" lon="-84.899905"><ele>217.6</ele><time>2026-08-05T21:24:52Z</time></trkpt>
<trkpt lat="35.197551" lon="-84.899925"><ele>218.2</ele><time>2026-08-05T21:24:54Z</time></trkpt>
<trkpt lat="35.197528" lon="-84.899954"><ele>217.9</ele><time>2026-08-05T21:24:56Z</time></trkpt>
<trkpt lat="35.197501" lon="-84.899976"><ele>217.9</ele><time>2026-08-05T21:24:58Z</time></trkpt>
<trkpt lat="35.197474" lon="-84.899997"><ele>218.2</ele><time>2026-08-05T21:25:00Z</time></trkpt>
<trkpt lat="35.19745" lon="-84.900021"><ele>217.9</ele><time>2026-08-05T21:25:02Z</time></trkpt>
<trkpt lat="35.197426" lon="-84.900047"><ele>218.2</ele><time>2026-08-05T21:25:04Z</time></trkpt>
<trkpt lat="35.197406" lon="-84.900074"><ele>218.2</ele><time>2026-08-05T21:25:06Z</time></trkpt>
<trkpt lat="35.197386" lon="-84.9001"><ele>218.2</ele><time>2026-08-05T21:25:08Z</time></trkpt>
<trkpt lat="35.197364" lon="-84.900128"><ele>218.2</ele><time>2026-08-05T21:25:10Z</time></trkpt>
<trkpt lat="35.197345" lon="-84.900154"><ele>218.2</ele><time>2026-08-05T21:25:12Z</time></trkpt>
<trkpt lat="35.197325" lon="-84.900179"><ele>218.2</ele><time>2026-08-05T21:25:14Z</time></trkpt>
<trkpt lat="35.197305" lon="-84.900203"><ele>218.2</ele><time>2026-08-05T21:25:16Z</time></trkpt>
<trkpt lat="35.197284" lon="-84.900227"><ele>218.5</ele><time>2026-08-05T21:25:18Z</time></trkpt>
<trkpt lat="35.197259" lon="-84.900247"><ele>218.8</ele><time>2026-08-05T21:25:20Z</time></trkpt>
<trkpt lat="35.197232" lon="-84.90027"><ele>218.8</ele><time>2026-08-05T21:25:22Z</time></trkpt>
<trkpt lat="35.197204" lon="-84.900283"><ele>219.5</ele><time>2026-08-05T21:25:24Z</time></trkpt>
<trkpt lat="35.197176" lon="-84.900298"><ele>220.1</ele><time>2026-08-05T21:25:26Z</time></trkpt>
<trkpt lat="35.197148" lon="-84.900316"><ele>219.8</ele><time>2026-08-05T21:25:28Z</time></trkpt>
<trkpt lat="35.197123" lon="-84.900335"><ele>220.1</ele><time>2026-08-05T21:25:30Z</time></trkpt>
<trkpt lat="35.197098" lon="-84.900354"><ele>219.8</ele><time>2026-08-05T21:25:32Z</time></trkpt>
<trkpt lat="35.197074" lon="-84.900378"><ele>219.2</ele><time>2026-08-05T21:25:34Z</time></trkpt>
<trkpt lat="35.197055" lon="-84.900405"><ele>218.8</ele><time>2026-08-05T21:25:36Z</time></trkpt>
<trkpt lat="35.197028" lon="-84.900427"><ele>219.2</ele><time>2026-08-05T21:25:38Z</time></trkpt>
<trkpt lat="35.197006" lon="-84.900452"><ele>218.8</ele><time>2026-08-05T21:25:40Z</time></trkpt>
<trkpt lat="35.196984" lon="-84.900483"><ele>218.8</ele><time>2026-08-05T21:25:42Z</time></trkpt>
<trkpt lat="35.196968" lon="-84.900512"><ele>219.2</ele><time>2026-08-05T21:25:44Z</time></trkpt>
<trkpt lat="35.196945" lon="-84.900536"><ele>219.5</ele><time>2026-08-05T21:25:46Z</time></trkpt>
<trkpt lat="35.196918" lon="-84.900558"><ele>219.2</ele><time>2026-08-05T21:25:48Z</time></trkpt>
<trkpt lat="35.196897" lon="-84.900583"><ele>219.2</ele><time>2026-08-05T21:25:50Z</time></trkpt>
<trkpt lat="35.196875" lon="-84.900608"><ele>219.5</ele><time>2026-08-05T21:25:52Z</time></trkpt>
<trkpt lat="35.196854" lon="-84.900632"><ele>219.5</ele><time>2026-08-05T21:25:54Z</time></trkpt>
<trkpt lat="35.196831" lon="-84.900653"><ele>219.8</ele><time>2026-08-05T21:25:56Z</time></trkpt>
<trkpt lat="35.196807" lon="-84.900675"><ele>219.8</ele><time>2026-08-05T21:25:58Z</time></trkpt>
<trkpt lat="35.196782" lon="-84.900698"><ele>219.5</ele><time>2026-08-05T21:26:00Z</time></trkpt>
<trkpt lat="35.196761" lon="-84.900723"><ele>219.5</ele><time>2026-08-05T21:26:02Z</time></trkpt>
<trkpt lat="35.196734" lon="-84.900743"><ele>219.8</ele><time>2026-08-05T21:26:04Z</time></trkpt>
<trkpt lat="35.19671" lon="-84.900764"><ele>220.4</ele><time>2026-08-05T21:26:06Z</time></trkpt>
<trkpt lat="35.196688" lon="-84.900788"><ele>219.8</ele><time>2026-08-05T21:26:08Z</time></trkpt>
<trkpt lat="35.196666" lon="-84.900809"><ele>219.8</ele><time>2026-08-05T21:26:10Z</time></trkpt>
<trkpt lat="35.196643" lon="-84.900829"><ele>219.2</ele><time>2026-08-05T21:26:12Z</time></trkpt>
<trkpt lat="35.196618" lon="-84.900849"><ele>219.5</ele><time>2026-08-05T21:26:14Z</time></trkpt>
<trkpt lat="35.196591" lon="-84.900868"><ele>219.2</ele><time>2026-08-05T21:26:16Z</time></trkpt>
<trkpt lat="35.196566" lon="-84.90089"><ele>219.2</ele><time>2026-08-05T21:26:18Z</time></trkpt>
<trkpt lat="35.196541" lon="-84.900913"><ele>219.2</ele><time>2026-08-05T21:26:20Z</time></trkpt>
<trkpt lat="35.196522" lon="-84.90094"><ele>219.2</ele><time>2026-08-05T21:26:22Z</time></trkpt>
<trkpt lat="35.196501" lon="-84.900967"><ele>218.5</ele><time>2026-08-05T21:26:24Z</time></trkpt>
<trkpt lat="35.196483" lon="-84.900996"><ele>218.2</ele><time>2026-08-05T21:26:26Z</time></trkpt>
<trkpt lat="35.196466" lon="-84.901023"><ele>217.9</ele><time>2026-08-05T21:26:28Z</time></trkpt>
<trkpt lat="35.196451" lon="-84.901053"><ele>218.2</ele><time>2026-08-05T21:26:30Z</time></trkpt>
<trkpt lat="35.196435" lon="-84.901081"><ele>218.2</ele><time>2026-08-05T21:26:32Z</time></trkpt>
<trkpt lat="35.19642" lon="-84.901113"><ele>217.9</ele><time>2026-08-05T21:26:34Z</time></trkpt>
<trkpt lat="35.196405" lon="-84.901144"><ele>217.9</ele><time>2026-08-05T21:26:36Z</time></trkpt>
<trkpt lat="35.196392" lon="-84.901175"><ele>218.2</ele><time>2026-08-05T21:26:38Z</time></trkpt>
<trkpt lat="35.196377" lon="-84.901207"><ele>217.9</ele><time>2026-08-05T21:26:40Z</time></trkpt>
<trkpt lat="35.196363" lon="-84.901238"><ele>217.9</ele><time>2026-08-05T21:26:42Z</time></trkpt>
<trkpt lat="35.196347" lon="-84.901271"><ele>217.9</ele><time>2026-08-05T21:26:44Z</time></trkpt>
<trkpt lat="35.196332" lon="-84.901301"><ele>218.2</ele><time>2026-08-05T21:26:46Z</time></trkpt>
<trkpt lat="35.196315" lon="-84.901332"><ele>218.2</ele><time>2026-08-05T21:26:48Z</time></trkpt>
<trkpt lat="35.196302" lon="-84.901363"><ele>218.8</ele><time>2026-08-05T21:26:50Z</time></trkpt>
<trkpt lat="35.196287" lon="-84.901396"><ele>218.5</ele><time>2026-08-05T21:26:52Z</time></trkpt>
<trkpt lat="35.196276" lon="-84.90143"><ele>218.5</ele><time>2026-08-05T21:26:54Z</time></trkpt>
<trkpt lat="35.196265" lon="-84.901464"><ele>218.5</ele><time>2026-08-05T21:26:56Z</time></trkpt>
<trkpt lat="35.19625" lon="-84.901494"><ele>218.8</ele><time>2026-08-05T21:26:58Z</time></trkpt>
<trkpt lat="35.196246" lon="-84.90153"><ele>219.2</ele><time>2026-08-05T21:27:00Z</time></trkpt>
<trkpt lat="35.196234" lon="-84.901564"><ele>218.8</ele><time>2026-08-05T21:27:02Z</time></trkpt>
<trkpt lat="35.196221" lon="-84.901595"><ele>219.5</ele><time>2026-08-05T21:27:04Z</time></trkpt>
<trkpt lat="35.196209" lon="-84.901644"><ele>220.4</ele><time>2026-08-05T21:27:07Z</time></trkpt>
<trkpt lat="35.196204" lon="-84.901681"><ele>220.1</ele><time>2026-08-05T21:27:09Z</time></trkpt>
<trkpt lat="35.196197" lon="-84.901718"><ele>219.5</ele><time>2026-08-05T21:27:11Z</time></trkpt>
<trkpt lat="35.196187" lon="-84.901752"><ele>219.5</ele><time>2026-08-05T21:27:13Z</time></trkpt>
<trkpt lat="35.196178" lon="-84.90179"><ele>218.5</ele><time>2026-08-05T21:27:15Z</time></trkpt>
<trkpt lat="35.196168" lon="-84.901827"><ele>219.2</ele><time>2026-08-05T21:27:17Z</time></trkpt>
<trkpt lat="35.196152" lon="-84.90186"><ele>219.5</ele><time>2026-08-05T21:27:19Z</time></trkpt>
<trkpt lat="35.196138" lon="-84.901892"><ele>218.8</ele><time>2026-08-05T21:27:21Z</time></trkpt>
<trkpt lat="35.196121" lon="-84.901924"><ele>217.9</ele><time>2026-08-05T21:27:23Z</time></trkpt>
<trkpt lat="35.196111" lon="-84.901961"><ele>217.6</ele><time>2026-08-05T21:27:25Z</time></trkpt>
<trkpt lat="35.196106" lon="-84.902006"><ele>217.9</ele><time>2026-08-05T21:27:27Z</time></trkpt>
<trkpt lat="35.196091" lon="-84.902041"><ele>217.9</ele><time>2026-08-05T21:27:29Z</time></trkpt>
<trkpt lat="35.196079" lon="-84.902071"><ele>218.2</ele><time>2026-08-05T21:27:31Z</time></trkpt>
<trkpt lat="35.196078" lon="-84.902123"><ele>217.6</ele><time>2026-08-05T21:27:34Z</time></trkpt>
<trkpt lat="35.196078" lon="-84.90216"><ele>217.6</ele><time>2026-08-05T21:27:36Z</time></trkpt>
<trkpt lat="35.196073" lon="-84.902196"><ele>217.3</ele><time>2026-08-05T21:27:38Z</time></trkpt>
<trkpt lat="35.196068" lon="-84.902232"><ele>217.3</ele><time>2026-08-05T21:27:40Z</time></trkpt>
<trkpt lat="35.196063" lon="-84.902268"><ele>217.9</ele><time>2026-08-05T21:27:42Z</time></trkpt>
<trkpt lat="35.196056" lon="-84.902305"><ele>217.9</ele><time>2026-08-05T21:27:44Z</time></trkpt>
<trkpt lat="35.19605" lon="-84.902343"><ele>217.9</ele><time>2026-08-05T21:27:46Z</time></trkpt>
<trkpt lat="35.196044" lon="-84.902382"><ele>217.9</ele><time>2026-08-05T21:27:48Z</time></trkpt>
<trkpt lat="35.196039" lon="-84.902422"><ele>218.5</ele><time>2026-08-05T21:27:50Z</time></trkpt>
<trkpt lat="35.196038" lon="-84.902463"><ele>218.5</ele><time>2026-08-05T21:27:52Z</time></trkpt>
<trkpt lat="35.196033" lon="-84.902501"><ele>219.2</ele><time>2026-08-05T21:27:54Z</time></trkpt>
<trkpt lat="35.196025" lon="-84.90254"><ele>218.8</ele><time>2026-08-05T21:27:56Z</time></trkpt>
<trkpt lat="35.196021" lon="-84.90258"><ele>219.2</ele><time>2026-08-05T21:27:58Z</time></trkpt>
<trkpt lat="35.196018" lon="-84.902622"><ele>219.2</ele><time>2026-08-05T21:28:00Z</time></trkpt>
<trkpt lat="35.196011" lon="-84.902661"><ele>219.5</ele><time>2026-08-05T21:28:02Z</time></trkpt>
<trkpt lat="35.196006" lon="-84.902699"><ele>220.4</ele><time>2026-08-05T21:28:04Z</time></trkpt>
<trkpt lat="35.196" lon="-84.902736"><ele>220.7</ele><time>2026-08-05T21:28:06Z</time></trkpt>
<trkpt lat="35.195993" lon="-84.902774"><ele>221.0</ele><time>2026-08-05T21:28:08Z</time></trkpt>
<trkpt lat="35.195986" lon="-84.902813"><ele>221.0</ele><time>2026-08-05T21:28:10Z</time></trkpt>
<trkpt lat="35.19598" lon="-84.90285"><ele>220.4</ele><time>2026-08-05T21:28:12Z</time></trkpt>
<trkpt lat="35.195974" lon="-84.902886"><ele>220.4</ele><time>2026-08-05T21:28:14Z</time></trkpt>
<trkpt lat="35.195967" lon="-84.902923"><ele>220.7</ele><time>2026-08-05T21:28:16Z</time></trkpt>
<trkpt lat="35.195966" lon="-84.902959"><ele>220.4</ele><time>2026-08-05T21:28:18Z</time></trkpt>
<trkpt lat="35.195961" lon="-84.902997"><ele>219.8</ele><time>2026-08-05T21:28:20Z</time></trkpt>
<trkpt lat="35.195947" lon="-84.903044"><ele>219.5</ele><time>2026-08-05T21:28:23Z</time></trkpt>
<trkpt lat="35.195934" lon="-84.903078"><ele>218.8</ele><time>2026-08-05T21:28:25Z</time></trkpt>
<trkpt lat="35.195927" lon="-84.903113"><ele>218.8</ele><time>2026-08-05T21:28:27Z</time></trkpt>
<trkpt lat="35.195921" lon="-84.903148"><ele>218.8</ele><time>2026-08-05T21:28:29Z</time></trkpt>
<trkpt lat="35.195915" lon="-84.903184"><ele>218.5</ele><time>2026-08-05T21:28:31Z</time></trkpt>
<trkpt lat="35.19591" lon="-84.903222"><ele>218.5</ele><time>2026-08-05T21:28:33Z</time></trkpt>
<trkpt lat="35.195908" lon="-84.903261"><ele>218.5</ele><time>2026-08-05T21:28:35Z</time></trkpt>
<trkpt lat="35.195904" lon="-84.903294"><ele>218.8</ele><time>2026-08-05T21:28:37Z</time></trkpt>
<trkpt lat="35.195898" lon="-84.903329"><ele>218.8</ele><time>2026-08-05T21:28:39Z</time></trkpt>
<trkpt lat="35.195895" lon="-84.903367"><ele>219.8</ele><time>2026-08-05T21:28:41Z</time></trkpt>
<trkpt lat="35.195886" lon="-84.903405"><ele>219.2</ele><time>2026-08-05T21:28:43Z</time></trkpt>
<trkpt lat="35.195877" lon="-84.903443"><ele>218.5</ele><time>2026-08-05T21:28:45Z</time></trkpt>
<trkpt lat="35.195877" lon="-84.903481"><ele>218.2</ele><time>2026-08-05T21:28:47Z</time></trkpt>
<trkpt lat="35.195872" lon="-84.903519"><ele>218.8</ele><time>2026-08-05T21:28:49Z</time></trkpt>
<trkpt lat="35.19587" lon="-84.903557"><ele>218.8</ele><time>2026-08-05T21:28:51Z</time></trkpt>
<trkpt lat="35.19587" lon="-84.903596"><ele>218.8</ele><time>2026-08-05T21:28:53Z</time></trkpt>
<trkpt lat="35.19587" lon="-84.903633"><ele>219.2</ele><time>2026-08-05T21:28:55Z</time></trkpt>
<trkpt lat="35.19587" lon="-84.90367"><ele>219.2</ele><time>2026-08-05T21:28:57Z</time></trkpt>
<trkpt lat="35.195864" lon="-84.903705"><ele>219.8</ele><time>2026-08-05T21:28:59Z</time></trkpt>
<trkpt lat="35.195859" lon="-84.903742"><ele>219.8</ele><time>2026-08-05T21:29:01Z</time></trkpt>
<trkpt lat="35.195854" lon="-84.903779"><ele>220.1</ele><time>2026-08-05T21:29:03Z</time></trkpt>
<trkpt lat="35.195851" lon="-84.903816"><ele>220.4</ele><time>2026-08-05T21:29:05Z</time></trkpt>
<trkpt lat="35.195852" lon="-84.903853"><ele>219.8</ele><time>2026-08-05T21:29:07Z</time></trkpt>
<trkpt lat="35.195849" lon="-84.903889"><ele>220.1</ele><time>2026-08-05T21:29:09Z</time></trkpt>
<trkpt lat="35.195849" lon="-84.903928"><ele>219.8</ele><time>2026-08-05T21:29:11Z</time></trkpt>
<trkpt lat="35.195849" lon="-84.903964"><ele>219.8</ele><time>2026-08-05T21:29:13Z</time></trkpt>
<trkpt lat="35.19585" lon="-84.904"><ele>220.4</ele><time>2026-08-05T21:29:15Z</time></trkpt>
<trkpt lat="35.195847" lon="-84.904036"><ele>220.7</ele><time>2026-08-05T21:29:17Z</time></trkpt>
<trkpt lat="35.195846" lon="-84.904072"><ele>220.4</ele><time>2026-08-05T21:29:19Z</time></trkpt>
<trkpt lat="35.195846" lon="-84.904107"><ele>219.8</ele><time>2026-08-05T21:29:21Z</time></trkpt>
<trkpt lat="35.195856" lon="-84.904141"><ele>220.1</ele><time>2026-08-05T21:29:23Z</time></trkpt>
<trkpt lat="35.195858" lon="-84.904176"><ele>220.4</ele><time>2026-08-05T21:29:25Z</time></trkpt>
<trkpt lat="35.195858" lon="-84.90421"><ele>220.7</ele><time>2026-08-05T21:29:27Z</time></trkpt>
<trkpt lat="35.195851" lon="-84.904245"><ele>221.3</ele><time>2026-08-05T21:29:29Z</time></trkpt>
<trkpt lat="35.195842" lon="-84.904276"><ele>221.6</ele><time>2026-08-05T21:29:31Z</time></trkpt>
<trkpt lat="35.195834" lon="-84.904311"><ele>221.3</ele><time>2026-08-05T21:29:33Z</time></trkpt>
<trkpt lat="35.195831" lon="-84.904348"><ele>221.3</ele><time>2026-08-05T21:29:35Z</time></trkpt>
<trkpt lat="35.195832" lon="-84.904387"><ele>222.2</ele><time>2026-08-05T21:29:37Z</time></trkpt>
<trkpt lat="35.195827" lon="-84.904422"><ele>221.9</ele><time>2026-08-05T21:29:39Z</time></trkpt>
<trkpt lat="35.195821" lon="-84.904456"><ele>221.9</ele><time>2026-08-05T21:29:41Z</time></trkpt>
<trkpt lat="35.195815" lon="-84.904493"><ele>221.6</ele><time>2026-08-05T21:29:43Z</time></trkpt>
<trkpt lat="35.195824" lon="-84.90453"><ele>221.6</ele><time>2026-08-05T21:29:45Z</time></trkpt>
<trkpt lat="35.195821" lon="-84.904567"><ele>221.9</ele><time>2026-08-05T21:29:47Z</time></trkpt>
<trkpt lat="35.195817" lon="-84.904605"><ele>221.9</ele><time>2026-08-05T21:29:49Z</time></trkpt>
<trkpt lat="35.195822" lon="-84.904641"><ele>222.5</ele><time>2026-08-05T21:29:51Z</time></trkpt>
<trkpt lat="35.195833" lon="-84.904675"><ele>222.2</ele><time>2026-08-05T21:29:53Z</time></trkpt>
<trkpt lat="35.195838" lon="-84.904711"><ele>222.2</ele><time>2026-08-05T21:29:55Z</time></trkpt>
<trkpt lat="35.19584" lon="-84.904747"><ele>221.6</ele><time>2026-08-05T21:29:57Z</time></trkpt>
<trkpt lat="35.195856" lon="-84.904781"><ele>220.7</ele><time>2026-08-05T21:29:59Z</time></trkpt>
<trkpt lat="35.195859" lon="-84.904819"><ele>220.7</ele><time>2026-08-05T21:30:01Z</time></trkpt>
<trkpt lat="35.195864" lon="-84.904856"><ele>220.7</ele><time>2026-08-05T21:30:03Z</time></trkpt>
<trkpt lat="35.195867" lon="-84.904892"><ele>220.4</ele><time>2026-08-05T21:30:05Z</time></trkpt>
<trkpt lat="35.195872" lon="-84.904928"><ele>220.1</ele><time>2026-08-05T21:30:07Z</time></trkpt>
<trkpt lat="35.195878" lon="-84.904965"><ele>219.8</ele><time>2026-08-05T21:30:09Z</time></trkpt>
<trkpt lat="35.195882" lon="-84.905003"><ele>219.5</ele><time>2026-08-05T21:30:11Z</time></trkpt>
<trkpt lat="35.195888" lon="-84.90504"><ele>219.5</ele><time>2026-08-05T21:30:13Z</time></trkpt>
<trkpt lat="35.195891" lon="-84.905078"><ele>219.5</ele><time>2026-08-05T21:30:15Z</time></trkpt>
<trkpt lat="35.195896" lon="-84.905116"><ele>219.2</ele><time>2026-08-05T21:30:17Z</time></trkpt>
<trkpt lat="35.195903" lon="-84.905153"><ele>219.5</ele><time>2026-08-05T21:30:19Z</time></trkpt>
<trkpt lat="35.195915" lon="-84.905187"><ele>219.2</ele><time>2026-08-05T21:30:21Z</time></trkpt>
<trkpt lat="35.195918" lon="-84.905222"><ele>219.2</ele><time>2026-08-05T21:30:23Z</time></trkpt>
<trkpt lat="35.19592" lon="-84.90526"><ele>218.8</ele><time>2026-08-05T21:30:25Z</time></trkpt>
<trkpt lat="35.195921" lon="-84.905299"><ele>218.8</ele><time>2026-08-05T21:30:27Z</time></trkpt>
<trkpt lat="35.195926" lon="-84.905338"><ele>218.8</ele><time>2026-08-05T21:30:29Z</time></trkpt>
<trkpt lat="35.195931" lon="-84.905378"><ele>218.8</ele><time>2026-08-05T21:30:31Z</time></trkpt>
<trkpt lat="35.195929" lon="-84.905415"><ele>218.8</ele><time>2026-08-05T21:30:33Z</time></trkpt>
<trkpt lat="35.195933" lon="-84.905453"><ele>218.8</ele><time>2026-08-05T21:30:35Z</time></trkpt>
<trkpt lat="35.195937" lon="-84.905491"><ele>219.2</ele><time>2026-08-05T21:30:37Z</time></trkpt>
<trkpt lat="35.19594" lon="-84.905528"><ele>219.5</ele><time>2026-08-05T21:30:39Z</time></trkpt>
<trkpt lat="35.195943" lon="-84.905565"><ele>219.8</ele><time>2026-08-05T21:30:41Z</time></trkpt>
<trkpt lat="35.195943" lon="-84.905601"><ele>219.8</ele><time>2026-08-05T21:30:43Z</time></trkpt>
<trkpt lat="35.195947" lon="-84.905637"><ele>220.1</ele><time>2026-08-05T21:30:45Z</time></trkpt>
<trkpt lat="35.195953" lon="-84.905672"><ele>220.1</ele><time>2026-08-05T21:30:47Z</time></trkpt>
<trkpt lat="35.195957" lon="-84.905709"><ele>219.8</ele><time>2026-08-05T21:30:49Z</time></trkpt>
<trkpt lat="35.195957" lon="-84.905746"><ele>219.8</ele><time>2026-08-05T21:30:51Z</time></trkpt>
<trkpt lat="35.19596" lon="-84.90578"><ele>219.5</ele><time>2026-08-05T21:30:53Z</time></trkpt>
<trkpt lat="35.195964" lon="-84.905814"><ele>219.5</ele><time>2026-08-05T21:30:55Z</time></trkpt>
<trkpt lat="35.195964" lon="-84.905848"><ele>219.2</ele><time>2026-08-05T21:30:57Z</time></trkpt>
<trkpt lat="35.195965" lon="-84.905883"><ele>218.8</ele><time>2026-08-05T21:30:59Z</time></trkpt>
<trkpt lat="35.19597" lon="-84.90592"><ele>218.8</ele><time>2026-08-05T21:31:01Z</time></trkpt>
<trkpt lat="35.195975" lon="-84.905957"><ele>218.5</ele><time>2026-08-05T21:31:03Z</time></trkpt>
<trkpt lat="35.195974" lon="-84.905994"><ele>218.5</ele><time>2026-08-05T21:31:05Z</time></trkpt>
<trkpt lat="35.195973" lon="-84.906029"><ele>218.5</ele><time>2026-08-05T21:31:07Z</time></trkpt>
<trkpt lat="35.195973" lon="-84.906066"><ele>218.8</ele><time>2026-08-05T21:31:09Z</time></trkpt>
<trkpt lat="35.195972" lon="-84.906105"><ele>218.8</ele><time>2026-08-05T21:31:11Z</time></trkpt>
<trkpt lat="35.195975" lon="-84.906144"><ele>218.5</ele><time>2026-08-05T21:31:13Z</time></trkpt>
<trkpt lat="35.195979" lon="-84.906185"><ele>218.5</ele><time>2026-08-05T21:31:15Z</time></trkpt>
<trkpt lat="35.195984" lon="-84.906225"><ele>218.5</ele><time>2026-08-05T21:31:17Z</time></trkpt>
<trkpt lat="35.195985" lon="-84.906266"><ele>218.5</ele><time>2026-08-05T21:31:19Z</time></trkpt>
<trkpt lat="35.195985" lon="-84.906305"><ele>218.2</ele><time>2026-08-05T21:31:21Z</time></trkpt>
<trkpt lat="35.195986" lon="-84.906345"><ele>217.9</ele><time>2026-08-05T21:31:23Z</time></trkpt>
<trkpt lat="35.195981" lon="-84.906384"><ele>218.2</ele><time>2026-08-05T21:31:25Z</time></trkpt>
<trkpt lat="35.195989" lon="-84.906422"><ele>218.8</ele><time>2026-08-05T21:31:27Z</time></trkpt>
<trkpt lat="35.195994" lon="-84.90646"><ele>218.8</ele><time>2026-08-05T21:31:29Z</time></trkpt>
<trkpt lat="35.196001" lon="-84.906495"><ele>218.8</ele><time>2026-08-05T21:31:31Z</time></trkpt>
<trkpt lat="35.196006" lon="-84.906532"><ele>219.2</ele><time>2026-08-05T21:31:33Z</time></trkpt>
<trkpt lat="35.196009" lon="-84.906569"><ele>219.5</ele><time>2026-08-05T21:31:35Z</time></trkpt>
<trkpt lat="35.196011" lon="-84.906605"><ele>219.8</ele><time>2026-08-05T21:31:37Z</time></trkpt>
<trkpt lat="35.196014" lon="-84.90664"><ele>220.1</ele><time>2026-08-05T21:31:39Z</time></trkpt>
<trkpt lat="35.196015" lon="-84.906677"><ele>220.4</ele><time>2026-08-05T21:31:41Z</time></trkpt>
<trkpt lat="35.19602" lon="-84.906714"><ele>220.1</ele><time>2026-08-05T21:31:43Z</time></trkpt>
<trkpt lat="35.196024" lon="-84.906751"><ele>220.1</ele><time>2026-08-05T21:31:45Z</time></trkpt>
<trkpt lat="35.196027" lon="-84.906788"><ele>219.8</ele><time>2026-08-05T21:31:47Z</time></trkpt>
<trkpt lat="35.19603" lon="-84.906825"><ele>220.1</ele><time>2026-08-05T21:31:49Z</time></trkpt>
<trkpt lat="35.196034" lon="-84.906862"><ele>220.1</ele><time>2026-08-05T21:31:51Z</time></trkpt>
<trkpt lat="35.196037" lon="-84.906901"><ele>220.1</ele><time>2026-08-05T21:31:53Z</time></trkpt>
<trkpt lat="35.196036" lon="-84.906937"><ele>219.8</ele><time>2026-08-05T21:31:55Z</time></trkpt>
<trkpt lat="35.196037" lon="-84.906973"><ele>219.8</ele><time>2026-08-05T21:31:57Z</time></trkpt>
<trkpt lat="35.196039" lon="-84.907011"><ele>219.5</ele><time>2026-08-05T21:31:59Z</time></trkpt>
<trkpt lat="35.19604" lon="-84.90705"><ele>219.8</ele><time>2026-08-05T21:32:01Z</time></trkpt>
<trkpt lat="35.196039" lon="-84.907083"><ele>219.8</ele><time>2026-08-05T21:32:03Z</time></trkpt>
<trkpt lat="35.196033" lon="-84.907119"><ele>220.1</ele><time>2026-08-05T21:32:05Z</time></trkpt>
<trkpt lat="35.196029" lon="-84.907155"><ele>220.4</ele><time>2026-08-05T21:32:07Z</time></trkpt>
<trkpt lat="35.196024" lon="-84.907191"><ele>220.4</ele><time>2026-08-05T21:32:09Z</time></trkpt>
<trkpt lat="35.19602" lon="-84.907228"><ele>220.4</ele><time>2026-08-05T21:32:11Z</time></trkpt>
<trkpt lat="35.19601" lon="-84.907265"><ele>220.4</ele><time>2026-08-05T21:32:13Z</time></trkpt>
<trkpt lat="35.196005" lon="-84.9073"><ele>220.4</ele><time>2026-08-05T21:32:15Z</time></trkpt>
<trkpt lat="35.196" lon="-84.907335"><ele>220.4</ele><time>2026-08-05T21:32:17Z</time></trkpt>
<trkpt lat="35.195997" lon="-84.90737"><ele>220.4</ele><time>2026-08-05T21:32:19Z</time></trkpt>
<trkpt lat="35.195992" lon="-84.907404"><ele>220.4</ele><time>2026-08-05T21:32:21Z</time></trkpt>
<trkpt lat="35.195984" lon="-84.907438"><ele>220.7</ele><time>2026-08-05T21:32:23Z</time></trkpt>
<trkpt lat="35.195976" lon="-84.907472"><ele>220.1</ele><time>2026-08-05T21:32:25Z</time></trkpt>
<trkpt lat="35.195966" lon="-84.907507"><ele>220.1</ele><time>2026-08-05T21:32:27Z</time></trkpt>
<trkpt lat="35.195957" lon="-84.90754"><ele>219.8</ele><time>2026-08-05T21:32:29Z</time></trkpt>
<trkpt lat="35.195947" lon="-84.907573"><ele>219.5</ele><time>2026-08-05T21:32:31Z</time></trkpt>
<trkpt lat="35.195941" lon="-84.907609"><ele>219.2</ele><time>2026-08-05T21:32:33Z</time></trkpt>
<trkpt lat="35.195934" lon="-84.907645"><ele>219.2</ele><time>2026-08-05T21:32:35Z</time></trkpt>
<trkpt lat="35.195923" lon="-84.90768"><ele>219.2</ele><time>2026-08-05T21:32:37Z</time></trkpt>
<trkpt lat="35.195915" lon="-84.907717"><ele>218.8</ele><time>2026-08-05T21:32:39Z</time></trkpt>
<trkpt lat="35.195906" lon="-84.907752"><ele>219.2</ele><time>2026-08-05T21:32:41Z</time></trkpt>
<trkpt lat="35.195899" lon="-84.907789"><ele>218.8</ele><time>2026-08-05T21:32:43Z</time></trkpt>
<trkpt lat="35.19589" lon="-84.907823"><ele>219.2</ele><time>2026-08-05T21:32:45Z</time></trkpt>
<trkpt lat="35.195882" lon="-84.907861"><ele>219.2</ele><time>2026-08-05T21:32:47Z</time></trkpt>
<trkpt lat="35.19588" lon="-84.9079"><ele>219.5</ele><time>2026-08-05T21:32:49Z</time></trkpt>
<trkpt lat="35.195874" lon="-84.907936"><ele>219.5</ele><time>2026-08-05T21:32:51Z</time></trkpt>
<trkpt lat="35.195868" lon="-84.907975"><ele>219.8</ele><time>2026-08-05T21:32:53Z</time></trkpt>
<trkpt lat="35.195861" lon="-84.908014"><ele>219.8</ele><time>2026-08-05T21:32:55Z</time></trkpt>
<trkpt lat="35.195854" lon="-84.908053"><ele>220.1</ele><time>2026-08-05T21:32:57Z</time></trkpt>
<trkpt lat="35.195847" lon="-84.908091"><ele>220.1</ele><time>2026-08-05T21:32:59Z</time></trkpt>
<trkpt lat="35.195839" lon="-84.90813"><ele>220.4</ele><time>2026-08-05T21:33:01Z</time></trkpt>
<trkpt lat="35.195823" lon="-84.908167"><ele>221.0</ele><time>2026-08-05T21:33:03Z</time></trkpt>
<trkpt lat="35.195813" lon="-84.908205"><ele>220.7</ele><time>2026-08-05T21:33:05Z</time></trkpt>
<trkpt lat="35.195807" lon="-84.908245"><ele>220.7</ele><time>2026-08-05T21:33:07Z</time></trkpt>
<trkpt lat="35.195805" lon="-84.908283"><ele>220.7</ele><time>2026-08-05T21:33:09Z</time></trkpt>
<trkpt lat="35.195801" lon="-84.90832"><ele>221.0</ele><time>2026-08-05T21:33:11Z</time></trkpt>
<trkpt lat="35.195801" lon="-84.908357"><ele>220.7</ele><time>2026-08-05T21:33:13Z</time></trkpt>
<trkpt lat="35.195807" lon="-84.908396"><ele>221.0</ele><time>2026-08-05T21:33:15Z</time></trkpt>
<trkpt lat="35.195806" lon="-84.908433"><ele>221.0</ele><time>2026-08-05T21:33:17Z</time></trkpt>
<trkpt lat="35.195804" lon="-84.90847"><ele>221.3</ele><time>2026-08-05T21:33:19Z</time></trkpt>
<trkpt lat="35.195805" lon="-84.908506"><ele>221.3</ele><time>2026-08-05T21:33:21Z</time></trkpt>
<trkpt lat="35.195805" lon="-84.908543"><ele>221.3</ele><time>2026-08-05T21:33:23Z</time></trkpt>
<trkpt lat="35.195806" lon="-84.908581"><ele>221.6</ele><time>2026-08-05T21:33:25Z</time></trkpt>
<trkpt lat="35.195804" lon="-84.908619"><ele>221.6</ele><time>2026-08-05T21:33:27Z</time></trkpt>
<trkpt lat="35.195802" lon="-84.908655"><ele>221.3</ele><time>2026-08-05T21:33:29Z</time></trkpt>
<trkpt lat="35.1958" lon="-84.908692"><ele>221.3</ele><time>2026-08-05T21:33:31Z</time></trkpt>
<trkpt lat="35.195797" lon="-84.908727"><ele>221.3</ele><time>2026-08-05T21:33:33Z</time></trkpt>
<trkpt lat="35.195792" lon="-84.908762"><ele>221.3</ele><time>2026-08-05T21:33:35Z</time></trkpt>
<trkpt lat="35.195791" lon="-84.908797"><ele>221.3</ele><time>2026-08-05T21:33:37Z</time></trkpt>
<trkpt lat="35.195788" lon="-84.908836"><ele>221.3</ele><time>2026-08-05T21:33:39Z</time></trkpt>
<trkpt lat="35.195793" lon="-84.908885"><ele>221.0</ele><time>2026-08-05T21:33:42Z</time></trkpt>
<trkpt lat="35.195805" lon="-84.90892"><ele>221.3</ele><time>2026-08-05T21:33:44Z</time></trkpt>
<trkpt lat="35.195824" lon="-84.90895"><ele>221.0</ele><time>2026-08-05T21:33:46Z</time></trkpt>
<trkpt lat="35.195848" lon="-84.908972"><ele>220.7</ele><time>2026-08-05T21:33:48Z</time></trkpt>
<trkpt lat="35.195875" lon="-84.908983"><ele>221.6</ele><time>2026-08-05T21:33:50Z</time></trkpt>
<trkpt lat="35.195903" lon="-84.908988"><ele>222.2</ele><time>2026-08-05T21:33:52Z</time></trkpt>
<trkpt lat="35.195944" lon="-84.908994"><ele>222.5</ele><time>2026-08-05T21:33:55Z</time></trkpt>
<trkpt lat="35.195974" lon="-84.908996"><ele>222.8</ele><time>2026-08-05T21:33:57Z</time></trkpt>
<trkpt lat="35.196004" lon="-84.908993"><ele>222.8</ele><time>2026-08-05T21:33:59Z</time></trkpt>
<trkpt lat="35.196033" lon="-84.908991"><ele>222.8</ele><time>2026-08-05T21:34:01Z</time></trkpt>
<trkpt lat="35.196062" lon="-84.908987"><ele>222.8</ele><time>2026-08-05T21:34:03Z</time></trkpt>
<trkpt lat="35.196093" lon="-84.908983"><ele>222.8</ele><time>2026-08-05T21:34:05Z</time></trkpt>
<trkpt lat="35.196123" lon="-84.908979"><ele>223.1</ele><time>2026-08-05T21:34:07Z</time></trkpt>
<trkpt lat="35.196153" lon="-84.908973"><ele>223.1</ele><time>2026-08-05T21:34:09Z</time></trkpt>
<trkpt lat="35.196181" lon="-84.908967"><ele>223.4</ele><time>2026-08-05T21:34:11Z</time></trkpt>
<trkpt lat="35.196209" lon="-84.908958"><ele>223.4</ele><time>2026-08-05T21:34:13Z</time></trkpt>
<trkpt lat="35.196238" lon="-84.908954"><ele>223.4</ele><time>2026-08-05T21:34:15Z</time></trkpt>
<trkpt lat="35.196267" lon="-84.908948"><ele>223.1</ele><time>2026-08-05T21:34:17Z</time></trkpt>
<trkpt lat="35.196298" lon="-84.908942"><ele>223.1</ele><time>2026-08-05T21:34:19Z</time></trkpt>
<trkpt lat="35.196328" lon="-84.908932"><ele>222.8</ele><time>2026-08-05T21:34:21Z</time></trkpt>
<trkpt lat="35.196357" lon="-84.908924"><ele>222.5</ele><time>2026-08-05T21:34:23Z</time></trkpt>
<trkpt lat="35.196386" lon="-84.908915"><ele>222.2</ele><time>2026-08-05T21:34:25Z</time></trkpt>
<trkpt lat="35.196416" lon="-84.908903"><ele>222.2</ele><time>2026-08-05T21:34:27Z</time></trkpt>
<trkpt lat="35.196443" lon="-84.90889"><ele>222.2</ele><time>2026-08-05T21:34:29Z</time></trkpt>
<trkpt lat="35.196473" lon="-84.908879"><ele>222.2</ele><time>2026-08-05T21:34:31Z</time></trkpt>
<trkpt lat="35.196503" lon="-84.908868"><ele>222.2</ele><time>2026-08-05T21:34:33Z</time></trkpt>
<trkpt lat="35.19653" lon="-84.908854"><ele>222.2</ele><time>2026-08-05T21:34:35Z</time></trkpt>
<trkpt lat="35.196557" lon="-84.90884"><ele>221.6</ele><time>2026-08-05T21:34:37Z</time></trkpt>
<trkpt lat="35.196583" lon="-84.908825"><ele>221.6</ele><time>2026-08-05T21:34:39Z</time></trkpt>
<trkpt lat="35.196611" lon="-84.908812"><ele>221.3</ele><time>2026-08-05T21:34:41Z</time></trkpt>
<trkpt lat="35.196638" lon="-84.908799"><ele>221.3</ele><time>2026-08-05T21:34:43Z</time></trkpt>
<trkpt lat="35.196665" lon="-84.908781"><ele>221.0</ele><time>2026-08-05T21:34:45Z</time></trkpt>
<trkpt lat="35.196693" lon="-84.908765"><ele>220.7</ele><time>2026-08-05T21:34:47Z</time></trkpt>
<trkpt lat="35.196722" lon="-84.908748"><ele>220.4</ele><time>2026-08-05T21:34:49Z</time></trkpt>
<trkpt lat="35.19675" lon="-84.908731"><ele>220.4</ele><time>2026-08-05T21:34:51Z</time></trkpt>
<trkpt lat="35.19678" lon="-84.908716"><ele>219.8</ele><time>2026-08-05T21:34:53Z</time></trkpt>
<trkpt lat="35.196808" lon="-84.908699"><ele>219.8</ele><time>2026-08-05T21:34:55Z</time></trkpt>
<trkpt lat="35.19684" lon="-84.908685"><ele>219.8</ele><time>2026-08-05T21:34:57Z</time></trkpt>
<trkpt lat="35.196869" lon="-84.90867"><ele>220.1</ele><time>2026-08-05T21:34:59Z</time></trkpt>
<trkpt lat="35.196899" lon="-84.908656"><ele>220.4</ele><time>2026-08-05T21:35:01Z</time></trkpt>
<trkpt lat="35.196925" lon="-84.908636"><ele>221.0</ele><time>2026-08-05T21:35:03Z</time></trkpt>
<trkpt lat="35.196953" lon="-84.908617"><ele>221.3</ele><time>2026-08-05T21:35:05Z</time></trkpt>
<trkpt lat="35.19698" lon="-84.908598"><ele>221.0</ele><time>2026-08-05T21:35:07Z</time></trkpt>
<trkpt lat="35.197007" lon="-84.908577"><ele>220.7</ele><time>2026-08-05T21:35:09Z</time></trkpt>
<trkpt lat="35.197032" lon="-84.908553"><ele>220.4</ele><time>2026-08-05T21:35:11Z</time></trkpt>
<trkpt lat="35.197054" lon="-84.908527"><ele>220.7</ele><time>2026-08-05T21:35:13Z</time></trkpt>
<trkpt lat="35.19707" lon="-84.908494"><ele>220.7</ele><time>2026-08-05T21:35:15Z</time></trkpt>
<trkpt lat="35.197077" lon="-84.908457"><ele>221.0</ele><time>2026-08-05T21:35:17Z</time></trkpt>
<trkpt lat="35.197073" lon="-84.90842"><ele>221.6</ele><time>2026-08-05T21:35:19Z</time></trkpt>
<trkpt lat="35.19706" lon="-84.908387"><ele>221.6</ele><time>2026-08-05T21:35:21Z</time></trkpt>
<trkpt lat="35.197044" lon="-84.908355"><ele>221.9</ele><time>2026-08-05T21:35:23Z</time></trkpt>
<trkpt lat="35.19703" lon="-84.908322"><ele>221.6</ele><time>2026-08-05T21:35:25Z</time></trkpt>
<trkpt lat="35.197017" lon="-84.908289"><ele>221.6</ele><time>2026-08-05T21:35:27Z</time></trkpt>
<trkpt lat="35.197012" lon="-84.908253"><ele>221.9</ele><time>2026-08-05T21:35:29Z</time></trkpt>
<trkpt lat="35.197008" lon="-84.908218"><ele>221.9</ele><time>2026-08-05T21:35:31Z</time></trkpt>
<trkpt lat="35.19701" lon="-84.908181"><ele>222.2</ele><time>2026-08-05T21:35:33Z</time></trkpt>
<trkpt lat="35.197012" lon="-84.908143"><ele>222.5</ele><time>2026-08-05T21:35:35Z</time></trkpt>
<trkpt lat="35.197011" lon="-84.908106"><ele>222.2</ele><time>2026-08-05T21:35:37Z</time></trkpt>
<trkpt lat="35.197012" lon="-84.908066"><ele>221.9</ele><time>2026-08-05T21:35:39Z</time></trkpt>
<trkpt lat="35.197009" lon="-84.908024"><ele>222.5</ele><time>2026-08-05T21:35:41Z</time></trkpt>
<trkpt lat="35.19701" lon="-84.907986"><ele>222.2</ele><time>2026-08-05T21:35:43Z</time></trkpt>
<trkpt lat="35.19701" lon="-84.907947"><ele>222.5</ele><time>2026-08-05T21:35:45Z</time></trkpt>
<trkpt lat="35.19701" lon="-84.907907"><ele>222.8</ele><time>2026-08-05T21:35:47Z</time></trkpt>
<trkpt lat="35.197012" lon="-84.90787"><ele>223.1</ele><time>2026-08-05T21:35:49Z</time></trkpt>
<trkpt lat="35.197014" lon="-84.907833"><ele>223.1</ele><time>2026-08-05T21:35:51Z</time></trkpt>
<trkpt lat="35.197014" lon="-84.907797"><ele>223.1</ele><time>2026-08-05T21:35:53Z</time></trkpt>
<trkpt lat="35.197012" lon="-84.90776"><ele>222.2</ele><time>2026-08-05T21:35:55Z</time></trkpt>
<trkpt lat="35.197012" lon="-84.907724"><ele>222.8</ele><time>2026-08-05T21:35:57Z</time></trkpt>
<trkpt lat="35.197006" lon="-84.907687"><ele>222.2</ele><time>2026-08-05T21:35:59Z</time></trkpt>
<trkpt lat="35.196999" lon="-84.907652"><ele>221.9</ele><time>2026-08-05T21:36:01Z</time></trkpt>
<trkpt lat="35.196997" lon="-84.907615"><ele>221.9</ele><time>2026-08-05T21:36:03Z</time></trkpt>
<trkpt lat="35.196998" lon="-84.907571"><ele>221.3</ele><time>2026-08-05T21:36:05Z</time></trkpt>
<trkpt lat="35.196995" lon="-84.907528"><ele>221.9</ele><time>2026-08-05T21:36:07Z</time></trkpt>
<trkpt lat="35.196994" lon="-84.907486"><ele>222.2</ele><time>2026-08-05T21:36:09Z</time></trkpt>
<trkpt lat="35.196992" lon="-84.907443"><ele>222.2</ele><time>2026-08-05T21:36:11Z</time></trkpt>
<trkpt lat="35.196988" lon="-84.907401"><ele>222.2</ele><time>2026-08-05T21:36:13Z</time></trkpt>
<trkpt lat="35.196985" lon="-84.907359"><ele>221.6</ele><time>2026-08-05T21:36:15Z</time></trkpt>
<trkpt lat="35.196983" lon="-84.90732"><ele>221.3</ele><time>2026-08-05T21:36:17Z</time></trkpt>
<trkpt lat="35.196981" lon="-84.907284"><ele>221.6</ele><time>2026-08-05T21:36:19Z</time></trkpt>
<trkpt lat="35.196976" lon="-84.907248"><ele>221.3</ele><time>2026-08-05T21:36:21Z</time></trkpt>
<trkpt lat="35.196969" lon="-84.907213"><ele>221.6</ele><time>2026-08-05T21:36:23Z</time></trkpt>
<trkpt lat="35.196961" lon="-84.907173"><ele>221.6</ele><time>2026-08-05T21:36:25Z</time></trkpt>
<trkpt lat="35.196961" lon="-84.907136"><ele>221.0</ele><time>2026-08-05T21:36:27Z</time></trkpt>
<trkpt lat="35.196952" lon="-84.907103"><ele>220.7</ele><time>2026-08-05T21:36:29Z</time></trkpt>
<trkpt lat="35.196943" lon="-84.907071"><ele>221.3</ele><time>2026-08-05T21:36:31Z</time></trkpt>
<trkpt lat="35.196934" lon="-84.907036"><ele>221.3</ele><time>2026-08-05T21:36:33Z</time></trkpt>
<trkpt lat="35.196921" lon="-84.906999"><ele>221.9</ele><time>2026-08-05T21:36:35Z</time></trkpt>
<trkpt lat="35.196909" lon="-84.906961"><ele>222.5</ele><time>2026-08-05T21:36:37Z</time></trkpt>
<trkpt lat="35.1969" lon="-84.906918"><ele>221.9</ele><time>2026-08-05T21:36:39Z</time></trkpt>
<trkpt lat="35.196895" lon="-84.906877"><ele>222.5</ele><time>2026-08-05T21:36:41Z</time></trkpt>
<trkpt lat="35.19689" lon="-84.906838"><ele>222.2</ele><time>2026-08-05T21:36:43Z</time></trkpt>
<trkpt lat="35.196886" lon="-84.906798"><ele>222.5</ele><time>2026-08-05T21:36:45Z</time></trkpt>
<trkpt lat="35.196884" lon="-84.906758"><ele>222.5</ele><time>2026-08-05T21:36:47Z</time></trkpt>
<trkpt lat="35.196885" lon="-84.906718"><ele>222.2</ele><time>2026-08-05T21:36:49Z</time></trkpt>
<trkpt lat="35.196883" lon="-84.906682"><ele>222.5</ele><time>2026-08-05T21:36:51Z</time></trkpt>
<trkpt lat="35.196885" lon="-84.906643"><ele>222.2</ele><time>2026-08-05T21:36:53Z</time></trkpt>
<trkpt lat="35.196883" lon="-84.906605"><ele>222.2</ele><time>2026-08-05T21:36:55Z</time></trkpt>
<trkpt lat="35.196885" lon="-84.906567"><ele>221.9</ele><time>2026-08-05T21:36:57Z</time></trkpt>
<trkpt lat="35.196884" lon="-84.90653"><ele>221.6</ele><time>2026-08-05T21:36:59Z</time></trkpt>
<trkpt lat="35.196884" lon="-84.906492"><ele>221.9</ele><time>2026-08-05T21:37:01Z</time></trkpt>
<trkpt lat="35.196884" lon="-84.906455"><ele>222.2</ele><time>2026-08-05T21:37:03Z</time></trkpt>
<trkpt lat="35.196884" lon="-84.906418"><ele>222.5</ele><time>2026-08-05T21:37:05Z</time></trkpt>
<trkpt lat="35.196881" lon="-84.906377"><ele>222.5</ele><time>2026-08-05T21:37:07Z</time></trkpt>
<trkpt lat="35.196879" lon="-84.906335"><ele>222.2</ele><time>2026-08-05T21:37:09Z</time></trkpt>
<trkpt lat="35.196879" lon="-84.906293"><ele>221.9</ele><time>2026-08-05T21:37:11Z</time></trkpt>
<trkpt lat="35.196881" lon="-84.906254"><ele>221.6</ele><time>2026-08-05T21:37:13Z</time></trkpt>
<trkpt lat="35.196883" lon="-84.906217"><ele>221.3</ele><time>2026-08-05T21:37:15Z</time></trkpt>
<trkpt lat="35.196885" lon="-84.90618"><ele>221.3</ele><time>2026-08-05T21:37:17Z</time></trkpt>
<trkpt lat="35.196884" lon="-84.906143"><ele>221.6</ele><time>2026-08-05T21:37:19Z</time></trkpt>
<trkpt lat="35.196883" lon="-84.906106"><ele>221.6</ele><time>2026-08-05T21:37:21Z</time></trkpt>
<trkpt lat="35.19688" lon="-84.906071"><ele>221.6</ele><time>2026-08-05T21:37:23Z</time></trkpt>
<trkpt lat="35.196878" lon="-84.906033"><ele>221.9</ele><time>2026-08-05T21:37:25Z</time></trkpt>
<trkpt lat="35.196878" lon="-84.905991"><ele>221.3</ele><time>2026-08-05T21:37:27Z</time></trkpt>
<trkpt lat="35.196875" lon="-84.905952"><ele>221.0</ele><time>2026-08-05T21:37:29Z</time></trkpt>
<trkpt lat="35.196872" lon="-84.905913"><ele>221.3</ele><time>2026-08-05T21:37:31Z</time></trkpt>
<trkpt lat="35.196872" lon="-84.905874"><ele>221.0</ele><time>2026-08-05T21:37:33Z</time></trkpt>
<trkpt lat="35.196872" lon="-84.905836"><ele>220.7</ele><time>2026-08-05T21:37:35Z</time></trkpt>
<trkpt lat="35.196871" lon="-84.905795"><ele>221.0</ele><time>2026-08-05T21:37:37Z</time></trkpt>
<trkpt lat="35.196867" lon="-84.905753"><ele>221.6</ele><time>2026-08-05T21:37:39Z</time></trkpt>
<trkpt lat="35.196861" lon="-84.905715"><ele>221.6</ele><time>2026-08-05T21:37:41Z</time></trkpt>
<trkpt lat="35.196857" lon="-84.905677"><ele>221.9</ele><time>2026-08-05T21:37:43Z</time></trkpt>
<trkpt lat="35.196851" lon="-84.905639"><ele>220.4</ele><time>2026-08-05T21:37:45Z</time></trkpt>
<trkpt lat="35.196848" lon="-84.905601"><ele>219.8</ele><time>2026-08-05T21:37:47Z</time></trkpt>
<trkpt lat="35.196846" lon="-84.905562"><ele>220.1</ele><time>2026-08-05T21:37:49Z</time></trkpt>
<trkpt lat="35.19685" lon="-84.905528"><ele>219.2</ele><time>2026-08-05T21:37:51Z</time></trkpt>
<trkpt lat="35.19685" lon="-84.905492"><ele>218.5</ele><time>2026-08-05T21:37:53Z</time></trkpt>
<trkpt lat="35.196844" lon="-84.905457"><ele>219.5</ele><time>2026-08-05T21:37:55Z</time></trkpt>
<trkpt lat="35.196841" lon="-84.905418"><ele>218.5</ele><time>2026-08-05T21:37:57Z</time></trkpt>
<trkpt lat="35.196833" lon="-84.905379"><ele>218.5</ele><time>2026-08-05T21:37:59Z</time></trkpt>
<trkpt lat="35.196826" lon="-84.905339"><ele>219.2</ele><time>2026-08-05T21:38:01Z</time></trkpt>
<trkpt lat="35.196812" lon="-84.905305"><ele>219.5</ele><time>2026-08-05T21:38:03Z</time></trkpt>
<trkpt lat="35.196808" lon="-84.905261"><ele>219.2</ele><time>2026-08-05T21:38:05Z</time></trkpt>
<trkpt lat="35.196802" lon="-84.905219"><ele>219.2</ele><time>2026-08-05T21:38:07Z</time></trkpt>
<trkpt lat="35.1968" lon="-84.905179"><ele>219.2</ele><time>2026-08-05T21:38:09Z</time></trkpt>
<trkpt lat="35.196795" lon="-84.90514"><ele>219.2</ele><time>2026-08-05T21:38:11Z</time></trkpt>
<trkpt lat="35.196788" lon="-84.905104"><ele>219.8</ele><time>2026-08-05T21:38:13Z</time></trkpt>
<trkpt lat="35.196784" lon="-84.905067"><ele>219.8</ele><time>2026-08-05T21:38:15Z</time></trkpt>
<trkpt lat="35.196784" lon="-84.90503"><ele>219.5</ele><time>2026-08-05T21:38:17Z</time></trkpt>
<trkpt lat="35.196784" lon="-84.904994"><ele>219.2</ele><time>2026-08-05T21:38:19Z</time></trkpt>
<trkpt lat="35.196783" lon="-84.904958"><ele>219.8</ele><time>2026-08-05T21:38:21Z</time></trkpt>
<trkpt lat="35.196779" lon="-84.904925"><ele>219.5</ele><time>2026-08-05T21:38:23Z</time></trkpt>
<trkpt lat="35.196767" lon="-84.904878"><ele>219.8</ele><time>2026-08-05T21:38:26Z</time></trkpt>
<trkpt lat="35.196762" lon="-84.90483"><ele>218.8</ele><time>2026-08-05T21:38:29Z</time></trkpt>
<trkpt lat="35.196763" lon="-84.904782"><ele>218.2</ele><time>2026-08-05T21:38:32Z</time></trkpt>
<trkpt lat="35.196759" lon="-84.904733"><ele>217.6</ele><time>2026-08-05T21:38:35Z</time></trkpt>
<trkpt lat="35.196754" lon="-84.904691"><ele>217.3</ele><time>2026-08-05T21:38:38Z</time></trkpt>
<trkpt lat="35.196755" lon="-84.904652"><ele>217.6</ele><time>2026-08-05T21:38:41Z</time></trkpt>
<trkpt lat="35.196761" lon="-84.904614"><ele>217.0</ele><time>2026-08-05T21:38:44Z</time></trkpt>
<trkpt lat="35.196754" lon="-84.904576"><ele>217.6</ele><time>2026-08-05T21:38:47Z</time></trkpt>
<trkpt lat="35.196741" lon="-84.904544"><ele>217.6</ele><time>2026-08-05T21:38:50Z</time></trkpt>
<trkpt lat="35.196742" lon="-84.904504"><ele>218.5</ele><time>2026-08-05T21:38:53Z</time></trkpt>
<trkpt lat="35.196734" lon="-84.904464"><ele>218.5</ele><time>2026-08-05T21:38:56Z</time></trkpt>
<trkpt lat="35.196732" lon="-84.904417"><ele>219.5</ele><time>2026-08-05T21:38:59Z</time></trkpt>
<trkpt lat="35.196724" lon="-84.90437"><ele>220.4</ele><time>2026-08-05T21:39:02Z</time></trkpt>
<trkpt lat="35.196721" lon="-84.904332"><ele>220.7</ele><time>2026-08-05T21:39:04Z</time></trkpt>
<trkpt lat="35.196721" lon="-84.904294"><ele>221.3</ele><time>2026-08-05T21:39:06Z</time></trkpt>
<trkpt lat="35.196723" lon="-84.904255"><ele>221.9</ele><time>2026-08-05T21:39:08Z</time></trkpt>
<trkpt lat="35.196722" lon="-84.904211"><ele>221.6</ele><time>2026-08-05T21:39:10Z</time></trkpt>
<trkpt lat="35.196722" lon="-84.904171"><ele>222.2</ele><time>2026-08-05T21:39:12Z</time></trkpt>
<trkpt lat="35.196726" lon="-84.904131"><ele>221.9</ele><time>2026-08-05T21:39:14Z</time></trkpt>
<trkpt lat="35.196732" lon="-84.904094"><ele>221.3</ele><time>2026-08-05T21:39:16Z</time></trkpt>
<trkpt lat="35.196739" lon="-84.904059"><ele>221.6</ele><time>2026-08-05T21:39:18Z</time></trkpt>
<trkpt lat="35.19674" lon="-84.904024"><ele>221.6</ele><time>2026-08-05T21:39:20Z</time></trkpt>
<trkpt lat="35.196739" lon="-84.90399"><ele>221.6</ele><time>2026-08-05T21:39:22Z</time></trkpt>
<trkpt lat="35.196739" lon="-84.903954"><ele>222.2</ele><time>2026-08-05T21:39:24Z</time></trkpt>
<trkpt lat="35.196739" lon="-84.903918"><ele>222.2</ele><time>2026-08-05T21:39:26Z</time></trkpt>
<trkpt lat="35.196742" lon="-84.903883"><ele>222.5</ele><time>2026-08-05T21:39:28Z</time></trkpt>
<trkpt lat="35.196744" lon="-84.903844"><ele>222.5</ele><time>2026-08-05T21:39:30Z</time></trkpt>
<trkpt lat="35.196747" lon="-84.903805"><ele>223.1</ele><time>2026-08-05T21:39:32Z</time></trkpt>
<trkpt lat="35.196751" lon="-84.903768"><ele>222.8</ele><time>2026-08-05T21:39:34Z</time></trkpt>
<trkpt lat="35.196753" lon="-84.903729"><ele>223.1</ele><time>2026-08-05T21:39:36Z</time></trkpt>
<trkpt lat="35.196753" lon="-84.903692"><ele>222.8</ele><time>2026-08-05T21:39:38Z</time></trkpt>
<trkpt lat="35.196755" lon="-84.903655"><ele>222.5</ele><time>2026-08-05T21:39:40Z</time></trkpt>
<trkpt lat="35.196757" lon="-84.903619"><ele>222.8</ele><time>2026-08-05T21:39:42Z</time></trkpt>
<trkpt lat="35.19676" lon="-84.903584"><ele>222.8</ele><time>2026-08-05T21:39:44Z</time></trkpt>
<trkpt lat="35.196764" lon="-84.903547"><ele>222.8</ele><time>2026-08-05T21:39:46Z</time></trkpt>
<trkpt lat="35.196769" lon="-84.903511"><ele>222.8</ele><time>2026-08-05T21:39:48Z</time></trkpt>
<trkpt lat="35.19677" lon="-84.903476"><ele>223.1</ele><time>2026-08-05T21:39:50Z</time></trkpt>
<trkpt lat="35.196772" lon="-84.903442"><ele>222.5</ele><time>2026-08-05T21:39:52Z</time></trkpt>
<trkpt lat="35.196775" lon="-84.903406"><ele>222.5</ele><time>2026-08-05T21:39:54Z</time></trkpt>
<trkpt lat="35.19678" lon="-84.903367"><ele>221.6</ele><time>2026-08-05T21:39:56Z</time></trkpt>
<trkpt lat="35.196784" lon="-84.903328"><ele>222.2</ele><time>2026-08-05T21:39:58Z</time></trkpt>
<trkpt lat="35.196788" lon="-84.903288"><ele>222.2</ele><time>2026-08-05T21:40:00Z</time></trkpt>
<trkpt lat="35.196792" lon="-84.903251"><ele>222.5</ele><time>2026-08-05T21:40:02Z</time></trkpt>
<trkpt lat="35.196794" lon="-84.903214"><ele>222.2</ele><time>2026-08-05T21:40:04Z</time></trkpt>
<trkpt lat="35.196798" lon="-84.903179"><ele>222.2</ele><time>2026-08-05T21:40:06Z</time></trkpt>
<trkpt lat="35.1968" lon="-84.903142"><ele>222.2</ele><time>2026-08-05T21:40:08Z</time></trkpt>
<trkpt lat="35.196801" lon="-84.903109"><ele>223.1</ele><time>2026-08-05T21:40:10Z</time></trkpt>
<trkpt lat="35.196805" lon="-84.903074"><ele>222.2</ele><time>2026-08-05T21:40:12Z</time></trkpt>
<trkpt lat="35.196809" lon="-84.903033"><ele>222.8</ele><time>2026-08-05T21:40:14Z</time></trkpt>
<trkpt lat="35.19681" lon="-84.902996"><ele>223.1</ele><time>2026-08-05T21:40:16Z</time></trkpt>
<trkpt lat="35.196809" lon="-84.902958"><ele>223.7</ele><time>2026-08-05T21:40:18Z</time></trkpt>
<trkpt lat="35.196807" lon="-84.902918"><ele>223.1</ele><time>2026-08-05T21:40:20Z</time></trkpt>
<trkpt lat="35.19681" lon="-84.902879"><ele>221.9</ele><time>2026-08-05T21:40:22Z</time></trkpt>
<trkpt lat="35.196812" lon="-84.902839"><ele>221.9</ele><time>2026-08-05T21:40:24Z</time></trkpt>
<trkpt lat="35.196811" lon="-84.902801"><ele>222.2</ele><time>2026-08-05T21:40:26Z</time></trkpt>
<trkpt lat="35.196807" lon="-84.902764"><ele>222.8</ele><time>2026-08-05T21:40:28Z</time></trkpt>
<trkpt lat="35.196813" lon="-84.902728"><ele>222.2</ele><time>2026-08-05T21:40:30Z</time></trkpt>
<trkpt lat="35.196813" lon="-84.902694"><ele>222.8</ele><time>2026-08-05T21:40:32Z</time></trkpt>
<trkpt lat="35.196816" lon="-84.90266"><ele>222.8</ele><time>2026-08-05T21:40:34Z</time></trkpt>
<trkpt lat="35.196822" lon="-84.902623"><ele>222.5</ele><time>2026-08-05T21:40:36Z</time></trkpt>
<trkpt lat="35.196825" lon="-84.902585"><ele>222.5</ele><time>2026-08-05T21:40:38Z</time></trkpt>
<trkpt lat="35.196829" lon="-84.902546"><ele>222.2</ele><time>2026-08-05T21:40:40Z</time></trkpt>
<trkpt lat="35.196837" lon="-84.902508"><ele>221.6</ele><time>2026-08-05T21:40:42Z</time></trkpt>
<trkpt lat="35.196847" lon="-84.902468"><ele>221.6</ele><time>2026-08-05T21:40:44Z</time></trkpt>
<trkpt lat="35.196859" lon="-84.902429"><ele>221.6</ele><time>2026-08-05T21:40:46Z</time></trkpt>
<trkpt lat="35.196874" lon="-84.902391"><ele>221.6</ele><time>2026-08-05T21:40:48Z</time></trkpt>
<trkpt lat="35.196887" lon="-84.902354"><ele>222.5</ele><time>2026-08-05T21:40:50Z</time></trkpt>
<trkpt lat="35.196902" lon="-84.902318"><ele>222.2</ele><time>2026-08-05T21:40:52Z</time></trkpt>
<trkpt lat="35.196913" lon="-84.902281"><ele>222.2</ele><time>2026-08-05T21:40:54Z</time></trkpt>
<trkpt lat="35.196927" lon="-84.902244"><ele>223.4</ele><time>2026-08-05T21:40:56Z</time></trkpt>
<trkpt lat="35.196945" lon="-84.902209"><ele>223.1</ele><time>2026-08-05T21:40:58Z</time></trkpt>
<trkpt lat="35.196963" lon="-84.902178"><ele>222.5</ele><time>2026-08-05T21:41:00Z</time></trkpt>
<trkpt lat="35.196983" lon="-84.902148"><ele>221.6</ele><time>2026-08-05T21:41:02Z</time></trkpt>
<trkpt lat="35.197002" lon="-84.902117"><ele>222.5</ele><time>2026-08-05T21:41:04Z</time></trkpt>
<trkpt lat="35.197017" lon="-84.902085"><ele>221.6</ele><time>2026-08-05T21:41:06Z</time></trkpt>
<trkpt lat="35.197034" lon="-84.902053"><ele>221.6</ele><time>2026-08-05T21:41:08Z</time></trkpt>
<trkpt lat="35.197053" lon="-84.902024"><ele>221.9</ele><time>2026-08-05T21:41:10Z</time></trkpt>
<trkpt lat="35.197074" lon="-84.901996"><ele>222.2</ele><time>2026-08-05T21:41:12Z</time></trkpt>
<trkpt lat="35.197091" lon="-84.901964"><ele>222.5</ele><time>2026-08-05T21:41:14Z</time></trkpt>
<trkpt lat="35.197106" lon="-84.901931"><ele>222.2</ele><time>2026-08-05T21:41:16Z</time></trkpt>
<trkpt lat="35.19712" lon="-84.901902"><ele>221.9</ele><time>2026-08-05T21:41:18Z</time></trkpt>
<trkpt lat="35.197136" lon="-84.901872"><ele>222.2</ele><time>2026-08-05T21:41:20Z</time></trkpt>
<trkpt lat="35.197155" lon="-84.90184"><ele>221.9</ele><time>2026-08-05T21:41:22Z</time></trkpt>
<trkpt lat="35.197178" lon="-84.901813"><ele>221.0</ele><time>2026-08-05T21:41:24Z</time></trkpt>
<trkpt lat="35.1972" lon="-84.901783"><ele>221.0</ele><time>2026-08-05T21:41:26Z</time></trkpt>
<trkpt lat="35.197218" lon="-84.901754"><ele>220.4</ele><time>2026-08-05T21:41:28Z</time></trkpt>
<trkpt lat="35.197236" lon="-84.901727"><ele>220.1</ele><time>2026-08-05T21:41:30Z</time></trkpt>
<trkpt lat="35.197252" lon="-84.901699"><ele>220.1</ele><time>2026-08-05T21:41:32Z</time></trkpt>
<trkpt lat="35.197271" lon="-84.901672"><ele>220.1</ele><time>2026-08-05T21:41:34Z</time></trkpt>
<trkpt lat="35.197289" lon="-84.901644"><ele>219.5</ele><time>2026-08-05T21:41:36Z</time></trkpt>
<trkpt lat="35.197309" lon="-84.901616"><ele>219.5</ele><time>2026-08-05T21:41:38Z</time></trkpt>
<trkpt lat="35.197325" lon="-84.901589"><ele>219.8</ele><time>2026-08-05T21:41:40Z</time></trkpt>
<trkpt lat="35.197343" lon="-84.90156"><ele>219.5</ele><time>2026-08-05T21:41:42Z</time></trkpt>
<trkpt lat="35.197364" lon="-84.901533"><ele>219.5</ele><time>2026-08-05T21:41:44Z</time></trkpt>
<trkpt lat="35.197386" lon="-84.901507"><ele>218.8</ele><time>2026-08-05T21:41:46Z</time></trkpt>
<trkpt lat="35.197407" lon="-84.901479"><ele>218.5</ele><time>2026-08-05T21:41:48Z</time></trkpt>
<trkpt lat="35.197427" lon="-84.901451"><ele>218.5</ele><time>2026-08-05T21:41:50Z</time></trkpt>
<trkpt lat="35.197448" lon="-84.901422"><ele>219.2</ele><time>2026-08-05T21:41:52Z</time></trkpt>
<trkpt lat="35.197469" lon="-84.901396"><ele>219.5</ele><time>2026-08-05T21:41:54Z</time></trkpt>
<trkpt lat="35.197491" lon="-84.901372"><ele>218.8</ele><time>2026-08-05T21:41:56Z</time></trkpt>
<trkpt lat="35.197513" lon="-84.901347"><ele>219.2</ele><time>2026-08-05T21:41:58Z</time></trkpt>
<trkpt lat="35.197531" lon="-84.901317"><ele>218.8</ele><time>2026-08-05T21:42:00Z</time></trkpt>
<trkpt lat="35.197547" lon="-84.901286"><ele>218.8</ele><time>2026-08-05T21:42:02Z</time></trkpt>
<trkpt lat="35.19757" lon="-84.901259"><ele>218.5</ele><time>2026-08-05T21:42:04Z</time></trkpt>
<trkpt lat="35.197592" lon="-84.901236"><ele>217.6</ele><time>2026-08-05T21:42:06Z</time></trkpt>
<trkpt lat="35.19762" lon="-84.901197"><ele>216.7</ele><time>2026-08-05T21:42:09Z</time></trkpt>
<trkpt lat="35.197637" lon="-84.901168"><ele>216.7</ele><time>2026-08-05T21:42:11Z</time></trkpt>
<trkpt lat="35.197658" lon="-84.901145"><ele>217.3</ele><time>2026-08-05T21:42:13Z</time></trkpt>
<trkpt lat="35.197677" lon="-84.901119"><ele>217.3</ele><time>2026-08-05T21:42:15Z</time></trkpt>
<trkpt lat="35.197698" lon="-84.901096"><ele>217.3</ele><time>2026-08-05T21:42:17Z</time></trkpt>
<trkpt lat="35.197716" lon="-84.901069"><ele>217.0</ele><time>2026-08-05T21:42:19Z</time></trkpt>
<trkpt lat="35.197735" lon="-84.901038"><ele>217.0</ele><time>2026-08-05T21:42:21Z</time></trkpt>
<trkpt lat="35.197749" lon="-84.901008"><ele>216.7</ele><time>2026-08-05T21:42:23Z</time></trkpt>
<trkpt lat="35.197766" lon="-84.900977"><ele>216.7</ele><time>2026-08-05T21:42:25Z</time></trkpt>
<trkpt lat="35.19778" lon="-84.900944"><ele>217.0</ele><time>2026-08-05T21:42:27Z</time></trkpt>
<trkpt lat="35.197793" lon="-84.90091"><ele>216.7</ele><time>2026-08-05T21:42:29Z</time></trkpt>
<trkpt lat="35.197805" lon="-84.900875"><ele>216.7</ele><time>2026-08-05T21:42:31Z</time></trkpt>
<trkpt lat="35.197812" lon="-84.900838"><ele>216.7</ele><time>2026-08-05T21:42:33Z</time></trkpt>
<trkpt lat="35.197816" lon="-84.9008"><ele>216.4</ele><time>2026-08-05T21:42:35Z</time></trkpt>
<trkpt lat="35.197824" lon="-84.900765"><ele>216.4</ele><time>2026-08-05T21:42:37Z</time></trkpt>
<trkpt lat="35.19783" lon="-84.90073"><ele>216.1</ele><time>2026-08-05T21:42:39Z</time></trkpt>
<trkpt lat="35.197839" lon="-84.900696"><ele>216.7</ele><time>2026-08-05T21:42:41Z</time></trkpt>
<trkpt lat="35.197844" lon="-84.90066"><ele>216.7</ele><time>2026-08-05T21:42:43Z</time></trkpt>
<trkpt lat="35.197853" lon="-84.900624"><ele>216.4</ele><time>2026-08-05T21:42:45Z</time></trkpt>
<trkpt lat="35.197867" lon="-84.90059"><ele>216.4</ele><time>2026-08-05T21:42:47Z</time></trkpt>
<trkpt lat="35.197883" lon="-84.900557"><ele>216.7</ele><time>2026-08-05T21:42:49Z</time></trkpt>
<trkpt lat="35.1979" lon="-84.900525"><ele>217.0</ele><time>2026-08-05T21:42:51Z</time></trkpt>
<trkpt lat="35.197922" lon="-84.900498"><ele>216.7</ele><time>2026-08-05T21:42:53Z</time></trkpt>
<trkpt lat="35.197944" lon="-84.900472"><ele>216.4</ele><time>2026-08-05T21:42:55Z</time></trkpt>
<trkpt lat="35.197968" lon="-84.90045"><ele>216.4</ele><time>2026-08-05T21:42:57Z</time></trkpt>
<trkpt lat="35.197989" lon="-84.900424"><ele>216.7</ele><time>2026-08-05T21:42:59Z</time></trkpt>
<trkpt lat="35.198014" lon="-84.900402"><ele>217.0</ele><time>2026-08-05T21:43:01Z</time></trkpt>
<trkpt lat="35.198044" lon="-84.900368"><ele>216.7</ele><time>2026-08-05T21:43:04Z</time></trkpt>
<trkpt lat="35.198067" lon="-84.900345"><ele>216.4</ele><time>2026-08-05T21:43:06Z</time></trkpt>
<trkpt lat="35.198092" lon="-84.90032"><ele>216.4</ele><time>2026-08-05T21:43:08Z</time></trkpt>
<trkpt lat="35.198119" lon="-84.900299"><ele>216.4</ele><time>2026-08-05T21:43:10Z</time></trkpt>
<trkpt lat="35.198149" lon="-84.900283"><ele>216.1</ele><time>2026-08-05T21:43:12Z</time></trkpt>
<trkpt lat="35.19818" lon="-84.900265"><ele>215.8</ele><time>2026-08-05T21:43:14Z</time></trkpt>
<trkpt lat="35.198206" lon="-84.900245"><ele>216.1</ele><time>2026-08-05T21:43:16Z</time></trkpt>
<trkpt lat="35.198232" lon="-84.900225"><ele>216.4</ele><time>2026-08-05T21:43:18Z</time></trkpt>
<trkpt lat="35.198254" lon="-84.900205"><ele>216.1</ele><time>2026-08-05T21:43:20Z</time></trkpt>
<trkpt lat="35.198277" lon="-84.900184"><ele>215.8</ele><time>2026-08-05T21:43:22Z</time></trkpt>
<trkpt lat="35.198297" lon="-84.90016"><ele>215.5</ele><time>2026-08-05T21:43:24Z</time></trkpt>
<trkpt lat="35.198315" lon="-84.900131"><ele>215.5</ele><time>2026-08-05T21:43:26Z</time></trkpt>
<trkpt lat="35.198336" lon="-84.900102"><ele>214.9</ele><time>2026-08-05T21:43:28Z</time></trkpt>
<trkpt lat="35.198363" lon="-84.900086"><ele>214.9</ele><time>2026-08-05T21:43:30Z</time></trkpt>
<trkpt lat="35.198395" lon="-84.900087"><ele>215.2</ele><time>2026-08-05T21:43:32Z</time></trkpt>
<trkpt lat="35.198426" lon="-84.900081"><ele>214.9</ele><time>2026-08-05T21:43:34Z</time></trkpt>
<trkpt lat="35.198457" lon="-84.900073"><ele>215.2</ele><time>2026-08-05T21:43:36Z</time></trkpt>
<trkpt lat="35.198485" lon="-84.900062"><ele>215.5</ele><time>2026-08-05T21:43:38Z</time></trkpt>
<trkpt lat="35.198513" lon="-84.900049"><ele>215.8</ele><time>2026-08-05T21:43:40Z</time></trkpt>
<trkpt lat="35.198542" lon="-84.900033"><ele>215.5</ele><time>2026-08-05T21:43:42Z</time></trkpt>
<trkpt lat="35.198571" lon="-84.900022"><ele>215.8</ele><time>2026-08-05T21:43:44Z</time></trkpt>
<trkpt lat="35.198599" lon="-84.900013"><ele>216.4</ele><time>2026-08-05T21:43:46Z</time></trkpt>
<trkpt lat="35.198631" lon="-84.900009"><ele>216.4</ele><time>2026-08-05T21:43:48Z</time></trkpt>
<trkpt lat="35.198659" lon="-84.900003"><ele>216.4</ele><time>2026-08-05T21:43:50Z</time></trkpt>
<trkpt lat="35.198687" lon="-84.899996"><ele>217.0</ele><time>2026-08-05T21:43:52Z</time></trkpt>
<trkpt lat="35.198717" lon="-84.899988"><ele>216.7</ele><time>2026-08-05T21:43:54Z</time></trkpt>
<trkpt lat="35.198745" lon="-84.899978"><ele>217.0</ele><time>2026-08-05T21:43:56Z</time></trkpt>
<trkpt lat="35.198774" lon="-84.899966"><ele>217.9</ele><time>2026-08-05T21:43:58Z</time></trkpt>
<trkpt lat="35.198797" lon="-84.899945"><ele>218.2</ele><time>2026-08-05T21:44:00Z</time></trkpt>
<trkpt lat="35.198798" lon="-84.899907"><ele>218.5</ele><time>2026-08-05T21:44:02Z</time></trkpt>
<trkpt lat="35.198787" lon="-84.899872"><ele>218.8</ele><time>2026-08-05T21:44:04Z</time></trkpt>
<trkpt lat="35.198776" lon="-84.89984"><ele>219.2</ele><time>2026-08-05T21:44:06Z</time></trkpt>
<trkpt lat="35.198765" lon="-84.899805"><ele>219.8</ele><time>2026-08-05T21:44:08Z</time></trkpt>
<trkpt lat="35.198753" lon="-84.899771"><ele>219.8</ele><time>2026-08-05T21:44:10Z</time></trkpt>
<trkpt lat="35.198742" lon="-84.899739"><ele>219.8</ele><time>2026-08-05T21:44:12Z</time></trkpt>
<trkpt lat="35.198732" lon="-84.899705"><ele>220.1</ele><time>2026-08-05T21:44:14Z</time></trkpt>
<trkpt lat="35.198719" lon="-84.899671"><ele>220.1</ele><time>2026-08-05T21:44:16Z</time></trkpt>
<trkpt lat="35.198706" lon="-84.899639"><ele>219.5</ele><time>2026-08-05T21:44:18Z</time></trkpt>
<trkpt lat="35.198698" lon="-84.899605"><ele>219.2</ele><time>2026-08-05T21:44:20Z</time></trkpt>
<trkpt lat="35.198685" lon="-84.899574"><ele>218.5</ele><time>2026-08-05T21:44:22Z</time></trkpt>
<trkpt lat="35.198674" lon="-84.89954"><ele>218.8</ele><time>2026-08-05T21:44:24Z</time></trkpt>
<trkpt lat="35.198663" lon="-84.899506"><ele>219.2</ele><time>2026-08-05T21:44:26Z</time></trkpt>
<trkpt lat="35.198649" lon="-84.899475"><ele>219.2</ele><time>2026-08-05T21:44:28Z</time></trkpt>
<trkpt lat="35.198638" lon="-84.899442"><ele>219.5</ele><time>2026-08-05T21:44:30Z</time></trkpt>
<trkpt lat="35.198631" lon="-84.899408"><ele>219.8</ele><time>2026-08-05T21:44:32Z</time></trkpt>
<trkpt lat="35.198618" lon="-84.899374"><ele>219.5</ele><time>2026-08-05T21:44:34Z</time></trkpt>
<trkpt lat="35.198604" lon="-84.89934"><ele>219.8</ele><time>2026-08-05T21:44:36Z</time></trkpt>
<trkpt lat="35.198588" lon="-84.899306"><ele>219.5</ele><time>2026-08-05T21:44:38Z</time></trkpt>
<trkpt lat="35.198572" lon="-84.899276"><ele>219.2</ele><time>2026-08-05T21:44:40Z</time></trkpt>
<trkpt lat="35.198561" lon="-84.899244"><ele>219.8</ele><time>2026-08-05T21:44:42Z</time></trkpt>
<trkpt lat="35.198551" lon="-84.899211"><ele>219.2</ele><time>2026-08-05T21:44:44Z</time></trkpt>
<trkpt lat="35.19854" lon="-84.899177"><ele>219.5</ele><time>2026-08-05T21:44:46Z</time></trkpt>
<trkpt lat="35.198533" lon="-84.899143"><ele>218.8</ele><time>2026-08-05T21:44:48Z</time></trkpt>
<trkpt lat="35.198525" lon="-84.89911"><ele>218.8</ele><time>2026-08-05T21:44:50Z</time></trkpt>
<trkpt lat="35.198513" lon="-84.899078"><ele>219.5</ele><time>2026-08-05T21:44:52Z</time></trkpt>
<trkpt lat="35.1985" lon="-84.899046"><ele>219.8</ele><time>2026-08-05T21:44:54Z</time></trkpt>
<trkpt lat="35.198489" lon="-84.899013"><ele>219.5</ele><time>2026-08-05T21:44:56Z</time></trkpt>
<trkpt lat="35.198477" lon="-84.89898"><ele>219.5</ele><time>2026-08-05T21:44:58Z</time></trkpt>
<trkpt lat="35.198465" lon="-84.898946"><ele>220.1</ele><time>2026-08-05T21:45:00Z</time></trkpt>
<trkpt lat="35.198451" lon="-84.898913"><ele>220.1</ele><time>2026-08-05T21:45:02Z</time></trkpt>
<trkpt lat="35.198438" lon="-84.898883"><ele>220.1</ele><time>2026-08-05T21:45:04Z</time></trkpt>
<trkpt lat="35.198423" lon="-84.898853"><ele>220.4</ele><time>2026-08-05T21:45:06Z</time></trkpt>
<trkpt lat="35.198411" lon="-84.898821"><ele>221.0</ele><time>2026-08-05T21:45:08Z</time></trkpt>
<trkpt lat="35.198401" lon="-84.898786"><ele>221.0</ele><time>2026-08-05T21:45:10Z</time></trkpt>
<trkpt lat="35.198392" lon="-84.898752"><ele>221.3</ele><time>2026-08-05T21:45:12Z</time></trkpt>
<trkpt lat="35.198381" lon="-84.898716"><ele>221.3</ele><time>2026-08-05T21:45:14Z</time></trkpt>
<trkpt lat="35.198364" lon="-84.898683"><ele>221.3</ele><time>2026-08-05T21:45:16Z</time></trkpt>
<trkpt lat="35.198349" lon="-84.898652"><ele>221.3</ele><time>2026-08-05T21:45:18Z</time></trkpt>
<trkpt lat="35.19833" lon="-84.898608"><ele>221.6</ele><time>2026-08-05T21:45:21Z</time></trkpt>
<trkpt lat="35.198317" lon="-84.898577"><ele>221.9</ele><time>2026-08-05T21:45:23Z</time></trkpt>
<trkpt lat="35.198302" lon="-84.898544"><ele>222.2</ele><time>2026-08-05T21:45:25Z</time></trkpt>
<trkpt lat="35.198291" lon="-84.898513"><ele>222.2</ele><time>2026-08-05T21:45:27Z</time></trkpt>
<trkpt lat="35.198277" lon="-84.89848"><ele>222.5</ele><time>2026-08-05T21:45:29Z</time></trkpt>
<trkpt lat="35.198265" lon="-84.898446"><ele>223.1</ele><time>2026-08-05T21:45:31Z</time></trkpt>
<trkpt lat="35.198254" lon="-84.898413"><ele>223.1</ele><time>2026-08-05T21:45:33Z</time></trkpt>
<trkpt lat="35.198237" lon="-84.898383"><ele>222.8</ele><time>2026-08-05T21:45:35Z</time></trkpt>
<trkpt lat="35.198222" lon="-84.89835"><ele>222.8</ele><time>2026-08-05T21:45:37Z</time></trkpt>
<trkpt lat="35.198208" lon="-84.898317"><ele>223.1</ele><time>2026-08-05T21:45:39Z</time></trkpt>
<trkpt lat="35.198196" lon="-84.898285"><ele>223.4</ele><time>2026-08-05T21:45:41Z</time></trkpt>
<trkpt lat="35.198182" lon="-84.898253"><ele>224.0</ele><time>2026-08-05T21:45:43Z</time></trkpt>
<trkpt lat="35.198174" lon="-84.898219"><ele>223.4</ele><time>2026-08-05T21:45:45Z</time></trkpt>
<trkpt lat="35.198157" lon="-84.898192"><ele>223.4</ele><time>2026-08-05T21:45:47Z</time></trkpt>
<trkpt lat="35.198143" lon="-84.898163"><ele>223.1</ele><time>2026-08-05T21:45:49Z</time></trkpt>
<trkpt lat="35.198131" lon="-84.898132"><ele>223.1</ele><time>2026-08-05T21:45:51Z</time></trkpt>
<trkpt lat="35.198118" lon="-84.898087"><ele>221.9</ele><time>2026-08-05T21:45:54Z</time></trkpt>
<trkpt lat="35.198108" lon="-84.898038"><ele>221.9</ele><time>2026-08-05T21:45:57Z</time></trkpt>
<trkpt lat="35.198103" lon="-84.898004"><ele>222.2</ele><time>2026-08-05T21:45:59Z</time></trkpt>
<trkpt lat="35.198093" lon="-84.897972"><ele>221.9</ele><time>2026-08-05T21:46:01Z</time></trkpt>
<trkpt lat="35.198083" lon="-84.89794"><ele>222.5</ele><time>2026-08-05T21:46:03Z</time></trkpt>
<trkpt lat="35.198073" lon="-84.897908"><ele>222.5</ele><time>2026-08-05T21:46:05Z</time></trkpt>
<trkpt lat="35.198063" lon="-84.897877"><ele>222.5</ele><time>2026-08-05T21:46:07Z</time></trkpt>
<trkpt lat="35.198049" lon="-84.897845"><ele>222.5</ele><time>2026-08-05T21:46:09Z</time></trkpt>
<trkpt lat="35.198036" lon="-84.897813"><ele>222.2</ele><time>2026-08-05T21:46:11Z</time></trkpt>
<trkpt lat="35.198025" lon="-84.897781"><ele>222.2</ele><time>2026-08-05T21:46:13Z</time></trkpt>
<trkpt lat="35.198008" lon="-84.897752"><ele>221.0</ele><time>2026-08-05T21:46:15Z</time></trkpt>
<trkpt lat="35.197993" lon="-84.897722"><ele>221.0</ele><time>2026-08-05T21:46:17Z</time></trkpt>
<trkpt lat="35.197982" lon="-84.897687"><ele>221.6</ele><time>2026-08-05T21:46:19Z</time></trkpt>
<trkpt lat="35.197966" lon="-84.897642"><ele>221.3</ele><time>2026-08-05T21:46:22Z</time></trkpt>
<trkpt lat="35.197959" lon="-84.897609"><ele>221.9</ele><time>2026-08-05T21:46:24Z</time></trkpt>
<trkpt lat="35.197951" lon="-84.897576"><ele>222.2</ele><time>2026-08-05T21:46:26Z</time></trkpt>
<trkpt lat="35.197939" lon="-84.897543"><ele>222.2</ele><time>2026-08-05T21:46:28Z</time></trkpt>
<trkpt lat="35.19793" lon="-84.897511"><ele>222.2</ele><time>2026-08-05T21:46:30Z</time></trkpt>
<trkpt lat="35.197917" lon="-84.897478"><ele>222.8</ele><time>2026-08-05T21:46:32Z</time></trkpt>
<trkpt lat="35.197909" lon="-84.897444"><ele>222.5</ele><time>2026-08-05T21:46:34Z</time></trkpt>
<trkpt lat="35.197894" lon="-84.897412"><ele>222.5</ele><time>2026-08-05T21:46:36Z</time></trkpt>
<trkpt lat="35.197863" lon="-84.897399"><ele>221.0</ele><time>2026-08-05T21:46:38Z</time></trkpt>
<trkpt lat="35.197826" lon="-84.897404"><ele>220.1</ele><time>2026-08-05T21:46:40Z</time></trkpt>
<trkpt lat="35.197792" lon="-84.897414"><ele>219.8</ele><time>2026-08-05T21:46:42Z</time></trkpt>
<trkpt lat="35.197759" lon="-84.897421"><ele>220.1</ele><time>2026-08-05T21:46:44Z</time></trkpt>
<trkpt lat="35.197727" lon="-84.897431"><ele>219.5</ele><time>2026-08-05T21:46:46Z</time></trkpt>
<trkpt lat="35.197697" lon="-84.897443"><ele>219.8</ele><time>2026-08-05T21:46:48Z</time></trkpt>
<trkpt lat="35.197667" lon="-84.897457"><ele>220.7</ele><time>2026-08-05T21:46:50Z</time></trkpt>
<trkpt lat="35.197639" lon="-84.897475"><ele>221.0</ele><time>2026-08-05T21:46:52Z</time></trkpt>
<trkpt lat="35.197609" lon="-84.897489"><ele>221.0</ele><time>2026-08-05T21:46:54Z</time></trkpt>
<trkpt lat="35.197581" lon="-84.897507"><ele>222.2</ele><time>2026-08-05T21:46:56Z</time></trkpt>
<trkpt lat="35.197554" lon="-84.897524"><ele>221.6</ele><time>2026-08-05T21:46:58Z</time></trkpt>
<trkpt lat="35.197529" lon="-84.897539"><ele>221.6</ele><time>2026-08-05T21:47:00Z</time></trkpt>
<trkpt lat="35.197504" lon="-84.897557"><ele>220.7</ele><time>2026-08-05T21:47:02Z</time></trkpt>
<trkpt lat="35.197476" lon="-84.897568"><ele>220.4</ele><time>2026-08-05T21:47:04Z</time></trkpt>
<trkpt lat="35.19745" lon="-84.897583"><ele>220.1</ele><time>2026-08-05T21:47:06Z</time></trkpt>
<trkpt lat="35.197411" lon="-84.897585"><ele>219.8</ele><time>2026-08-05T21:47:09Z</time></trkpt>
<trkpt lat="35.197374" lon="-84.897563"><ele>219.2</ele><time>2026-08-05T21:47:12Z</time></trkpt>
<trkpt lat="35.197349" lon="-84.897528"><ele>216.7</ele><time>2026-08-05T21:47:15Z</time></trkpt>
<trkpt lat="35.197312" lon="-84.897515"><ele>217.0</ele><time>2026-08-05T21:47:18Z</time></trkpt>
<trkpt lat="35.197285" lon="-84.897537"><ele>216.4</ele><time>2026-08-05T21:47:20Z</time></trkpt>
<trkpt lat="35.197247" lon="-84.897555"><ele>216.4</ele><time>2026-08-05T21:47:23Z</time></trkpt>
<trkpt lat="35.197224" lon="-84.897533"><ele>217.0</ele><time>2026-08-05T21:47:25Z</time></trkpt>
<trkpt lat="35.197194" lon="-84.897497"><ele>218.2</ele><time>2026-08-05T21:47:28Z</time></trkpt>
<trkpt lat="35.197163" lon="-84.897466"><ele>217.6</ele><time>2026-08-05T21:47:31Z</time></trkpt>
<trkpt lat="35.197144" lon="-84.897442"><ele>217.6</ele><time>2026-08-05T21:47:33Z</time></trkpt>
<trkpt lat="35.197124" lon="-84.897417"><ele>216.7</ele><time>2026-08-05T21:47:35Z</time></trkpt>
<trkpt lat="35.197104" lon="-84.897387"><ele>216.4</ele><time>2026-08-05T21:47:37Z</time></trkpt>
<trkpt lat="35.197081" lon="-84.897359"><ele>217.0</ele><time>2026-08-05T21:47:39Z</time></trkpt>
<trkpt lat="35.197062" lon="-84.897334"><ele>216.7</ele><time>2026-08-05T21:47:41Z</time></trkpt>
<trkpt lat="35.197049" lon="-84.897301"><ele>217.6</ele><time>2026-08-05T21:47:43Z</time></trkpt>
<trkpt lat="35.197036" lon="-84.897272"><ele>217.3</ele><time>2026-08-05T21:47:45Z</time></trkpt>
<trkpt lat="35.197026" lon="-84.897229"><ele>217.3</ele><time>2026-08-05T21:47:48Z</time></trkpt>
<trkpt lat="35.197048" lon="-84.897193"><ele>216.4</ele><time>2026-08-05T21:47:51Z</time></trkpt>
<trkpt lat="35.197077" lon="-84.897157"><ele>216.7</ele><time>2026-08-05T21:47:54Z</time></trkpt>
<trkpt lat="35.197095" lon="-84.897131"><ele>216.4</ele><time>2026-08-05T21:47:56Z</time></trkpt>
<trkpt lat="35.197116" lon="-84.897107"><ele>216.4</ele><time>2026-08-05T21:47:58Z</time></trkpt>
<trkpt lat="35.197138" lon="-84.897082"><ele>216.4</ele><time>2026-08-05T21:48:00Z</time></trkpt>
<trkpt lat="35.197159" lon="-84.897054"><ele>216.4</ele><time>2026-08-05T21:48:02Z</time></trkpt>
<trkpt lat="35.197182" lon="-84.897027"><ele>216.7</ele><time>2026-08-05T21:48:04Z</time></trkpt>
<trkpt lat="35.197199" lon="-84.896996"><ele>216.4</ele><time>2026-08-05T21:48:06Z</time></trkpt>
<trkpt lat="35.197216" lon="-84.896966"><ele>216.7</ele><time>2026-08-05T21:48:08Z</time></trkpt>
<trkpt lat="35.197228" lon="-84.89693"><ele>216.7</ele><time>2026-08-05T21:48:10Z</time></trkpt>
<trkpt lat="35.197227" lon="-84.896891"><ele>216.7</ele><time>2026-08-05T21:48:12Z</time></trkpt>
<trkpt lat="35.197262" lon="-84.896857"><ele>216.7</ele><time>2026-08-05T21:48:15Z</time></trkpt>
<trkpt lat="35.197286" lon="-84.89683"><ele>216.7</ele><time>2026-08-05T21:48:17Z</time></trkpt>
<trkpt lat="35.197297" lon="-84.896797"><ele>216.7</ele><time>2026-08-05T21:48:19Z</time></trkpt>
<trkpt lat="35.197269" lon="-84.89677"><ele>217.3</ele><time>2026-08-05T21:48:21Z</time></trkpt>
<trkpt lat="35.197247" lon="-84.896759"><ele>219.2</ele><time>2026-08-05T21:48:23Z</time></trkpt>
<trkpt lat="35.19725" lon="-84.896745"><ele>219.5</ele><time>2026-08-05T21:48:24Z</time></trkpt>
<trkpt lat="35.197254" lon="-84.896737"><ele>220.4</ele><time>2026-08-05T21:48:31Z</time></trkpt>
<trkpt lat="35.197253" lon="-84.896736"><ele>220.1</ele><time>2026-08-05T21:48:32Z</time></trkpt>
<trkpt lat="35.197254" lon="-84.896735"><ele>220.1</ele><time>2026-08-05T21:48:33Z</time></trkpt>
<trkpt lat="35.197254" lon="-84.896735"><ele>220.1</ele><time>2026-08-05T21:48:34Z</time></trkpt>
<trkpt lat="35.197254" lon="-84.896738"><ele>220.1</ele><time>2026-08-05T21:48:35Z</time></trkpt>
<trkpt lat="35.197256" lon="-84.896744"><ele>220.1</ele><time>2026-08-05T21:48:36Z</time></trkpt>
<trkpt lat="35.197258" lon="-84.896749"><ele>220.4</ele><time>2026-08-05T21:48:37Z</time></trkpt>
</trkseg></trk></gpx>